<?xml version="1.0" encoding="UTF-8" standalone="no" ?>
<gpx xmlns="http://www.topografix.com/GPX/1/1" xmlns:xsi="http://www.w3.org/2001/XMLSchema-instance" xsi:schemaLocation="http://www.topografix.com/GPX/1/1 http://www.topografix.com/GPX/1/1/gpx.xsd" version="1.1" creator="VisuGPX - https://www.visugpx.com">
  <metadata>
    <name>Tour d'Europe: étape 813</name>
    <desc><![CDATA[Étape 813]]></desc>
  </metadata>
  <trk>
    <name><![CDATA[Tour d'Europe: étape 813]]></name>
    <trkseg>
      <trkpt lat="46.55823" lon="15.64484">
        <ele>334.051596</ele>
        <time>2022-09-19T08:06:29.226Z</time>
      </trkpt>
      <trkpt lat="46.55804" lon="15.64469">
        <ele>334.051596</ele>
        <time>2022-09-19T08:15:55.153Z</time>
      </trkpt>
      <trkpt lat="46.55792" lon="15.64471">
        <ele>334.051596</ele>
        <time>2022-09-19T08:16:00.168Z</time>
      </trkpt>
      <trkpt lat="46.55782" lon="15.64472">
        <ele>334.051596</ele>
        <time>2022-09-19T08:16:04.192Z</time>
      </trkpt>
      <trkpt lat="46.55772" lon="15.64473">
        <ele>334.051596</ele>
        <time>2022-09-19T08:16:08.179Z</time>
      </trkpt>
      <trkpt lat="46.55766" lon="15.64485">
        <ele>334.051596</ele>
        <time>2022-09-19T08:16:10.196Z</time>
      </trkpt>
      <trkpt lat="46.55759" lon="15.64498">
        <ele>334.051596</ele>
        <time>2022-09-19T08:16:13.159Z</time>
      </trkpt>
      <trkpt lat="46.55753" lon="15.64512">
        <ele>334.051596</ele>
        <time>2022-09-19T08:16:17.184Z</time>
      </trkpt>
      <trkpt lat="46.55747" lon="15.64523">
        <ele>333.530318</ele>
        <time>2022-09-19T08:16:20.233Z</time>
      </trkpt>
      <trkpt lat="46.55741" lon="15.64538">
        <ele>332.419949</ele>
        <time>2022-09-19T08:16:24.166Z</time>
      </trkpt>
      <trkpt lat="46.55738" lon="15.64551">
        <ele>331.512236</ele>
        <time>2022-09-19T08:16:27.205Z</time>
      </trkpt>
      <trkpt lat="46.55736" lon="15.64566">
        <ele>330.525621</ele>
        <time>2022-09-19T08:16:31.196Z</time>
      </trkpt>
      <trkpt lat="46.55731" lon="15.64579">
        <ele>329.614134</ele>
        <time>2022-09-19T08:16:36.184Z</time>
      </trkpt>
      <trkpt lat="46.55724" lon="15.64591">
        <ele>328.541527</ele>
        <time>2022-09-19T08:16:41.173Z</time>
      </trkpt>
      <trkpt lat="46.55723" lon="15.64609">
        <ele>327.429494</ele>
        <time>2022-09-19T08:16:45.244Z</time>
      </trkpt>
      <trkpt lat="46.55729" lon="15.64625">
        <ele>326.205458</ele>
        <time>2022-09-19T08:16:48.172Z</time>
      </trkpt>
      <trkpt lat="46.55733" lon="15.64637">
        <ele>325.343561</ele>
        <time>2022-09-19T08:16:50.148Z</time>
      </trkpt>
      <trkpt lat="46.55737" lon="15.64656">
        <ele>324.106688</ele>
        <time>2022-09-19T08:16:53.172Z</time>
      </trkpt>
      <trkpt lat="46.55739" lon="15.64673">
        <ele>322.997858</ele>
        <time>2022-09-19T08:16:56.191Z</time>
      </trkpt>
      <trkpt lat="46.55742" lon="15.64689">
        <ele>321.910763</ele>
        <time>2022-09-19T08:16:59.146Z</time>
      </trkpt>
      <trkpt lat="46.55745" lon="15.64706">
        <ele>320.810179</ele>
        <time>2022-09-19T08:17:02.173Z</time>
      </trkpt>
      <trkpt lat="46.55748" lon="15.64722">
        <ele>319.764086</ele>
        <time>2022-09-19T08:17:05.185Z</time>
      </trkpt>
      <trkpt lat="46.5575" lon="15.64738">
        <ele>318.673953</ele>
        <time>2022-09-19T08:17:08.164Z</time>
      </trkpt>
      <trkpt lat="46.55752" lon="15.64752">
        <ele>317.766593</ele>
        <time>2022-09-19T08:17:11.210Z</time>
      </trkpt>
      <trkpt lat="46.55751" lon="15.64766">
        <ele>317.451945</ele>
        <time>2022-09-19T08:17:14.176Z</time>
      </trkpt>
      <trkpt lat="46.55755" lon="15.64785">
        <ele>318.098245</ele>
        <time>2022-09-19T08:17:17.177Z</time>
      </trkpt>
      <trkpt lat="46.5576" lon="15.64799">
        <ele>318.57818</ele>
        <time>2022-09-19T08:17:19.160Z</time>
      </trkpt>
      <trkpt lat="46.5576" lon="15.64818">
        <ele>319.177183</ele>
        <time>2022-09-19T08:17:22.223Z</time>
      </trkpt>
      <trkpt lat="46.55761" lon="15.64832">
        <ele>319.603525</ele>
        <time>2022-09-19T08:17:24.175Z</time>
      </trkpt>
      <trkpt lat="46.55761" lon="15.64847">
        <ele>320.086268</ele>
        <time>2022-09-19T08:17:26.187Z</time>
      </trkpt>
      <trkpt lat="46.5576" lon="15.64863">
        <ele>320.579173</ele>
        <time>2022-09-19T08:17:28.171Z</time>
      </trkpt>
      <trkpt lat="46.55758" lon="15.64878">
        <ele>321.046744</ele>
        <time>2022-09-19T08:17:30.175Z</time>
      </trkpt>
      <trkpt lat="46.55756" lon="15.6489">
        <ele>321.458426</ele>
        <time>2022-09-19T08:17:32.159Z</time>
      </trkpt>
      <trkpt lat="46.55763" lon="15.64899">
        <ele>321.903701</ele>
        <time>2022-09-19T08:17:36.189Z</time>
      </trkpt>
      <trkpt lat="46.55773" lon="15.64897">
        <ele>322.383258</ele>
        <time>2022-09-19T08:17:40.200Z</time>
      </trkpt>
      <trkpt lat="46.55783" lon="15.64893">
        <ele>322.85289</ele>
        <time>2022-09-19T08:17:44.179Z</time>
      </trkpt>
      <trkpt lat="46.55794" lon="15.64896">
        <ele>323.32552</ele>
        <time>2022-09-19T08:17:48.165Z</time>
      </trkpt>
      <trkpt lat="46.55802" lon="15.64903">
        <ele>323.767708</ele>
        <time>2022-09-19T08:17:51.165Z</time>
      </trkpt>
      <trkpt lat="46.55805" lon="15.64918">
        <ele>324.229044</ele>
        <time>2022-09-19T08:17:54.161Z</time>
      </trkpt>
      <trkpt lat="46.55802" lon="15.64934">
        <ele>324.761733</ele>
        <time>2022-09-19T08:17:57.168Z</time>
      </trkpt>
      <trkpt lat="46.55797" lon="15.64947">
        <ele>325.252773</ele>
        <time>2022-09-19T08:18:01.167Z</time>
      </trkpt>
      <trkpt lat="46.55794" lon="15.64963">
        <ele>325.684547</ele>
        <time>2022-09-19T08:18:04.184Z</time>
      </trkpt>
      <trkpt lat="46.5579" lon="15.64976">
        <ele>326.045888</ele>
        <time>2022-09-19T08:18:07.195Z</time>
      </trkpt>
      <trkpt lat="46.55789" lon="15.64992">
        <ele>326.422504</ele>
        <time>2022-09-19T08:18:10.166Z</time>
      </trkpt>
      <trkpt lat="46.55792" lon="15.65004">
        <ele>326.751871</ele>
        <time>2022-09-19T08:18:12.182Z</time>
      </trkpt>
      <trkpt lat="46.55795" lon="15.65017">
        <ele>327.090303</ele>
        <time>2022-09-19T08:18:14.168Z</time>
      </trkpt>
      <trkpt lat="46.55798" lon="15.6503">
        <ele>327.41166</ele>
        <time>2022-09-19T08:18:16.169Z</time>
      </trkpt>
      <trkpt lat="46.55799" lon="15.65047">
        <ele>327.82148</ele>
        <time>2022-09-19T08:18:19.161Z</time>
      </trkpt>
      <trkpt lat="46.55799" lon="15.65062">
        <ele>328.192858</ele>
        <time>2022-09-19T08:18:22.184Z</time>
      </trkpt>
      <trkpt lat="46.55795" lon="15.65075">
        <ele>328.561951</ele>
        <time>2022-09-19T08:18:25.164Z</time>
      </trkpt>
      <trkpt lat="46.55787" lon="15.65085">
        <ele>328.936242</ele>
        <time>2022-09-19T08:18:28.189Z</time>
      </trkpt>
      <trkpt lat="46.55785" lon="15.651">
        <ele>329.295115</ele>
        <time>2022-09-19T08:18:31.172Z</time>
      </trkpt>
      <trkpt lat="46.55789" lon="15.65114">
        <ele>329.668212</ele>
        <time>2022-09-19T08:18:33.152Z</time>
      </trkpt>
      <trkpt lat="46.55798" lon="15.65125">
        <ele>330.09133</ele>
        <time>2022-09-19T08:18:35.194Z</time>
      </trkpt>
      <trkpt lat="46.55808" lon="15.65127">
        <ele>330.429966</ele>
        <time>2022-09-19T08:18:37.187Z</time>
      </trkpt>
      <trkpt lat="46.55818" lon="15.65122">
        <ele>330.822949</ele>
        <time>2022-09-19T08:18:40.158Z</time>
      </trkpt>
      <trkpt lat="46.55829" lon="15.65119">
        <ele>331.197122</ele>
        <time>2022-09-19T08:18:43.169Z</time>
      </trkpt>
      <trkpt lat="46.55839" lon="15.65119">
        <ele>331.57728</ele>
        <time>2022-09-19T08:18:46.190Z</time>
      </trkpt>
      <trkpt lat="46.55851" lon="15.6512">
        <ele>331.858473</ele>
        <time>2022-09-19T08:18:49.172Z</time>
      </trkpt>
      <trkpt lat="46.55863" lon="15.6512">
        <ele>331.886375</ele>
        <time>2022-09-19T08:18:52.161Z</time>
      </trkpt>
      <trkpt lat="46.55876" lon="15.65121">
        <ele>331.916407</ele>
        <time>2022-09-19T08:18:55.183Z</time>
      </trkpt>
      <trkpt lat="46.55886" lon="15.65122">
        <ele>331.937428</ele>
        <time>2022-09-19T08:18:57.197Z</time>
      </trkpt>
      <trkpt lat="46.55895" lon="15.65124">
        <ele>331.959175</ele>
        <time>2022-09-19T08:18:59.167Z</time>
      </trkpt>
      <trkpt lat="46.55904" lon="15.65124">
        <ele>331.979966</ele>
        <time>2022-09-19T08:19:01.158Z</time>
      </trkpt>
      <trkpt lat="46.55917" lon="15.65126">
        <ele>332.010552</ele>
        <time>2022-09-19T08:19:04.182Z</time>
      </trkpt>
      <trkpt lat="46.55929" lon="15.65128">
        <ele>332.038999</ele>
        <time>2022-09-19T08:19:07.171Z</time>
      </trkpt>
      <trkpt lat="46.55941" lon="15.65131">
        <ele>332.065819</ele>
        <time>2022-09-19T08:19:10.186Z</time>
      </trkpt>
      <trkpt lat="46.55952" lon="15.65134">
        <ele>332.092138</ele>
        <time>2022-09-19T08:19:13.163Z</time>
      </trkpt>
      <trkpt lat="46.55963" lon="15.65136">
        <ele>332.117649</ele>
        <time>2022-09-19T08:19:16.181Z</time>
      </trkpt>
      <trkpt lat="46.55974" lon="15.65137">
        <ele>332.142854</ele>
        <time>2022-09-19T08:19:20.200Z</time>
      </trkpt>
      <trkpt lat="46.55984" lon="15.65139">
        <ele>332.165504</ele>
        <time>2022-09-19T08:19:24.205Z</time>
      </trkpt>
      <trkpt lat="46.55993" lon="15.65142">
        <ele>332.187425</ele>
        <time>2022-09-19T08:19:28.210Z</time>
      </trkpt>
      <trkpt lat="46.56003" lon="15.65151">
        <ele>332.214009</ele>
        <time>2022-09-19T08:19:32.170Z</time>
      </trkpt>
      <trkpt lat="46.56011" lon="15.6516">
        <ele>332.238894</ele>
        <time>2022-09-19T08:19:36.182Z</time>
      </trkpt>
      <trkpt lat="46.5602" lon="15.65168">
        <ele>332.262365</ele>
        <time>2022-09-19T08:19:40.157Z</time>
      </trkpt>
      <trkpt lat="46.56023" lon="15.6518">
        <ele>331.761264</ele>
        <time>2022-09-19T08:19:43.179Z</time>
      </trkpt>
      <trkpt lat="46.56025" lon="15.65196">
        <ele>331.15641</ele>
        <time>2022-09-19T08:19:46.181Z</time>
      </trkpt>
      <trkpt lat="46.56028" lon="15.65211">
        <ele>330.548443</ele>
        <time>2022-09-19T08:19:49.155Z</time>
      </trkpt>
      <trkpt lat="46.56031" lon="15.65225">
        <ele>329.947787</ele>
        <time>2022-09-19T08:19:52.134Z</time>
      </trkpt>
      <trkpt lat="46.56036" lon="15.65242">
        <ele>329.258177</ele>
        <time>2022-09-19T08:19:55.182Z</time>
      </trkpt>
      <trkpt lat="46.56038" lon="15.65259">
        <ele>328.572528</ele>
        <time>2022-09-19T08:19:58.169Z</time>
      </trkpt>
      <trkpt lat="46.5604" lon="15.65275">
        <ele>327.953422</ele>
        <time>2022-09-19T08:20:01.176Z</time>
      </trkpt>
      <trkpt lat="46.56045" lon="15.6529">
        <ele>327.311095</ele>
        <time>2022-09-19T08:20:04.180Z</time>
      </trkpt>
      <trkpt lat="46.56045" lon="15.65305">
        <ele>326.714234</ele>
        <time>2022-09-19T08:20:07.184Z</time>
      </trkpt>
      <trkpt lat="46.56046" lon="15.65321">
        <ele>326.09804</ele>
        <time>2022-09-19T08:20:10.160Z</time>
      </trkpt>
      <trkpt lat="46.56048" lon="15.65337">
        <ele>325.455621</ele>
        <time>2022-09-19T08:20:13.167Z</time>
      </trkpt>
      <trkpt lat="46.5605" lon="15.65355">
        <ele>324.763077</ele>
        <time>2022-09-19T08:20:16.159Z</time>
      </trkpt>
      <trkpt lat="46.56051" lon="15.65372">
        <ele>324.085535</ele>
        <time>2022-09-19T08:20:19.224Z</time>
      </trkpt>
      <trkpt lat="46.56052" lon="15.65389">
        <ele>323.39914</ele>
        <time>2022-09-19T08:20:22.184Z</time>
      </trkpt>
      <trkpt lat="46.56053" lon="15.65408">
        <ele>322.658997</ele>
        <time>2022-09-19T08:20:25.158Z</time>
      </trkpt>
      <trkpt lat="46.56054" lon="15.65426">
        <ele>322.101977</ele>
        <time>2022-09-19T08:20:28.190Z</time>
      </trkpt>
      <trkpt lat="46.56055" lon="15.65443">
        <ele>322.317584</ele>
        <time>2022-09-19T08:20:31.183Z</time>
      </trkpt>
      <trkpt lat="46.56057" lon="15.65461">
        <ele>322.552428</ele>
        <time>2022-09-19T08:20:34.153Z</time>
      </trkpt>
      <trkpt lat="46.56057" lon="15.65479">
        <ele>322.780953</ele>
        <time>2022-09-19T08:20:37.201Z</time>
      </trkpt>
      <trkpt lat="46.5606" lon="15.65496">
        <ele>323.008249</ele>
        <time>2022-09-19T08:20:40.213Z</time>
      </trkpt>
      <trkpt lat="46.56064" lon="15.65512">
        <ele>323.228746</ele>
        <time>2022-09-19T08:20:43.176Z</time>
      </trkpt>
      <trkpt lat="46.56068" lon="15.65526">
        <ele>323.414048</ele>
        <time>2022-09-19T08:20:47.158Z</time>
      </trkpt>
      <trkpt lat="46.56072" lon="15.65537">
        <ele>323.58263</ele>
        <time>2022-09-19T08:20:50.163Z</time>
      </trkpt>
      <trkpt lat="46.56074" lon="15.65551">
        <ele>323.758758</ele>
        <time>2022-09-19T08:20:53.168Z</time>
      </trkpt>
      <trkpt lat="46.56061" lon="15.65577">
        <ele>324.178657</ele>
        <time>2022-09-19T08:22:30.158Z</time>
      </trkpt>
      <trkpt lat="46.5606" lon="15.65592">
        <ele>324.365175</ele>
        <time>2022-09-19T08:22:33.169Z</time>
      </trkpt>
      <trkpt lat="46.56062" lon="15.65604">
        <ele>324.53282</ele>
        <time>2022-09-19T08:22:38.170Z</time>
      </trkpt>
      <trkpt lat="46.56066" lon="15.65618">
        <ele>324.716308</ele>
        <time>2022-09-19T08:22:44.162Z</time>
      </trkpt>
      <trkpt lat="46.56077" lon="15.65629">
        <ele>324.968582</ele>
        <time>2022-09-19T08:23:47.167Z</time>
      </trkpt>
      <trkpt lat="46.56086" lon="15.65631">
        <ele>325.144437</ele>
        <time>2022-09-19T08:23:52.185Z</time>
      </trkpt>
      <trkpt lat="46.56096" lon="15.65627">
        <ele>325.339812</ele>
        <time>2022-09-19T08:23:57.164Z</time>
      </trkpt>
      <trkpt lat="46.56106" lon="15.65635">
        <ele>325.022566</ele>
        <time>2022-09-19T08:24:01.170Z</time>
      </trkpt>
      <trkpt lat="46.56114" lon="15.65642">
        <ele>324.525845</ele>
        <time>2022-09-19T08:24:04.163Z</time>
      </trkpt>
      <trkpt lat="46.56123" lon="15.65651">
        <ele>323.93331</ele>
        <time>2022-09-19T08:24:08.182Z</time>
      </trkpt>
      <trkpt lat="46.56132" lon="15.65658">
        <ele>323.38117</ele>
        <time>2022-09-19T08:24:12.175Z</time>
      </trkpt>
      <trkpt lat="46.56139" lon="15.65667">
        <ele>322.885258</ele>
        <time>2022-09-19T08:24:15.173Z</time>
      </trkpt>
      <trkpt lat="46.56146" lon="15.65677">
        <ele>322.356512</ele>
        <time>2022-09-19T08:24:17.159Z</time>
      </trkpt>
      <trkpt lat="46.56155" lon="15.65686">
        <ele>321.790658</ele>
        <time>2022-09-19T08:24:19.149Z</time>
      </trkpt>
      <trkpt lat="46.56164" lon="15.65696">
        <ele>321.157583</ele>
        <time>2022-09-19T08:24:22.200Z</time>
      </trkpt>
      <trkpt lat="46.56174" lon="15.65702">
        <ele>320.58973</ele>
        <time>2022-09-19T08:24:25.166Z</time>
      </trkpt>
      <trkpt lat="46.56183" lon="15.65704">
        <ele>320.089212</ele>
        <time>2022-09-19T08:24:28.165Z</time>
      </trkpt>
      <trkpt lat="46.56192" lon="15.6571">
        <ele>319.598992</ele>
        <time>2022-09-19T08:24:31.193Z</time>
      </trkpt>
      <trkpt lat="46.562" lon="15.65718">
        <ele>319.077725</ele>
        <time>2022-09-19T08:24:34.165Z</time>
      </trkpt>
      <trkpt lat="46.56209" lon="15.65724">
        <ele>318.547495</ele>
        <time>2022-09-19T08:24:37.174Z</time>
      </trkpt>
      <trkpt lat="46.56218" lon="15.65731">
        <ele>317.985173</ele>
        <time>2022-09-19T08:24:40.168Z</time>
      </trkpt>
      <trkpt lat="46.56228" lon="15.65738">
        <ele>317.42285</ele>
        <time>2022-09-19T08:24:43.184Z</time>
      </trkpt>
      <trkpt lat="46.56236" lon="15.65745">
        <ele>316.899368</ele>
        <time>2022-09-19T08:24:46.169Z</time>
      </trkpt>
      <trkpt lat="46.56245" lon="15.65751">
        <ele>316.375483</ele>
        <time>2022-09-19T08:24:49.172Z</time>
      </trkpt>
      <trkpt lat="46.56254" lon="15.65757">
        <ele>315.843395</ele>
        <time>2022-09-19T08:24:52.179Z</time>
      </trkpt>
      <trkpt lat="46.56263" lon="15.65763">
        <ele>316.142345</ele>
        <time>2022-09-19T08:24:55.182Z</time>
      </trkpt>
      <trkpt lat="46.56272" lon="15.65769">
        <ele>316.506521</ele>
        <time>2022-09-19T08:24:58.164Z</time>
      </trkpt>
      <trkpt lat="46.5628" lon="15.65776">
        <ele>316.840704</ele>
        <time>2022-09-19T08:25:01.181Z</time>
      </trkpt>
      <trkpt lat="46.5629" lon="15.65785">
        <ele>317.276591</ele>
        <time>2022-09-19T08:25:05.164Z</time>
      </trkpt>
      <trkpt lat="46.56305" lon="15.65799">
        <ele>317.977918</ele>
        <time>2022-09-19T08:25:48.173Z</time>
      </trkpt>
      <trkpt lat="46.56314" lon="15.65805">
        <ele>318.338594</ele>
        <time>2022-09-19T08:25:52.166Z</time>
      </trkpt>
      <trkpt lat="46.56324" lon="15.65811">
        <ele>318.731814</ele>
        <time>2022-09-19T08:25:56.181Z</time>
      </trkpt>
      <trkpt lat="46.56335" lon="15.65817">
        <ele>319.169685</ele>
        <time>2022-09-19T08:26:00.196Z</time>
      </trkpt>
      <trkpt lat="46.56345" lon="15.65821">
        <ele>319.543052</ele>
        <time>2022-09-19T08:26:03.188Z</time>
      </trkpt>
      <trkpt lat="46.56354" lon="15.65826">
        <ele>319.920412</ele>
        <time>2022-09-19T08:26:06.167Z</time>
      </trkpt>
      <trkpt lat="46.56364" lon="15.65831">
        <ele>320.325646</ele>
        <time>2022-09-19T08:26:09.169Z</time>
      </trkpt>
      <trkpt lat="46.56374" lon="15.65837">
        <ele>320.718739</ele>
        <time>2022-09-19T08:26:12.161Z</time>
      </trkpt>
      <trkpt lat="46.56384" lon="15.65843">
        <ele>321.1197</ele>
        <time>2022-09-19T08:26:15.164Z</time>
      </trkpt>
      <trkpt lat="46.56395" lon="15.65848">
        <ele>321.533642</ele>
        <time>2022-09-19T08:26:18.181Z</time>
      </trkpt>
      <trkpt lat="46.56404" lon="15.65854">
        <ele>321.91352</ele>
        <time>2022-09-19T08:26:21.175Z</time>
      </trkpt>
      <trkpt lat="46.56414" lon="15.65857">
        <ele>322.287004</ele>
        <time>2022-09-19T08:26:24.172Z</time>
      </trkpt>
      <trkpt lat="46.56424" lon="15.6586">
        <ele>322.571185</ele>
        <time>2022-09-19T08:26:27.164Z</time>
      </trkpt>
      <trkpt lat="46.56435" lon="15.65867">
        <ele>322.780188</ele>
        <time>2022-09-19T08:26:30.164Z</time>
      </trkpt>
      <trkpt lat="46.56445" lon="15.65875">
        <ele>322.982354</ele>
        <time>2022-09-19T08:26:33.168Z</time>
      </trkpt>
      <trkpt lat="46.56455" lon="15.65881">
        <ele>323.171769</ele>
        <time>2022-09-19T08:26:36.160Z</time>
      </trkpt>
      <trkpt lat="46.56466" lon="15.65887">
        <ele>323.370726</ele>
        <time>2022-09-19T08:26:39.169Z</time>
      </trkpt>
      <trkpt lat="46.56476" lon="15.65894">
        <ele>323.553545</ele>
        <time>2022-09-19T08:26:42.216Z</time>
      </trkpt>
      <trkpt lat="46.56486" lon="15.659">
        <ele>323.744521</ele>
        <time>2022-09-19T08:26:45.167Z</time>
      </trkpt>
      <trkpt lat="46.56496" lon="15.65907">
        <ele>323.92722</ele>
        <time>2022-09-19T08:26:48.185Z</time>
      </trkpt>
      <trkpt lat="46.56506" lon="15.65912">
        <ele>324.10734</ele>
        <time>2022-09-19T08:26:51.164Z</time>
      </trkpt>
      <trkpt lat="46.56516" lon="15.65917">
        <ele>324.297257</ele>
        <time>2022-09-19T08:26:54.206Z</time>
      </trkpt>
      <trkpt lat="46.56527" lon="15.65922">
        <ele>324.491004</ele>
        <time>2022-09-19T08:26:57.174Z</time>
      </trkpt>
      <trkpt lat="46.56538" lon="15.65929">
        <ele>324.682835</ele>
        <time>2022-09-19T08:27:00.196Z</time>
      </trkpt>
      <trkpt lat="46.56548" lon="15.65934">
        <ele>324.873354</ele>
        <time>2022-09-19T08:27:03.161Z</time>
      </trkpt>
      <trkpt lat="46.56558" lon="15.65939">
        <ele>325.06226</ele>
        <time>2022-09-19T08:27:06.170Z</time>
      </trkpt>
      <trkpt lat="46.56569" lon="15.65944">
        <ele>325.245154</ele>
        <time>2022-09-19T08:27:09.179Z</time>
      </trkpt>
      <trkpt lat="46.56578" lon="15.65949">
        <ele>325.420054</ele>
        <time>2022-09-19T08:27:12.196Z</time>
      </trkpt>
      <trkpt lat="46.56587" lon="15.65954">
        <ele>325.5939</ele>
        <time>2022-09-19T08:27:15.174Z</time>
      </trkpt>
      <trkpt lat="46.56597" lon="15.65958">
        <ele>325.992811</ele>
        <time>2022-09-19T08:27:18.160Z</time>
      </trkpt>
      <trkpt lat="46.56606" lon="15.65961">
        <ele>326.369515</ele>
        <time>2022-09-19T08:27:21.184Z</time>
      </trkpt>
      <trkpt lat="46.56618" lon="15.65964">
        <ele>326.829515</ele>
        <time>2022-09-19T08:27:25.163Z</time>
      </trkpt>
      <trkpt lat="46.5663" lon="15.65964">
        <ele>327.285003</ele>
        <time>2022-09-19T08:27:29.201Z</time>
      </trkpt>
      <trkpt lat="46.56641" lon="15.65961">
        <ele>327.750091</ele>
        <time>2022-09-19T08:27:33.173Z</time>
      </trkpt>
      <trkpt lat="46.5665" lon="15.65959">
        <ele>328.111019</ele>
        <time>2022-09-19T08:27:36.196Z</time>
      </trkpt>
      <trkpt lat="46.56659" lon="15.65956">
        <ele>328.469912</ele>
        <time>2022-09-19T08:27:39.171Z</time>
      </trkpt>
      <trkpt lat="46.5667" lon="15.65949">
        <ele>328.921539</ele>
        <time>2022-09-19T08:27:43.155Z</time>
      </trkpt>
      <trkpt lat="46.56678" lon="15.65944">
        <ele>329.280747</ele>
        <time>2022-09-19T08:27:46.181Z</time>
      </trkpt>
      <trkpt lat="46.56687" lon="15.65939">
        <ele>329.645107</ele>
        <time>2022-09-19T08:27:49.162Z</time>
      </trkpt>
      <trkpt lat="46.56698" lon="15.65931">
        <ele>330.114962</ele>
        <time>2022-09-19T08:27:53.168Z</time>
      </trkpt>
      <trkpt lat="46.56706" lon="15.65925">
        <ele>330.478739</ele>
        <time>2022-09-19T08:27:56.173Z</time>
      </trkpt>
      <trkpt lat="46.56713" lon="15.65917">
        <ele>330.845593</ele>
        <time>2022-09-19T08:27:59.164Z</time>
      </trkpt>
      <trkpt lat="46.56721" lon="15.6591">
        <ele>331.200211</ele>
        <time>2022-09-19T08:28:02.192Z</time>
      </trkpt>
      <trkpt lat="46.56729" lon="15.65904">
        <ele>331.559561</ele>
        <time>2022-09-19T08:28:05.163Z</time>
      </trkpt>
      <trkpt lat="46.56737" lon="15.65897">
        <ele>331.932841</ele>
        <time>2022-09-19T08:28:08.160Z</time>
      </trkpt>
      <trkpt lat="46.56746" lon="15.6589">
        <ele>332.335736</ele>
        <time>2022-09-19T08:28:11.178Z</time>
      </trkpt>
      <trkpt lat="46.56755" lon="15.65885">
        <ele>332.619599</ele>
        <time>2022-09-19T08:28:14.222Z</time>
      </trkpt>
      <trkpt lat="46.56764" lon="15.65881">
        <ele>332.506365</ele>
        <time>2022-09-19T08:28:17.162Z</time>
      </trkpt>
      <trkpt lat="46.56774" lon="15.65874">
        <ele>332.371111</ele>
        <time>2022-09-19T08:28:20.169Z</time>
      </trkpt>
      <trkpt lat="46.56784" lon="15.65868">
        <ele>332.234613</ele>
        <time>2022-09-19T08:28:24.179Z</time>
      </trkpt>
      <trkpt lat="46.56793" lon="15.65864">
        <ele>332.121103</ele>
        <time>2022-09-19T08:28:27.161Z</time>
      </trkpt>
      <trkpt lat="46.56802" lon="15.6586">
        <ele>332.000732</ele>
        <time>2022-09-19T08:28:30.170Z</time>
      </trkpt>
      <trkpt lat="46.56811" lon="15.65857">
        <ele>331.887935</ele>
        <time>2022-09-19T08:28:33.154Z</time>
      </trkpt>
      <trkpt lat="46.56822" lon="15.65853">
        <ele>331.749202</ele>
        <time>2022-09-19T08:28:37.166Z</time>
      </trkpt>
      <trkpt lat="46.56833" lon="15.6585">
        <ele>331.607694</ele>
        <time>2022-09-19T08:28:41.182Z</time>
      </trkpt>
      <trkpt lat="46.56842" lon="15.65847">
        <ele>331.495886</ele>
        <time>2022-09-19T08:28:44.192Z</time>
      </trkpt>
      <trkpt lat="46.56851" lon="15.65845">
        <ele>331.375391</ele>
        <time>2022-09-19T08:28:47.181Z</time>
      </trkpt>
      <trkpt lat="46.56861" lon="15.65843">
        <ele>331.255856</ele>
        <time>2022-09-19T08:28:50.170Z</time>
      </trkpt>
      <trkpt lat="46.56871" lon="15.65842">
        <ele>331.129844</ele>
        <time>2022-09-19T08:28:53.163Z</time>
      </trkpt>
      <trkpt lat="46.56881" lon="15.6584">
        <ele>331.002597</ele>
        <time>2022-09-19T08:28:56.180Z</time>
      </trkpt>
      <trkpt lat="46.56891" lon="15.65839">
        <ele>330.878123</ele>
        <time>2022-09-19T08:28:59.200Z</time>
      </trkpt>
      <trkpt lat="46.56901" lon="15.65838">
        <ele>330.755005</ele>
        <time>2022-09-19T08:29:02.197Z</time>
      </trkpt>
      <trkpt lat="46.56911" lon="15.65837">
        <ele>330.624209</ele>
        <time>2022-09-19T08:29:05.176Z</time>
      </trkpt>
      <trkpt lat="46.56922" lon="15.65835">
        <ele>330.49131</ele>
        <time>2022-09-19T08:29:08.161Z</time>
      </trkpt>
      <trkpt lat="46.56933" lon="15.65833">
        <ele>330.366441</ele>
        <time>2022-09-19T08:29:11.188Z</time>
      </trkpt>
      <trkpt lat="46.56945" lon="15.65832">
        <ele>330.268496</ele>
        <time>2022-09-19T08:29:14.170Z</time>
      </trkpt>
      <trkpt lat="46.56956" lon="15.65831">
        <ele>330.17064</ele>
        <time>2022-09-19T08:29:17.183Z</time>
      </trkpt>
      <trkpt lat="46.56967" lon="15.6583">
        <ele>330.067689</ele>
        <time>2022-09-19T08:29:20.175Z</time>
      </trkpt>
      <trkpt lat="46.56978" lon="15.6583">
        <ele>329.970057</ele>
        <time>2022-09-19T08:29:23.155Z</time>
      </trkpt>
      <trkpt lat="46.5699" lon="15.65829">
        <ele>329.869673</ele>
        <time>2022-09-19T08:29:26.182Z</time>
      </trkpt>
      <trkpt lat="46.57001" lon="15.65829">
        <ele>329.770218</ele>
        <time>2022-09-19T08:29:29.164Z</time>
      </trkpt>
      <trkpt lat="46.57012" lon="15.65827">
        <ele>329.670565</ele>
        <time>2022-09-19T08:29:32.251Z</time>
      </trkpt>
      <trkpt lat="46.57024" lon="15.65826">
        <ele>329.568956</ele>
        <time>2022-09-19T08:29:35.173Z</time>
      </trkpt>
      <trkpt lat="46.57035" lon="15.65825">
        <ele>329.472053</ele>
        <time>2022-09-19T08:29:38.193Z</time>
      </trkpt>
      <trkpt lat="46.57046" lon="15.65824">
        <ele>329.376968</ele>
        <time>2022-09-19T08:29:41.168Z</time>
      </trkpt>
      <trkpt lat="46.57055" lon="15.65823">
        <ele>329.292393</ele>
        <time>2022-09-19T08:29:44.162Z</time>
      </trkpt>
      <trkpt lat="46.57066" lon="15.65822">
        <ele>329.195033</ele>
        <time>2022-09-19T08:29:47.174Z</time>
      </trkpt>
      <trkpt lat="46.57077" lon="15.6582">
        <ele>329.099718</ele>
        <time>2022-09-19T08:29:50.199Z</time>
      </trkpt>
      <trkpt lat="46.57088" lon="15.6582">
        <ele>329.007269</ele>
        <time>2022-09-19T08:29:53.160Z</time>
      </trkpt>
      <trkpt lat="46.57098" lon="15.65819">
        <ele>328.919239</ele>
        <time>2022-09-19T08:29:56.169Z</time>
      </trkpt>
      <trkpt lat="46.57108" lon="15.65818">
        <ele>328.830058</ele>
        <time>2022-09-19T08:29:59.157Z</time>
      </trkpt>
      <trkpt lat="46.57118" lon="15.65817">
        <ele>329.158667</ele>
        <time>2022-09-19T08:30:02.205Z</time>
      </trkpt>
      <trkpt lat="46.57128" lon="15.65817">
        <ele>329.506071</ele>
        <time>2022-09-19T08:30:05.157Z</time>
      </trkpt>
      <trkpt lat="46.57138" lon="15.65817">
        <ele>329.863683</ele>
        <time>2022-09-19T08:30:08.174Z</time>
      </trkpt>
      <trkpt lat="46.57149" lon="15.65816">
        <ele>330.236077</ele>
        <time>2022-09-19T08:30:11.169Z</time>
      </trkpt>
      <trkpt lat="46.57161" lon="15.65814">
        <ele>330.647543</ele>
        <time>2022-09-19T08:30:14.183Z</time>
      </trkpt>
      <trkpt lat="46.57172" lon="15.65813">
        <ele>331.061034</ele>
        <time>2022-09-19T08:30:17.169Z</time>
      </trkpt>
      <trkpt lat="46.57184" lon="15.6581">
        <ele>331.454169</ele>
        <time>2022-09-19T08:30:20.175Z</time>
      </trkpt>
      <trkpt lat="46.57195" lon="15.65808">
        <ele>331.858497</ele>
        <time>2022-09-19T08:30:23.194Z</time>
      </trkpt>
      <trkpt lat="46.57206" lon="15.65807">
        <ele>332.23151</ele>
        <time>2022-09-19T08:30:26.180Z</time>
      </trkpt>
      <trkpt lat="46.57217" lon="15.65805">
        <ele>332.625967</ele>
        <time>2022-09-19T08:30:29.177Z</time>
      </trkpt>
      <trkpt lat="46.57228" lon="15.65804">
        <ele>333.019709</ele>
        <time>2022-09-19T08:30:32.188Z</time>
      </trkpt>
      <trkpt lat="46.57239" lon="15.65803">
        <ele>333.394661</ele>
        <time>2022-09-19T08:30:35.177Z</time>
      </trkpt>
      <trkpt lat="46.5725" lon="15.65802">
        <ele>333.780306</ele>
        <time>2022-09-19T08:30:38.156Z</time>
      </trkpt>
      <trkpt lat="46.57261" lon="15.65801">
        <ele>334.156773</ele>
        <time>2022-09-19T08:30:41.159Z</time>
      </trkpt>
      <trkpt lat="46.57271" lon="15.658">
        <ele>334.507319</ele>
        <time>2022-09-19T08:30:44.173Z</time>
      </trkpt>
      <trkpt lat="46.57282" lon="15.658">
        <ele>334.868399</ele>
        <time>2022-09-19T08:30:47.172Z</time>
      </trkpt>
      <trkpt lat="46.57292" lon="15.65801">
        <ele>334.86896</ele>
        <time>2022-09-19T08:30:50.166Z</time>
      </trkpt>
      <trkpt lat="46.57303" lon="15.65801">
        <ele>334.406074</ele>
        <time>2022-09-19T08:30:53.170Z</time>
      </trkpt>
      <trkpt lat="46.57314" lon="15.658">
        <ele>333.971819</ele>
        <time>2022-09-19T08:30:56.149Z</time>
      </trkpt>
      <trkpt lat="46.57325" lon="15.658">
        <ele>333.496615</ele>
        <time>2022-09-19T08:30:59.176Z</time>
      </trkpt>
      <trkpt lat="46.57335" lon="15.65799">
        <ele>333.075154</ele>
        <time>2022-09-19T08:31:02.177Z</time>
      </trkpt>
      <trkpt lat="46.57346" lon="15.65798">
        <ele>332.619301</ele>
        <time>2022-09-19T08:31:05.176Z</time>
      </trkpt>
      <trkpt lat="46.57357" lon="15.65797">
        <ele>332.15575</ele>
        <time>2022-09-19T08:31:08.161Z</time>
      </trkpt>
      <trkpt lat="46.57369" lon="15.65796">
        <ele>331.680157</ele>
        <time>2022-09-19T08:31:11.164Z</time>
      </trkpt>
      <trkpt lat="46.5738" lon="15.65795">
        <ele>331.216774</ele>
        <time>2022-09-19T08:31:14.160Z</time>
      </trkpt>
      <trkpt lat="46.57391" lon="15.65794">
        <ele>330.745067</ele>
        <time>2022-09-19T08:31:17.186Z</time>
      </trkpt>
      <trkpt lat="46.57402" lon="15.65793">
        <ele>330.281516</ele>
        <time>2022-09-19T08:31:20.212Z</time>
      </trkpt>
      <trkpt lat="46.57413" lon="15.65792">
        <ele>329.822125</ele>
        <time>2022-09-19T08:31:23.170Z</time>
      </trkpt>
      <trkpt lat="46.57424" lon="15.65792">
        <ele>329.363404</ele>
        <time>2022-09-19T08:31:26.201Z</time>
      </trkpt>
      <trkpt lat="46.57435" lon="15.65791">
        <ele>328.900172</ele>
        <time>2022-09-19T08:31:29.167Z</time>
      </trkpt>
      <trkpt lat="46.57446" lon="15.6579">
        <ele>328.443815</ele>
        <time>2022-09-19T08:31:32.170Z</time>
      </trkpt>
      <trkpt lat="46.57457" lon="15.65789">
        <ele>327.988394</ele>
        <time>2022-09-19T08:31:35.183Z</time>
      </trkpt>
      <trkpt lat="46.57468" lon="15.65787">
        <ele>327.600487</ele>
        <time>2022-09-19T08:31:38.187Z</time>
      </trkpt>
      <trkpt lat="46.57479" lon="15.65786">
        <ele>327.913719</ele>
        <time>2022-09-19T08:31:41.183Z</time>
      </trkpt>
      <trkpt lat="46.57489" lon="15.65785">
        <ele>328.215514</ele>
        <time>2022-09-19T08:31:44.165Z</time>
      </trkpt>
      <trkpt lat="46.575" lon="15.65784">
        <ele>328.529302</ele>
        <time>2022-09-19T08:31:47.164Z</time>
      </trkpt>
      <trkpt lat="46.57511" lon="15.65782">
        <ele>328.857684</ele>
        <time>2022-09-19T08:31:50.210Z</time>
      </trkpt>
      <trkpt lat="46.57522" lon="15.65781">
        <ele>329.182724</ele>
        <time>2022-09-19T08:31:53.209Z</time>
      </trkpt>
      <trkpt lat="46.57533" lon="15.65781">
        <ele>329.492707</ele>
        <time>2022-09-19T08:31:56.191Z</time>
      </trkpt>
      <trkpt lat="46.57544" lon="15.6578">
        <ele>329.820292</ele>
        <time>2022-09-19T08:31:59.218Z</time>
      </trkpt>
      <trkpt lat="46.57557" lon="15.65779">
        <ele>330.185479</ele>
        <time>2022-09-19T08:32:02.166Z</time>
      </trkpt>
      <trkpt lat="46.57569" lon="15.65778">
        <ele>330.527525</ele>
        <time>2022-09-19T08:32:05.170Z</time>
      </trkpt>
      <trkpt lat="46.5758" lon="15.65777">
        <ele>330.840877</ele>
        <time>2022-09-19T08:32:08.181Z</time>
      </trkpt>
      <trkpt lat="46.5759" lon="15.65775">
        <ele>331.145474</ele>
        <time>2022-09-19T08:32:11.157Z</time>
      </trkpt>
      <trkpt lat="46.57601" lon="15.65774">
        <ele>331.450443</ele>
        <time>2022-09-19T08:32:14.173Z</time>
      </trkpt>
      <trkpt lat="46.57611" lon="15.65773">
        <ele>331.760497</ele>
        <time>2022-09-19T08:32:17.172Z</time>
      </trkpt>
      <trkpt lat="46.57623" lon="15.65774">
        <ele>332.087913</ele>
        <time>2022-09-19T08:32:20.183Z</time>
      </trkpt>
      <trkpt lat="46.57634" lon="15.65775">
        <ele>332.418491</ele>
        <time>2022-09-19T08:32:23.160Z</time>
      </trkpt>
      <trkpt lat="46.57645" lon="15.65776">
        <ele>332.752483</ele>
        <time>2022-09-19T08:32:26.193Z</time>
      </trkpt>
      <trkpt lat="46.57657" lon="15.65777">
        <ele>332.795299</ele>
        <time>2022-09-19T08:32:29.186Z</time>
      </trkpt>
      <trkpt lat="46.57669" lon="15.65779">
        <ele>332.813226</ele>
        <time>2022-09-19T08:32:32.207Z</time>
      </trkpt>
      <trkpt lat="46.57679" lon="15.65781">
        <ele>332.829974</ele>
        <time>2022-09-19T08:32:35.171Z</time>
      </trkpt>
      <trkpt lat="46.5769" lon="15.65783">
        <ele>332.84647</ele>
        <time>2022-09-19T08:32:38.177Z</time>
      </trkpt>
      <trkpt lat="46.57701" lon="15.65785">
        <ele>332.863573</ele>
        <time>2022-09-19T08:32:41.176Z</time>
      </trkpt>
      <trkpt lat="46.57711" lon="15.65788">
        <ele>332.880233</ele>
        <time>2022-09-19T08:32:44.213Z</time>
      </trkpt>
      <trkpt lat="46.57721" lon="15.65791">
        <ele>332.895899</ele>
        <time>2022-09-19T08:32:47.180Z</time>
      </trkpt>
      <trkpt lat="46.57732" lon="15.65795">
        <ele>332.912794</ele>
        <time>2022-09-19T08:32:50.212Z</time>
      </trkpt>
      <trkpt lat="46.57741" lon="15.65799">
        <ele>332.928066</ele>
        <time>2022-09-19T08:32:53.166Z</time>
      </trkpt>
      <trkpt lat="46.57751" lon="15.65805">
        <ele>332.944234</ele>
        <time>2022-09-19T08:32:56.187Z</time>
      </trkpt>
      <trkpt lat="46.5776" lon="15.65811">
        <ele>332.959855</ele>
        <time>2022-09-19T08:32:59.185Z</time>
      </trkpt>
      <trkpt lat="46.57768" lon="15.65818">
        <ele>332.974702</ele>
        <time>2022-09-19T08:33:02.173Z</time>
      </trkpt>
      <trkpt lat="46.57777" lon="15.65824">
        <ele>332.989448</ele>
        <time>2022-09-19T08:33:05.163Z</time>
      </trkpt>
      <trkpt lat="46.57785" lon="15.65831">
        <ele>333.003972</ele>
        <time>2022-09-19T08:33:08.175Z</time>
      </trkpt>
      <trkpt lat="46.57795" lon="15.65841">
        <ele>333.022425</ele>
        <time>2022-09-19T08:33:12.197Z</time>
      </trkpt>
      <trkpt lat="46.57805" lon="15.6585">
        <ele>333.04082</ele>
        <time>2022-09-19T08:33:16.177Z</time>
      </trkpt>
      <trkpt lat="46.57812" lon="15.65857">
        <ele>333.054876</ele>
        <time>2022-09-19T08:33:19.178Z</time>
      </trkpt>
      <trkpt lat="46.57823" lon="15.65866">
        <ele>333.033391</ele>
        <time>2022-09-19T08:33:23.180Z</time>
      </trkpt>
      <trkpt lat="46.57833" lon="15.65875">
        <ele>333.005782</ele>
        <time>2022-09-19T08:33:27.183Z</time>
      </trkpt>
      <trkpt lat="46.57841" lon="15.65881">
        <ele>332.984111</ele>
        <time>2022-09-19T08:33:30.206Z</time>
      </trkpt>
      <trkpt lat="46.57849" lon="15.65888">
        <ele>332.961116</ele>
        <time>2022-09-19T08:33:33.181Z</time>
      </trkpt>
      <trkpt lat="46.57858" lon="15.65894">
        <ele>332.938628</ele>
        <time>2022-09-19T08:33:36.165Z</time>
      </trkpt>
      <trkpt lat="46.57867" lon="15.65899">
        <ele>332.915785</ele>
        <time>2022-09-19T08:33:39.170Z</time>
      </trkpt>
      <trkpt lat="46.57875" lon="15.65905">
        <ele>332.893581</ele>
        <time>2022-09-19T08:33:42.167Z</time>
      </trkpt>
      <trkpt lat="46.57884" lon="15.6591">
        <ele>332.871082</ele>
        <time>2022-09-19T08:33:45.167Z</time>
      </trkpt>
      <trkpt lat="46.57893" lon="15.65916">
        <ele>332.847736</ele>
        <time>2022-09-19T08:33:48.173Z</time>
      </trkpt>
      <trkpt lat="46.57902" lon="15.65922">
        <ele>332.824537</ele>
        <time>2022-09-19T08:33:51.170Z</time>
      </trkpt>
      <trkpt lat="46.5791" lon="15.65929">
        <ele>332.802945</ele>
        <time>2022-09-19T08:33:54.165Z</time>
      </trkpt>
      <trkpt lat="46.57918" lon="15.65936">
        <ele>332.781356</ele>
        <time>2022-09-19T08:33:57.176Z</time>
      </trkpt>
      <trkpt lat="46.57927" lon="15.65945">
        <ele>332.753947</ele>
        <time>2022-09-19T08:34:01.165Z</time>
      </trkpt>
      <trkpt lat="46.57935" lon="15.65952">
        <ele>332.7323</ele>
        <time>2022-09-19T08:34:04.167Z</time>
      </trkpt>
      <trkpt lat="46.57943" lon="15.6596">
        <ele>332.710102</ele>
        <time>2022-09-19T08:34:07.169Z</time>
      </trkpt>
      <trkpt lat="46.57951" lon="15.65972">
        <ele>332.681861</ele>
        <time>2022-09-19T08:34:11.160Z</time>
      </trkpt>
      <trkpt lat="46.57958" lon="15.65982">
        <ele>332.659048</ele>
        <time>2022-09-19T08:34:14.172Z</time>
      </trkpt>
      <trkpt lat="46.57966" lon="15.65992">
        <ele>332.635052</ele>
        <time>2022-09-19T08:34:17.180Z</time>
      </trkpt>
      <trkpt lat="46.57972" lon="15.66004">
        <ele>332.700423</ele>
        <time>2022-09-19T08:34:20.208Z</time>
      </trkpt>
      <trkpt lat="46.57979" lon="15.66016">
        <ele>332.781238</ele>
        <time>2022-09-19T08:34:23.170Z</time>
      </trkpt>
      <trkpt lat="46.57986" lon="15.66029">
        <ele>332.864432</ele>
        <time>2022-09-19T08:34:26.173Z</time>
      </trkpt>
      <trkpt lat="46.57993" lon="15.66042">
        <ele>332.945013</ele>
        <time>2022-09-19T08:34:29.165Z</time>
      </trkpt>
      <trkpt lat="46.58" lon="15.66054">
        <ele>333.026289</ele>
        <time>2022-09-19T08:34:32.193Z</time>
      </trkpt>
      <trkpt lat="46.58007" lon="15.66066">
        <ele>333.105796</ele>
        <time>2022-09-19T08:34:35.179Z</time>
      </trkpt>
      <trkpt lat="46.58014" lon="15.66079">
        <ele>333.186293</ele>
        <time>2022-09-19T08:34:38.174Z</time>
      </trkpt>
      <trkpt lat="46.5802" lon="15.66092">
        <ele>333.267718</ele>
        <time>2022-09-19T08:34:41.193Z</time>
      </trkpt>
      <trkpt lat="46.58026" lon="15.66105">
        <ele>333.348312</ele>
        <time>2022-09-19T08:34:44.179Z</time>
      </trkpt>
      <trkpt lat="46.58034" lon="15.66117">
        <ele>333.428338</ele>
        <time>2022-09-19T08:34:47.178Z</time>
      </trkpt>
      <trkpt lat="46.58041" lon="15.66129">
        <ele>333.506529</ele>
        <time>2022-09-19T08:34:50.181Z</time>
      </trkpt>
      <trkpt lat="46.58047" lon="15.6614">
        <ele>333.581277</ele>
        <time>2022-09-19T08:34:53.194Z</time>
      </trkpt>
      <trkpt lat="46.58054" lon="15.66152">
        <ele>333.658572</ele>
        <time>2022-09-19T08:34:56.181Z</time>
      </trkpt>
      <trkpt lat="46.5806" lon="15.66165">
        <ele>333.737916</ele>
        <time>2022-09-19T08:34:59.182Z</time>
      </trkpt>
      <trkpt lat="46.58065" lon="15.66179">
        <ele>333.816496</ele>
        <time>2022-09-19T08:35:02.187Z</time>
      </trkpt>
      <trkpt lat="46.58071" lon="15.66192">
        <ele>333.896104</ele>
        <time>2022-09-19T08:35:05.187Z</time>
      </trkpt>
      <trkpt lat="46.58076" lon="15.66206">
        <ele>334.04858</ele>
        <time>2022-09-19T08:35:08.185Z</time>
      </trkpt>
      <trkpt lat="46.5808" lon="15.6622">
        <ele>334.382402</ele>
        <time>2022-09-19T08:35:11.179Z</time>
      </trkpt>
      <trkpt lat="46.58085" lon="15.66235">
        <ele>334.719628</ele>
        <time>2022-09-19T08:35:14.179Z</time>
      </trkpt>
      <trkpt lat="46.58089" lon="15.6625">
        <ele>335.056096</ele>
        <time>2022-09-19T08:35:17.224Z</time>
      </trkpt>
      <trkpt lat="46.58093" lon="15.66265">
        <ele>335.392164</ele>
        <time>2022-09-19T08:35:20.177Z</time>
      </trkpt>
      <trkpt lat="46.58097" lon="15.66279">
        <ele>335.72206</ele>
        <time>2022-09-19T08:35:23.189Z</time>
      </trkpt>
      <trkpt lat="46.58101" lon="15.66293">
        <ele>336.048864</ele>
        <time>2022-09-19T08:35:26.166Z</time>
      </trkpt>
      <trkpt lat="46.58105" lon="15.66309">
        <ele>336.396426</ele>
        <time>2022-09-19T08:35:29.175Z</time>
      </trkpt>
      <trkpt lat="46.58109" lon="15.66325">
        <ele>336.750412</ele>
        <time>2022-09-19T08:35:32.166Z</time>
      </trkpt>
      <trkpt lat="46.58113" lon="15.6634">
        <ele>337.090143</ele>
        <time>2022-09-19T08:35:35.187Z</time>
      </trkpt>
      <trkpt lat="46.58117" lon="15.66354">
        <ele>337.420358</ele>
        <time>2022-09-19T08:35:38.172Z</time>
      </trkpt>
      <trkpt lat="46.58121" lon="15.66368">
        <ele>337.73517</ele>
        <time>2022-09-19T08:35:41.172Z</time>
      </trkpt>
      <trkpt lat="46.58125" lon="15.66382">
        <ele>338.05218</ele>
        <time>2022-09-19T08:35:44.179Z</time>
      </trkpt>
      <trkpt lat="46.58129" lon="15.66396">
        <ele>338.385455</ele>
        <time>2022-09-19T08:35:47.172Z</time>
      </trkpt>
      <trkpt lat="46.58135" lon="15.66412">
        <ele>338.745369</ele>
        <time>2022-09-19T08:35:50.198Z</time>
      </trkpt>
      <trkpt lat="46.5814" lon="15.66426">
        <ele>339.096839</ele>
        <time>2022-09-19T08:35:53.183Z</time>
      </trkpt>
      <trkpt lat="46.58145" lon="15.66439">
        <ele>339.405083</ele>
        <time>2022-09-19T08:35:56.171Z</time>
      </trkpt>
      <trkpt lat="46.58151" lon="15.66451">
        <ele>339.701924</ele>
        <time>2022-09-19T08:35:59.174Z</time>
      </trkpt>
      <trkpt lat="46.58157" lon="15.66462">
        <ele>339.990596</ele>
        <time>2022-09-19T08:36:02.178Z</time>
      </trkpt>
      <trkpt lat="46.58162" lon="15.66473">
        <ele>340.270682</ele>
        <time>2022-09-19T08:36:05.184Z</time>
      </trkpt>
      <trkpt lat="46.58167" lon="15.66484">
        <ele>340.539107</ele>
        <time>2022-09-19T08:36:08.163Z</time>
      </trkpt>
      <trkpt lat="46.58174" lon="15.66498">
        <ele>340.881549</ele>
        <time>2022-09-19T08:36:12.209Z</time>
      </trkpt>
      <trkpt lat="46.5818" lon="15.66511">
        <ele>341.217244</ele>
        <time>2022-09-19T08:36:16.193Z</time>
      </trkpt>
      <trkpt lat="46.58186" lon="15.66524">
        <ele>341.52597</ele>
        <time>2022-09-19T08:36:20.178Z</time>
      </trkpt>
      <trkpt lat="46.58192" lon="15.66535">
        <ele>341.816626</ele>
        <time>2022-09-19T08:36:24.189Z</time>
      </trkpt>
      <trkpt lat="46.582" lon="15.66546">
        <ele>342.128135</ele>
        <time>2022-09-19T08:36:28.178Z</time>
      </trkpt>
      <trkpt lat="46.58208" lon="15.66555">
        <ele>342.449842</ele>
        <time>2022-09-19T08:36:32.192Z</time>
      </trkpt>
      <trkpt lat="46.58217" lon="15.66564">
        <ele>342.76577</ele>
        <time>2022-09-19T08:36:36.168Z</time>
      </trkpt>
      <trkpt lat="46.58226" lon="15.6657">
        <ele>343.064191</ele>
        <time>2022-09-19T08:36:40.211Z</time>
      </trkpt>
      <trkpt lat="46.58235" lon="15.66577">
        <ele>343.363559</ele>
        <time>2022-09-19T08:36:44.186Z</time>
      </trkpt>
      <trkpt lat="46.58246" lon="15.66582">
        <ele>343.696413</ele>
        <time>2022-09-19T08:36:49.170Z</time>
      </trkpt>
      <trkpt lat="46.58255" lon="15.66584">
        <ele>343.976685</ele>
        <time>2022-09-19T08:36:53.169Z</time>
      </trkpt>
      <trkpt lat="46.58264" lon="15.66585">
        <ele>344.263629</ele>
        <time>2022-09-19T08:36:57.188Z</time>
      </trkpt>
      <trkpt lat="46.58274" lon="15.66586">
        <ele>344.534907</ele>
        <time>2022-09-19T08:37:01.158Z</time>
      </trkpt>
      <trkpt lat="46.58283" lon="15.66586">
        <ele>344.821294</ele>
        <time>2022-09-19T08:37:05.179Z</time>
      </trkpt>
      <trkpt lat="46.58293" lon="15.66585">
        <ele>345.174569</ele>
        <time>2022-09-19T08:37:09.164Z</time>
      </trkpt>
      <trkpt lat="46.58303" lon="15.66584">
        <ele>345.570162</ele>
        <time>2022-09-19T08:37:14.213Z</time>
      </trkpt>
      <trkpt lat="46.58314" lon="15.66583">
        <ele>345.994189</ele>
        <time>2022-09-19T08:37:19.172Z</time>
      </trkpt>
      <trkpt lat="46.58324" lon="15.66583">
        <ele>346.343195</ele>
        <time>2022-09-19T08:37:23.169Z</time>
      </trkpt>
      <trkpt lat="46.58334" lon="15.66582">
        <ele>346.734822</ele>
        <time>2022-09-19T08:37:28.184Z</time>
      </trkpt>
      <trkpt lat="46.58344" lon="15.66581">
        <ele>347.095745</ele>
        <time>2022-09-19T08:37:32.177Z</time>
      </trkpt>
      <trkpt lat="46.58353" lon="15.66581">
        <ele>347.444818</ele>
        <time>2022-09-19T08:37:36.179Z</time>
      </trkpt>
      <trkpt lat="46.58364" lon="15.66581">
        <ele>347.85772</ele>
        <time>2022-09-19T08:37:41.190Z</time>
      </trkpt>
      <trkpt lat="46.58375" lon="15.66581">
        <ele>348.263213</ele>
        <time>2022-09-19T08:37:46.165Z</time>
      </trkpt>
      <trkpt lat="46.58386" lon="15.66582">
        <ele>348.668542</ele>
        <time>2022-09-19T08:37:51.172Z</time>
      </trkpt>
      <trkpt lat="46.58396" lon="15.66582">
        <ele>349.055118</ele>
        <time>2022-09-19T08:37:56.168Z</time>
      </trkpt>
      <trkpt lat="46.58406" lon="15.66582">
        <ele>349.452845</ele>
        <time>2022-09-19T08:38:01.174Z</time>
      </trkpt>
      <trkpt lat="46.58417" lon="15.66582">
        <ele>349.831815</ele>
        <time>2022-09-19T08:38:06.164Z</time>
      </trkpt>
      <trkpt lat="46.58426" lon="15.66582">
        <ele>350.180888</ele>
        <time>2022-09-19T08:38:11.169Z</time>
      </trkpt>
      <trkpt lat="46.58435" lon="15.66581">
        <ele>350.526835</ele>
        <time>2022-09-19T08:38:16.207Z</time>
      </trkpt>
      <trkpt lat="46.58445" lon="15.66581">
        <ele>350.883408</ele>
        <time>2022-09-19T08:38:21.211Z</time>
      </trkpt>
      <trkpt lat="46.58454" lon="15.66581">
        <ele>351.236231</ele>
        <time>2022-09-19T08:38:26.181Z</time>
      </trkpt>
      <trkpt lat="46.58463" lon="15.66581">
        <ele>351.57896</ele>
        <time>2022-09-19T08:38:31.174Z</time>
      </trkpt>
      <trkpt lat="46.58473" lon="15.66581">
        <ele>351.782165</ele>
        <time>2022-09-19T08:38:36.159Z</time>
      </trkpt>
      <trkpt lat="46.58483" lon="15.66581">
        <ele>351.969024</ele>
        <time>2022-09-19T08:38:41.192Z</time>
      </trkpt>
      <trkpt lat="46.58492" lon="15.66582">
        <ele>352.160173</ele>
        <time>2022-09-19T08:38:46.173Z</time>
      </trkpt>
      <trkpt lat="46.58502" lon="15.66582">
        <ele>352.361246</ele>
        <time>2022-09-19T08:38:51.169Z</time>
      </trkpt>
      <trkpt lat="46.58511" lon="15.66581">
        <ele>352.556387</ele>
        <time>2022-09-19T08:38:56.161Z</time>
      </trkpt>
      <trkpt lat="46.58522" lon="15.66581">
        <ele>352.767636</ele>
        <time>2022-09-19T08:39:01.172Z</time>
      </trkpt>
      <trkpt lat="46.58532" lon="15.6658">
        <ele>352.969387</ele>
        <time>2022-09-19T08:39:06.179Z</time>
      </trkpt>
      <trkpt lat="46.58541" lon="15.66577">
        <ele>353.163203</ele>
        <time>2022-09-19T08:39:11.219Z</time>
      </trkpt>
      <trkpt lat="46.58551" lon="15.66574">
        <ele>353.368133</ele>
        <time>2022-09-19T08:39:16.164Z</time>
      </trkpt>
      <trkpt lat="46.58561" lon="15.66568">
        <ele>353.587575</ele>
        <time>2022-09-19T08:39:21.166Z</time>
      </trkpt>
      <trkpt lat="46.58569" lon="15.66562">
        <ele>353.770302</ele>
        <time>2022-09-19T08:39:25.177Z</time>
      </trkpt>
      <trkpt lat="46.58578" lon="15.66554">
        <ele>353.988681</ele>
        <time>2022-09-19T08:39:30.171Z</time>
      </trkpt>
      <trkpt lat="46.58587" lon="15.66546">
        <ele>354.199681</ele>
        <time>2022-09-19T08:39:35.186Z</time>
      </trkpt>
      <trkpt lat="46.58596" lon="15.66537">
        <ele>354.41317</ele>
        <time>2022-09-19T08:39:40.170Z</time>
      </trkpt>
      <trkpt lat="46.58604" lon="15.66526">
        <ele>354.640575</ele>
        <time>2022-09-19T08:39:45.161Z</time>
      </trkpt>
      <trkpt lat="46.58611" lon="15.66514">
        <ele>354.860253</ele>
        <time>2022-09-19T08:39:50.201Z</time>
      </trkpt>
      <trkpt lat="46.58618" lon="15.66502">
        <ele>355.086209</ele>
        <time>2022-09-19T08:39:55.142Z</time>
      </trkpt>
      <trkpt lat="46.58625" lon="15.66492">
        <ele>355.205542</ele>
        <time>2022-09-19T08:39:59.164Z</time>
      </trkpt>
      <trkpt lat="46.58632" lon="15.66481">
        <ele>355.155643</ele>
        <time>2022-09-19T08:40:03.171Z</time>
      </trkpt>
      <trkpt lat="46.58639" lon="15.66467">
        <ele>355.100391</ele>
        <time>2022-09-19T08:40:07.167Z</time>
      </trkpt>
      <trkpt lat="46.58645" lon="15.66456">
        <ele>355.053002</ele>
        <time>2022-09-19T08:40:10.180Z</time>
      </trkpt>
      <trkpt lat="46.58652" lon="15.66445">
        <ele>355.001404</ele>
        <time>2022-09-19T08:40:13.171Z</time>
      </trkpt>
      <trkpt lat="46.5866" lon="15.66431">
        <ele>354.942561</ele>
        <time>2022-09-19T08:40:16.175Z</time>
      </trkpt>
      <trkpt lat="46.58668" lon="15.66416">
        <ele>354.882694</ele>
        <time>2022-09-19T08:40:19.181Z</time>
      </trkpt>
      <trkpt lat="46.58674" lon="15.66405">
        <ele>354.834478</ele>
        <time>2022-09-19T08:40:21.163Z</time>
      </trkpt>
      <trkpt lat="46.58681" lon="15.66393">
        <ele>354.780445</ele>
        <time>2022-09-19T08:40:23.228Z</time>
      </trkpt>
      <trkpt lat="46.58688" lon="15.66379">
        <ele>354.724258</ele>
        <time>2022-09-19T08:40:25.180Z</time>
      </trkpt>
      <trkpt lat="46.58695" lon="15.66364">
        <ele>354.662462</ele>
        <time>2022-09-19T08:40:27.189Z</time>
      </trkpt>
      <trkpt lat="46.58703" lon="15.66347">
        <ele>354.596291</ele>
        <time>2022-09-19T08:40:29.160Z</time>
      </trkpt>
      <trkpt lat="46.5871" lon="15.66331">
        <ele>354.532895</ele>
        <time>2022-09-19T08:40:31.180Z</time>
      </trkpt>
      <trkpt lat="46.58718" lon="15.66314">
        <ele>354.46648</ele>
        <time>2022-09-19T08:40:33.173Z</time>
      </trkpt>
      <trkpt lat="46.58727" lon="15.66297">
        <ele>354.395088</ele>
        <time>2022-09-19T08:40:35.180Z</time>
      </trkpt>
      <trkpt lat="46.58738" lon="15.66281">
        <ele>353.98316</ele>
        <time>2022-09-19T08:40:37.170Z</time>
      </trkpt>
      <trkpt lat="46.58752" lon="15.66268">
        <ele>353.15486</ele>
        <time>2022-09-19T08:40:39.180Z</time>
      </trkpt>
      <trkpt lat="46.58769" lon="15.66259">
        <ele>352.29327</ele>
        <time>2022-09-19T08:40:41.202Z</time>
      </trkpt>
      <trkpt lat="46.58786" lon="15.66253">
        <ele>351.402152</ele>
        <time>2022-09-19T08:40:43.178Z</time>
      </trkpt>
      <trkpt lat="46.58796" lon="15.66251">
        <ele>350.944385</ele>
        <time>2022-09-19T08:40:44.177Z</time>
      </trkpt>
      <trkpt lat="46.58805" lon="15.66249">
        <ele>350.485128</ele>
        <time>2022-09-19T08:40:45.227Z</time>
      </trkpt>
      <trkpt lat="46.58814" lon="15.66249">
        <ele>350.022061</ele>
        <time>2022-09-19T08:40:46.166Z</time>
      </trkpt>
      <trkpt lat="46.58824" lon="15.66248">
        <ele>349.550113</ele>
        <time>2022-09-19T08:40:47.177Z</time>
      </trkpt>
      <trkpt lat="46.58834" lon="15.66249">
        <ele>349.077622</ele>
        <time>2022-09-19T08:40:48.180Z</time>
      </trkpt>
      <trkpt lat="46.58843" lon="15.66251">
        <ele>348.606695</ele>
        <time>2022-09-19T08:40:49.189Z</time>
      </trkpt>
      <trkpt lat="46.58853" lon="15.66253">
        <ele>348.123037</ele>
        <time>2022-09-19T08:40:50.161Z</time>
      </trkpt>
      <trkpt lat="46.58862" lon="15.66257">
        <ele>347.637361</ele>
        <time>2022-09-19T08:40:51.166Z</time>
      </trkpt>
      <trkpt lat="46.58872" lon="15.66261">
        <ele>347.148775</ele>
        <time>2022-09-19T08:40:52.173Z</time>
      </trkpt>
      <trkpt lat="46.58881" lon="15.66267">
        <ele>346.647325</ele>
        <time>2022-09-19T08:40:53.218Z</time>
      </trkpt>
      <trkpt lat="46.5889" lon="15.66275">
        <ele>346.135819</ele>
        <time>2022-09-19T08:40:54.182Z</time>
      </trkpt>
      <trkpt lat="46.58899" lon="15.66283">
        <ele>345.62444</ele>
        <time>2022-09-19T08:40:55.184Z</time>
      </trkpt>
      <trkpt lat="46.58907" lon="15.66293">
        <ele>344.807013</ele>
        <time>2022-09-19T08:40:56.170Z</time>
      </trkpt>
      <trkpt lat="46.58915" lon="15.66303">
        <ele>343.909874</ele>
        <time>2022-09-19T08:40:57.173Z</time>
      </trkpt>
      <trkpt lat="46.58923" lon="15.66314">
        <ele>343.000988</ele>
        <time>2022-09-19T08:40:58.186Z</time>
      </trkpt>
      <trkpt lat="46.58931" lon="15.66325">
        <ele>342.078096</ele>
        <time>2022-09-19T08:40:59.213Z</time>
      </trkpt>
      <trkpt lat="46.58939" lon="15.66336">
        <ele>341.191394</ele>
        <time>2022-09-19T08:41:00.178Z</time>
      </trkpt>
      <trkpt lat="46.58946" lon="15.66346">
        <ele>340.328764</ele>
        <time>2022-09-19T08:41:01.154Z</time>
      </trkpt>
      <trkpt lat="46.58954" lon="15.66356">
        <ele>339.497499</ele>
        <time>2022-09-19T08:41:02.157Z</time>
      </trkpt>
      <trkpt lat="46.58961" lon="15.66364">
        <ele>338.714085</ele>
        <time>2022-09-19T08:41:03.178Z</time>
      </trkpt>
      <trkpt lat="46.58969" lon="15.66371">
        <ele>337.933337</ele>
        <time>2022-09-19T08:41:04.170Z</time>
      </trkpt>
      <trkpt lat="46.58977" lon="15.66378">
        <ele>337.130863</ele>
        <time>2022-09-19T08:41:05.180Z</time>
      </trkpt>
      <trkpt lat="46.58986" lon="15.66383">
        <ele>336.332289</ele>
        <time>2022-09-19T08:41:06.184Z</time>
      </trkpt>
      <trkpt lat="46.58995" lon="15.66387">
        <ele>335.531804</ele>
        <time>2022-09-19T08:41:07.168Z</time>
      </trkpt>
      <trkpt lat="46.59004" lon="15.6639">
        <ele>334.748149</ele>
        <time>2022-09-19T08:41:08.188Z</time>
      </trkpt>
      <trkpt lat="46.59014" lon="15.66393">
        <ele>333.934246</ele>
        <time>2022-09-19T08:41:09.206Z</time>
      </trkpt>
      <trkpt lat="46.59024" lon="15.66396">
        <ele>333.086334</ele>
        <time>2022-09-19T08:41:10.277Z</time>
      </trkpt>
      <trkpt lat="46.59034" lon="15.66399">
        <ele>332.238422</ele>
        <time>2022-09-19T08:41:11.197Z</time>
      </trkpt>
      <trkpt lat="46.59043" lon="15.66402">
        <ele>331.411318</ele>
        <time>2022-09-19T08:41:12.193Z</time>
      </trkpt>
      <trkpt lat="46.59052" lon="15.66406">
        <ele>330.622091</ele>
        <time>2022-09-19T08:41:13.206Z</time>
      </trkpt>
      <trkpt lat="46.59061" lon="15.6641">
        <ele>330.108093</ele>
        <time>2022-09-19T08:41:14.195Z</time>
      </trkpt>
      <trkpt lat="46.59069" lon="15.66416">
        <ele>329.667502</ele>
        <time>2022-09-19T08:41:15.197Z</time>
      </trkpt>
      <trkpt lat="46.59077" lon="15.66423">
        <ele>329.22369</ele>
        <time>2022-09-19T08:41:16.206Z</time>
      </trkpt>
      <trkpt lat="46.59085" lon="15.66431">
        <ele>328.786913</ele>
        <time>2022-09-19T08:41:17.189Z</time>
      </trkpt>
      <trkpt lat="46.59091" lon="15.66441">
        <ele>328.34924</ele>
        <time>2022-09-19T08:41:18.184Z</time>
      </trkpt>
      <trkpt lat="46.59097" lon="15.66451">
        <ele>327.918809</ele>
        <time>2022-09-19T08:41:19.184Z</time>
      </trkpt>
      <trkpt lat="46.59102" lon="15.66463">
        <ele>327.476067</ele>
        <time>2022-09-19T08:41:20.173Z</time>
      </trkpt>
      <trkpt lat="46.59107" lon="15.66475">
        <ele>327.026511</ele>
        <time>2022-09-19T08:41:21.192Z</time>
      </trkpt>
      <trkpt lat="46.59111" lon="15.66487">
        <ele>326.566127</ele>
        <time>2022-09-19T08:41:22.155Z</time>
      </trkpt>
      <trkpt lat="46.59116" lon="15.66499">
        <ele>326.110905</ele>
        <time>2022-09-19T08:41:23.162Z</time>
      </trkpt>
      <trkpt lat="46.5912" lon="15.66511">
        <ele>325.673306</ele>
        <time>2022-09-19T08:41:24.172Z</time>
      </trkpt>
      <trkpt lat="46.59129" lon="15.66534">
        <ele>324.82777</ele>
        <time>2022-09-19T08:41:26.154Z</time>
      </trkpt>
      <trkpt lat="46.59133" lon="15.66546">
        <ele>324.397407</ele>
        <time>2022-09-19T08:41:27.189Z</time>
      </trkpt>
      <trkpt lat="46.59137" lon="15.66558">
        <ele>323.961226</ele>
        <time>2022-09-19T08:41:28.191Z</time>
      </trkpt>
      <trkpt lat="46.59141" lon="15.66569">
        <ele>323.52938</ele>
        <time>2022-09-19T08:41:29.160Z</time>
      </trkpt>
      <trkpt lat="46.59146" lon="15.66581">
        <ele>323.091451</ele>
        <time>2022-09-19T08:41:30.161Z</time>
      </trkpt>
      <trkpt lat="46.59151" lon="15.66592">
        <ele>322.651518</ele>
        <time>2022-09-19T08:41:31.168Z</time>
      </trkpt>
      <trkpt lat="46.59157" lon="15.66603">
        <ele>322.215582</ele>
        <time>2022-09-19T08:41:32.160Z</time>
      </trkpt>
      <trkpt lat="46.5917" lon="15.6662">
        <ele>321.535609</ele>
        <time>2022-09-19T08:41:34.164Z</time>
      </trkpt>
      <trkpt lat="46.59183" lon="15.66632">
        <ele>321.002762</ele>
        <time>2022-09-19T08:41:36.171Z</time>
      </trkpt>
      <trkpt lat="46.59196" lon="15.6664">
        <ele>320.530324</ele>
        <time>2022-09-19T08:41:38.173Z</time>
      </trkpt>
      <trkpt lat="46.59208" lon="15.66645">
        <ele>320.097527</ele>
        <time>2022-09-19T08:41:40.175Z</time>
      </trkpt>
      <trkpt lat="46.5922" lon="15.66647">
        <ele>319.696346</ele>
        <time>2022-09-19T08:41:42.178Z</time>
      </trkpt>
      <trkpt lat="46.5923" lon="15.66648">
        <ele>319.36394</ele>
        <time>2022-09-19T08:41:44.171Z</time>
      </trkpt>
      <trkpt lat="46.59243" lon="15.66649">
        <ele>318.933617</ele>
        <time>2022-09-19T08:41:47.181Z</time>
      </trkpt>
      <trkpt lat="46.59254" lon="15.66651">
        <ele>318.531812</ele>
        <time>2022-09-19T08:41:50.160Z</time>
      </trkpt>
      <trkpt lat="46.59265" lon="15.66652">
        <ele>318.185598</ele>
        <time>2022-09-19T08:41:53.164Z</time>
      </trkpt>
      <trkpt lat="46.59274" lon="15.66655">
        <ele>317.85687</ele>
        <time>2022-09-19T08:41:56.230Z</time>
      </trkpt>
      <trkpt lat="46.59285" lon="15.66659">
        <ele>317.480317</ele>
        <time>2022-09-19T08:42:02.177Z</time>
      </trkpt>
      <trkpt lat="46.59296" lon="15.66654">
        <ele>317.066693</ele>
        <time>2022-09-19T08:42:06.163Z</time>
      </trkpt>
      <trkpt lat="46.593" lon="15.66638">
        <ele>316.672655</ele>
        <time>2022-09-19T08:42:09.176Z</time>
      </trkpt>
      <trkpt lat="46.59297" lon="15.66623">
        <ele>316.307144</ele>
        <time>2022-09-19T08:42:13.164Z</time>
      </trkpt>
      <trkpt lat="46.59305" lon="15.66617">
        <ele>316.002442</ele>
        <time>2022-09-19T08:42:17.163Z</time>
      </trkpt>
      <trkpt lat="46.59314" lon="15.66611">
        <ele>316.002268</ele>
        <time>2022-09-19T08:42:20.183Z</time>
      </trkpt>
      <trkpt lat="46.59322" lon="15.66603">
        <ele>316.414263</ele>
        <time>2022-09-19T08:42:25.184Z</time>
      </trkpt>
      <trkpt lat="46.59332" lon="15.66596">
        <ele>316.882918</ele>
        <time>2022-09-19T08:42:30.176Z</time>
      </trkpt>
      <trkpt lat="46.59342" lon="15.66594">
        <ele>317.307021</ele>
        <time>2022-09-19T08:42:35.174Z</time>
      </trkpt>
      <trkpt lat="46.59352" lon="15.66591">
        <ele>317.712498</ele>
        <time>2022-09-19T08:42:41.186Z</time>
      </trkpt>
      <trkpt lat="46.59361" lon="15.66591">
        <ele>318.110466</ele>
        <time>2022-09-19T08:42:48.159Z</time>
      </trkpt>
      <trkpt lat="46.59371" lon="15.66591">
        <ele>318.52527</ele>
        <time>2022-09-19T08:42:54.181Z</time>
      </trkpt>
      <trkpt lat="46.59381" lon="15.66593">
        <ele>318.937497</ele>
        <time>2022-09-19T08:43:00.190Z</time>
      </trkpt>
      <trkpt lat="46.59391" lon="15.66595">
        <ele>319.372791</ele>
        <time>2022-09-19T08:43:06.173Z</time>
      </trkpt>
      <trkpt lat="46.59401" lon="15.66597">
        <ele>319.79322</ele>
        <time>2022-09-19T08:43:11.180Z</time>
      </trkpt>
      <trkpt lat="46.59411" lon="15.66602">
        <ele>320.234322</ele>
        <time>2022-09-19T08:43:16.174Z</time>
      </trkpt>
      <trkpt lat="46.59421" lon="15.66609">
        <ele>320.712988</ele>
        <time>2022-09-19T08:43:20.163Z</time>
      </trkpt>
      <trkpt lat="46.59431" lon="15.66617">
        <ele>321.164852</ele>
        <time>2022-09-19T08:43:23.183Z</time>
      </trkpt>
      <trkpt lat="46.59442" lon="15.66622">
        <ele>321.64709</ele>
        <time>2022-09-19T08:43:26.168Z</time>
      </trkpt>
      <trkpt lat="46.59454" lon="15.66625">
        <ele>322.158269</ele>
        <time>2022-09-19T08:43:29.183Z</time>
      </trkpt>
      <trkpt lat="46.59463" lon="15.66624">
        <ele>322.553088</ele>
        <time>2022-09-19T08:43:32.159Z</time>
      </trkpt>
      <trkpt lat="46.59472" lon="15.66622">
        <ele>322.939514</ele>
        <time>2022-09-19T08:43:36.168Z</time>
      </trkpt>
      <trkpt lat="46.59483" lon="15.66624">
        <ele>323.340679</ele>
        <time>2022-09-19T08:43:42.189Z</time>
      </trkpt>
      <trkpt lat="46.59493" lon="15.6663">
        <ele>323.08405</ele>
        <time>2022-09-19T08:43:48.169Z</time>
      </trkpt>
      <trkpt lat="46.59501" lon="15.66636">
        <ele>322.861384</ele>
        <time>2022-09-19T08:43:52.174Z</time>
      </trkpt>
      <trkpt lat="46.59509" lon="15.66642">
        <ele>322.651422</ele>
        <time>2022-09-19T08:43:57.170Z</time>
      </trkpt>
      <trkpt lat="46.59501" lon="15.6665">
        <ele>322.417771</ele>
        <time>2022-09-19T08:44:02.166Z</time>
      </trkpt>
      <trkpt lat="46.59492" lon="15.66656">
        <ele>322.179443</ele>
        <time>2022-09-19T08:44:06.175Z</time>
      </trkpt>
      <trkpt lat="46.59483" lon="15.66663">
        <ele>321.934813</ele>
        <time>2022-09-19T08:44:10.171Z</time>
      </trkpt>
      <trkpt lat="46.59473" lon="15.66673">
        <ele>321.654448</ele>
        <time>2022-09-19T08:44:14.172Z</time>
      </trkpt>
      <trkpt lat="46.59464" lon="15.66681">
        <ele>321.405436</ele>
        <time>2022-09-19T08:44:17.168Z</time>
      </trkpt>
      <trkpt lat="46.59455" lon="15.66692">
        <ele>321.129912</ele>
        <time>2022-09-19T08:44:20.178Z</time>
      </trkpt>
      <trkpt lat="46.59446" lon="15.66706">
        <ele>320.82279</ele>
        <time>2022-09-19T08:44:23.192Z</time>
      </trkpt>
      <trkpt lat="46.59442" lon="15.66718">
        <ele>320.605402</ele>
        <time>2022-09-19T08:44:25.185Z</time>
      </trkpt>
      <trkpt lat="46.59439" lon="15.66732">
        <ele>320.362896</ele>
        <time>2022-09-19T08:44:27.178Z</time>
      </trkpt>
      <trkpt lat="46.59437" lon="15.66747">
        <ele>320.119855</ele>
        <time>2022-09-19T08:44:29.164Z</time>
      </trkpt>
      <trkpt lat="46.59436" lon="15.66761">
        <ele>319.89469</ele>
        <time>2022-09-19T08:44:31.171Z</time>
      </trkpt>
      <trkpt lat="46.59438" lon="15.66775">
        <ele>319.667497</ele>
        <time>2022-09-19T08:44:33.171Z</time>
      </trkpt>
      <trkpt lat="46.59443" lon="15.66788">
        <ele>319.432524</ele>
        <time>2022-09-19T08:44:35.175Z</time>
      </trkpt>
      <trkpt lat="46.5945" lon="15.66799">
        <ele>319.180547</ele>
        <time>2022-09-19T08:44:37.189Z</time>
      </trkpt>
      <trkpt lat="46.59458" lon="15.66807">
        <ele>318.662995</ele>
        <time>2022-09-19T08:44:39.197Z</time>
      </trkpt>
      <trkpt lat="46.59468" lon="15.66818">
        <ele>317.87913</ele>
        <time>2022-09-19T08:44:42.167Z</time>
      </trkpt>
      <trkpt lat="46.59476" lon="15.66827">
        <ele>317.253862</ele>
        <time>2022-09-19T08:44:45.163Z</time>
      </trkpt>
      <trkpt lat="46.59486" lon="15.66837">
        <ele>316.519503</ele>
        <time>2022-09-19T08:44:49.198Z</time>
      </trkpt>
      <trkpt lat="46.59494" lon="15.66845">
        <ele>315.961357</ele>
        <time>2022-09-19T08:44:52.159Z</time>
      </trkpt>
      <trkpt lat="46.59501" lon="15.66852">
        <ele>315.405405</ele>
        <time>2022-09-19T08:44:55.166Z</time>
      </trkpt>
      <trkpt lat="46.59509" lon="15.66859">
        <ele>314.843857</ele>
        <time>2022-09-19T08:44:58.168Z</time>
      </trkpt>
      <trkpt lat="46.59516" lon="15.66868">
        <ele>314.265444</ele>
        <time>2022-09-19T08:45:01.179Z</time>
      </trkpt>
      <trkpt lat="46.59526" lon="15.66876">
        <ele>313.58776</ele>
        <time>2022-09-19T08:45:04.177Z</time>
      </trkpt>
      <trkpt lat="46.59536" lon="15.66885">
        <ele>312.854948</ele>
        <time>2022-09-19T08:45:07.184Z</time>
      </trkpt>
      <trkpt lat="46.59546" lon="15.66893">
        <ele>312.142276</ele>
        <time>2022-09-19T08:45:10.177Z</time>
      </trkpt>
      <trkpt lat="46.59554" lon="15.66903">
        <ele>311.504687</ele>
        <time>2022-09-19T08:45:13.172Z</time>
      </trkpt>
      <trkpt lat="46.59559" lon="15.66914">
        <ele>310.940575</ele>
        <time>2022-09-19T08:45:16.172Z</time>
      </trkpt>
      <trkpt lat="46.59557" lon="15.6693">
        <ele>310.270383</ele>
        <time>2022-09-19T08:45:19.183Z</time>
      </trkpt>
      <trkpt lat="46.59552" lon="15.66943">
        <ele>309.634922</ele>
        <time>2022-09-19T08:45:21.177Z</time>
      </trkpt>
      <trkpt lat="46.59544" lon="15.66954">
        <ele>308.95824</ele>
        <time>2022-09-19T08:45:23.157Z</time>
      </trkpt>
      <trkpt lat="46.59537" lon="15.66963">
        <ele>308.394161</ele>
        <time>2022-09-19T08:45:25.170Z</time>
      </trkpt>
      <trkpt lat="46.59541" lon="15.66978">
        <ele>307.606923</ele>
        <time>2022-09-19T08:45:28.181Z</time>
      </trkpt>
      <trkpt lat="46.5955" lon="15.66986">
        <ele>306.903189</ele>
        <time>2022-09-19T08:45:31.167Z</time>
      </trkpt>
      <trkpt lat="46.59559" lon="15.66994">
        <ele>306.1521</ele>
        <time>2022-09-19T08:45:35.201Z</time>
      </trkpt>
      <trkpt lat="46.59567" lon="15.67003">
        <ele>305.466989</ele>
        <time>2022-09-19T08:45:38.188Z</time>
      </trkpt>
      <trkpt lat="46.59576" lon="15.67013">
        <ele>304.622752</ele>
        <time>2022-09-19T08:45:41.158Z</time>
      </trkpt>
      <trkpt lat="46.59585" lon="15.67024">
        <ele>303.808646</ele>
        <time>2022-09-19T08:45:44.154Z</time>
      </trkpt>
      <trkpt lat="46.5959" lon="15.67039">
        <ele>303.001765</ele>
        <time>2022-09-19T08:45:48.165Z</time>
      </trkpt>
      <trkpt lat="46.59599" lon="15.67051">
        <ele>302.164651</ele>
        <time>2022-09-19T08:45:51.174Z</time>
      </trkpt>
      <trkpt lat="46.59608" lon="15.67061">
        <ele>301.337295</ele>
        <time>2022-09-19T08:45:54.179Z</time>
      </trkpt>
      <trkpt lat="46.59616" lon="15.6707">
        <ele>300.621337</ele>
        <time>2022-09-19T08:45:57.158Z</time>
      </trkpt>
      <trkpt lat="46.59623" lon="15.6708">
        <ele>299.946149</ele>
        <time>2022-09-19T08:46:00.158Z</time>
      </trkpt>
      <trkpt lat="46.59629" lon="15.6709">
        <ele>299.265811</ele>
        <time>2022-09-19T08:46:03.198Z</time>
      </trkpt>
      <trkpt lat="46.59637" lon="15.67101">
        <ele>298.531681</ele>
        <time>2022-09-19T08:46:06.201Z</time>
      </trkpt>
      <trkpt lat="46.59645" lon="15.67109">
        <ele>297.821504</ele>
        <time>2022-09-19T08:46:09.170Z</time>
      </trkpt>
      <trkpt lat="46.59653" lon="15.67121">
        <ele>297.02487</ele>
        <time>2022-09-19T08:46:12.170Z</time>
      </trkpt>
      <trkpt lat="46.59658" lon="15.67132">
        <ele>296.361703</ele>
        <time>2022-09-19T08:46:15.205Z</time>
      </trkpt>
      <trkpt lat="46.59665" lon="15.67145">
        <ele>295.605725</ele>
        <time>2022-09-19T08:46:19.174Z</time>
      </trkpt>
      <trkpt lat="46.59672" lon="15.67155">
        <ele>295.463503</ele>
        <time>2022-09-19T08:46:23.190Z</time>
      </trkpt>
      <trkpt lat="46.59679" lon="15.67165">
        <ele>295.533262</ele>
        <time>2022-09-19T08:46:26.216Z</time>
      </trkpt>
      <trkpt lat="46.59684" lon="15.67177">
        <ele>295.604753</ele>
        <time>2022-09-19T08:46:32.206Z</time>
      </trkpt>
      <trkpt lat="46.59691" lon="15.67184">
        <ele>295.673598</ele>
        <time>2022-09-19T08:46:36.158Z</time>
      </trkpt>
      <trkpt lat="46.59701" lon="15.67179">
        <ele>295.750904</ele>
        <time>2022-09-19T08:46:40.204Z</time>
      </trkpt>
      <trkpt lat="46.5971" lon="15.67169">
        <ele>295.832538</ele>
        <time>2022-09-19T08:46:43.162Z</time>
      </trkpt>
      <trkpt lat="46.59718" lon="15.67164">
        <ele>295.898945</ele>
        <time>2022-09-19T08:46:46.221Z</time>
      </trkpt>
      <trkpt lat="46.59727" lon="15.67165">
        <ele>295.968581</ele>
        <time>2022-09-19T08:46:49.180Z</time>
      </trkpt>
      <trkpt lat="46.59736" lon="15.67169">
        <ele>296.036433</ele>
        <time>2022-09-19T08:46:52.172Z</time>
      </trkpt>
      <trkpt lat="46.59745" lon="15.67174">
        <ele>296.109389</ele>
        <time>2022-09-19T08:46:55.182Z</time>
      </trkpt>
      <trkpt lat="46.59754" lon="15.67179">
        <ele>296.183985</ele>
        <time>2022-09-19T08:46:58.159Z</time>
      </trkpt>
      <trkpt lat="46.59763" lon="15.67185">
        <ele>296.258313</ele>
        <time>2022-09-19T08:47:01.177Z</time>
      </trkpt>
      <trkpt lat="46.59773" lon="15.67191">
        <ele>296.336975</ele>
        <time>2022-09-19T08:47:04.177Z</time>
      </trkpt>
      <trkpt lat="46.59783" lon="15.67196">
        <ele>296.415424</ele>
        <time>2022-09-19T08:47:07.178Z</time>
      </trkpt>
      <trkpt lat="46.59792" lon="15.672">
        <ele>296.486189</ele>
        <time>2022-09-19T08:47:10.177Z</time>
      </trkpt>
      <trkpt lat="46.59801" lon="15.67205">
        <ele>296.553967</ele>
        <time>2022-09-19T08:47:13.157Z</time>
      </trkpt>
      <trkpt lat="46.59812" lon="15.67211">
        <ele>296.64592</ele>
        <time>2022-09-19T08:47:17.186Z</time>
      </trkpt>
      <trkpt lat="46.59822" lon="15.67217">
        <ele>296.72773</ele>
        <time>2022-09-19T08:47:20.176Z</time>
      </trkpt>
      <trkpt lat="46.59833" lon="15.67223">
        <ele>296.798275</ele>
        <time>2022-09-19T08:47:23.164Z</time>
      </trkpt>
      <trkpt lat="46.59844" lon="15.67229">
        <ele>296.86498</ele>
        <time>2022-09-19T08:47:26.166Z</time>
      </trkpt>
      <trkpt lat="46.59854" lon="15.67236">
        <ele>296.930626</ele>
        <time>2022-09-19T08:47:29.176Z</time>
      </trkpt>
      <trkpt lat="46.59865" lon="15.67244">
        <ele>297.001204</ele>
        <time>2022-09-19T08:47:32.168Z</time>
      </trkpt>
      <trkpt lat="46.59877" lon="15.67253">
        <ele>297.075237</ele>
        <time>2022-09-19T08:47:35.214Z</time>
      </trkpt>
      <trkpt lat="46.59885" lon="15.67259">
        <ele>297.127008</ele>
        <time>2022-09-19T08:47:37.179Z</time>
      </trkpt>
      <trkpt lat="46.59893" lon="15.67265">
        <ele>297.17973</ele>
        <time>2022-09-19T08:47:39.192Z</time>
      </trkpt>
      <trkpt lat="46.59901" lon="15.67273">
        <ele>297.233874</ele>
        <time>2022-09-19T08:47:41.182Z</time>
      </trkpt>
      <trkpt lat="46.59909" lon="15.67281">
        <ele>297.288154</ele>
        <time>2022-09-19T08:47:43.196Z</time>
      </trkpt>
      <trkpt lat="46.59917" lon="15.67288">
        <ele>297.342246</ele>
        <time>2022-09-19T08:47:45.169Z</time>
      </trkpt>
      <trkpt lat="46.59924" lon="15.67296">
        <ele>297.395366</ele>
        <time>2022-09-19T08:47:47.164Z</time>
      </trkpt>
      <trkpt lat="46.59935" lon="15.67308">
        <ele>297.471833</ele>
        <time>2022-09-19T08:47:50.168Z</time>
      </trkpt>
      <trkpt lat="46.59945" lon="15.6732">
        <ele>297.547195</ele>
        <time>2022-09-19T08:47:53.187Z</time>
      </trkpt>
      <trkpt lat="46.59955" lon="15.67331">
        <ele>297.618818</ele>
        <time>2022-09-19T08:47:56.173Z</time>
      </trkpt>
      <trkpt lat="46.59965" lon="15.67344">
        <ele>297.691447</ele>
        <time>2022-09-19T08:47:59.251Z</time>
      </trkpt>
      <trkpt lat="46.59974" lon="15.67356">
        <ele>297.762439</ele>
        <time>2022-09-19T08:48:02.217Z</time>
      </trkpt>
      <trkpt lat="46.59983" lon="15.67368">
        <ele>298.176748</ele>
        <time>2022-09-19T08:48:05.166Z</time>
      </trkpt>
      <trkpt lat="46.59992" lon="15.6738">
        <ele>298.683132</ele>
        <time>2022-09-19T08:48:08.166Z</time>
      </trkpt>
      <trkpt lat="46.6" lon="15.67392">
        <ele>299.174767</ele>
        <time>2022-09-19T08:48:11.191Z</time>
      </trkpt>
      <trkpt lat="46.60009" lon="15.67404">
        <ele>299.648703</ele>
        <time>2022-09-19T08:48:14.168Z</time>
      </trkpt>
      <trkpt lat="46.60016" lon="15.67414">
        <ele>300.074647</ele>
        <time>2022-09-19T08:48:17.172Z</time>
      </trkpt>
      <trkpt lat="46.60024" lon="15.67425">
        <ele>300.493637</ele>
        <time>2022-09-19T08:48:20.170Z</time>
      </trkpt>
      <trkpt lat="46.60032" lon="15.67436">
        <ele>300.963704</ele>
        <time>2022-09-19T08:48:24.177Z</time>
      </trkpt>
      <trkpt lat="46.60038" lon="15.67446">
        <ele>301.348368</ele>
        <time>2022-09-19T08:48:28.182Z</time>
      </trkpt>
      <trkpt lat="46.60047" lon="15.67456">
        <ele>301.807821</ele>
        <time>2022-09-19T08:48:33.170Z</time>
      </trkpt>
      <trkpt lat="46.60057" lon="15.67458">
        <ele>302.20081</ele>
        <time>2022-09-19T08:48:38.160Z</time>
      </trkpt>
      <trkpt lat="46.60066" lon="15.67463">
        <ele>302.621034</ele>
        <time>2022-09-19T08:48:43.172Z</time>
      </trkpt>
      <trkpt lat="46.60074" lon="15.67471">
        <ele>303.004098</ele>
        <time>2022-09-19T08:48:47.199Z</time>
      </trkpt>
      <trkpt lat="46.60082" lon="15.67481">
        <ele>303.437937</ele>
        <time>2022-09-19T08:48:51.208Z</time>
      </trkpt>
      <trkpt lat="46.60089" lon="15.67491">
        <ele>303.835427</ele>
        <time>2022-09-19T08:48:55.176Z</time>
      </trkpt>
      <trkpt lat="46.60097" lon="15.67502">
        <ele>304.294645</ele>
        <time>2022-09-19T08:49:00.192Z</time>
      </trkpt>
      <trkpt lat="46.60102" lon="15.67514">
        <ele>304.672511</ele>
        <time>2022-09-19T08:49:04.167Z</time>
      </trkpt>
      <trkpt lat="46.60106" lon="15.67527">
        <ele>305.067108</ele>
        <time>2022-09-19T08:49:08.179Z</time>
      </trkpt>
      <trkpt lat="46.60115" lon="15.67535">
        <ele>305.301698</ele>
        <time>2022-09-19T08:49:13.212Z</time>
      </trkpt>
      <trkpt lat="46.60124" lon="15.67537">
        <ele>305.467481</ele>
        <time>2022-09-19T08:49:18.163Z</time>
      </trkpt>
      <trkpt lat="46.60127" lon="15.67522">
        <ele>305.650435</ele>
        <time>2022-09-19T08:49:23.182Z</time>
      </trkpt>
      <trkpt lat="46.60129" lon="15.67507">
        <ele>305.831875</ele>
        <time>2022-09-19T08:49:26.179Z</time>
      </trkpt>
      <trkpt lat="46.60134" lon="15.67494">
        <ele>306.007044</ele>
        <time>2022-09-19T08:49:29.183Z</time>
      </trkpt>
      <trkpt lat="46.60138" lon="15.67479">
        <ele>306.197514</ele>
        <time>2022-09-19T08:49:32.178Z</time>
      </trkpt>
      <trkpt lat="46.60138" lon="15.67461">
        <ele>306.411098</ele>
        <time>2022-09-19T08:49:35.167Z</time>
      </trkpt>
      <trkpt lat="46.60137" lon="15.67443">
        <ele>306.628743</ele>
        <time>2022-09-19T08:49:38.165Z</time>
      </trkpt>
      <trkpt lat="46.60135" lon="15.67423">
        <ele>306.863773</ele>
        <time>2022-09-19T08:49:41.177Z</time>
      </trkpt>
      <trkpt lat="46.60133" lon="15.6741">
        <ele>307.021457</ele>
        <time>2022-09-19T08:49:43.166Z</time>
      </trkpt>
      <trkpt lat="46.60131" lon="15.67396">
        <ele>307.190147</ele>
        <time>2022-09-19T08:49:45.184Z</time>
      </trkpt>
      <trkpt lat="46.60129" lon="15.6738">
        <ele>307.376224</ele>
        <time>2022-09-19T08:49:47.170Z</time>
      </trkpt>
      <trkpt lat="46.60126" lon="15.67365">
        <ele>307.563783</ele>
        <time>2022-09-19T08:49:49.179Z</time>
      </trkpt>
      <trkpt lat="46.60124" lon="15.67349">
        <ele>307.749369</ele>
        <time>2022-09-19T08:49:51.189Z</time>
      </trkpt>
      <trkpt lat="46.60122" lon="15.67334">
        <ele>307.936007</ele>
        <time>2022-09-19T08:49:53.162Z</time>
      </trkpt>
      <trkpt lat="46.60121" lon="15.67319">
        <ele>308.118121</ele>
        <time>2022-09-19T08:49:55.160Z</time>
      </trkpt>
      <trkpt lat="46.60121" lon="15.67303">
        <ele>308.36368</ele>
        <time>2022-09-19T08:49:57.159Z</time>
      </trkpt>
      <trkpt lat="46.60121" lon="15.67289">
        <ele>308.75873</ele>
        <time>2022-09-19T08:49:59.162Z</time>
      </trkpt>
      <trkpt lat="46.60123" lon="15.67274">
        <ele>309.150539</ele>
        <time>2022-09-19T08:50:01.176Z</time>
      </trkpt>
      <trkpt lat="46.60124" lon="15.67261">
        <ele>309.505776</ele>
        <time>2022-09-19T08:50:03.177Z</time>
      </trkpt>
      <trkpt lat="46.60126" lon="15.67248">
        <ele>309.85653</ele>
        <time>2022-09-19T08:50:05.175Z</time>
      </trkpt>
      <trkpt lat="46.6013" lon="15.67233">
        <ele>310.277829</ele>
        <time>2022-09-19T08:50:08.173Z</time>
      </trkpt>
      <trkpt lat="46.60134" lon="15.67219">
        <ele>310.691325</ele>
        <time>2022-09-19T08:50:11.161Z</time>
      </trkpt>
      <trkpt lat="46.6014" lon="15.67206">
        <ele>311.092532</ele>
        <time>2022-09-19T08:50:14.168Z</time>
      </trkpt>
      <trkpt lat="46.60145" lon="15.67193">
        <ele>311.508776</ele>
        <time>2022-09-19T08:50:17.171Z</time>
      </trkpt>
      <trkpt lat="46.60147" lon="15.67179">
        <ele>311.879392</ele>
        <time>2022-09-19T08:50:20.232Z</time>
      </trkpt>
      <trkpt lat="46.6015" lon="15.67164">
        <ele>312.28459</ele>
        <time>2022-09-19T08:50:23.180Z</time>
      </trkpt>
      <trkpt lat="46.60154" lon="15.67149">
        <ele>312.721927</ele>
        <time>2022-09-19T08:50:26.165Z</time>
      </trkpt>
      <trkpt lat="46.60158" lon="15.67132">
        <ele>313.203493</ele>
        <time>2022-09-19T08:50:29.161Z</time>
      </trkpt>
      <trkpt lat="46.60163" lon="15.67117">
        <ele>313.662444</ele>
        <time>2022-09-19T08:50:32.173Z</time>
      </trkpt>
      <trkpt lat="46.60169" lon="15.671">
        <ele>314.165815</ele>
        <time>2022-09-19T08:50:35.193Z</time>
      </trkpt>
      <trkpt lat="46.60175" lon="15.67084">
        <ele>314.642533</ele>
        <time>2022-09-19T08:50:38.175Z</time>
      </trkpt>
      <trkpt lat="46.60179" lon="15.67069">
        <ele>315.074564</ele>
        <time>2022-09-19T08:50:41.197Z</time>
      </trkpt>
      <trkpt lat="46.60184" lon="15.67054">
        <ele>315.002025</ele>
        <time>2022-09-19T08:50:44.158Z</time>
      </trkpt>
      <trkpt lat="46.6019" lon="15.6704">
        <ele>314.665777</ele>
        <time>2022-09-19T08:50:47.154Z</time>
      </trkpt>
      <trkpt lat="46.60196" lon="15.67024">
        <ele>314.321049</ele>
        <time>2022-09-19T08:50:50.169Z</time>
      </trkpt>
      <trkpt lat="46.60201" lon="15.67008">
        <ele>313.971175</ele>
        <time>2022-09-19T08:50:53.242Z</time>
      </trkpt>
      <trkpt lat="46.60206" lon="15.66993">
        <ele>313.645179</ele>
        <time>2022-09-19T08:50:56.150Z</time>
      </trkpt>
      <trkpt lat="46.60215" lon="15.66976">
        <ele>313.211196</ele>
        <time>2022-09-19T08:51:00.163Z</time>
      </trkpt>
      <trkpt lat="46.60225" lon="15.66967">
        <ele>312.881238</ele>
        <time>2022-09-19T08:51:03.171Z</time>
      </trkpt>
      <trkpt lat="46.60231" lon="15.66953">
        <ele>312.544534</ele>
        <time>2022-09-19T08:51:06.256Z</time>
      </trkpt>
      <trkpt lat="46.60231" lon="15.66938">
        <ele>312.261803</ele>
        <time>2022-09-19T08:51:08.157Z</time>
      </trkpt>
      <trkpt lat="46.60231" lon="15.66923">
        <ele>311.969221</ele>
        <time>2022-09-19T08:51:10.154Z</time>
      </trkpt>
      <trkpt lat="46.60235" lon="15.66906">
        <ele>311.615655</ele>
        <time>2022-09-19T08:51:13.186Z</time>
      </trkpt>
      <trkpt lat="46.60241" lon="15.6689">
        <ele>311.254861</ele>
        <time>2022-09-19T08:51:16.212Z</time>
      </trkpt>
      <trkpt lat="46.60247" lon="15.66873">
        <ele>310.872946</ele>
        <time>2022-09-19T08:51:19.177Z</time>
      </trkpt>
      <trkpt lat="46.60253" lon="15.66857">
        <ele>310.508938</ele>
        <time>2022-09-19T08:51:22.191Z</time>
      </trkpt>
      <trkpt lat="46.60259" lon="15.66841">
        <ele>310.160684</ele>
        <time>2022-09-19T08:51:25.184Z</time>
      </trkpt>
      <trkpt lat="46.60265" lon="15.66825">
        <ele>309.966938</ele>
        <time>2022-09-19T08:51:28.210Z</time>
      </trkpt>
      <trkpt lat="46.60271" lon="15.6681">
        <ele>309.847833</ele>
        <time>2022-09-19T08:51:31.189Z</time>
      </trkpt>
      <trkpt lat="46.60275" lon="15.66798">
        <ele>309.759528</ele>
        <time>2022-09-19T08:51:33.175Z</time>
      </trkpt>
      <trkpt lat="46.6028" lon="15.6678">
        <ele>309.634262</ele>
        <time>2022-09-19T08:51:36.185Z</time>
      </trkpt>
      <trkpt lat="46.60285" lon="15.66763">
        <ele>309.51544</ele>
        <time>2022-09-19T08:51:39.188Z</time>
      </trkpt>
      <trkpt lat="46.60289" lon="15.66745">
        <ele>309.389759</ele>
        <time>2022-09-19T08:51:42.180Z</time>
      </trkpt>
      <trkpt lat="46.60293" lon="15.66727">
        <ele>309.26783</ele>
        <time>2022-09-19T08:51:45.213Z</time>
      </trkpt>
      <trkpt lat="46.60296" lon="15.6671">
        <ele>309.146687</ele>
        <time>2022-09-19T08:51:48.220Z</time>
      </trkpt>
      <trkpt lat="46.60299" lon="15.66692">
        <ele>309.028506</ele>
        <time>2022-09-19T08:51:51.207Z</time>
      </trkpt>
      <trkpt lat="46.60301" lon="15.66674">
        <ele>308.907076</ele>
        <time>2022-09-19T08:51:54.204Z</time>
      </trkpt>
      <trkpt lat="46.60304" lon="15.66656">
        <ele>308.788467</ele>
        <time>2022-09-19T08:51:57.151Z</time>
      </trkpt>
      <trkpt lat="46.60307" lon="15.66638">
        <ele>308.665776</ele>
        <time>2022-09-19T08:52:00.171Z</time>
      </trkpt>
      <trkpt lat="46.60312" lon="15.66622">
        <ele>308.547925</ele>
        <time>2022-09-19T08:52:03.173Z</time>
      </trkpt>
      <trkpt lat="46.60317" lon="15.66606">
        <ele>308.43362</ele>
        <time>2022-09-19T08:52:06.185Z</time>
      </trkpt>
      <trkpt lat="46.60324" lon="15.66593">
        <ele>308.346482</ele>
        <time>2022-09-19T08:52:09.182Z</time>
      </trkpt>
      <trkpt lat="46.60331" lon="15.66579">
        <ele>308.679645</ele>
        <time>2022-09-19T08:52:12.174Z</time>
      </trkpt>
      <trkpt lat="46.60339" lon="15.66565">
        <ele>309.037502</ele>
        <time>2022-09-19T08:52:15.172Z</time>
      </trkpt>
      <trkpt lat="46.60349" lon="15.66551">
        <ele>309.414376</ele>
        <time>2022-09-19T08:52:18.208Z</time>
      </trkpt>
      <trkpt lat="46.60359" lon="15.6654">
        <ele>309.7741</ele>
        <time>2022-09-19T08:52:21.185Z</time>
      </trkpt>
      <trkpt lat="46.60368" lon="15.66531">
        <ele>310.098762</ele>
        <time>2022-09-19T08:52:24.185Z</time>
      </trkpt>
      <trkpt lat="46.60378" lon="15.66523">
        <ele>310.405759</ele>
        <time>2022-09-19T08:52:27.240Z</time>
      </trkpt>
      <trkpt lat="46.60387" lon="15.66517">
        <ele>310.696061</ele>
        <time>2022-09-19T08:52:30.180Z</time>
      </trkpt>
      <trkpt lat="46.60396" lon="15.66511">
        <ele>310.970034</ele>
        <time>2022-09-19T08:52:33.169Z</time>
      </trkpt>
      <trkpt lat="46.60404" lon="15.66504">
        <ele>311.234502</ele>
        <time>2022-09-19T08:52:36.184Z</time>
      </trkpt>
      <trkpt lat="46.60414" lon="15.66495">
        <ele>311.564091</ele>
        <time>2022-09-19T08:52:40.171Z</time>
      </trkpt>
      <trkpt lat="46.60423" lon="15.66483">
        <ele>311.900689</ele>
        <time>2022-09-19T08:52:44.159Z</time>
      </trkpt>
      <trkpt lat="46.60431" lon="15.66471">
        <ele>312.231222</ele>
        <time>2022-09-19T08:52:48.205Z</time>
      </trkpt>
      <trkpt lat="46.60437" lon="15.66459">
        <ele>312.521286</ele>
        <time>2022-09-19T08:52:52.168Z</time>
      </trkpt>
      <trkpt lat="46.60443" lon="15.66446">
        <ele>312.827247</ele>
        <time>2022-09-19T08:52:57.173Z</time>
      </trkpt>
      <trkpt lat="46.60447" lon="15.66433">
        <ele>313.109358</ele>
        <time>2022-09-19T08:53:02.173Z</time>
      </trkpt>
      <trkpt lat="46.60451" lon="15.6642">
        <ele>313.372051</ele>
        <time>2022-09-19T08:53:07.179Z</time>
      </trkpt>
      <trkpt lat="46.60454" lon="15.66406">
        <ele>313.368158</ele>
        <time>2022-09-19T08:53:13.171Z</time>
      </trkpt>
      <trkpt lat="46.60457" lon="15.66391">
        <ele>313.312893</ele>
        <time>2022-09-19T08:53:19.192Z</time>
      </trkpt>
      <trkpt lat="46.60458" lon="15.66376">
        <ele>313.258284</ele>
        <time>2022-09-19T08:53:25.180Z</time>
      </trkpt>
      <trkpt lat="46.60457" lon="15.66362">
        <ele>313.205026</ele>
        <time>2022-09-19T08:53:31.176Z</time>
      </trkpt>
      <trkpt lat="46.60457" lon="15.66347">
        <ele>313.149571</ele>
        <time>2022-09-19T08:53:37.164Z</time>
      </trkpt>
      <trkpt lat="46.60458" lon="15.66333">
        <ele>313.098553</ele>
        <time>2022-09-19T08:53:43.184Z</time>
      </trkpt>
      <trkpt lat="46.60457" lon="15.66319">
        <ele>313.04559</ele>
        <time>2022-09-19T08:53:49.178Z</time>
      </trkpt>
      <trkpt lat="46.60457" lon="15.66303">
        <ele>312.98865</ele>
        <time>2022-09-19T08:53:55.186Z</time>
      </trkpt>
      <trkpt lat="46.60455" lon="15.66288">
        <ele>312.930341</ele>
        <time>2022-09-19T08:54:01.201Z</time>
      </trkpt>
      <trkpt lat="46.60455" lon="15.66273">
        <ele>312.875902</ele>
        <time>2022-09-19T08:54:06.186Z</time>
      </trkpt>
      <trkpt lat="46.60454" lon="15.66258">
        <ele>312.818718</ele>
        <time>2022-09-19T08:54:11.173Z</time>
      </trkpt>
      <trkpt lat="46.60453" lon="15.66242">
        <ele>312.761696</ele>
        <time>2022-09-19T08:54:15.171Z</time>
      </trkpt>
      <trkpt lat="46.60453" lon="15.66228">
        <ele>312.709199</ele>
        <time>2022-09-19T08:54:18.160Z</time>
      </trkpt>
      <trkpt lat="46.60453" lon="15.6621">
        <ele>312.642991</ele>
        <time>2022-09-19T08:54:21.189Z</time>
      </trkpt>
      <trkpt lat="46.60454" lon="15.66197">
        <ele>312.594456</ele>
        <time>2022-09-19T08:54:23.200Z</time>
      </trkpt>
      <trkpt lat="46.60456" lon="15.66183">
        <ele>312.540036</ele>
        <time>2022-09-19T08:54:25.168Z</time>
      </trkpt>
      <trkpt lat="46.60459" lon="15.66168">
        <ele>312.481266</ele>
        <time>2022-09-19T08:54:27.198Z</time>
      </trkpt>
      <trkpt lat="46.60463" lon="15.66154">
        <ele>312.41689</ele>
        <time>2022-09-19T08:54:29.181Z</time>
      </trkpt>
      <trkpt lat="46.60468" lon="15.66137">
        <ele>312.303872</ele>
        <time>2022-09-19T08:54:32.178Z</time>
      </trkpt>
      <trkpt lat="46.60474" lon="15.66123">
        <ele>312.200442</ele>
        <time>2022-09-19T08:54:35.186Z</time>
      </trkpt>
      <trkpt lat="46.60482" lon="15.66112">
        <ele>312.108223</ele>
        <time>2022-09-19T08:54:38.197Z</time>
      </trkpt>
      <trkpt lat="46.60493" lon="15.66112">
        <ele>312.008996</ele>
        <time>2022-09-19T08:54:41.218Z</time>
      </trkpt>
      <trkpt lat="46.605" lon="15.66122">
        <ele>311.923409</ele>
        <time>2022-09-19T08:54:43.183Z</time>
      </trkpt>
      <trkpt lat="46.60506" lon="15.66133">
        <ele>311.838264</ele>
        <time>2022-09-19T08:54:45.177Z</time>
      </trkpt>
      <trkpt lat="46.60512" lon="15.66146">
        <ele>311.744244</ele>
        <time>2022-09-19T08:54:47.233Z</time>
      </trkpt>
      <trkpt lat="46.60518" lon="15.66161">
        <ele>311.638566</ele>
        <time>2022-09-19T08:54:49.169Z</time>
      </trkpt>
      <trkpt lat="46.60525" lon="15.66177">
        <ele>311.523521</ele>
        <time>2022-09-19T08:54:51.213Z</time>
      </trkpt>
      <trkpt lat="46.60533" lon="15.66195">
        <ele>311.396717</ele>
        <time>2022-09-19T08:54:53.192Z</time>
      </trkpt>
      <trkpt lat="46.60545" lon="15.6621">
        <ele>311.259958</ele>
        <time>2022-09-19T08:54:55.169Z</time>
      </trkpt>
      <trkpt lat="46.60557" lon="15.66223">
        <ele>311.125414</ele>
        <time>2022-09-19T08:54:57.210Z</time>
      </trkpt>
      <trkpt lat="46.6057" lon="15.66232">
        <ele>311.002415</ele>
        <time>2022-09-19T08:54:59.178Z</time>
      </trkpt>
      <trkpt lat="46.60581" lon="15.66235">
        <ele>310.897987</ele>
        <time>2022-09-19T08:55:01.182Z</time>
      </trkpt>
      <trkpt lat="46.60592" lon="15.66236">
        <ele>311.291156</ele>
        <time>2022-09-19T08:55:03.185Z</time>
      </trkpt>
      <trkpt lat="46.60602" lon="15.66236">
        <ele>311.876594</ele>
        <time>2022-09-19T08:55:05.189Z</time>
      </trkpt>
      <trkpt lat="46.60613" lon="15.66236">
        <ele>312.574561</ele>
        <time>2022-09-19T08:55:08.167Z</time>
      </trkpt>
      <trkpt lat="46.60623" lon="15.66235">
        <ele>313.137051</ele>
        <time>2022-09-19T08:55:11.183Z</time>
      </trkpt>
      <trkpt lat="46.60633" lon="15.66235">
        <ele>313.752377</ele>
        <time>2022-09-19T08:55:15.189Z</time>
      </trkpt>
      <trkpt lat="46.60644" lon="15.6623">
        <ele>314.391909</ele>
        <time>2022-09-19T08:55:19.190Z</time>
      </trkpt>
      <trkpt lat="46.60653" lon="15.66225">
        <ele>314.958713</ele>
        <time>2022-09-19T08:55:22.175Z</time>
      </trkpt>
      <trkpt lat="46.60662" lon="15.6622">
        <ele>315.575779</ele>
        <time>2022-09-19T08:55:25.174Z</time>
      </trkpt>
      <trkpt lat="46.60672" lon="15.66215">
        <ele>316.173144</ele>
        <time>2022-09-19T08:55:28.171Z</time>
      </trkpt>
      <trkpt lat="46.60681" lon="15.66208">
        <ele>316.765462</ele>
        <time>2022-09-19T08:55:31.194Z</time>
      </trkpt>
      <trkpt lat="46.60692" lon="15.66204">
        <ele>317.437706</ele>
        <time>2022-09-19T08:55:34.166Z</time>
      </trkpt>
      <trkpt lat="46.607" lon="15.66199">
        <ele>317.992007</ele>
        <time>2022-09-19T08:55:37.183Z</time>
      </trkpt>
      <trkpt lat="46.6071" lon="15.66197">
        <ele>318.571913</ele>
        <time>2022-09-19T08:55:40.190Z</time>
      </trkpt>
      <trkpt lat="46.60721" lon="15.66196">
        <ele>319.194729</ele>
        <time>2022-09-19T08:55:43.174Z</time>
      </trkpt>
      <trkpt lat="46.60731" lon="15.66196">
        <ele>319.803928</ele>
        <time>2022-09-19T08:55:46.188Z</time>
      </trkpt>
      <trkpt lat="46.60741" lon="15.66195">
        <ele>320.373368</ele>
        <time>2022-09-19T08:55:49.183Z</time>
      </trkpt>
      <trkpt lat="46.6075" lon="15.66195">
        <ele>320.9115</ele>
        <time>2022-09-19T08:55:52.170Z</time>
      </trkpt>
      <trkpt lat="46.60759" lon="15.66194">
        <ele>321.479707</ele>
        <time>2022-09-19T08:55:55.179Z</time>
      </trkpt>
      <trkpt lat="46.60769" lon="15.66193">
        <ele>321.292017</ele>
        <time>2022-09-19T08:55:58.183Z</time>
      </trkpt>
      <trkpt lat="46.60778" lon="15.66193">
        <ele>321.074776</ele>
        <time>2022-09-19T08:56:01.182Z</time>
      </trkpt>
      <trkpt lat="46.60787" lon="15.66193">
        <ele>320.857341</ele>
        <time>2022-09-19T08:56:04.173Z</time>
      </trkpt>
      <trkpt lat="46.60796" lon="15.66192">
        <ele>320.642461</ele>
        <time>2022-09-19T08:56:07.181Z</time>
      </trkpt>
      <trkpt lat="46.60808" lon="15.66192">
        <ele>320.356768</ele>
        <time>2022-09-19T08:56:11.186Z</time>
      </trkpt>
      <trkpt lat="46.60818" lon="15.66192">
        <ele>320.123024</ele>
        <time>2022-09-19T08:56:14.169Z</time>
      </trkpt>
      <trkpt lat="46.60828" lon="15.66192">
        <ele>319.886562</ele>
        <time>2022-09-19T08:56:17.169Z</time>
      </trkpt>
      <trkpt lat="46.60839" lon="15.66192">
        <ele>319.640878</ele>
        <time>2022-09-19T08:56:20.172Z</time>
      </trkpt>
      <trkpt lat="46.60849" lon="15.66192">
        <ele>319.397641</ele>
        <time>2022-09-19T08:56:23.171Z</time>
      </trkpt>
      <trkpt lat="46.60861" lon="15.66193">
        <ele>319.113753</ele>
        <time>2022-09-19T08:56:26.195Z</time>
      </trkpt>
      <trkpt lat="46.6087" lon="15.66193">
        <ele>318.896536</ele>
        <time>2022-09-19T08:56:28.188Z</time>
      </trkpt>
      <trkpt lat="46.6088" lon="15.66193">
        <ele>318.672142</ele>
        <time>2022-09-19T08:56:30.165Z</time>
      </trkpt>
      <trkpt lat="46.6089" lon="15.66192">
        <ele>318.431178</ele>
        <time>2022-09-19T08:56:32.172Z</time>
      </trkpt>
      <trkpt lat="46.60901" lon="15.66191">
        <ele>318.178357</ele>
        <time>2022-09-19T08:56:34.196Z</time>
      </trkpt>
      <trkpt lat="46.60912" lon="15.66191">
        <ele>317.91856</ele>
        <time>2022-09-19T08:56:36.161Z</time>
      </trkpt>
      <trkpt lat="46.60922" lon="15.66191">
        <ele>317.66588</ele>
        <time>2022-09-19T08:56:38.187Z</time>
      </trkpt>
      <trkpt lat="46.60932" lon="15.66191">
        <ele>317.441527</ele>
        <time>2022-09-19T08:56:40.172Z</time>
      </trkpt>
      <trkpt lat="46.60944" lon="15.6619">
        <ele>317.181918</ele>
        <time>2022-09-19T08:56:43.232Z</time>
      </trkpt>
      <trkpt lat="46.60955" lon="15.66189">
        <ele>317.000923</ele>
        <time>2022-09-19T08:56:46.180Z</time>
      </trkpt>
      <trkpt lat="46.60966" lon="15.66188">
        <ele>316.83294</ele>
        <time>2022-09-19T08:56:49.169Z</time>
      </trkpt>
      <trkpt lat="46.60975" lon="15.66188">
        <ele>316.679765</ele>
        <time>2022-09-19T08:56:52.180Z</time>
      </trkpt>
      <trkpt lat="46.60987" lon="15.66188">
        <ele>316.487865</ele>
        <time>2022-09-19T08:56:56.169Z</time>
      </trkpt>
      <trkpt lat="46.60998" lon="15.66191">
        <ele>316.308</ele>
        <time>2022-09-19T08:57:00.174Z</time>
      </trkpt>
      <trkpt lat="46.61007" lon="15.66197">
        <ele>316.155642</ele>
        <time>2022-09-19T08:57:04.175Z</time>
      </trkpt>
      <trkpt lat="46.6101" lon="15.6621">
        <ele>316.006356</ele>
        <time>2022-09-19T08:57:09.172Z</time>
      </trkpt>
      <trkpt lat="46.61" lon="15.66207">
        <ele>315.845487</ele>
        <time>2022-09-19T08:57:13.171Z</time>
      </trkpt>
      <trkpt lat="46.6099" lon="15.6621">
        <ele>315.676768</ele>
        <time>2022-09-19T08:57:16.171Z</time>
      </trkpt>
      <trkpt lat="46.60979" lon="15.66214">
        <ele>315.49522</ele>
        <time>2022-09-19T08:57:19.183Z</time>
      </trkpt>
      <trkpt lat="46.60968" lon="15.66215">
        <ele>315.322186</ele>
        <time>2022-09-19T08:57:22.171Z</time>
      </trkpt>
      <trkpt lat="46.60959" lon="15.66216">
        <ele>315.171904</ele>
        <time>2022-09-19T08:57:25.202Z</time>
      </trkpt>
      <trkpt lat="46.60956" lon="15.66201">
        <ele>315.0025</ele>
        <time>2022-09-19T09:01:08.193Z</time>
      </trkpt>
      <trkpt lat="46.60968" lon="15.66203">
        <ele>314.813022</ele>
        <time>2022-09-19T09:01:12.180Z</time>
      </trkpt>
      <trkpt lat="46.60977" lon="15.66205">
        <ele>314.65297</ele>
        <time>2022-09-19T09:01:16.204Z</time>
      </trkpt>
      <trkpt lat="46.60989" lon="15.66208">
        <ele>314.468034</ele>
        <time>2022-09-19T09:01:20.173Z</time>
      </trkpt>
      <trkpt lat="46.60998" lon="15.66212">
        <ele>314.372265</ele>
        <time>2022-09-19T09:01:23.186Z</time>
      </trkpt>
      <trkpt lat="46.6101" lon="15.66212">
        <ele>314.433042</ele>
        <time>2022-09-19T09:01:27.180Z</time>
      </trkpt>
      <trkpt lat="46.61021" lon="15.66212">
        <ele>314.492313</ele>
        <time>2022-09-19T09:01:30.209Z</time>
      </trkpt>
      <trkpt lat="46.61029" lon="15.66218">
        <ele>314.539053</ele>
        <time>2022-09-19T09:01:32.189Z</time>
      </trkpt>
      <trkpt lat="46.61037" lon="15.66225">
        <ele>314.585631</ele>
        <time>2022-09-19T09:01:34.182Z</time>
      </trkpt>
      <trkpt lat="46.61049" lon="15.66232">
        <ele>314.648021</ele>
        <time>2022-09-19T09:01:37.187Z</time>
      </trkpt>
      <trkpt lat="46.61059" lon="15.66237">
        <ele>314.707294</ele>
        <time>2022-09-19T09:01:40.204Z</time>
      </trkpt>
      <trkpt lat="46.6107" lon="15.66243">
        <ele>314.766472</ele>
        <time>2022-09-19T09:01:43.166Z</time>
      </trkpt>
      <trkpt lat="46.61081" lon="15.66246">
        <ele>314.824055</ele>
        <time>2022-09-19T09:01:46.201Z</time>
      </trkpt>
      <trkpt lat="46.61093" lon="15.66246">
        <ele>314.881794</ele>
        <time>2022-09-19T09:01:49.190Z</time>
      </trkpt>
      <trkpt lat="46.61104" lon="15.66244">
        <ele>314.940764</ele>
        <time>2022-09-19T09:01:52.189Z</time>
      </trkpt>
      <trkpt lat="46.61115" lon="15.66242">
        <ele>314.998804</ele>
        <time>2022-09-19T09:01:55.181Z</time>
      </trkpt>
      <trkpt lat="46.61126" lon="15.66238">
        <ele>315.05613</ele>
        <time>2022-09-19T09:01:58.166Z</time>
      </trkpt>
      <trkpt lat="46.61137" lon="15.66234">
        <ele>315.110576</ele>
        <time>2022-09-19T09:02:01.189Z</time>
      </trkpt>
      <trkpt lat="46.61147" lon="15.66229">
        <ele>315.165206</ele>
        <time>2022-09-19T09:02:04.168Z</time>
      </trkpt>
      <trkpt lat="46.61157" lon="15.66226">
        <ele>315.220144</ele>
        <time>2022-09-19T09:02:07.174Z</time>
      </trkpt>
      <trkpt lat="46.61168" lon="15.66223">
        <ele>315.274507</ele>
        <time>2022-09-19T09:02:11.174Z</time>
      </trkpt>
      <trkpt lat="46.61179" lon="15.6622">
        <ele>315.434391</ele>
        <time>2022-09-19T09:02:16.174Z</time>
      </trkpt>
      <trkpt lat="46.6119" lon="15.66218">
        <ele>315.602797</ele>
        <time>2022-09-19T09:02:21.183Z</time>
      </trkpt>
      <trkpt lat="46.61199" lon="15.66216">
        <ele>315.744573</ele>
        <time>2022-09-19T09:02:25.176Z</time>
      </trkpt>
      <trkpt lat="46.61208" lon="15.66214">
        <ele>315.882001</ele>
        <time>2022-09-19T09:02:29.161Z</time>
      </trkpt>
      <trkpt lat="46.61217" lon="15.66211">
        <ele>316.026995</ele>
        <time>2022-09-19T09:02:33.173Z</time>
      </trkpt>
      <trkpt lat="46.61227" lon="15.66209">
        <ele>316.172528</ele>
        <time>2022-09-19T09:02:37.182Z</time>
      </trkpt>
      <trkpt lat="46.61237" lon="15.66206">
        <ele>316.321767</ele>
        <time>2022-09-19T09:02:41.174Z</time>
      </trkpt>
      <trkpt lat="46.61247" lon="15.66202">
        <ele>316.481384</ele>
        <time>2022-09-19T09:02:45.153Z</time>
      </trkpt>
      <trkpt lat="46.61258" lon="15.66198">
        <ele>316.65541</ele>
        <time>2022-09-19T09:02:49.233Z</time>
      </trkpt>
      <trkpt lat="46.6127" lon="15.66194">
        <ele>316.838874</ele>
        <time>2022-09-19T09:02:53.178Z</time>
      </trkpt>
      <trkpt lat="46.61279" lon="15.66192">
        <ele>316.97795</ele>
        <time>2022-09-19T09:02:56.173Z</time>
      </trkpt>
      <trkpt lat="46.6129" lon="15.66188">
        <ele>317.143908</ele>
        <time>2022-09-19T09:03:00.176Z</time>
      </trkpt>
      <trkpt lat="46.613" lon="15.66184">
        <ele>317.299332</ele>
        <time>2022-09-19T09:03:04.177Z</time>
      </trkpt>
      <trkpt lat="46.6131" lon="15.6618">
        <ele>317.463886</ele>
        <time>2022-09-19T09:03:08.177Z</time>
      </trkpt>
      <trkpt lat="46.61321" lon="15.66177">
        <ele>317.626214</ele>
        <time>2022-09-19T09:03:12.187Z</time>
      </trkpt>
      <trkpt lat="46.61332" lon="15.66174">
        <ele>317.800178</ele>
        <time>2022-09-19T09:03:16.169Z</time>
      </trkpt>
      <trkpt lat="46.6134" lon="15.66169">
        <ele>317.936858</ele>
        <time>2022-09-19T09:03:19.197Z</time>
      </trkpt>
      <trkpt lat="46.61349" lon="15.66165">
        <ele>317.893981</ele>
        <time>2022-09-19T09:03:22.212Z</time>
      </trkpt>
      <trkpt lat="46.6136" lon="15.6616">
        <ele>317.679436</ele>
        <time>2022-09-19T09:03:25.182Z</time>
      </trkpt>
      <trkpt lat="46.61372" lon="15.66155">
        <ele>317.446759</ele>
        <time>2022-09-19T09:03:28.192Z</time>
      </trkpt>
      <trkpt lat="46.61385" lon="15.66149">
        <ele>317.19571</ele>
        <time>2022-09-19T09:03:31.173Z</time>
      </trkpt>
      <trkpt lat="46.61394" lon="15.66144">
        <ele>317.007118</ele>
        <time>2022-09-19T09:03:33.218Z</time>
      </trkpt>
      <trkpt lat="46.61403" lon="15.66139">
        <ele>316.833821</ele>
        <time>2022-09-19T09:03:35.172Z</time>
      </trkpt>
      <trkpt lat="46.61412" lon="15.66135">
        <ele>316.657503</ele>
        <time>2022-09-19T09:03:37.177Z</time>
      </trkpt>
      <trkpt lat="46.61421" lon="15.6613">
        <ele>316.473716</ele>
        <time>2022-09-19T09:03:39.169Z</time>
      </trkpt>
      <trkpt lat="46.6143" lon="15.66125">
        <ele>316.303534</ele>
        <time>2022-09-19T09:03:41.198Z</time>
      </trkpt>
      <trkpt lat="46.61442" lon="15.66121">
        <ele>316.065795</ele>
        <time>2022-09-19T09:03:44.211Z</time>
      </trkpt>
      <trkpt lat="46.61453" lon="15.66115">
        <ele>315.850423</ele>
        <time>2022-09-19T09:03:47.193Z</time>
      </trkpt>
      <trkpt lat="46.61464" lon="15.66109">
        <ele>315.636388</ele>
        <time>2022-09-19T09:03:50.182Z</time>
      </trkpt>
      <trkpt lat="46.61475" lon="15.66104">
        <ele>315.419283</ele>
        <time>2022-09-19T09:03:53.182Z</time>
      </trkpt>
      <trkpt lat="46.61486" lon="15.66098">
        <ele>315.189457</ele>
        <time>2022-09-19T09:03:56.183Z</time>
      </trkpt>
      <trkpt lat="46.61499" lon="15.66092">
        <ele>314.95163</ele>
        <time>2022-09-19T09:03:59.168Z</time>
      </trkpt>
      <trkpt lat="46.61511" lon="15.66086">
        <ele>314.707084</ele>
        <time>2022-09-19T09:04:02.186Z</time>
      </trkpt>
      <trkpt lat="46.6152" lon="15.66082">
        <ele>314.689741</ele>
        <time>2022-09-19T09:04:04.171Z</time>
      </trkpt>
      <trkpt lat="46.61529" lon="15.66077">
        <ele>314.783616</ele>
        <time>2022-09-19T09:04:06.175Z</time>
      </trkpt>
      <trkpt lat="46.61539" lon="15.66073">
        <ele>314.876918</ele>
        <time>2022-09-19T09:04:08.181Z</time>
      </trkpt>
      <trkpt lat="46.61548" lon="15.66069">
        <ele>314.965983</ele>
        <time>2022-09-19T09:04:10.178Z</time>
      </trkpt>
      <trkpt lat="46.61561" lon="15.66063">
        <ele>315.089318</ele>
        <time>2022-09-19T09:04:13.175Z</time>
      </trkpt>
      <trkpt lat="46.61572" lon="15.66057">
        <ele>315.203447</ele>
        <time>2022-09-19T09:04:16.191Z</time>
      </trkpt>
      <trkpt lat="46.61583" lon="15.6605">
        <ele>315.311138</ele>
        <time>2022-09-19T09:04:19.182Z</time>
      </trkpt>
      <trkpt lat="46.61594" lon="15.66044">
        <ele>315.419835</ele>
        <time>2022-09-19T09:04:22.183Z</time>
      </trkpt>
      <trkpt lat="46.61605" lon="15.66038">
        <ele>315.527903</ele>
        <time>2022-09-19T09:04:25.175Z</time>
      </trkpt>
      <trkpt lat="46.61615" lon="15.66031">
        <ele>315.635109</ele>
        <time>2022-09-19T09:04:28.184Z</time>
      </trkpt>
      <trkpt lat="46.61626" lon="15.66026">
        <ele>315.738554</ele>
        <time>2022-09-19T09:04:31.177Z</time>
      </trkpt>
      <trkpt lat="46.61636" lon="15.6602">
        <ele>315.838303</ele>
        <time>2022-09-19T09:04:34.213Z</time>
      </trkpt>
      <trkpt lat="46.61646" lon="15.66015">
        <ele>315.937188</ele>
        <time>2022-09-19T09:04:37.215Z</time>
      </trkpt>
      <trkpt lat="46.61655" lon="15.66011">
        <ele>316.026744</ele>
        <time>2022-09-19T09:04:40.192Z</time>
      </trkpt>
      <trkpt lat="46.61664" lon="15.66006">
        <ele>316.110538</ele>
        <time>2022-09-19T09:04:43.196Z</time>
      </trkpt>
      <trkpt lat="46.61675" lon="15.66">
        <ele>316.222294</ele>
        <time>2022-09-19T09:04:47.183Z</time>
      </trkpt>
      <trkpt lat="46.61686" lon="15.65994">
        <ele>316.408245</ele>
        <time>2022-09-19T09:04:51.182Z</time>
      </trkpt>
      <trkpt lat="46.61697" lon="15.65988">
        <ele>316.875362</ele>
        <time>2022-09-19T09:04:55.188Z</time>
      </trkpt>
      <trkpt lat="46.61708" lon="15.65984">
        <ele>317.325726</ele>
        <time>2022-09-19T09:04:59.191Z</time>
      </trkpt>
      <trkpt lat="46.61719" lon="15.65979">
        <ele>317.759517</ele>
        <time>2022-09-19T09:05:03.170Z</time>
      </trkpt>
      <trkpt lat="46.6173" lon="15.65973">
        <ele>318.231386</ele>
        <time>2022-09-19T09:05:07.229Z</time>
      </trkpt>
      <trkpt lat="46.61741" lon="15.65967">
        <ele>318.691232</ele>
        <time>2022-09-19T09:05:11.170Z</time>
      </trkpt>
      <trkpt lat="46.61753" lon="15.65962">
        <ele>319.164185</ele>
        <time>2022-09-19T09:05:15.181Z</time>
      </trkpt>
      <trkpt lat="46.61764" lon="15.65957">
        <ele>319.624031</ele>
        <time>2022-09-19T09:05:19.255Z</time>
      </trkpt>
      <trkpt lat="46.61775" lon="15.65952">
        <ele>320.085073</ele>
        <time>2022-09-19T09:05:23.172Z</time>
      </trkpt>
      <trkpt lat="46.61784" lon="15.65947">
        <ele>320.455728</ele>
        <time>2022-09-19T09:05:26.179Z</time>
      </trkpt>
      <trkpt lat="46.61793" lon="15.65942">
        <ele>320.816284</ele>
        <time>2022-09-19T09:05:29.205Z</time>
      </trkpt>
      <trkpt lat="46.61801" lon="15.65937">
        <ele>321.170296</ele>
        <time>2022-09-19T09:05:32.178Z</time>
      </trkpt>
      <trkpt lat="46.61809" lon="15.6593">
        <ele>321.531435</ele>
        <time>2022-09-19T09:05:35.183Z</time>
      </trkpt>
      <trkpt lat="46.61818" lon="15.65924">
        <ele>321.922156</ele>
        <time>2022-09-19T09:05:38.181Z</time>
      </trkpt>
      <trkpt lat="46.61826" lon="15.65916">
        <ele>322.300516</ele>
        <time>2022-09-19T09:05:41.180Z</time>
      </trkpt>
      <trkpt lat="46.61834" lon="15.65908">
        <ele>322.682767</ele>
        <time>2022-09-19T09:05:44.185Z</time>
      </trkpt>
      <trkpt lat="46.61841" lon="15.65898">
        <ele>323.061425</ele>
        <time>2022-09-19T09:05:47.189Z</time>
      </trkpt>
      <trkpt lat="46.61848" lon="15.65889">
        <ele>323.364791</ele>
        <time>2022-09-19T09:05:50.177Z</time>
      </trkpt>
      <trkpt lat="46.61855" lon="15.65879">
        <ele>323.375229</ele>
        <time>2022-09-19T09:05:53.231Z</time>
      </trkpt>
      <trkpt lat="46.61863" lon="15.6587">
        <ele>323.3854</ele>
        <time>2022-09-19T09:05:56.174Z</time>
      </trkpt>
      <trkpt lat="46.6187" lon="15.65861">
        <ele>323.395352</ele>
        <time>2022-09-19T09:05:59.185Z</time>
      </trkpt>
      <trkpt lat="46.61877" lon="15.65851">
        <ele>323.405127</ele>
        <time>2022-09-19T09:06:02.182Z</time>
      </trkpt>
      <trkpt lat="46.61885" lon="15.6584">
        <ele>323.417332</ele>
        <time>2022-09-19T09:06:06.181Z</time>
      </trkpt>
      <trkpt lat="46.61892" lon="15.65831">
        <ele>323.426919</ele>
        <time>2022-09-19T09:06:09.186Z</time>
      </trkpt>
      <trkpt lat="46.619" lon="15.65823">
        <ele>323.436384</ele>
        <time>2022-09-19T09:06:12.173Z</time>
      </trkpt>
      <trkpt lat="46.61907" lon="15.65815">
        <ele>323.445807</ele>
        <time>2022-09-19T09:06:15.216Z</time>
      </trkpt>
      <trkpt lat="46.61916" lon="15.65808">
        <ele>323.457127</ele>
        <time>2022-09-19T09:06:19.183Z</time>
      </trkpt>
      <trkpt lat="46.61927" lon="15.65802">
        <ele>323.468865</ele>
        <time>2022-09-19T09:06:23.178Z</time>
      </trkpt>
      <trkpt lat="46.61938" lon="15.65796">
        <ele>323.481363</ele>
        <time>2022-09-19T09:06:27.189Z</time>
      </trkpt>
      <trkpt lat="46.61947" lon="15.65792">
        <ele>323.490867</ele>
        <time>2022-09-19T09:06:30.173Z</time>
      </trkpt>
      <trkpt lat="46.61955" lon="15.65787">
        <ele>323.50047</ele>
        <time>2022-09-19T09:06:33.133Z</time>
      </trkpt>
      <trkpt lat="46.61964" lon="15.65782">
        <ele>323.510466</ele>
        <time>2022-09-19T09:06:36.182Z</time>
      </trkpt>
      <trkpt lat="46.61974" lon="15.65777">
        <ele>323.521001</ele>
        <time>2022-09-19T09:06:39.184Z</time>
      </trkpt>
      <trkpt lat="46.61983" lon="15.65771">
        <ele>323.531814</ele>
        <time>2022-09-19T09:06:42.224Z</time>
      </trkpt>
      <trkpt lat="46.61993" lon="15.65763">
        <ele>323.543614</ele>
        <time>2022-09-19T09:06:45.185Z</time>
      </trkpt>
      <trkpt lat="46.62002" lon="15.65754">
        <ele>323.549101</ele>
        <time>2022-09-19T09:06:48.165Z</time>
      </trkpt>
      <trkpt lat="46.62012" lon="15.65745">
        <ele>323.544887</ele>
        <time>2022-09-19T09:06:51.168Z</time>
      </trkpt>
      <trkpt lat="46.62021" lon="15.65737">
        <ele>323.541059</ele>
        <time>2022-09-19T09:06:54.177Z</time>
      </trkpt>
      <trkpt lat="46.62031" lon="15.6573">
        <ele>323.537314</ele>
        <time>2022-09-19T09:06:57.180Z</time>
      </trkpt>
      <trkpt lat="46.62041" lon="15.65725">
        <ele>323.533479</ele>
        <time>2022-09-19T09:07:00.185Z</time>
      </trkpt>
      <trkpt lat="46.62052" lon="15.65725">
        <ele>323.52958</ele>
        <time>2022-09-19T09:07:03.174Z</time>
      </trkpt>
      <trkpt lat="46.62061" lon="15.65728">
        <ele>323.52615</ele>
        <time>2022-09-19T09:07:06.192Z</time>
      </trkpt>
      <trkpt lat="46.62072" lon="15.65735">
        <ele>323.522131</ele>
        <time>2022-09-19T09:07:10.186Z</time>
      </trkpt>
      <trkpt lat="46.62081" lon="15.65741">
        <ele>323.518557</ele>
        <time>2022-09-19T09:07:14.177Z</time>
      </trkpt>
      <trkpt lat="46.62091" lon="15.65744">
        <ele>323.514854</ele>
        <time>2022-09-19T09:07:18.171Z</time>
      </trkpt>
      <trkpt lat="46.62099" lon="15.65748">
        <ele>323.511585</ele>
        <time>2022-09-19T09:07:21.233Z</time>
      </trkpt>
      <trkpt lat="46.6211" lon="15.65754">
        <ele>323.507635</ele>
        <time>2022-09-19T09:07:25.183Z</time>
      </trkpt>
      <trkpt lat="46.62119" lon="15.65761">
        <ele>323.503729</ele>
        <time>2022-09-19T09:07:29.156Z</time>
      </trkpt>
      <trkpt lat="46.62129" lon="15.65767">
        <ele>323.500035</ele>
        <time>2022-09-19T09:07:33.196Z</time>
      </trkpt>
      <trkpt lat="46.6214" lon="15.65769">
        <ele>323.496179</ele>
        <time>2022-09-19T09:07:38.171Z</time>
      </trkpt>
      <trkpt lat="46.62152" lon="15.65769">
        <ele>323.491815</ele>
        <time>2022-09-19T09:07:42.167Z</time>
      </trkpt>
      <trkpt lat="46.62163" lon="15.65772">
        <ele>323.487691</ele>
        <time>2022-09-19T09:07:45.180Z</time>
      </trkpt>
      <trkpt lat="46.62176" lon="15.65776">
        <ele>323.409301</ele>
        <time>2022-09-19T09:07:48.167Z</time>
      </trkpt>
      <trkpt lat="46.62186" lon="15.6578">
        <ele>323.322298</ele>
        <time>2022-09-19T09:07:50.170Z</time>
      </trkpt>
      <trkpt lat="46.62197" lon="15.65783">
        <ele>323.224356</ele>
        <time>2022-09-19T09:07:52.178Z</time>
      </trkpt>
      <trkpt lat="46.62212" lon="15.65784">
        <ele>323.106815</ele>
        <time>2022-09-19T09:07:54.210Z</time>
      </trkpt>
      <trkpt lat="46.62227" lon="15.65784">
        <ele>322.979422</ele>
        <time>2022-09-19T09:07:56.173Z</time>
      </trkpt>
      <trkpt lat="46.62242" lon="15.65784">
        <ele>322.851164</ele>
        <time>2022-09-19T09:07:58.191Z</time>
      </trkpt>
      <trkpt lat="46.62257" lon="15.65783">
        <ele>322.727773</ele>
        <time>2022-09-19T09:08:00.182Z</time>
      </trkpt>
      <trkpt lat="46.62271" lon="15.65781">
        <ele>322.611719</ele>
        <time>2022-09-19T09:08:02.179Z</time>
      </trkpt>
      <trkpt lat="46.62284" lon="15.65779">
        <ele>322.506303</ele>
        <time>2022-09-19T09:08:04.172Z</time>
      </trkpt>
      <trkpt lat="46.62295" lon="15.65778">
        <ele>322.411825</ele>
        <time>2022-09-19T09:08:06.183Z</time>
      </trkpt>
      <trkpt lat="46.62305" lon="15.65777">
        <ele>322.327534</ele>
        <time>2022-09-19T09:08:08.180Z</time>
      </trkpt>
      <trkpt lat="46.62314" lon="15.65776">
        <ele>322.25242</ele>
        <time>2022-09-19T09:08:10.176Z</time>
      </trkpt>
      <trkpt lat="46.62325" lon="15.65774">
        <ele>322.161972</ele>
        <time>2022-09-19T09:08:13.178Z</time>
      </trkpt>
      <trkpt lat="46.62336" lon="15.65772">
        <ele>322.06712</ele>
        <time>2022-09-19T09:08:17.183Z</time>
      </trkpt>
      <trkpt lat="46.62347" lon="15.65767">
        <ele>322.060985</ele>
        <time>2022-09-19T09:08:21.177Z</time>
      </trkpt>
      <trkpt lat="46.62356" lon="15.65762">
        <ele>322.437712</ele>
        <time>2022-09-19T09:08:24.165Z</time>
      </trkpt>
      <trkpt lat="46.62366" lon="15.65757">
        <ele>322.847953</ele>
        <time>2022-09-19T09:08:27.248Z</time>
      </trkpt>
      <trkpt lat="46.62377" lon="15.65754">
        <ele>323.2719</ele>
        <time>2022-09-19T09:08:30.167Z</time>
      </trkpt>
      <trkpt lat="46.62386" lon="15.65753">
        <ele>323.658428</ele>
        <time>2022-09-19T09:08:33.184Z</time>
      </trkpt>
      <trkpt lat="46.62396" lon="15.65752">
        <ele>324.027317</ele>
        <time>2022-09-19T09:08:36.157Z</time>
      </trkpt>
      <trkpt lat="46.62405" lon="15.65753">
        <ele>324.384482</ele>
        <time>2022-09-19T09:08:39.185Z</time>
      </trkpt>
      <trkpt lat="46.62416" lon="15.65752">
        <ele>324.795849</ele>
        <time>2022-09-19T09:08:42.193Z</time>
      </trkpt>
      <trkpt lat="46.62426" lon="15.65753">
        <ele>325.187861</ele>
        <time>2022-09-19T09:08:45.176Z</time>
      </trkpt>
      <trkpt lat="46.62436" lon="15.65753">
        <ele>325.583681</ele>
        <time>2022-09-19T09:08:48.169Z</time>
      </trkpt>
      <trkpt lat="46.62446" lon="15.65753">
        <ele>325.967887</ele>
        <time>2022-09-19T09:08:51.168Z</time>
      </trkpt>
      <trkpt lat="46.62457" lon="15.65755">
        <ele>326.417008</ele>
        <time>2022-09-19T09:08:55.180Z</time>
      </trkpt>
      <trkpt lat="46.62467" lon="15.65756">
        <ele>326.775216</ele>
        <time>2022-09-19T09:08:58.185Z</time>
      </trkpt>
      <trkpt lat="46.62478" lon="15.65755">
        <ele>327.202104</ele>
        <time>2022-09-19T09:09:02.192Z</time>
      </trkpt>
      <trkpt lat="46.62487" lon="15.65755">
        <ele>327.56303</ele>
        <time>2022-09-19T09:09:05.183Z</time>
      </trkpt>
      <trkpt lat="46.62496" lon="15.65755">
        <ele>327.912366</ele>
        <time>2022-09-19T09:09:08.172Z</time>
      </trkpt>
      <trkpt lat="46.62508" lon="15.65755">
        <ele>328.370459</ele>
        <time>2022-09-19T09:09:12.221Z</time>
      </trkpt>
      <trkpt lat="46.62518" lon="15.65755">
        <ele>328.762715</ele>
        <time>2022-09-19T09:09:15.168Z</time>
      </trkpt>
      <trkpt lat="46.62527" lon="15.65754">
        <ele>329.078273</ele>
        <time>2022-09-19T09:09:18.188Z</time>
      </trkpt>
      <trkpt lat="46.62537" lon="15.65754">
        <ele>329.335465</ele>
        <time>2022-09-19T09:09:21.166Z</time>
      </trkpt>
      <trkpt lat="46.62547" lon="15.65754">
        <ele>329.609132</ele>
        <time>2022-09-19T09:09:24.166Z</time>
      </trkpt>
      <trkpt lat="46.62558" lon="15.65753">
        <ele>329.916702</ele>
        <time>2022-09-19T09:09:27.174Z</time>
      </trkpt>
      <trkpt lat="46.62568" lon="15.6575">
        <ele>330.210607</ele>
        <time>2022-09-19T09:09:30.169Z</time>
      </trkpt>
      <trkpt lat="46.6258" lon="15.65744">
        <ele>330.550002</ele>
        <time>2022-09-19T09:09:33.175Z</time>
      </trkpt>
      <trkpt lat="46.62591" lon="15.65738">
        <ele>330.877827</ele>
        <time>2022-09-19T09:09:36.180Z</time>
      </trkpt>
      <trkpt lat="46.62601" lon="15.65732">
        <ele>331.175205</ele>
        <time>2022-09-19T09:09:39.183Z</time>
      </trkpt>
      <trkpt lat="46.6261" lon="15.65723">
        <ele>331.465686</ele>
        <time>2022-09-19T09:09:42.223Z</time>
      </trkpt>
      <trkpt lat="46.62618" lon="15.65717">
        <ele>331.715828</ele>
        <time>2022-09-19T09:09:45.175Z</time>
      </trkpt>
      <trkpt lat="46.62628" lon="15.65709">
        <ele>332.020509</ele>
        <time>2022-09-19T09:09:49.175Z</time>
      </trkpt>
      <trkpt lat="46.62639" lon="15.657">
        <ele>332.352516</ele>
        <time>2022-09-19T09:09:53.201Z</time>
      </trkpt>
      <trkpt lat="46.62648" lon="15.65694">
        <ele>332.6391</ele>
        <time>2022-09-19T09:09:56.167Z</time>
      </trkpt>
      <trkpt lat="46.6266" lon="15.65687">
        <ele>332.987372</ele>
        <time>2022-09-19T09:09:59.173Z</time>
      </trkpt>
      <trkpt lat="46.62669" lon="15.65682">
        <ele>333.253706</ele>
        <time>2022-09-19T09:10:01.203Z</time>
      </trkpt>
      <trkpt lat="46.62679" lon="15.65675">
        <ele>333.566404</ele>
        <time>2022-09-19T09:10:03.177Z</time>
      </trkpt>
      <trkpt lat="46.62689" lon="15.65669">
        <ele>333.864157</ele>
        <time>2022-09-19T09:10:05.184Z</time>
      </trkpt>
      <trkpt lat="46.62699" lon="15.65665">
        <ele>333.806273</ele>
        <time>2022-09-19T09:10:07.156Z</time>
      </trkpt>
      <trkpt lat="46.62709" lon="15.65664">
        <ele>333.721509</ele>
        <time>2022-09-19T09:10:09.159Z</time>
      </trkpt>
      <trkpt lat="46.62718" lon="15.65665">
        <ele>333.6404</ele>
        <time>2022-09-19T09:10:11.183Z</time>
      </trkpt>
      <trkpt lat="46.6273" lon="15.65671">
        <ele>333.530265</ele>
        <time>2022-09-19T09:10:14.176Z</time>
      </trkpt>
      <trkpt lat="46.62741" lon="15.65678">
        <ele>333.421631</ele>
        <time>2022-09-19T09:10:17.185Z</time>
      </trkpt>
      <trkpt lat="46.62752" lon="15.65685">
        <ele>333.321649</ele>
        <time>2022-09-19T09:10:20.174Z</time>
      </trkpt>
      <trkpt lat="46.62761" lon="15.65695">
        <ele>333.218228</ele>
        <time>2022-09-19T09:10:23.210Z</time>
      </trkpt>
      <trkpt lat="46.6277" lon="15.65701">
        <ele>333.130435</ele>
        <time>2022-09-19T09:10:26.185Z</time>
      </trkpt>
      <trkpt lat="46.6278" lon="15.65709">
        <ele>333.034221</ele>
        <time>2022-09-19T09:10:29.181Z</time>
      </trkpt>
      <trkpt lat="46.62791" lon="15.65715">
        <ele>332.926496</ele>
        <time>2022-09-19T09:10:32.183Z</time>
      </trkpt>
      <trkpt lat="46.62802" lon="15.65717">
        <ele>332.827839</ele>
        <time>2022-09-19T09:10:35.175Z</time>
      </trkpt>
      <trkpt lat="46.62813" lon="15.65718">
        <ele>332.735495</ele>
        <time>2022-09-19T09:10:38.192Z</time>
      </trkpt>
      <trkpt lat="46.62823" lon="15.65718">
        <ele>332.644938</ele>
        <time>2022-09-19T09:10:41.179Z</time>
      </trkpt>
      <trkpt lat="46.62834" lon="15.65718">
        <ele>332.554382</ele>
        <time>2022-09-19T09:10:44.188Z</time>
      </trkpt>
      <trkpt lat="46.62843" lon="15.65716">
        <ele>332.46956</ele>
        <time>2022-09-19T09:10:47.182Z</time>
      </trkpt>
      <trkpt lat="46.62853" lon="15.65716">
        <ele>332.38596</ele>
        <time>2022-09-19T09:10:50.170Z</time>
      </trkpt>
      <trkpt lat="46.62864" lon="15.65716">
        <ele>332.280966</ele>
        <time>2022-09-19T09:10:54.189Z</time>
      </trkpt>
      <trkpt lat="46.62876" lon="15.65717">
        <ele>332.167436</ele>
        <time>2022-09-19T09:10:58.170Z</time>
      </trkpt>
      <trkpt lat="46.62886" lon="15.65719">
        <ele>332.075543</ele>
        <time>2022-09-19T09:11:01.164Z</time>
      </trkpt>
      <trkpt lat="46.62895" lon="15.65721">
        <ele>331.986336</ele>
        <time>2022-09-19T09:11:04.176Z</time>
      </trkpt>
      <trkpt lat="46.62904" lon="15.65722">
        <ele>331.897476</ele>
        <time>2022-09-19T09:11:07.191Z</time>
      </trkpt>
      <trkpt lat="46.62914" lon="15.65723">
        <ele>331.809671</ele>
        <time>2022-09-19T09:11:10.163Z</time>
      </trkpt>
      <trkpt lat="46.62923" lon="15.65723">
        <ele>331.720196</ele>
        <time>2022-09-19T09:11:13.183Z</time>
      </trkpt>
      <trkpt lat="46.62932" lon="15.65723">
        <ele>331.630729</ele>
        <time>2022-09-19T09:11:16.168Z</time>
      </trkpt>
      <trkpt lat="46.62943" lon="15.65721">
        <ele>331.530537</ele>
        <time>2022-09-19T09:11:19.207Z</time>
      </trkpt>
      <trkpt lat="46.62954" lon="15.6572">
        <ele>331.425551</ele>
        <time>2022-09-19T09:11:22.174Z</time>
      </trkpt>
      <trkpt lat="46.62966" lon="15.65718">
        <ele>331.306495</ele>
        <time>2022-09-19T09:11:25.178Z</time>
      </trkpt>
      <trkpt lat="46.62975" lon="15.65716">
        <ele>331.219639</ele>
        <time>2022-09-19T09:11:27.188Z</time>
      </trkpt>
      <trkpt lat="46.62985" lon="15.65714">
        <ele>331.128542</ele>
        <time>2022-09-19T09:11:29.175Z</time>
      </trkpt>
      <trkpt lat="46.62995" lon="15.65713">
        <ele>331.035213</ele>
        <time>2022-09-19T09:11:31.170Z</time>
      </trkpt>
      <trkpt lat="46.63004" lon="15.65714">
        <ele>330.94763</ele>
        <time>2022-09-19T09:11:33.168Z</time>
      </trkpt>
      <trkpt lat="46.63017" lon="15.65716">
        <ele>330.82496</ele>
        <time>2022-09-19T09:11:36.237Z</time>
      </trkpt>
      <trkpt lat="46.63028" lon="15.65717">
        <ele>330.720136</ele>
        <time>2022-09-19T09:11:39.182Z</time>
      </trkpt>
      <trkpt lat="46.63039" lon="15.65718">
        <ele>330.616099</ele>
        <time>2022-09-19T09:11:42.182Z</time>
      </trkpt>
      <trkpt lat="46.63049" lon="15.65718">
        <ele>330.659206</ele>
        <time>2022-09-19T09:11:45.186Z</time>
      </trkpt>
      <trkpt lat="46.6306" lon="15.65718">
        <ele>330.736214</ele>
        <time>2022-09-19T09:11:48.177Z</time>
      </trkpt>
      <trkpt lat="46.6307" lon="15.65719">
        <ele>330.807392</ele>
        <time>2022-09-19T09:11:51.186Z</time>
      </trkpt>
      <trkpt lat="46.63079" lon="15.65719">
        <ele>330.875675</ele>
        <time>2022-09-19T09:11:54.182Z</time>
      </trkpt>
      <trkpt lat="46.63091" lon="15.65719">
        <ele>330.961373</ele>
        <time>2022-09-19T09:11:58.242Z</time>
      </trkpt>
      <trkpt lat="46.63102" lon="15.6572">
        <ele>331.043622</ele>
        <time>2022-09-19T09:12:02.210Z</time>
      </trkpt>
      <trkpt lat="46.63113" lon="15.65721">
        <ele>331.123696</ele>
        <time>2022-09-19T09:12:06.183Z</time>
      </trkpt>
      <trkpt lat="46.63125" lon="15.65722">
        <ele>331.206562</ele>
        <time>2022-09-19T09:12:10.180Z</time>
      </trkpt>
      <trkpt lat="46.63134" lon="15.6572">
        <ele>331.278236</ele>
        <time>2022-09-19T09:12:13.177Z</time>
      </trkpt>
      <trkpt lat="46.63144" lon="15.65717">
        <ele>331.352814</ele>
        <time>2022-09-19T09:12:16.179Z</time>
      </trkpt>
      <trkpt lat="46.63155" lon="15.6571">
        <ele>331.434538</ele>
        <time>2022-09-19T09:12:19.184Z</time>
      </trkpt>
      <trkpt lat="46.63164" lon="15.65701">
        <ele>331.518066</ele>
        <time>2022-09-19T09:12:22.163Z</time>
      </trkpt>
      <trkpt lat="46.63173" lon="15.65693">
        <ele>331.593875</ele>
        <time>2022-09-19T09:12:25.218Z</time>
      </trkpt>
      <trkpt lat="46.63182" lon="15.65683">
        <ele>331.672847</ele>
        <time>2022-09-19T09:12:28.175Z</time>
      </trkpt>
      <trkpt lat="46.6319" lon="15.65673">
        <ele>331.750615</ele>
        <time>2022-09-19T09:12:31.211Z</time>
      </trkpt>
      <trkpt lat="46.63199" lon="15.65662">
        <ele>331.83788</ele>
        <time>2022-09-19T09:12:34.178Z</time>
      </trkpt>
      <trkpt lat="46.6321" lon="15.65655">
        <ele>331.956235</ele>
        <time>2022-09-19T09:12:37.189Z</time>
      </trkpt>
      <trkpt lat="46.63221" lon="15.65648">
        <ele>332.166855</ele>
        <time>2022-09-19T09:12:40.179Z</time>
      </trkpt>
      <trkpt lat="46.63231" lon="15.65642">
        <ele>332.35426</ele>
        <time>2022-09-19T09:12:43.173Z</time>
      </trkpt>
      <trkpt lat="46.6324" lon="15.65638">
        <ele>332.513335</ele>
        <time>2022-09-19T09:12:46.168Z</time>
      </trkpt>
      <trkpt lat="46.63248" lon="15.65633">
        <ele>332.675693</ele>
        <time>2022-09-19T09:12:49.173Z</time>
      </trkpt>
      <trkpt lat="46.63257" lon="15.65628">
        <ele>332.835995</ele>
        <time>2022-09-19T09:12:52.169Z</time>
      </trkpt>
      <trkpt lat="46.63266" lon="15.65624">
        <ele>332.99588</ele>
        <time>2022-09-19T09:12:55.165Z</time>
      </trkpt>
      <trkpt lat="46.63275" lon="15.6562">
        <ele>333.161231</ele>
        <time>2022-09-19T09:12:58.178Z</time>
      </trkpt>
      <trkpt lat="46.63285" lon="15.65617">
        <ele>333.338468</ele>
        <time>2022-09-19T09:13:01.180Z</time>
      </trkpt>
      <trkpt lat="46.63295" lon="15.65612">
        <ele>333.533164</ele>
        <time>2022-09-19T09:13:05.191Z</time>
      </trkpt>
      <trkpt lat="46.63305" lon="15.6561">
        <ele>333.702577</ele>
        <time>2022-09-19T09:13:08.184Z</time>
      </trkpt>
      <trkpt lat="46.63314" lon="15.65607">
        <ele>333.864253</ele>
        <time>2022-09-19T09:13:11.182Z</time>
      </trkpt>
      <trkpt lat="46.63326" lon="15.65603">
        <ele>334.081329</ele>
        <time>2022-09-19T09:13:14.189Z</time>
      </trkpt>
      <trkpt lat="46.63338" lon="15.65602">
        <ele>334.287604</ele>
        <time>2022-09-19T09:13:17.186Z</time>
      </trkpt>
      <trkpt lat="46.6335" lon="15.65602">
        <ele>334.491842</ele>
        <time>2022-09-19T09:13:20.215Z</time>
      </trkpt>
      <trkpt lat="46.63361" lon="15.65604">
        <ele>334.6953</ele>
        <time>2022-09-19T09:13:23.223Z</time>
      </trkpt>
      <trkpt lat="46.63372" lon="15.65605">
        <ele>334.879306</ele>
        <time>2022-09-19T09:13:26.204Z</time>
      </trkpt>
      <trkpt lat="46.63381" lon="15.65607">
        <ele>335.033747</ele>
        <time>2022-09-19T09:13:29.194Z</time>
      </trkpt>
      <trkpt lat="46.6339" lon="15.65608">
        <ele>334.747372</ele>
        <time>2022-09-19T09:13:32.210Z</time>
      </trkpt>
      <trkpt lat="46.63399" lon="15.65609">
        <ele>334.459292</ele>
        <time>2022-09-19T09:13:35.182Z</time>
      </trkpt>
      <trkpt lat="46.63408" lon="15.6561">
        <ele>334.170232</ele>
        <time>2022-09-19T09:13:38.169Z</time>
      </trkpt>
      <trkpt lat="46.6342" lon="15.65612">
        <ele>333.802436</ele>
        <time>2022-09-19T09:13:42.171Z</time>
      </trkpt>
      <trkpt lat="46.63429" lon="15.65611">
        <ele>333.517512</ele>
        <time>2022-09-19T09:13:45.180Z</time>
      </trkpt>
      <trkpt lat="46.63441" lon="15.6561">
        <ele>333.147409</ele>
        <time>2022-09-19T09:13:49.181Z</time>
      </trkpt>
      <trkpt lat="46.63453" lon="15.65608">
        <ele>332.768194</ele>
        <time>2022-09-19T09:13:53.174Z</time>
      </trkpt>
      <trkpt lat="46.63464" lon="15.65605">
        <ele>332.39336</ele>
        <time>2022-09-19T09:13:57.196Z</time>
      </trkpt>
      <trkpt lat="46.63476" lon="15.65601">
        <ele>332.024682</ele>
        <time>2022-09-19T09:14:01.177Z</time>
      </trkpt>
      <trkpt lat="46.63485" lon="15.65597">
        <ele>331.713235</ele>
        <time>2022-09-19T09:14:04.166Z</time>
      </trkpt>
      <trkpt lat="46.63495" lon="15.65591">
        <ele>331.364653</ele>
        <time>2022-09-19T09:14:07.182Z</time>
      </trkpt>
      <trkpt lat="46.63505" lon="15.65584">
        <ele>331.031878</ele>
        <time>2022-09-19T09:14:10.185Z</time>
      </trkpt>
      <trkpt lat="46.63515" lon="15.65577">
        <ele>330.673476</ele>
        <time>2022-09-19T09:14:13.173Z</time>
      </trkpt>
      <trkpt lat="46.63526" lon="15.6557">
        <ele>330.297982</ele>
        <time>2022-09-19T09:14:16.229Z</time>
      </trkpt>
      <trkpt lat="46.63537" lon="15.65564">
        <ele>329.926619</ele>
        <time>2022-09-19T09:14:19.209Z</time>
      </trkpt>
      <trkpt lat="46.63548" lon="15.65559">
        <ele>329.562971</ele>
        <time>2022-09-19T09:14:22.182Z</time>
      </trkpt>
      <trkpt lat="46.63558" lon="15.65554">
        <ele>329.389227</ele>
        <time>2022-09-19T09:14:25.182Z</time>
      </trkpt>
      <trkpt lat="46.63568" lon="15.65548">
        <ele>329.466602</ele>
        <time>2022-09-19T09:14:28.185Z</time>
      </trkpt>
      <trkpt lat="46.63577" lon="15.65542">
        <ele>329.542296</ele>
        <time>2022-09-19T09:14:31.183Z</time>
      </trkpt>
      <trkpt lat="46.63586" lon="15.65536">
        <ele>329.622379</ele>
        <time>2022-09-19T09:14:34.198Z</time>
      </trkpt>
      <trkpt lat="46.63597" lon="15.65533">
        <ele>329.706235</ele>
        <time>2022-09-19T09:14:37.188Z</time>
      </trkpt>
      <trkpt lat="46.6361" lon="15.65531">
        <ele>329.803363</ele>
        <time>2022-09-19T09:14:40.175Z</time>
      </trkpt>
      <trkpt lat="46.63619" lon="15.6553">
        <ele>329.873554</ele>
        <time>2022-09-19T09:14:42.170Z</time>
      </trkpt>
      <trkpt lat="46.63629" lon="15.65529">
        <ele>329.950481</ele>
        <time>2022-09-19T09:14:44.212Z</time>
      </trkpt>
      <trkpt lat="46.63639" lon="15.65526">
        <ele>330.029454</ele>
        <time>2022-09-19T09:14:46.177Z</time>
      </trkpt>
      <trkpt lat="46.63649" lon="15.65519">
        <ele>330.111762</ele>
        <time>2022-09-19T09:14:48.179Z</time>
      </trkpt>
      <trkpt lat="46.63658" lon="15.65511">
        <ele>330.190592</ele>
        <time>2022-09-19T09:14:50.187Z</time>
      </trkpt>
      <trkpt lat="46.63666" lon="15.65504">
        <ele>330.26141</ele>
        <time>2022-09-19T09:14:52.182Z</time>
      </trkpt>
      <trkpt lat="46.63674" lon="15.65496">
        <ele>330.3386</ele>
        <time>2022-09-19T09:14:55.212Z</time>
      </trkpt>
      <trkpt lat="46.63683" lon="15.65487">
        <ele>330.417233</ele>
        <time>2022-09-19T09:15:00.177Z</time>
      </trkpt>
      <trkpt lat="46.6369" lon="15.65477">
        <ele>330.490656</ele>
        <time>2022-09-19T09:15:06.245Z</time>
      </trkpt>
      <trkpt lat="46.63697" lon="15.65466">
        <ele>330.572633</ele>
        <time>2022-09-19T09:15:13.214Z</time>
      </trkpt>
      <trkpt lat="46.63705" lon="15.65455">
        <ele>330.654961</ele>
        <time>2022-09-19T09:15:19.174Z</time>
      </trkpt>
      <trkpt lat="46.63712" lon="15.65446">
        <ele>330.72476</ele>
        <time>2022-09-19T09:15:24.178Z</time>
      </trkpt>
      <trkpt lat="46.63721" lon="15.6544">
        <ele>330.767852</ele>
        <time>2022-09-19T09:15:30.174Z</time>
      </trkpt>
      <trkpt lat="46.6373" lon="15.65437">
        <ele>330.806618</ele>
        <time>2022-09-19T09:15:35.161Z</time>
      </trkpt>
      <trkpt lat="46.63739" lon="15.65432">
        <ele>330.84847</ele>
        <time>2022-09-19T09:15:39.191Z</time>
      </trkpt>
      <trkpt lat="46.63748" lon="15.65428">
        <ele>330.889327</ele>
        <time>2022-09-19T09:15:42.172Z</time>
      </trkpt>
      <trkpt lat="46.63758" lon="15.65424">
        <ele>330.933899</ele>
        <time>2022-09-19T09:15:45.169Z</time>
      </trkpt>
      <trkpt lat="46.6377" lon="15.65419">
        <ele>330.984799</ele>
        <time>2022-09-19T09:15:48.183Z</time>
      </trkpt>
      <trkpt lat="46.63782" lon="15.65414">
        <ele>331.038995</ele>
        <time>2022-09-19T09:15:51.177Z</time>
      </trkpt>
      <trkpt lat="46.63791" lon="15.6541">
        <ele>331.079856</ele>
        <time>2022-09-19T09:15:53.179Z</time>
      </trkpt>
      <trkpt lat="46.638" lon="15.65405">
        <ele>331.123183</ele>
        <time>2022-09-19T09:15:55.185Z</time>
      </trkpt>
      <trkpt lat="46.6381" lon="15.65399">
        <ele>331.167032</ele>
        <time>2022-09-19T09:15:57.185Z</time>
      </trkpt>
      <trkpt lat="46.63819" lon="15.65393">
        <ele>331.210124</ele>
        <time>2022-09-19T09:15:59.188Z</time>
      </trkpt>
      <trkpt lat="46.63829" lon="15.65387">
        <ele>331.256191</ele>
        <time>2022-09-19T09:16:01.194Z</time>
      </trkpt>
      <trkpt lat="46.63839" lon="15.6538">
        <ele>331.303009</ele>
        <time>2022-09-19T09:16:03.197Z</time>
      </trkpt>
      <trkpt lat="46.63849" lon="15.65372">
        <ele>331.35112</ele>
        <time>2022-09-19T09:16:05.170Z</time>
      </trkpt>
      <trkpt lat="46.63859" lon="15.65364">
        <ele>331.401189</ele>
        <time>2022-09-19T09:16:07.228Z</time>
      </trkpt>
      <trkpt lat="46.63869" lon="15.65357">
        <ele>331.452128</ele>
        <time>2022-09-19T09:16:09.179Z</time>
      </trkpt>
      <trkpt lat="46.6388" lon="15.65349">
        <ele>331.487179</ele>
        <time>2022-09-19T09:16:11.192Z</time>
      </trkpt>
      <trkpt lat="46.6389" lon="15.65341">
        <ele>331.44429</ele>
        <time>2022-09-19T09:16:13.183Z</time>
      </trkpt>
      <trkpt lat="46.63901" lon="15.65332">
        <ele>331.402458</ele>
        <time>2022-09-19T09:16:15.174Z</time>
      </trkpt>
      <trkpt lat="46.63911" lon="15.65325">
        <ele>331.362146</ele>
        <time>2022-09-19T09:16:17.182Z</time>
      </trkpt>
      <trkpt lat="46.6392" lon="15.65318">
        <ele>331.325697</ele>
        <time>2022-09-19T09:16:19.187Z</time>
      </trkpt>
      <trkpt lat="46.6393" lon="15.65311">
        <ele>331.285513</ele>
        <time>2022-09-19T09:16:22.176Z</time>
      </trkpt>
      <trkpt lat="46.6394" lon="15.65304">
        <ele>331.247143</ele>
        <time>2022-09-19T09:16:25.178Z</time>
      </trkpt>
      <trkpt lat="46.6395" lon="15.65296">
        <ele>331.205785</ele>
        <time>2022-09-19T09:16:28.168Z</time>
      </trkpt>
      <trkpt lat="46.63962" lon="15.65288">
        <ele>331.158337</ele>
        <time>2022-09-19T09:16:31.169Z</time>
      </trkpt>
      <trkpt lat="46.63973" lon="15.65279">
        <ele>331.1129</ele>
        <time>2022-09-19T09:16:34.197Z</time>
      </trkpt>
      <trkpt lat="46.63985" lon="15.6527">
        <ele>331.067002</ele>
        <time>2022-09-19T09:16:37.182Z</time>
      </trkpt>
      <trkpt lat="46.63995" lon="15.65262">
        <ele>331.025122</ele>
        <time>2022-09-19T09:16:40.211Z</time>
      </trkpt>
      <trkpt lat="46.64005" lon="15.65255">
        <ele>330.983336</ele>
        <time>2022-09-19T09:16:43.179Z</time>
      </trkpt>
      <trkpt lat="46.64015" lon="15.65248">
        <ele>330.945504</ele>
        <time>2022-09-19T09:16:46.218Z</time>
      </trkpt>
      <trkpt lat="46.64025" lon="15.65241">
        <ele>330.906796</ele>
        <time>2022-09-19T09:16:49.187Z</time>
      </trkpt>
      <trkpt lat="46.64033" lon="15.65233">
        <ele>330.871505</ele>
        <time>2022-09-19T09:16:52.181Z</time>
      </trkpt>
      <trkpt lat="46.64042" lon="15.65225">
        <ele>330.855528</ele>
        <time>2022-09-19T09:16:55.180Z</time>
      </trkpt>
      <trkpt lat="46.64051" lon="15.65217">
        <ele>330.86102</ele>
        <time>2022-09-19T09:16:58.185Z</time>
      </trkpt>
      <trkpt lat="46.64061" lon="15.6521">
        <ele>330.866597</ele>
        <time>2022-09-19T09:17:01.195Z</time>
      </trkpt>
      <trkpt lat="46.64071" lon="15.65205">
        <ele>330.871943</ele>
        <time>2022-09-19T09:17:04.194Z</time>
      </trkpt>
      <trkpt lat="46.6408" lon="15.652">
        <ele>330.876895</ele>
        <time>2022-09-19T09:17:07.175Z</time>
      </trkpt>
      <trkpt lat="46.64089" lon="15.65194">
        <ele>330.88189</ele>
        <time>2022-09-19T09:17:10.186Z</time>
      </trkpt>
      <trkpt lat="46.64098" lon="15.65187">
        <ele>330.887101</ele>
        <time>2022-09-19T09:17:13.214Z</time>
      </trkpt>
      <trkpt lat="46.64107" lon="15.6518">
        <ele>330.892223</ele>
        <time>2022-09-19T09:17:16.190Z</time>
      </trkpt>
      <trkpt lat="46.64116" lon="15.65174">
        <ele>330.897477</ele>
        <time>2022-09-19T09:17:19.171Z</time>
      </trkpt>
      <trkpt lat="46.64125" lon="15.65167">
        <ele>330.902884</ele>
        <time>2022-09-19T09:17:22.187Z</time>
      </trkpt>
      <trkpt lat="46.64135" lon="15.6516">
        <ele>330.908138</ele>
        <time>2022-09-19T09:17:25.171Z</time>
      </trkpt>
      <trkpt lat="46.64144" lon="15.65154">
        <ele>330.913253</ele>
        <time>2022-09-19T09:17:28.174Z</time>
      </trkpt>
      <trkpt lat="46.64153" lon="15.65148">
        <ele>330.91837</ele>
        <time>2022-09-19T09:17:31.173Z</time>
      </trkpt>
      <trkpt lat="46.64162" lon="15.65142">
        <ele>330.923456</ele>
        <time>2022-09-19T09:17:34.181Z</time>
      </trkpt>
      <trkpt lat="46.64171" lon="15.65134">
        <ele>330.928701</ele>
        <time>2022-09-19T09:17:37.183Z</time>
      </trkpt>
      <trkpt lat="46.6418" lon="15.65128">
        <ele>330.933832</ele>
        <time>2022-09-19T09:17:40.174Z</time>
      </trkpt>
      <trkpt lat="46.64189" lon="15.65123">
        <ele>330.938791</ele>
        <time>2022-09-19T09:17:43.183Z</time>
      </trkpt>
      <trkpt lat="46.64198" lon="15.65117">
        <ele>330.94394</ele>
        <time>2022-09-19T09:17:46.183Z</time>
      </trkpt>
      <trkpt lat="46.64207" lon="15.65111">
        <ele>330.991441</ele>
        <time>2022-09-19T09:17:49.177Z</time>
      </trkpt>
      <trkpt lat="46.64216" lon="15.65104">
        <ele>331.041234</ele>
        <time>2022-09-19T09:17:52.179Z</time>
      </trkpt>
      <trkpt lat="46.64226" lon="15.65097">
        <ele>331.102867</ele>
        <time>2022-09-19T09:17:56.183Z</time>
      </trkpt>
      <trkpt lat="46.64235" lon="15.65089">
        <ele>331.157436</ele>
        <time>2022-09-19T09:18:00.169Z</time>
      </trkpt>
      <trkpt lat="46.64243" lon="15.65081">
        <ele>331.213303</ele>
        <time>2022-09-19T09:18:05.174Z</time>
      </trkpt>
      <trkpt lat="46.64251" lon="15.65073">
        <ele>331.266128</ele>
        <time>2022-09-19T09:18:10.225Z</time>
      </trkpt>
      <trkpt lat="46.64259" lon="15.65064">
        <ele>331.31697</ele>
        <time>2022-09-19T09:18:15.188Z</time>
      </trkpt>
      <trkpt lat="46.64267" lon="15.65055">
        <ele>331.369164</ele>
        <time>2022-09-19T09:18:20.177Z</time>
      </trkpt>
      <trkpt lat="46.64274" lon="15.65047">
        <ele>331.417533</ele>
        <time>2022-09-19T09:18:25.189Z</time>
      </trkpt>
      <trkpt lat="46.64281" lon="15.65038">
        <ele>331.468961</ele>
        <time>2022-09-19T09:18:30.174Z</time>
      </trkpt>
      <trkpt lat="46.64288" lon="15.65028">
        <ele>331.521356</ele>
        <time>2022-09-19T09:18:35.177Z</time>
      </trkpt>
      <trkpt lat="46.64296" lon="15.6502">
        <ele>331.575439</ele>
        <time>2022-09-19T09:18:41.184Z</time>
      </trkpt>
      <trkpt lat="46.64304" lon="15.65012">
        <ele>331.623466</ele>
        <time>2022-09-19T09:18:46.178Z</time>
      </trkpt>
      <trkpt lat="46.64313" lon="15.65005">
        <ele>331.680769</ele>
        <time>2022-09-19T09:18:52.170Z</time>
      </trkpt>
      <trkpt lat="46.64322" lon="15.65001">
        <ele>331.731753</ele>
        <time>2022-09-19T09:18:57.179Z</time>
      </trkpt>
      <trkpt lat="46.64332" lon="15.64997">
        <ele>331.785812</ele>
        <time>2022-09-19T09:19:01.186Z</time>
      </trkpt>
      <trkpt lat="46.64342" lon="15.64996">
        <ele>331.840684</ele>
        <time>2022-09-19T09:19:04.185Z</time>
      </trkpt>
      <trkpt lat="46.64354" lon="15.64996">
        <ele>331.904404</ele>
        <time>2022-09-19T09:19:07.167Z</time>
      </trkpt>
      <trkpt lat="46.64363" lon="15.64996">
        <ele>331.931949</ele>
        <time>2022-09-19T09:19:09.189Z</time>
      </trkpt>
      <trkpt lat="46.64373" lon="15.64996">
        <ele>331.95955</ele>
        <time>2022-09-19T09:19:11.223Z</time>
      </trkpt>
      <trkpt lat="46.64384" lon="15.64997">
        <ele>331.991564</ele>
        <time>2022-09-19T09:19:13.166Z</time>
      </trkpt>
      <trkpt lat="46.64396" lon="15.64999">
        <ele>332.025284</ele>
        <time>2022-09-19T09:19:15.186Z</time>
      </trkpt>
      <trkpt lat="46.64408" lon="15.64998">
        <ele>332.060384</ele>
        <time>2022-09-19T09:19:17.182Z</time>
      </trkpt>
      <trkpt lat="46.64421" lon="15.64996">
        <ele>332.099723</ele>
        <time>2022-09-19T09:19:19.180Z</time>
      </trkpt>
      <trkpt lat="46.64435" lon="15.64993">
        <ele>332.139238</ele>
        <time>2022-09-19T09:19:21.156Z</time>
      </trkpt>
      <trkpt lat="46.64449" lon="15.64989">
        <ele>332.178624</ele>
        <time>2022-09-19T09:19:23.177Z</time>
      </trkpt>
      <trkpt lat="46.64461" lon="15.64985">
        <ele>332.216759</ele>
        <time>2022-09-19T09:19:25.190Z</time>
      </trkpt>
      <trkpt lat="46.64475" lon="15.6498">
        <ele>332.257222</ele>
        <time>2022-09-19T09:19:27.191Z</time>
      </trkpt>
      <trkpt lat="46.64488" lon="15.64976">
        <ele>332.296567</ele>
        <time>2022-09-19T09:19:29.188Z</time>
      </trkpt>
      <trkpt lat="46.64501" lon="15.64971">
        <ele>332.334795</ele>
        <time>2022-09-19T09:19:31.170Z</time>
      </trkpt>
      <trkpt lat="46.64513" lon="15.64966">
        <ele>332.368747</ele>
        <time>2022-09-19T09:19:33.176Z</time>
      </trkpt>
      <trkpt lat="46.64524" lon="15.64961">
        <ele>332.402255</ele>
        <time>2022-09-19T09:19:35.188Z</time>
      </trkpt>
      <trkpt lat="46.64535" lon="15.64956">
        <ele>332.494511</ele>
        <time>2022-09-19T09:19:37.181Z</time>
      </trkpt>
      <trkpt lat="46.64545" lon="15.64952">
        <ele>332.705976</ele>
        <time>2022-09-19T09:19:39.204Z</time>
      </trkpt>
      <trkpt lat="46.64556" lon="15.64949">
        <ele>332.915876</ele>
        <time>2022-09-19T09:19:41.187Z</time>
      </trkpt>
      <trkpt lat="46.64565" lon="15.64945">
        <ele>333.098537</ele>
        <time>2022-09-19T09:19:43.188Z</time>
      </trkpt>
      <trkpt lat="46.64574" lon="15.64943">
        <ele>333.277871</ele>
        <time>2022-09-19T09:19:45.175Z</time>
      </trkpt>
      <trkpt lat="46.64586" lon="15.64938">
        <ele>333.525422</ele>
        <time>2022-09-19T09:19:48.204Z</time>
      </trkpt>
      <trkpt lat="46.64597" lon="15.64934">
        <ele>333.754039</ele>
        <time>2022-09-19T09:19:51.179Z</time>
      </trkpt>
      <trkpt lat="46.64609" lon="15.6493">
        <ele>333.994646</ele>
        <time>2022-09-19T09:19:54.189Z</time>
      </trkpt>
      <trkpt lat="46.64619" lon="15.64926">
        <ele>334.200425</ele>
        <time>2022-09-19T09:19:57.186Z</time>
      </trkpt>
      <trkpt lat="46.64629" lon="15.64922">
        <ele>334.395959</ele>
        <time>2022-09-19T09:20:00.174Z</time>
      </trkpt>
      <trkpt lat="46.6464" lon="15.6492">
        <ele>334.607359</ele>
        <time>2022-09-19T09:20:04.176Z</time>
      </trkpt>
      <trkpt lat="46.6465" lon="15.64917">
        <ele>334.808063</ele>
        <time>2022-09-19T09:20:09.194Z</time>
      </trkpt>
      <trkpt lat="46.6466" lon="15.64915">
        <ele>335.009049</ele>
        <time>2022-09-19T09:20:14.193Z</time>
      </trkpt>
      <trkpt lat="46.6467" lon="15.64914">
        <ele>335.195315</ele>
        <time>2022-09-19T09:20:18.167Z</time>
      </trkpt>
      <trkpt lat="46.6468" lon="15.64911">
        <ele>335.402037</ele>
        <time>2022-09-19T09:20:23.178Z</time>
      </trkpt>
      <trkpt lat="46.64691" lon="15.64908">
        <ele>335.631639</ele>
        <time>2022-09-19T09:20:27.190Z</time>
      </trkpt>
      <trkpt lat="46.647" lon="15.64905">
        <ele>335.809325</ele>
        <time>2022-09-19T09:20:30.188Z</time>
      </trkpt>
      <trkpt lat="46.6471" lon="15.64903">
        <ele>335.964127</ele>
        <time>2022-09-19T09:20:33.180Z</time>
      </trkpt>
      <trkpt lat="46.6472" lon="15.64901">
        <ele>336.055981</ele>
        <time>2022-09-19T09:20:36.167Z</time>
      </trkpt>
      <trkpt lat="46.64733" lon="15.64897">
        <ele>336.166376</ele>
        <time>2022-09-19T09:20:39.186Z</time>
      </trkpt>
      <trkpt lat="46.64744" lon="15.64895">
        <ele>336.257063</ele>
        <time>2022-09-19T09:20:41.236Z</time>
      </trkpt>
      <trkpt lat="46.64756" lon="15.64892">
        <ele>336.361965</ele>
        <time>2022-09-19T09:20:44.192Z</time>
      </trkpt>
      <trkpt lat="46.64767" lon="15.6489">
        <ele>336.461727</ele>
        <time>2022-09-19T09:20:47.171Z</time>
      </trkpt>
      <trkpt lat="46.64778" lon="15.64887">
        <ele>336.554664</ele>
        <time>2022-09-19T09:20:50.173Z</time>
      </trkpt>
      <trkpt lat="46.64788" lon="15.64885">
        <ele>336.640119</ele>
        <time>2022-09-19T09:20:53.185Z</time>
      </trkpt>
      <trkpt lat="46.64799" lon="15.64882">
        <ele>336.732485</ele>
        <time>2022-09-19T09:20:57.181Z</time>
      </trkpt>
      <trkpt lat="46.64808" lon="15.64881">
        <ele>336.814635</ele>
        <time>2022-09-19T09:21:01.176Z</time>
      </trkpt>
      <trkpt lat="46.64819" lon="15.64879">
        <ele>336.906221</ele>
        <time>2022-09-19T09:21:06.173Z</time>
      </trkpt>
      <trkpt lat="46.6483" lon="15.64878">
        <ele>336.995207</ele>
        <time>2022-09-19T09:21:11.183Z</time>
      </trkpt>
      <trkpt lat="46.64839" lon="15.64876">
        <ele>337.076095</ele>
        <time>2022-09-19T09:21:16.177Z</time>
      </trkpt>
      <trkpt lat="46.64849" lon="15.64873">
        <ele>337.163326</ele>
        <time>2022-09-19T09:21:22.188Z</time>
      </trkpt>
      <trkpt lat="46.64858" lon="15.64868">
        <ele>337.242961</ele>
        <time>2022-09-19T09:21:28.173Z</time>
      </trkpt>
      <trkpt lat="46.64868" lon="15.64865">
        <ele>337.329061</ele>
        <time>2022-09-19T09:21:35.205Z</time>
      </trkpt>
      <trkpt lat="46.64878" lon="15.64863">
        <ele>337.414332</ele>
        <time>2022-09-19T09:21:42.209Z</time>
      </trkpt>
      <trkpt lat="46.64887" lon="15.6486">
        <ele>337.479615</ele>
        <time>2022-09-19T09:21:48.210Z</time>
      </trkpt>
      <trkpt lat="46.64896" lon="15.64856">
        <ele>337.509484</ele>
        <time>2022-09-19T09:21:55.173Z</time>
      </trkpt>
      <trkpt lat="46.64905" lon="15.64853">
        <ele>337.539939</ele>
        <time>2022-09-19T09:22:02.169Z</time>
      </trkpt>
      <trkpt lat="46.64914" lon="15.64849">
        <ele>337.568763</ele>
        <time>2022-09-19T09:22:08.168Z</time>
      </trkpt>
      <trkpt lat="46.64923" lon="15.64846">
        <ele>337.599222</ele>
        <time>2022-09-19T09:22:14.168Z</time>
      </trkpt>
      <trkpt lat="46.64932" lon="15.64844">
        <ele>337.627977</ele>
        <time>2022-09-19T09:22:20.176Z</time>
      </trkpt>
      <trkpt lat="46.64941" lon="15.64842">
        <ele>337.656877</ele>
        <time>2022-09-19T09:22:25.178Z</time>
      </trkpt>
      <trkpt lat="46.64952" lon="15.64842">
        <ele>337.69055</ele>
        <time>2022-09-19T09:22:30.179Z</time>
      </trkpt>
      <trkpt lat="46.64961" lon="15.64842">
        <ele>337.719187</ele>
        <time>2022-09-19T09:22:34.184Z</time>
      </trkpt>
      <trkpt lat="46.64972" lon="15.64843">
        <ele>337.751627</ele>
        <time>2022-09-19T09:22:38.211Z</time>
      </trkpt>
      <trkpt lat="46.64983" lon="15.64844">
        <ele>337.788195</ele>
        <time>2022-09-19T09:22:42.171Z</time>
      </trkpt>
      <trkpt lat="46.64993" lon="15.64845">
        <ele>337.818244</ele>
        <time>2022-09-19T09:22:45.190Z</time>
      </trkpt>
      <trkpt lat="46.65003" lon="15.64846">
        <ele>337.84982</ele>
        <time>2022-09-19T09:22:48.170Z</time>
      </trkpt>
      <trkpt lat="46.65015" lon="15.64846">
        <ele>337.887593</ele>
        <time>2022-09-19T09:22:51.183Z</time>
      </trkpt>
      <trkpt lat="46.65024" lon="15.64845">
        <ele>337.91818</ele>
        <time>2022-09-19T09:22:53.236Z</time>
      </trkpt>
      <trkpt lat="46.65034" lon="15.64844">
        <ele>337.949661</ele>
        <time>2022-09-19T09:22:55.175Z</time>
      </trkpt>
      <trkpt lat="46.65044" lon="15.64844">
        <ele>337.98052</ele>
        <time>2022-09-19T09:22:57.170Z</time>
      </trkpt>
      <trkpt lat="46.65054" lon="15.64843">
        <ele>338.012959</ele>
        <time>2022-09-19T09:22:59.185Z</time>
      </trkpt>
      <trkpt lat="46.65065" lon="15.64841">
        <ele>338.023487</ele>
        <time>2022-09-19T09:23:01.187Z</time>
      </trkpt>
      <trkpt lat="46.65076" lon="15.64836">
        <ele>337.970453</ele>
        <time>2022-09-19T09:23:03.191Z</time>
      </trkpt>
      <trkpt lat="46.65087" lon="15.6483">
        <ele>337.915909</ele>
        <time>2022-09-19T09:23:05.193Z</time>
      </trkpt>
      <trkpt lat="46.65099" lon="15.64823">
        <ele>337.856514</ele>
        <time>2022-09-19T09:23:07.174Z</time>
      </trkpt>
      <trkpt lat="46.65111" lon="15.64816">
        <ele>337.795214</ele>
        <time>2022-09-19T09:23:09.304Z</time>
      </trkpt>
      <trkpt lat="46.65123" lon="15.64809">
        <ele>337.733726</ele>
        <time>2022-09-19T09:23:11.163Z</time>
      </trkpt>
      <trkpt lat="46.65134" lon="15.64801">
        <ele>337.676113</ele>
        <time>2022-09-19T09:23:13.280Z</time>
      </trkpt>
      <trkpt lat="46.65145" lon="15.64794">
        <ele>337.622306</ele>
        <time>2022-09-19T09:23:15.157Z</time>
      </trkpt>
      <trkpt lat="46.65155" lon="15.64788">
        <ele>337.569999</ele>
        <time>2022-09-19T09:23:17.183Z</time>
      </trkpt>
      <trkpt lat="46.65165" lon="15.64781">
        <ele>337.518289</ele>
        <time>2022-09-19T09:23:19.196Z</time>
      </trkpt>
      <trkpt lat="46.65173" lon="15.64769">
        <ele>337.464897</ele>
        <time>2022-09-19T09:23:21.168Z</time>
      </trkpt>
      <trkpt lat="46.65179" lon="15.64755">
        <ele>337.412022</ele>
        <time>2022-09-19T09:23:23.168Z</time>
      </trkpt>
      <trkpt lat="46.65186" lon="15.64743">
        <ele>337.361708</ele>
        <time>2022-09-19T09:23:25.245Z</time>
      </trkpt>
      <trkpt lat="46.65195" lon="15.64736">
        <ele>337.316018</ele>
        <time>2022-09-19T09:23:27.194Z</time>
      </trkpt>
      <trkpt lat="46.65207" lon="15.64734">
        <ele>337.260363</ele>
        <time>2022-09-19T09:23:30.184Z</time>
      </trkpt>
      <trkpt lat="46.65217" lon="15.64734">
        <ele>337.213646</ele>
        <time>2022-09-19T09:23:33.181Z</time>
      </trkpt>
      <trkpt lat="46.65227" lon="15.64733">
        <ele>337.412831</ele>
        <time>2022-09-19T09:23:37.193Z</time>
      </trkpt>
      <trkpt lat="46.65238" lon="15.64733">
        <ele>337.719541</ele>
        <time>2022-09-19T09:23:42.186Z</time>
      </trkpt>
      <trkpt lat="46.65247" lon="15.64731">
        <ele>337.998806</ele>
        <time>2022-09-19T09:23:47.187Z</time>
      </trkpt>
      <trkpt lat="46.65257" lon="15.64732">
        <ele>338.288268</ele>
        <time>2022-09-19T09:23:52.166Z</time>
      </trkpt>
      <trkpt lat="46.65267" lon="15.64732">
        <ele>338.600849</ele>
        <time>2022-09-19T09:23:57.192Z</time>
      </trkpt>
      <trkpt lat="46.65277" lon="15.64731">
        <ele>338.881404</ele>
        <time>2022-09-19T09:24:02.182Z</time>
      </trkpt>
      <trkpt lat="46.65287" lon="15.64731">
        <ele>339.182161</ele>
        <time>2022-09-19T09:24:08.176Z</time>
      </trkpt>
      <trkpt lat="46.65297" lon="15.64728">
        <ele>339.481249</ele>
        <time>2022-09-19T09:24:14.171Z</time>
      </trkpt>
      <trkpt lat="46.65306" lon="15.64725">
        <ele>339.768139</ele>
        <time>2022-09-19T09:24:20.188Z</time>
      </trkpt>
      <trkpt lat="46.65315" lon="15.6472">
        <ele>340.066787</ele>
        <time>2022-09-19T09:24:27.183Z</time>
      </trkpt>
      <trkpt lat="46.65325" lon="15.64716">
        <ele>340.359461</ele>
        <time>2022-09-19T09:24:34.188Z</time>
      </trkpt>
      <trkpt lat="46.65335" lon="15.64713">
        <ele>340.670044</ele>
        <time>2022-09-19T09:24:40.192Z</time>
      </trkpt>
      <trkpt lat="46.65344" lon="15.64708">
        <ele>340.959549</ele>
        <time>2022-09-19T09:24:46.183Z</time>
      </trkpt>
      <trkpt lat="46.65355" lon="15.64705">
        <ele>341.281374</ele>
        <time>2022-09-19T09:24:50.189Z</time>
      </trkpt>
      <trkpt lat="46.65364" lon="15.64702">
        <ele>341.561567</ele>
        <time>2022-09-19T09:24:53.197Z</time>
      </trkpt>
      <trkpt lat="46.65374" lon="15.64698">
        <ele>341.873125</ele>
        <time>2022-09-19T09:24:56.165Z</time>
      </trkpt>
      <trkpt lat="46.65385" lon="15.64693">
        <ele>342.222421</ele>
        <time>2022-09-19T09:24:59.180Z</time>
      </trkpt>
      <trkpt lat="46.65397" lon="15.64687">
        <ele>342.542715</ele>
        <time>2022-09-19T09:25:02.184Z</time>
      </trkpt>
      <trkpt lat="46.6541" lon="15.64681">
        <ele>342.470378</ele>
        <time>2022-09-19T09:25:05.189Z</time>
      </trkpt>
      <trkpt lat="46.65422" lon="15.64676">
        <ele>342.400156</ele>
        <time>2022-09-19T09:25:08.195Z</time>
      </trkpt>
      <trkpt lat="46.65431" lon="15.64673">
        <ele>342.347217</ele>
        <time>2022-09-19T09:25:11.171Z</time>
      </trkpt>
      <trkpt lat="46.65441" lon="15.64669">
        <ele>342.288521</ele>
        <time>2022-09-19T09:25:15.191Z</time>
      </trkpt>
      <trkpt lat="46.65453" lon="15.64667">
        <ele>342.22516</ele>
        <time>2022-09-19T09:25:19.175Z</time>
      </trkpt>
      <trkpt lat="46.65464" lon="15.64665">
        <ele>342.158888</ele>
        <time>2022-09-19T09:25:23.174Z</time>
      </trkpt>
      <trkpt lat="46.65474" lon="15.64663">
        <ele>342.104675</ele>
        <time>2022-09-19T09:25:26.173Z</time>
      </trkpt>
      <trkpt lat="46.65485" lon="15.64662">
        <ele>342.043998</ele>
        <time>2022-09-19T09:25:29.173Z</time>
      </trkpt>
      <trkpt lat="46.65496" lon="15.64662">
        <ele>341.98063</ele>
        <time>2022-09-19T09:25:32.206Z</time>
      </trkpt>
      <trkpt lat="46.65509" lon="15.64661">
        <ele>341.908234</ele>
        <time>2022-09-19T09:25:35.173Z</time>
      </trkpt>
      <trkpt lat="46.65519" lon="15.64657">
        <ele>341.852844</ele>
        <time>2022-09-19T09:25:37.203Z</time>
      </trkpt>
      <trkpt lat="46.65528" lon="15.64656">
        <ele>341.802772</ele>
        <time>2022-09-19T09:25:39.181Z</time>
      </trkpt>
      <trkpt lat="46.65541" lon="15.64654">
        <ele>341.730195</ele>
        <time>2022-09-19T09:25:42.181Z</time>
      </trkpt>
      <trkpt lat="46.65552" lon="15.64653">
        <ele>341.665913</ele>
        <time>2022-09-19T09:25:45.181Z</time>
      </trkpt>
      <trkpt lat="46.65563" lon="15.64651">
        <ele>341.605685</ele>
        <time>2022-09-19T09:25:48.196Z</time>
      </trkpt>
      <trkpt lat="46.65574" lon="15.64648">
        <ele>341.60484</ele>
        <time>2022-09-19T09:25:51.205Z</time>
      </trkpt>
      <trkpt lat="46.65584" lon="15.64643">
        <ele>341.976295</ele>
        <time>2022-09-19T09:25:54.185Z</time>
      </trkpt>
      <trkpt lat="46.65594" lon="15.64636">
        <ele>342.367585</ele>
        <time>2022-09-19T09:25:57.186Z</time>
      </trkpt>
      <trkpt lat="46.65604" lon="15.64628">
        <ele>342.749253</ele>
        <time>2022-09-19T09:26:00.182Z</time>
      </trkpt>
      <trkpt lat="46.65613" lon="15.64619">
        <ele>343.14229</ele>
        <time>2022-09-19T09:26:03.210Z</time>
      </trkpt>
      <trkpt lat="46.65623" lon="15.64609">
        <ele>343.580145</ele>
        <time>2022-09-19T09:26:06.184Z</time>
      </trkpt>
      <trkpt lat="46.65634" lon="15.64597">
        <ele>344.040661</ele>
        <time>2022-09-19T09:26:09.184Z</time>
      </trkpt>
      <trkpt lat="46.65645" lon="15.64589">
        <ele>344.484524</ele>
        <time>2022-09-19T09:26:12.180Z</time>
      </trkpt>
      <trkpt lat="46.65654" lon="15.64584">
        <ele>344.823831</ele>
        <time>2022-09-19T09:26:14.215Z</time>
      </trkpt>
      <trkpt lat="46.65664" lon="15.64581">
        <ele>345.187731</ele>
        <time>2022-09-19T09:26:16.181Z</time>
      </trkpt>
      <trkpt lat="46.65675" lon="15.6458">
        <ele>345.564377</ele>
        <time>2022-09-19T09:26:18.170Z</time>
      </trkpt>
      <trkpt lat="46.65685" lon="15.64581">
        <ele>345.912666</ele>
        <time>2022-09-19T09:26:20.174Z</time>
      </trkpt>
      <trkpt lat="46.65697" lon="15.64586">
        <ele>346.344878</ele>
        <time>2022-09-19T09:26:23.182Z</time>
      </trkpt>
      <trkpt lat="46.65707" lon="15.64593">
        <ele>346.726577</ele>
        <time>2022-09-19T09:26:26.192Z</time>
      </trkpt>
      <trkpt lat="46.65716" lon="15.64597">
        <ele>347.058464</ele>
        <time>2022-09-19T09:26:29.179Z</time>
      </trkpt>
      <trkpt lat="46.65726" lon="15.646">
        <ele>347.40769</ele>
        <time>2022-09-19T09:26:32.189Z</time>
      </trkpt>
      <trkpt lat="46.65736" lon="15.64604">
        <ele>347.794109</ele>
        <time>2022-09-19T09:26:35.171Z</time>
      </trkpt>
      <trkpt lat="46.65748" lon="15.64609">
        <ele>348.155599</ele>
        <time>2022-09-19T09:26:38.167Z</time>
      </trkpt>
      <trkpt lat="46.65758" lon="15.64612">
        <ele>348.465515</ele>
        <time>2022-09-19T09:26:41.187Z</time>
      </trkpt>
      <trkpt lat="46.65767" lon="15.64615">
        <ele>348.759049</ele>
        <time>2022-09-19T09:26:44.182Z</time>
      </trkpt>
      <trkpt lat="46.65779" lon="15.64619">
        <ele>349.111994</ele>
        <time>2022-09-19T09:26:47.213Z</time>
      </trkpt>
      <trkpt lat="46.6579" lon="15.64624">
        <ele>349.458817</ele>
        <time>2022-09-19T09:26:50.181Z</time>
      </trkpt>
      <trkpt lat="46.65801" lon="15.64627">
        <ele>349.792521</ele>
        <time>2022-09-19T09:26:53.209Z</time>
      </trkpt>
      <trkpt lat="46.65812" lon="15.6463">
        <ele>350.114111</ele>
        <time>2022-09-19T09:26:56.191Z</time>
      </trkpt>
      <trkpt lat="46.65822" lon="15.64633">
        <ele>350.43998</ele>
        <time>2022-09-19T09:26:59.184Z</time>
      </trkpt>
      <trkpt lat="46.65832" lon="15.64636">
        <ele>350.747285</ele>
        <time>2022-09-19T09:27:02.172Z</time>
      </trkpt>
      <trkpt lat="46.65842" lon="15.64637">
        <ele>351.040415</ele>
        <time>2022-09-19T09:27:05.178Z</time>
      </trkpt>
      <trkpt lat="46.65852" lon="15.64638">
        <ele>351.345243</ele>
        <time>2022-09-19T09:27:08.182Z</time>
      </trkpt>
      <trkpt lat="46.65864" lon="15.64639">
        <ele>351.70148</ele>
        <time>2022-09-19T09:27:11.190Z</time>
      </trkpt>
      <trkpt lat="46.65875" lon="15.64637">
        <ele>352.014123</ele>
        <time>2022-09-19T09:27:14.180Z</time>
      </trkpt>
      <trkpt lat="46.65887" lon="15.64638">
        <ele>352.378341</ele>
        <time>2022-09-19T09:27:18.176Z</time>
      </trkpt>
      <trkpt lat="46.65897" lon="15.64636">
        <ele>352.689943</ele>
        <time>2022-09-19T09:27:21.189Z</time>
      </trkpt>
      <trkpt lat="46.65909" lon="15.64636">
        <ele>353.054345</ele>
        <time>2022-09-19T09:27:25.170Z</time>
      </trkpt>
      <trkpt lat="46.65919" lon="15.64634">
        <ele>353.34013</ele>
        <time>2022-09-19T09:27:28.173Z</time>
      </trkpt>
      <trkpt lat="46.65929" lon="15.64633">
        <ele>353.63585</ele>
        <time>2022-09-19T09:27:31.168Z</time>
      </trkpt>
      <trkpt lat="46.65941" lon="15.6463">
        <ele>353.980895</ele>
        <time>2022-09-19T09:27:34.164Z</time>
      </trkpt>
      <trkpt lat="46.65953" lon="15.64627">
        <ele>354.341414</ele>
        <time>2022-09-19T09:27:37.213Z</time>
      </trkpt>
      <trkpt lat="46.65964" lon="15.64624">
        <ele>354.671964</ele>
        <time>2022-09-19T09:27:40.179Z</time>
      </trkpt>
      <trkpt lat="46.65976" lon="15.6462">
        <ele>355.033999</ele>
        <time>2022-09-19T09:27:43.181Z</time>
      </trkpt>
      <trkpt lat="46.65988" lon="15.64614">
        <ele>355.408001</ele>
        <time>2022-09-19T09:27:46.214Z</time>
      </trkpt>
      <trkpt lat="46.65998" lon="15.64609">
        <ele>355.719429</ele>
        <time>2022-09-19T09:27:49.180Z</time>
      </trkpt>
      <trkpt lat="46.66008" lon="15.64607">
        <ele>356.012732</ele>
        <time>2022-09-19T09:27:52.178Z</time>
      </trkpt>
      <trkpt lat="46.66017" lon="15.64603">
        <ele>356.286867</ele>
        <time>2022-09-19T09:27:55.174Z</time>
      </trkpt>
      <trkpt lat="46.66029" lon="15.646">
        <ele>356.66235</ele>
        <time>2022-09-19T09:27:59.221Z</time>
      </trkpt>
      <trkpt lat="46.6604" lon="15.64597">
        <ele>356.994301</ele>
        <time>2022-09-19T09:28:02.169Z</time>
      </trkpt>
      <trkpt lat="46.66053" lon="15.64594">
        <ele>357.359924</ele>
        <time>2022-09-19T09:28:05.191Z</time>
      </trkpt>
      <trkpt lat="46.66061" lon="15.64591">
        <ele>357.626544</ele>
        <time>2022-09-19T09:28:07.186Z</time>
      </trkpt>
      <trkpt lat="46.66071" lon="15.64589">
        <ele>357.896024</ele>
        <time>2022-09-19T09:28:09.180Z</time>
      </trkpt>
      <trkpt lat="46.66083" lon="15.6459">
        <ele>358.260804</ele>
        <time>2022-09-19T09:28:12.191Z</time>
      </trkpt>
      <trkpt lat="46.66093" lon="15.64592">
        <ele>358.509184</ele>
        <time>2022-09-19T09:28:15.168Z</time>
      </trkpt>
      <trkpt lat="46.66105" lon="15.6459">
        <ele>358.503457</ele>
        <time>2022-09-19T09:28:18.180Z</time>
      </trkpt>
      <trkpt lat="46.66114" lon="15.64587">
        <ele>358.499078</ele>
        <time>2022-09-19T09:28:21.172Z</time>
      </trkpt>
      <trkpt lat="46.66124" lon="15.64579">
        <ele>358.493675</ele>
        <time>2022-09-19T09:28:25.173Z</time>
      </trkpt>
      <trkpt lat="46.66133" lon="15.64571">
        <ele>358.488619</ele>
        <time>2022-09-19T09:28:29.186Z</time>
      </trkpt>
      <trkpt lat="46.66142" lon="15.64563">
        <ele>358.483702</ele>
        <time>2022-09-19T09:28:33.175Z</time>
      </trkpt>
      <trkpt lat="46.66151" lon="15.64555">
        <ele>358.478718</ele>
        <time>2022-09-19T09:28:38.179Z</time>
      </trkpt>
      <trkpt lat="46.6616" lon="15.64548">
        <ele>358.474014</ele>
        <time>2022-09-19T09:28:44.170Z</time>
      </trkpt>
      <trkpt lat="46.66168" lon="15.64541">
        <ele>358.469267</ele>
        <time>2022-09-19T09:28:51.199Z</time>
      </trkpt>
      <trkpt lat="46.66176" lon="15.64533">
        <ele>358.464736</ele>
        <time>2022-09-19T09:28:57.191Z</time>
      </trkpt>
      <trkpt lat="46.66185" lon="15.64528">
        <ele>358.460382</ele>
        <time>2022-09-19T09:29:03.170Z</time>
      </trkpt>
      <trkpt lat="46.66193" lon="15.64518">
        <ele>358.455438</ele>
        <time>2022-09-19T09:29:11.242Z</time>
      </trkpt>
      <trkpt lat="46.66201" lon="15.6451">
        <ele>358.45079</ele>
        <time>2022-09-19T09:29:17.176Z</time>
      </trkpt>
      <trkpt lat="46.66209" lon="15.64503">
        <ele>358.446479</ele>
        <time>2022-09-19T09:29:22.212Z</time>
      </trkpt>
      <trkpt lat="46.66217" lon="15.64495">
        <ele>358.44168</ele>
        <time>2022-09-19T09:29:28.164Z</time>
      </trkpt>
      <trkpt lat="46.66227" lon="15.64489">
        <ele>358.436569</ele>
        <time>2022-09-19T09:29:34.190Z</time>
      </trkpt>
      <trkpt lat="46.66235" lon="15.64496">
        <ele>358.431952</ele>
        <time>2022-09-19T09:29:38.183Z</time>
      </trkpt>
      <trkpt lat="46.66237" lon="15.64509">
        <ele>358.427418</ele>
        <time>2022-09-19T09:29:44.207Z</time>
      </trkpt>
      <trkpt lat="46.6624" lon="15.64523">
        <ele>358.820745</ele>
        <time>2022-09-19T09:29:50.218Z</time>
      </trkpt>
      <trkpt lat="46.66244" lon="15.64537">
        <ele>359.81457</ele>
        <time>2022-09-19T09:29:56.175Z</time>
      </trkpt>
      <trkpt lat="46.66248" lon="15.64549">
        <ele>360.734107</ele>
        <time>2022-09-19T09:30:02.178Z</time>
      </trkpt>
      <trkpt lat="46.66254" lon="15.64561">
        <ele>361.748677</ele>
        <time>2022-09-19T09:30:09.185Z</time>
      </trkpt>
      <trkpt lat="46.66258" lon="15.64575">
        <ele>362.756949</ele>
        <time>2022-09-19T09:30:18.184Z</time>
      </trkpt>
      <trkpt lat="46.66261" lon="15.64588">
        <ele>363.710125</ele>
        <time>2022-09-19T09:30:22.166Z</time>
      </trkpt>
      <trkpt lat="46.66266" lon="15.646">
        <ele>364.636496</ele>
        <time>2022-09-19T09:30:27.182Z</time>
      </trkpt>
      <trkpt lat="46.66275" lon="15.64605">
        <ele>365.569157</ele>
        <time>2022-09-19T09:30:37.184Z</time>
      </trkpt>
      <trkpt lat="46.66284" lon="15.64608">
        <ele>366.463076</ele>
        <time>2022-09-19T09:30:44.179Z</time>
      </trkpt>
      <trkpt lat="46.66294" lon="15.64605">
        <ele>367.470869</ele>
        <time>2022-09-19T09:30:52.180Z</time>
      </trkpt>
      <trkpt lat="46.66304" lon="15.64605">
        <ele>368.475462</ele>
        <time>2022-09-19T09:31:00.176Z</time>
      </trkpt>
      <trkpt lat="46.66313" lon="15.64603">
        <ele>369.410996</ele>
        <time>2022-09-19T09:31:09.196Z</time>
      </trkpt>
      <trkpt lat="46.66329" lon="15.64597">
        <ele>371.033095</ele>
        <time>2022-09-19T09:36:23.203Z</time>
      </trkpt>
      <trkpt lat="46.66338" lon="15.64598">
        <ele>371.930516</ele>
        <time>2022-09-19T09:36:31.179Z</time>
      </trkpt>
      <trkpt lat="46.66348" lon="15.64596">
        <ele>372.913894</ele>
        <time>2022-09-19T09:36:39.167Z</time>
      </trkpt>
      <trkpt lat="46.66358" lon="15.64594">
        <ele>373.845218</ele>
        <time>2022-09-19T09:36:47.204Z</time>
      </trkpt>
      <trkpt lat="46.66367" lon="15.64591">
        <ele>374.776695</ele>
        <time>2022-09-19T09:36:54.168Z</time>
      </trkpt>
      <trkpt lat="46.66376" lon="15.64588">
        <ele>375.671966</ele>
        <time>2022-09-19T09:37:01.192Z</time>
      </trkpt>
      <trkpt lat="46.66385" lon="15.64584">
        <ele>376.536644</ele>
        <time>2022-09-19T09:37:09.165Z</time>
      </trkpt>
      <trkpt lat="46.66394" lon="15.64581">
        <ele>377.270401</ele>
        <time>2022-09-19T09:37:17.198Z</time>
      </trkpt>
      <trkpt lat="46.66403" lon="15.64578">
        <ele>378.089345</ele>
        <time>2022-09-19T09:37:26.189Z</time>
      </trkpt>
      <trkpt lat="46.66413" lon="15.64575">
        <ele>378.898256</ele>
        <time>2022-09-19T09:37:36.184Z</time>
      </trkpt>
      <trkpt lat="46.66422" lon="15.64572">
        <ele>379.68521</ele>
        <time>2022-09-19T09:37:45.172Z</time>
      </trkpt>
      <trkpt lat="46.66431" lon="15.6457">
        <ele>380.4395</ele>
        <time>2022-09-19T09:37:53.180Z</time>
      </trkpt>
      <trkpt lat="46.66441" lon="15.64569">
        <ele>381.231674</ele>
        <time>2022-09-19T09:38:02.165Z</time>
      </trkpt>
      <trkpt lat="46.66451" lon="15.64567">
        <ele>382.051246</ele>
        <time>2022-09-19T09:38:11.189Z</time>
      </trkpt>
      <trkpt lat="46.6646" lon="15.64568">
        <ele>382.81754</ele>
        <time>2022-09-19T09:38:20.180Z</time>
      </trkpt>
      <trkpt lat="46.66469" lon="15.64567">
        <ele>383.571134</ele>
        <time>2022-09-19T09:38:28.179Z</time>
      </trkpt>
      <trkpt lat="46.66479" lon="15.64568">
        <ele>384.341736</ele>
        <time>2022-09-19T09:38:36.176Z</time>
      </trkpt>
      <trkpt lat="46.66488" lon="15.6457">
        <ele>385.09296</ele>
        <time>2022-09-19T09:38:44.180Z</time>
      </trkpt>
      <trkpt lat="46.66498" lon="15.64572">
        <ele>385.913929</ele>
        <time>2022-09-19T09:38:53.185Z</time>
      </trkpt>
      <trkpt lat="46.66507" lon="15.64573">
        <ele>386.666254</ele>
        <time>2022-09-19T09:39:01.191Z</time>
      </trkpt>
      <trkpt lat="46.66515" lon="15.64578">
        <ele>387.451291</ele>
        <time>2022-09-19T09:39:11.179Z</time>
      </trkpt>
      <trkpt lat="46.66523" lon="15.64586">
        <ele>388.222732</ele>
        <time>2022-09-19T09:39:20.213Z</time>
      </trkpt>
      <trkpt lat="46.6653" lon="15.64596">
        <ele>389.020822</ele>
        <time>2022-09-19T09:39:29.176Z</time>
      </trkpt>
      <trkpt lat="46.66534" lon="15.64608">
        <ele>389.797421</ele>
        <time>2022-09-19T09:39:38.210Z</time>
      </trkpt>
      <trkpt lat="46.66536" lon="15.64621">
        <ele>390.538556</ele>
        <time>2022-09-19T09:39:46.184Z</time>
      </trkpt>
      <trkpt lat="46.66536" lon="15.64635">
        <ele>390.790846</ele>
        <time>2022-09-19T09:39:55.198Z</time>
      </trkpt>
      <trkpt lat="46.66529" lon="15.64664">
        <ele>390.235674</ele>
        <time>2022-09-19T09:40:37.185Z</time>
      </trkpt>
      <trkpt lat="46.66523" lon="15.64674">
        <ele>389.984804</ele>
        <time>2022-09-19T09:40:44.178Z</time>
      </trkpt>
      <trkpt lat="46.66514" lon="15.64684">
        <ele>389.678087</ele>
        <time>2022-09-19T09:40:50.226Z</time>
      </trkpt>
      <trkpt lat="46.66505" lon="15.6469">
        <ele>389.430113</ele>
        <time>2022-09-19T09:40:53.181Z</time>
      </trkpt>
      <trkpt lat="46.66496" lon="15.64699">
        <ele>389.125764</ele>
        <time>2022-09-19T09:40:56.164Z</time>
      </trkpt>
      <trkpt lat="46.66488" lon="15.64707">
        <ele>388.882795</ele>
        <time>2022-09-19T09:40:58.187Z</time>
      </trkpt>
      <trkpt lat="46.66479" lon="15.64719">
        <ele>388.555037</ele>
        <time>2022-09-19T09:41:01.174Z</time>
      </trkpt>
      <trkpt lat="46.66473" lon="15.64732">
        <ele>388.257186</ele>
        <time>2022-09-19T09:41:04.183Z</time>
      </trkpt>
      <trkpt lat="46.6647" lon="15.64744">
        <ele>388.017032</ele>
        <time>2022-09-19T09:41:06.208Z</time>
      </trkpt>
      <trkpt lat="46.66467" lon="15.64759">
        <ele>387.743491</ele>
        <time>2022-09-19T09:41:08.157Z</time>
      </trkpt>
      <trkpt lat="46.66468" lon="15.64774">
        <ele>387.46288</ele>
        <time>2022-09-19T09:41:10.188Z</time>
      </trkpt>
      <trkpt lat="46.66471" lon="15.6479">
        <ele>387.155876</ele>
        <time>2022-09-19T09:41:12.204Z</time>
      </trkpt>
      <trkpt lat="46.66474" lon="15.64805">
        <ele>386.865165</ele>
        <time>2022-09-19T09:41:14.214Z</time>
      </trkpt>
      <trkpt lat="46.6648" lon="15.6482">
        <ele>386.564258</ele>
        <time>2022-09-19T09:41:16.163Z</time>
      </trkpt>
      <trkpt lat="46.66487" lon="15.64835">
        <ele>386.223938</ele>
        <time>2022-09-19T09:41:18.176Z</time>
      </trkpt>
      <trkpt lat="46.66497" lon="15.6485">
        <ele>384.845728</ele>
        <time>2022-09-19T09:41:20.173Z</time>
      </trkpt>
      <trkpt lat="46.66506" lon="15.64864">
        <ele>383.216121</ele>
        <time>2022-09-19T09:41:22.179Z</time>
      </trkpt>
      <trkpt lat="46.66515" lon="15.64878">
        <ele>381.662638</ele>
        <time>2022-09-19T09:41:24.171Z</time>
      </trkpt>
      <trkpt lat="46.66523" lon="15.6489">
        <ele>380.270109</ele>
        <time>2022-09-19T09:41:26.197Z</time>
      </trkpt>
      <trkpt lat="46.6653" lon="15.64904">
        <ele>378.832759</ele>
        <time>2022-09-19T09:41:28.179Z</time>
      </trkpt>
      <trkpt lat="46.66536" lon="15.64918">
        <ele>377.422473</ele>
        <time>2022-09-19T09:41:30.180Z</time>
      </trkpt>
      <trkpt lat="46.66541" lon="15.64933">
        <ele>376.023446</ele>
        <time>2022-09-19T09:41:32.199Z</time>
      </trkpt>
      <trkpt lat="46.66544" lon="15.64948">
        <ele>374.672615</ele>
        <time>2022-09-19T09:41:34.174Z</time>
      </trkpt>
      <trkpt lat="46.66549" lon="15.64964">
        <ele>373.232044</ele>
        <time>2022-09-19T09:41:36.185Z</time>
      </trkpt>
      <trkpt lat="46.66553" lon="15.64982">
        <ele>371.665815</ele>
        <time>2022-09-19T09:41:38.190Z</time>
      </trkpt>
      <trkpt lat="46.66557" lon="15.64998">
        <ele>370.203866</ele>
        <time>2022-09-19T09:41:40.200Z</time>
      </trkpt>
      <trkpt lat="46.66561" lon="15.65015">
        <ele>368.738162</ele>
        <time>2022-09-19T09:41:42.188Z</time>
      </trkpt>
      <trkpt lat="46.66565" lon="15.65032">
        <ele>367.184785</ele>
        <time>2022-09-19T09:41:44.194Z</time>
      </trkpt>
      <trkpt lat="46.66569" lon="15.6505">
        <ele>365.639849</ele>
        <time>2022-09-19T09:41:46.179Z</time>
      </trkpt>
      <trkpt lat="46.66573" lon="15.65067">
        <ele>364.156659</ele>
        <time>2022-09-19T09:41:48.184Z</time>
      </trkpt>
      <trkpt lat="46.66578" lon="15.65087">
        <ele>362.107685</ele>
        <time>2022-09-19T09:41:50.181Z</time>
      </trkpt>
      <trkpt lat="46.66583" lon="15.65108">
        <ele>359.945089</ele>
        <time>2022-09-19T09:41:52.183Z</time>
      </trkpt>
      <trkpt lat="46.66588" lon="15.65129">
        <ele>357.769148</ele>
        <time>2022-09-19T09:41:54.215Z</time>
      </trkpt>
      <trkpt lat="46.66593" lon="15.65151">
        <ele>355.565592</ele>
        <time>2022-09-19T09:41:56.181Z</time>
      </trkpt>
      <trkpt lat="46.66598" lon="15.65173">
        <ele>353.321472</ele>
        <time>2022-09-19T09:41:58.187Z</time>
      </trkpt>
      <trkpt lat="46.66604" lon="15.65195">
        <ele>351.023523</ele>
        <time>2022-09-19T09:42:00.162Z</time>
      </trkpt>
      <trkpt lat="46.66611" lon="15.65215">
        <ele>348.877601</ele>
        <time>2022-09-19T09:42:02.180Z</time>
      </trkpt>
      <trkpt lat="46.66619" lon="15.65234">
        <ele>346.795123</ele>
        <time>2022-09-19T09:42:04.185Z</time>
      </trkpt>
      <trkpt lat="46.66626" lon="15.65252">
        <ele>344.78853</ele>
        <time>2022-09-19T09:42:06.201Z</time>
      </trkpt>
      <trkpt lat="46.66631" lon="15.65269">
        <ele>343.020435</ele>
        <time>2022-09-19T09:42:08.174Z</time>
      </trkpt>
      <trkpt lat="46.66635" lon="15.65285">
        <ele>341.322588</ele>
        <time>2022-09-19T09:42:10.205Z</time>
      </trkpt>
      <trkpt lat="46.66636" lon="15.65304">
        <ele>339.475251</ele>
        <time>2022-09-19T09:42:12.178Z</time>
      </trkpt>
      <trkpt lat="46.66634" lon="15.65325">
        <ele>338.247007</ele>
        <time>2022-09-19T09:42:14.179Z</time>
      </trkpt>
      <trkpt lat="46.6663" lon="15.65343">
        <ele>337.353719</ele>
        <time>2022-09-19T09:42:16.241Z</time>
      </trkpt>
      <trkpt lat="46.66624" lon="15.6536">
        <ele>336.480621</ele>
        <time>2022-09-19T09:42:18.192Z</time>
      </trkpt>
      <trkpt lat="46.66618" lon="15.65375">
        <ele>335.637049</ele>
        <time>2022-09-19T09:42:20.176Z</time>
      </trkpt>
      <trkpt lat="46.66612" lon="15.65391">
        <ele>334.81738</ele>
        <time>2022-09-19T09:42:22.187Z</time>
      </trkpt>
      <trkpt lat="46.66605" lon="15.65406">
        <ele>333.996642</ele>
        <time>2022-09-19T09:42:24.205Z</time>
      </trkpt>
      <trkpt lat="46.666" lon="15.65422">
        <ele>333.167691</ele>
        <time>2022-09-19T09:42:26.189Z</time>
      </trkpt>
      <trkpt lat="46.66594" lon="15.65436">
        <ele>332.384541</ele>
        <time>2022-09-19T09:42:28.165Z</time>
      </trkpt>
      <trkpt lat="46.66588" lon="15.65451">
        <ele>331.603146</ele>
        <time>2022-09-19T09:42:30.167Z</time>
      </trkpt>
      <trkpt lat="46.66583" lon="15.65466">
        <ele>330.82248</ele>
        <time>2022-09-19T09:42:32.177Z</time>
      </trkpt>
      <trkpt lat="46.66577" lon="15.65482">
        <ele>329.97999</ele>
        <time>2022-09-19T09:42:34.178Z</time>
      </trkpt>
      <trkpt lat="46.66571" lon="15.65498">
        <ele>329.13749</ele>
        <time>2022-09-19T09:42:36.169Z</time>
      </trkpt>
      <trkpt lat="46.66566" lon="15.65513">
        <ele>328.344359</ele>
        <time>2022-09-19T09:42:38.222Z</time>
      </trkpt>
      <trkpt lat="46.66561" lon="15.65527">
        <ele>327.601894</ele>
        <time>2022-09-19T09:42:40.172Z</time>
      </trkpt>
      <trkpt lat="46.66556" lon="15.65541">
        <ele>326.889421</ele>
        <time>2022-09-19T09:42:42.191Z</time>
      </trkpt>
      <trkpt lat="46.66551" lon="15.65554">
        <ele>326.954932</ele>
        <time>2022-09-19T09:42:44.182Z</time>
      </trkpt>
      <trkpt lat="46.66547" lon="15.65566">
        <ele>327.147311</ele>
        <time>2022-09-19T09:42:46.191Z</time>
      </trkpt>
      <trkpt lat="46.66541" lon="15.65577">
        <ele>327.330233</ele>
        <time>2022-09-19T09:42:48.197Z</time>
      </trkpt>
      <trkpt lat="46.66533" lon="15.65592">
        <ele>327.595316</ele>
        <time>2022-09-19T09:42:51.178Z</time>
      </trkpt>
      <trkpt lat="46.66523" lon="15.65604">
        <ele>327.853085</ele>
        <time>2022-09-19T09:42:54.182Z</time>
      </trkpt>
      <trkpt lat="46.66515" lon="15.65616">
        <ele>328.083149</ele>
        <time>2022-09-19T09:42:57.181Z</time>
      </trkpt>
      <trkpt lat="46.66506" lon="15.65625">
        <ele>328.299804</ele>
        <time>2022-09-19T09:43:00.220Z</time>
      </trkpt>
      <trkpt lat="46.66497" lon="15.65634">
        <ele>328.519828</ele>
        <time>2022-09-19T09:43:04.186Z</time>
      </trkpt>
      <trkpt lat="46.66488" lon="15.65641">
        <ele>328.723527</ele>
        <time>2022-09-19T09:43:08.169Z</time>
      </trkpt>
      <trkpt lat="46.6648" lon="15.65649">
        <ele>328.926671</ele>
        <time>2022-09-19T09:43:12.180Z</time>
      </trkpt>
      <trkpt lat="46.66469" lon="15.65657">
        <ele>329.165832</ele>
        <time>2022-09-19T09:43:16.182Z</time>
      </trkpt>
      <trkpt lat="46.66462" lon="15.65666">
        <ele>329.356718</ele>
        <time>2022-09-19T09:43:19.194Z</time>
      </trkpt>
      <trkpt lat="46.66453" lon="15.65678">
        <ele>329.600697</ele>
        <time>2022-09-19T09:43:22.219Z</time>
      </trkpt>
      <trkpt lat="46.66443" lon="15.65691">
        <ele>329.862778</ele>
        <time>2022-09-19T09:43:25.186Z</time>
      </trkpt>
      <trkpt lat="46.66437" lon="15.65701">
        <ele>330.046779</ele>
        <time>2022-09-19T09:43:27.182Z</time>
      </trkpt>
      <trkpt lat="46.66432" lon="15.65711">
        <ele>330.229991</ele>
        <time>2022-09-19T09:43:29.177Z</time>
      </trkpt>
      <trkpt lat="46.66427" lon="15.65723">
        <ele>330.373963</ele>
        <time>2022-09-19T09:43:31.177Z</time>
      </trkpt>
      <trkpt lat="46.66421" lon="15.65735">
        <ele>330.221389</ele>
        <time>2022-09-19T09:43:33.261Z</time>
      </trkpt>
      <trkpt lat="46.66417" lon="15.65747">
        <ele>330.076865</ele>
        <time>2022-09-19T09:43:35.179Z</time>
      </trkpt>
      <trkpt lat="46.66413" lon="15.6576">
        <ele>329.928738</ele>
        <time>2022-09-19T09:43:37.184Z</time>
      </trkpt>
      <trkpt lat="46.66409" lon="15.65774">
        <ele>329.766413</ele>
        <time>2022-09-19T09:43:39.177Z</time>
      </trkpt>
      <trkpt lat="46.66407" lon="15.65788">
        <ele>329.609015</ele>
        <time>2022-09-19T09:43:41.175Z</time>
      </trkpt>
      <trkpt lat="46.66405" lon="15.65803">
        <ele>329.451399</ele>
        <time>2022-09-19T09:43:43.175Z</time>
      </trkpt>
      <trkpt lat="46.66403" lon="15.65818">
        <ele>329.287719</ele>
        <time>2022-09-19T09:43:45.194Z</time>
      </trkpt>
      <trkpt lat="46.66401" lon="15.65834">
        <ele>329.113315</ele>
        <time>2022-09-19T09:43:47.175Z</time>
      </trkpt>
      <trkpt lat="46.66399" lon="15.6585">
        <ele>328.939432</ele>
        <time>2022-09-19T09:43:49.174Z</time>
      </trkpt>
      <trkpt lat="46.66397" lon="15.65866">
        <ele>328.761817</ele>
        <time>2022-09-19T09:43:51.193Z</time>
      </trkpt>
      <trkpt lat="46.66395" lon="15.65882">
        <ele>328.588206</ele>
        <time>2022-09-19T09:43:53.186Z</time>
      </trkpt>
      <trkpt lat="46.66393" lon="15.65897">
        <ele>328.426449</ele>
        <time>2022-09-19T09:43:55.215Z</time>
      </trkpt>
      <trkpt lat="46.66392" lon="15.6591">
        <ele>328.280696</ele>
        <time>2022-09-19T09:43:57.200Z</time>
      </trkpt>
      <trkpt lat="46.6639" lon="15.65928">
        <ele>328.089816</ele>
        <time>2022-09-19T09:44:00.192Z</time>
      </trkpt>
      <trkpt lat="46.66392" lon="15.65944">
        <ele>327.921395</ele>
        <time>2022-09-19T09:44:03.180Z</time>
      </trkpt>
      <trkpt lat="46.664" lon="15.65952">
        <ele>327.75502</ele>
        <time>2022-09-19T09:44:06.177Z</time>
      </trkpt>
      <trkpt lat="46.66413" lon="15.65956">
        <ele>327.629896</ele>
        <time>2022-09-19T09:44:09.192Z</time>
      </trkpt>
      <trkpt lat="46.66425" lon="15.65957">
        <ele>327.789725</ele>
        <time>2022-09-19T09:44:12.252Z</time>
      </trkpt>
      <trkpt lat="46.66437" lon="15.65961">
        <ele>327.965663</ele>
        <time>2022-09-19T09:44:15.181Z</time>
      </trkpt>
      <trkpt lat="46.66449" lon="15.65966">
        <ele>328.14153</ele>
        <time>2022-09-19T09:44:18.186Z</time>
      </trkpt>
      <trkpt lat="46.6646" lon="15.65973">
        <ele>328.312392</ele>
        <time>2022-09-19T09:44:21.195Z</time>
      </trkpt>
      <trkpt lat="46.66471" lon="15.6598">
        <ele>328.478651</ele>
        <time>2022-09-19T09:44:24.177Z</time>
      </trkpt>
      <trkpt lat="46.6648" lon="15.6599">
        <ele>328.636259</ele>
        <time>2022-09-19T09:44:27.185Z</time>
      </trkpt>
      <trkpt lat="46.66489" lon="15.66">
        <ele>328.795565</ele>
        <time>2022-09-19T09:44:30.178Z</time>
      </trkpt>
      <trkpt lat="46.66497" lon="15.66009">
        <ele>328.941374</ele>
        <time>2022-09-19T09:44:33.183Z</time>
      </trkpt>
      <trkpt lat="46.66505" lon="15.66019">
        <ele>329.083324</ele>
        <time>2022-09-19T09:44:36.194Z</time>
      </trkpt>
      <trkpt lat="46.66511" lon="15.66028">
        <ele>329.211531</ele>
        <time>2022-09-19T09:44:39.180Z</time>
      </trkpt>
      <trkpt lat="46.66519" lon="15.66038">
        <ele>329.361726</ele>
        <time>2022-09-19T09:44:43.181Z</time>
      </trkpt>
      <trkpt lat="46.66527" lon="15.6605">
        <ele>329.520164</ele>
        <time>2022-09-19T09:44:47.194Z</time>
      </trkpt>
      <trkpt lat="46.66537" lon="15.66061">
        <ele>329.690908</ele>
        <time>2022-09-19T09:44:51.178Z</time>
      </trkpt>
      <trkpt lat="46.66544" lon="15.6607">
        <ele>329.828692</ele>
        <time>2022-09-19T09:44:54.177Z</time>
      </trkpt>
      <trkpt lat="46.66552" lon="15.66079">
        <ele>329.965717</ele>
        <time>2022-09-19T09:44:57.184Z</time>
      </trkpt>
      <trkpt lat="46.6656" lon="15.66086">
        <ele>330.094318</ele>
        <time>2022-09-19T09:45:00.182Z</time>
      </trkpt>
      <trkpt lat="46.66568" lon="15.66094">
        <ele>330.310644</ele>
        <time>2022-09-19T09:45:03.214Z</time>
      </trkpt>
      <trkpt lat="46.66576" lon="15.66102">
        <ele>330.552322</ele>
        <time>2022-09-19T09:45:06.186Z</time>
      </trkpt>
      <trkpt lat="46.66584" lon="15.66111">
        <ele>330.798874</ele>
        <time>2022-09-19T09:45:09.191Z</time>
      </trkpt>
      <trkpt lat="46.66592" lon="15.66119">
        <ele>331.042584</ele>
        <time>2022-09-19T09:45:12.185Z</time>
      </trkpt>
      <trkpt lat="46.66601" lon="15.66128">
        <ele>331.310055</ele>
        <time>2022-09-19T09:45:15.174Z</time>
      </trkpt>
      <trkpt lat="46.6661" lon="15.66137">
        <ele>331.5785</ele>
        <time>2022-09-19T09:45:18.178Z</time>
      </trkpt>
      <trkpt lat="46.66618" lon="15.66147">
        <ele>331.834529</ele>
        <time>2022-09-19T09:45:21.179Z</time>
      </trkpt>
      <trkpt lat="46.66626" lon="15.66157">
        <ele>332.103824</ele>
        <time>2022-09-19T09:45:24.208Z</time>
      </trkpt>
      <trkpt lat="46.66635" lon="15.66168">
        <ele>332.39659</ele>
        <time>2022-09-19T09:45:27.178Z</time>
      </trkpt>
      <trkpt lat="46.66645" lon="15.66179">
        <ele>332.694051</ele>
        <time>2022-09-19T09:45:30.214Z</time>
      </trkpt>
      <trkpt lat="46.66655" lon="15.6619">
        <ele>332.999303</ele>
        <time>2022-09-19T09:45:33.193Z</time>
      </trkpt>
      <trkpt lat="46.66665" lon="15.662">
        <ele>333.307706</ele>
        <time>2022-09-19T09:45:36.187Z</time>
      </trkpt>
      <trkpt lat="46.66676" lon="15.66211">
        <ele>333.624859</ele>
        <time>2022-09-19T09:45:39.182Z</time>
      </trkpt>
      <trkpt lat="46.66686" lon="15.66222">
        <ele>333.933092</ele>
        <time>2022-09-19T09:45:42.190Z</time>
      </trkpt>
      <trkpt lat="46.66695" lon="15.66233">
        <ele>334.237552</ele>
        <time>2022-09-19T09:45:45.198Z</time>
      </trkpt>
      <trkpt lat="46.66706" lon="15.66243">
        <ele>334.544868</ele>
        <time>2022-09-19T09:45:48.181Z</time>
      </trkpt>
      <trkpt lat="46.66716" lon="15.66253">
        <ele>334.926787</ele>
        <time>2022-09-19T09:45:51.182Z</time>
      </trkpt>
      <trkpt lat="46.66727" lon="15.66262">
        <ele>335.300923</ele>
        <time>2022-09-19T09:45:54.189Z</time>
      </trkpt>
      <trkpt lat="46.66737" lon="15.6627">
        <ele>335.665808</ele>
        <time>2022-09-19T09:45:57.200Z</time>
      </trkpt>
      <trkpt lat="46.66748" lon="15.66278">
        <ele>336.04245</ele>
        <time>2022-09-19T09:46:00.194Z</time>
      </trkpt>
      <trkpt lat="46.6676" lon="15.66285">
        <ele>336.439436</ele>
        <time>2022-09-19T09:46:03.169Z</time>
      </trkpt>
      <trkpt lat="46.66773" lon="15.6629">
        <ele>336.83292</ele>
        <time>2022-09-19T09:46:06.208Z</time>
      </trkpt>
      <trkpt lat="46.66784" lon="15.66295">
        <ele>337.203274</ele>
        <time>2022-09-19T09:46:09.189Z</time>
      </trkpt>
      <trkpt lat="46.66796" lon="15.663">
        <ele>337.568443</ele>
        <time>2022-09-19T09:46:12.193Z</time>
      </trkpt>
      <trkpt lat="46.66807" lon="15.66303">
        <ele>337.919388</ele>
        <time>2022-09-19T09:46:15.189Z</time>
      </trkpt>
      <trkpt lat="46.66817" lon="15.66305">
        <ele>338.242149</ele>
        <time>2022-09-19T09:46:18.173Z</time>
      </trkpt>
      <trkpt lat="46.66827" lon="15.66308">
        <ele>338.553415</ele>
        <time>2022-09-19T09:46:21.192Z</time>
      </trkpt>
      <trkpt lat="46.66837" lon="15.66308">
        <ele>338.848379</ele>
        <time>2022-09-19T09:46:24.179Z</time>
      </trkpt>
      <trkpt lat="46.66847" lon="15.66308">
        <ele>339.152444</ele>
        <time>2022-09-19T09:46:27.176Z</time>
      </trkpt>
      <trkpt lat="46.66856" lon="15.66307">
        <ele>339.441521</ele>
        <time>2022-09-19T09:46:30.215Z</time>
      </trkpt>
      <trkpt lat="46.66867" lon="15.66307">
        <ele>339.764446</ele>
        <time>2022-09-19T09:46:33.210Z</time>
      </trkpt>
      <trkpt lat="46.66876" lon="15.66306">
        <ele>340.06603</ele>
        <time>2022-09-19T09:46:36.174Z</time>
      </trkpt>
      <trkpt lat="46.66886" lon="15.66305">
        <ele>340.198566</ele>
        <time>2022-09-19T09:46:39.182Z</time>
      </trkpt>
      <trkpt lat="46.66897" lon="15.66304">
        <ele>340.338835</ele>
        <time>2022-09-19T09:46:42.180Z</time>
      </trkpt>
      <trkpt lat="46.66907" lon="15.66302">
        <ele>340.473971</ele>
        <time>2022-09-19T09:46:45.229Z</time>
      </trkpt>
      <trkpt lat="46.66916" lon="15.66301">
        <ele>340.60413</ele>
        <time>2022-09-19T09:46:48.177Z</time>
      </trkpt>
      <trkpt lat="46.66927" lon="15.66299">
        <ele>340.739806</ele>
        <time>2022-09-19T09:46:51.180Z</time>
      </trkpt>
      <trkpt lat="46.66937" lon="15.66297">
        <ele>340.877346</ele>
        <time>2022-09-19T09:46:54.183Z</time>
      </trkpt>
      <trkpt lat="46.66947" lon="15.66296">
        <ele>341.014962</ele>
        <time>2022-09-19T09:46:57.186Z</time>
      </trkpt>
      <trkpt lat="46.66958" lon="15.66294">
        <ele>341.155586</ele>
        <time>2022-09-19T09:47:00.179Z</time>
      </trkpt>
      <trkpt lat="46.66968" lon="15.66292">
        <ele>341.300742</ele>
        <time>2022-09-19T09:47:03.182Z</time>
      </trkpt>
      <trkpt lat="46.66979" lon="15.6629">
        <ele>341.447344</ele>
        <time>2022-09-19T09:47:06.181Z</time>
      </trkpt>
      <trkpt lat="46.6699" lon="15.66287">
        <ele>341.593359</ele>
        <time>2022-09-19T09:47:09.195Z</time>
      </trkpt>
      <trkpt lat="46.67001" lon="15.66283">
        <ele>341.740067</ele>
        <time>2022-09-19T09:47:12.189Z</time>
      </trkpt>
      <trkpt lat="46.67011" lon="15.66278">
        <ele>341.87885</ele>
        <time>2022-09-19T09:47:15.190Z</time>
      </trkpt>
      <trkpt lat="46.67022" lon="15.66274">
        <ele>342.027178</ele>
        <time>2022-09-19T09:47:18.212Z</time>
      </trkpt>
      <trkpt lat="46.67032" lon="15.66269">
        <ele>342.17168</ele>
        <time>2022-09-19T09:47:21.190Z</time>
      </trkpt>
      <trkpt lat="46.67041" lon="15.66262">
        <ele>342.310591</ele>
        <time>2022-09-19T09:47:24.180Z</time>
      </trkpt>
      <trkpt lat="46.6705" lon="15.66254">
        <ele>342.455951</ele>
        <time>2022-09-19T09:47:27.215Z</time>
      </trkpt>
      <trkpt lat="46.67059" lon="15.66243">
        <ele>342.286402</ele>
        <time>2022-09-19T09:47:30.213Z</time>
      </trkpt>
      <trkpt lat="46.67066" lon="15.66233">
        <ele>342.11247</ele>
        <time>2022-09-19T09:47:33.183Z</time>
      </trkpt>
      <trkpt lat="46.67073" lon="15.66223">
        <ele>341.93934</ele>
        <time>2022-09-19T09:47:36.198Z</time>
      </trkpt>
      <trkpt lat="46.67081" lon="15.66211">
        <ele>341.747674</ele>
        <time>2022-09-19T09:47:39.190Z</time>
      </trkpt>
      <trkpt lat="46.67088" lon="15.66198">
        <ele>341.552516</ele>
        <time>2022-09-19T09:47:42.190Z</time>
      </trkpt>
      <trkpt lat="46.67096" lon="15.66184">
        <ele>341.338607</ele>
        <time>2022-09-19T09:47:45.177Z</time>
      </trkpt>
      <trkpt lat="46.67104" lon="15.66171">
        <ele>341.1276</ele>
        <time>2022-09-19T09:47:48.179Z</time>
      </trkpt>
      <trkpt lat="46.67113" lon="15.66156">
        <ele>340.901114</ele>
        <time>2022-09-19T09:47:51.176Z</time>
      </trkpt>
      <trkpt lat="46.67121" lon="15.66141">
        <ele>340.67598</ele>
        <time>2022-09-19T09:47:54.185Z</time>
      </trkpt>
      <trkpt lat="46.67126" lon="15.6613">
        <ele>340.517325</ele>
        <time>2022-09-19T09:47:56.179Z</time>
      </trkpt>
      <trkpt lat="46.67133" lon="15.66115">
        <ele>340.300329</ele>
        <time>2022-09-19T09:47:59.175Z</time>
      </trkpt>
      <trkpt lat="46.6714" lon="15.66101">
        <ele>340.100726</ele>
        <time>2022-09-19T09:48:02.189Z</time>
      </trkpt>
      <trkpt lat="46.67147" lon="15.66086">
        <ele>339.883617</ele>
        <time>2022-09-19T09:48:05.172Z</time>
      </trkpt>
      <trkpt lat="46.67155" lon="15.66071">
        <ele>339.659417</ele>
        <time>2022-09-19T09:48:08.197Z</time>
      </trkpt>
      <trkpt lat="46.67163" lon="15.66057">
        <ele>339.446756</ele>
        <time>2022-09-19T09:48:11.179Z</time>
      </trkpt>
      <trkpt lat="46.67171" lon="15.66043">
        <ele>339.498828</ele>
        <time>2022-09-19T09:48:14.219Z</time>
      </trkpt>
      <trkpt lat="46.67179" lon="15.66029">
        <ele>339.688062</ele>
        <time>2022-09-19T09:48:17.181Z</time>
      </trkpt>
      <trkpt lat="46.67188" lon="15.66016">
        <ele>339.890128</ele>
        <time>2022-09-19T09:48:20.198Z</time>
      </trkpt>
      <trkpt lat="46.67196" lon="15.66002">
        <ele>340.087289</ele>
        <time>2022-09-19T09:48:23.192Z</time>
      </trkpt>
      <trkpt lat="46.67205" lon="15.65988">
        <ele>340.291431</ele>
        <time>2022-09-19T09:48:26.194Z</time>
      </trkpt>
      <trkpt lat="46.67214" lon="15.65974">
        <ele>340.489288</ele>
        <time>2022-09-19T09:48:29.182Z</time>
      </trkpt>
      <trkpt lat="46.67223" lon="15.6596">
        <ele>340.693939</ele>
        <time>2022-09-19T09:48:32.182Z</time>
      </trkpt>
      <trkpt lat="46.67232" lon="15.65946">
        <ele>340.900695</ele>
        <time>2022-09-19T09:48:35.200Z</time>
      </trkpt>
      <trkpt lat="46.67241" lon="15.65933">
        <ele>341.09609</ele>
        <time>2022-09-19T09:48:38.198Z</time>
      </trkpt>
      <trkpt lat="46.6725" lon="15.65921">
        <ele>341.291052</ele>
        <time>2022-09-19T09:48:41.186Z</time>
      </trkpt>
      <trkpt lat="46.6726" lon="15.65909">
        <ele>341.483682</ele>
        <time>2022-09-19T09:48:44.188Z</time>
      </trkpt>
      <trkpt lat="46.6727" lon="15.65897">
        <ele>341.682554</ele>
        <time>2022-09-19T09:48:47.224Z</time>
      </trkpt>
      <trkpt lat="46.6728" lon="15.65886">
        <ele>341.877493</ele>
        <time>2022-09-19T09:48:50.179Z</time>
      </trkpt>
      <trkpt lat="46.67289" lon="15.65875">
        <ele>342.066152</ele>
        <time>2022-09-19T09:48:53.175Z</time>
      </trkpt>
      <trkpt lat="46.673" lon="15.65864">
        <ele>342.415992</ele>
        <time>2022-09-19T09:48:56.176Z</time>
      </trkpt>
      <trkpt lat="46.6731" lon="15.65856">
        <ele>342.871585</ele>
        <time>2022-09-19T09:48:59.197Z</time>
      </trkpt>
      <trkpt lat="46.6732" lon="15.65847">
        <ele>343.325833</ele>
        <time>2022-09-19T09:49:02.186Z</time>
      </trkpt>
      <trkpt lat="46.6733" lon="15.65838">
        <ele>343.773502</ele>
        <time>2022-09-19T09:49:05.191Z</time>
      </trkpt>
      <trkpt lat="46.67341" lon="15.65829">
        <ele>344.23768</ele>
        <time>2022-09-19T09:49:08.185Z</time>
      </trkpt>
      <trkpt lat="46.67351" lon="15.6582">
        <ele>344.702017</ele>
        <time>2022-09-19T09:49:11.178Z</time>
      </trkpt>
      <trkpt lat="46.67361" lon="15.65811">
        <ele>345.154325</ele>
        <time>2022-09-19T09:49:14.181Z</time>
      </trkpt>
      <trkpt lat="46.67371" lon="15.65803">
        <ele>345.598225</ele>
        <time>2022-09-19T09:49:17.175Z</time>
      </trkpt>
      <trkpt lat="46.67382" lon="15.65796">
        <ele>346.057935</ele>
        <time>2022-09-19T09:49:20.234Z</time>
      </trkpt>
      <trkpt lat="46.67392" lon="15.65788">
        <ele>346.486359</ele>
        <time>2022-09-19T09:49:23.178Z</time>
      </trkpt>
      <trkpt lat="46.67402" lon="15.65778">
        <ele>346.938155</ele>
        <time>2022-09-19T09:49:26.196Z</time>
      </trkpt>
      <trkpt lat="46.67411" lon="15.65768">
        <ele>347.384148</ele>
        <time>2022-09-19T09:49:29.200Z</time>
      </trkpt>
      <trkpt lat="46.67421" lon="15.65757">
        <ele>347.865002</ele>
        <time>2022-09-19T09:49:32.197Z</time>
      </trkpt>
      <trkpt lat="46.67431" lon="15.65746">
        <ele>348.332681</ele>
        <time>2022-09-19T09:49:35.180Z</time>
      </trkpt>
      <trkpt lat="46.67442" lon="15.65736">
        <ele>348.82909</ele>
        <time>2022-09-19T09:49:38.176Z</time>
      </trkpt>
      <trkpt lat="46.67452" lon="15.65725">
        <ele>348.86495</ele>
        <time>2022-09-19T09:49:41.202Z</time>
      </trkpt>
      <trkpt lat="46.6746" lon="15.65717">
        <ele>348.62246</ele>
        <time>2022-09-19T09:49:43.184Z</time>
      </trkpt>
      <trkpt lat="46.6747" lon="15.65706">
        <ele>348.280825</ele>
        <time>2022-09-19T09:49:46.188Z</time>
      </trkpt>
      <trkpt lat="46.67481" lon="15.65695">
        <ele>347.948617</ele>
        <time>2022-09-19T09:49:49.214Z</time>
      </trkpt>
      <trkpt lat="46.6749" lon="15.65682">
        <ele>347.616299</ele>
        <time>2022-09-19T09:49:52.188Z</time>
      </trkpt>
      <trkpt lat="46.675" lon="15.6567">
        <ele>347.290267</ele>
        <time>2022-09-19T09:49:55.205Z</time>
      </trkpt>
      <trkpt lat="46.67509" lon="15.65659">
        <ele>346.968498</ele>
        <time>2022-09-19T09:49:58.181Z</time>
      </trkpt>
      <trkpt lat="46.67519" lon="15.6565">
        <ele>346.654869</ele>
        <time>2022-09-19T09:50:01.182Z</time>
      </trkpt>
      <trkpt lat="46.67529" lon="15.65638">
        <ele>346.325477</ele>
        <time>2022-09-19T09:50:04.229Z</time>
      </trkpt>
      <trkpt lat="46.67539" lon="15.65626">
        <ele>345.995823</ele>
        <time>2022-09-19T09:50:07.201Z</time>
      </trkpt>
      <trkpt lat="46.67548" lon="15.65615">
        <ele>345.670465</ele>
        <time>2022-09-19T09:50:10.184Z</time>
      </trkpt>
      <trkpt lat="46.67558" lon="15.65603">
        <ele>345.341653</ele>
        <time>2022-09-19T09:50:13.189Z</time>
      </trkpt>
      <trkpt lat="46.67568" lon="15.65591">
        <ele>345.002799</ele>
        <time>2022-09-19T09:50:16.181Z</time>
      </trkpt>
      <trkpt lat="46.67578" lon="15.65579">
        <ele>344.670484</ele>
        <time>2022-09-19T09:50:19.189Z</time>
      </trkpt>
      <trkpt lat="46.67587" lon="15.65567">
        <ele>344.365813</ele>
        <time>2022-09-19T09:50:22.197Z</time>
      </trkpt>
      <trkpt lat="46.67596" lon="15.65555">
        <ele>344.47602</ele>
        <time>2022-09-19T09:50:25.194Z</time>
      </trkpt>
      <trkpt lat="46.67606" lon="15.65543">
        <ele>344.587272</ele>
        <time>2022-09-19T09:50:28.184Z</time>
      </trkpt>
      <trkpt lat="46.67615" lon="15.6553">
        <ele>344.694774</ele>
        <time>2022-09-19T09:50:31.169Z</time>
      </trkpt>
      <trkpt lat="46.67625" lon="15.65518">
        <ele>344.80641</ele>
        <time>2022-09-19T09:50:34.191Z</time>
      </trkpt>
      <trkpt lat="46.67634" lon="15.65505">
        <ele>344.918027</ele>
        <time>2022-09-19T09:50:37.195Z</time>
      </trkpt>
      <trkpt lat="46.67643" lon="15.65492">
        <ele>345.024155</ele>
        <time>2022-09-19T09:50:40.220Z</time>
      </trkpt>
      <trkpt lat="46.6765" lon="15.6548">
        <ele>345.117204</ele>
        <time>2022-09-19T09:50:43.184Z</time>
      </trkpt>
      <trkpt lat="46.67657" lon="15.65469">
        <ele>345.207828</ele>
        <time>2022-09-19T09:50:46.181Z</time>
      </trkpt>
      <trkpt lat="46.67664" lon="15.65459">
        <ele>345.292777</ele>
        <time>2022-09-19T09:50:49.183Z</time>
      </trkpt>
      <trkpt lat="46.6767" lon="15.65449">
        <ele>345.374211</ele>
        <time>2022-09-19T09:50:52.197Z</time>
      </trkpt>
      <trkpt lat="46.67677" lon="15.65439">
        <ele>345.453761</ele>
        <time>2022-09-19T09:50:55.183Z</time>
      </trkpt>
      <trkpt lat="46.67685" lon="15.65428">
        <ele>345.552548</ele>
        <time>2022-09-19T09:50:59.196Z</time>
      </trkpt>
      <trkpt lat="46.67693" lon="15.65417">
        <ele>345.648402</ele>
        <time>2022-09-19T09:51:03.178Z</time>
      </trkpt>
      <trkpt lat="46.67702" lon="15.65407">
        <ele>345.743771</ele>
        <time>2022-09-19T09:51:07.183Z</time>
      </trkpt>
      <trkpt lat="46.6771" lon="15.65396">
        <ele>345.836553</ele>
        <time>2022-09-19T09:51:11.204Z</time>
      </trkpt>
      <trkpt lat="46.67718" lon="15.65386">
        <ele>345.949349</ele>
        <time>2022-09-19T09:51:15.181Z</time>
      </trkpt>
      <trkpt lat="46.67725" lon="15.65375">
        <ele>346.198129</ele>
        <time>2022-09-19T09:51:19.209Z</time>
      </trkpt>
      <trkpt lat="46.67734" lon="15.65364">
        <ele>346.448031</ele>
        <time>2022-09-19T09:51:23.180Z</time>
      </trkpt>
      <trkpt lat="46.67743" lon="15.65355">
        <ele>346.701959</ele>
        <time>2022-09-19T09:51:27.177Z</time>
      </trkpt>
      <trkpt lat="46.67752" lon="15.65347">
        <ele>346.947112</ele>
        <time>2022-09-19T09:51:31.188Z</time>
      </trkpt>
      <trkpt lat="46.67761" lon="15.65338">
        <ele>347.212068</ele>
        <time>2022-09-19T09:51:35.194Z</time>
      </trkpt>
      <trkpt lat="46.6777" lon="15.65328">
        <ele>347.468808</ele>
        <time>2022-09-19T09:51:39.193Z</time>
      </trkpt>
      <trkpt lat="46.6778" lon="15.65319">
        <ele>347.730481</ele>
        <time>2022-09-19T09:51:43.186Z</time>
      </trkpt>
      <trkpt lat="46.6779" lon="15.6531">
        <ele>348.001013</ele>
        <time>2022-09-19T09:51:47.183Z</time>
      </trkpt>
      <trkpt lat="46.67798" lon="15.65304">
        <ele>348.213396</ele>
        <time>2022-09-19T09:51:50.191Z</time>
      </trkpt>
      <trkpt lat="46.67806" lon="15.65296">
        <ele>348.429821</ele>
        <time>2022-09-19T09:51:53.180Z</time>
      </trkpt>
      <trkpt lat="46.67815" lon="15.65289">
        <ele>348.659336</ele>
        <time>2022-09-19T09:51:56.168Z</time>
      </trkpt>
      <trkpt lat="46.67823" lon="15.65283">
        <ele>348.883657</ele>
        <time>2022-09-19T09:51:59.213Z</time>
      </trkpt>
      <trkpt lat="46.67832" lon="15.65275">
        <ele>349.112707</ele>
        <time>2022-09-19T09:52:02.196Z</time>
      </trkpt>
      <trkpt lat="46.67842" lon="15.65267">
        <ele>349.378062</ele>
        <time>2022-09-19T09:52:05.191Z</time>
      </trkpt>
      <trkpt lat="46.67852" lon="15.65259">
        <ele>349.639135</ele>
        <time>2022-09-19T09:52:08.192Z</time>
      </trkpt>
      <trkpt lat="46.67861" lon="15.65252">
        <ele>349.887079</ele>
        <time>2022-09-19T09:52:11.172Z</time>
      </trkpt>
      <trkpt lat="46.6787" lon="15.65245">
        <ele>350.051713</ele>
        <time>2022-09-19T09:52:14.182Z</time>
      </trkpt>
      <trkpt lat="46.67879" lon="15.65238">
        <ele>350.012697</ele>
        <time>2022-09-19T09:52:17.180Z</time>
      </trkpt>
      <trkpt lat="46.67888" lon="15.65231">
        <ele>349.973147</ele>
        <time>2022-09-19T09:52:20.188Z</time>
      </trkpt>
      <trkpt lat="46.67896" lon="15.65225">
        <ele>349.936819</ele>
        <time>2022-09-19T09:52:23.173Z</time>
      </trkpt>
      <trkpt lat="46.67905" lon="15.65219">
        <ele>349.899924</ele>
        <time>2022-09-19T09:52:26.166Z</time>
      </trkpt>
      <trkpt lat="46.67913" lon="15.65212">
        <ele>349.86369</ele>
        <time>2022-09-19T09:52:29.223Z</time>
      </trkpt>
      <trkpt lat="46.67922" lon="15.65205">
        <ele>349.826547</ele>
        <time>2022-09-19T09:52:32.208Z</time>
      </trkpt>
      <trkpt lat="46.6793" lon="15.65198">
        <ele>349.789207</ele>
        <time>2022-09-19T09:52:35.173Z</time>
      </trkpt>
      <trkpt lat="46.67938" lon="15.65191">
        <ele>349.75439</ele>
        <time>2022-09-19T09:52:38.201Z</time>
      </trkpt>
      <trkpt lat="46.67948" lon="15.65182">
        <ele>349.709056</ele>
        <time>2022-09-19T09:52:42.184Z</time>
      </trkpt>
      <trkpt lat="46.67958" lon="15.65174">
        <ele>349.66544</ele>
        <time>2022-09-19T09:52:46.173Z</time>
      </trkpt>
      <trkpt lat="46.67967" lon="15.65168">
        <ele>349.626585</ele>
        <time>2022-09-19T09:52:50.184Z</time>
      </trkpt>
      <trkpt lat="46.67978" lon="15.65162">
        <ele>349.583228</ele>
        <time>2022-09-19T09:52:54.191Z</time>
      </trkpt>
      <trkpt lat="46.67986" lon="15.6516">
        <ele>349.548422</ele>
        <time>2022-09-19T09:52:57.188Z</time>
      </trkpt>
      <trkpt lat="46.67995" lon="15.65159">
        <ele>349.513691</ele>
        <time>2022-09-19T09:53:00.232Z</time>
      </trkpt>
      <trkpt lat="46.68007" lon="15.65156">
        <ele>349.468598</ele>
        <time>2022-09-19T09:53:04.194Z</time>
      </trkpt>
      <trkpt lat="46.68018" lon="15.65154">
        <ele>349.424141</ele>
        <time>2022-09-19T09:53:08.176Z</time>
      </trkpt>
      <trkpt lat="46.6803" lon="15.6515">
        <ele>349.379919</ele>
        <time>2022-09-19T09:53:12.190Z</time>
      </trkpt>
      <trkpt lat="46.68041" lon="15.65146">
        <ele>349.475477</ele>
        <time>2022-09-19T09:53:16.201Z</time>
      </trkpt>
      <trkpt lat="46.6805" lon="15.65143">
        <ele>349.590485</ele>
        <time>2022-09-19T09:53:19.181Z</time>
      </trkpt>
      <trkpt lat="46.68059" lon="15.65139">
        <ele>349.707937</ele>
        <time>2022-09-19T09:53:22.186Z</time>
      </trkpt>
      <trkpt lat="46.68068" lon="15.65135">
        <ele>349.836017</ele>
        <time>2022-09-19T09:53:25.189Z</time>
      </trkpt>
      <trkpt lat="46.68079" lon="15.6513">
        <ele>349.978157</ele>
        <time>2022-09-19T09:53:28.175Z</time>
      </trkpt>
      <trkpt lat="46.6809" lon="15.65128">
        <ele>350.123666</ele>
        <time>2022-09-19T09:53:31.180Z</time>
      </trkpt>
      <trkpt lat="46.68103" lon="15.65127">
        <ele>350.284253</ele>
        <time>2022-09-19T09:53:34.192Z</time>
      </trkpt>
      <trkpt lat="46.68112" lon="15.65124">
        <ele>350.403942</ele>
        <time>2022-09-19T09:53:36.184Z</time>
      </trkpt>
      <trkpt lat="46.68123" lon="15.65121">
        <ele>350.546401</ele>
        <time>2022-09-19T09:53:38.193Z</time>
      </trkpt>
      <trkpt lat="46.68137" lon="15.65119">
        <ele>350.720025</ele>
        <time>2022-09-19T09:53:40.192Z</time>
      </trkpt>
      <trkpt lat="46.68149" lon="15.65116">
        <ele>350.87091</ele>
        <time>2022-09-19T09:53:42.176Z</time>
      </trkpt>
      <trkpt lat="46.6816" lon="15.65109">
        <ele>351.02138</ele>
        <time>2022-09-19T09:53:44.192Z</time>
      </trkpt>
      <trkpt lat="46.68171" lon="15.65101">
        <ele>351.178959</ele>
        <time>2022-09-19T09:53:46.190Z</time>
      </trkpt>
      <trkpt lat="46.68183" lon="15.65097">
        <ele>351.333043</ele>
        <time>2022-09-19T09:53:48.180Z</time>
      </trkpt>
      <trkpt lat="46.68195" lon="15.65091">
        <ele>351.49595</ele>
        <time>2022-09-19T09:53:50.186Z</time>
      </trkpt>
      <trkpt lat="46.68207" lon="15.65083">
        <ele>351.561078</ele>
        <time>2022-09-19T09:53:52.188Z</time>
      </trkpt>
      <trkpt lat="46.6822" lon="15.65075">
        <ele>351.038609</ele>
        <time>2022-09-19T09:53:54.200Z</time>
      </trkpt>
      <trkpt lat="46.68233" lon="15.65069">
        <ele>350.511213</ele>
        <time>2022-09-19T09:53:56.225Z</time>
      </trkpt>
      <trkpt lat="46.68245" lon="15.65062">
        <ele>350.003767</ele>
        <time>2022-09-19T09:53:58.179Z</time>
      </trkpt>
      <trkpt lat="46.68258" lon="15.65054">
        <ele>349.477518</ele>
        <time>2022-09-19T09:54:00.201Z</time>
      </trkpt>
      <trkpt lat="46.6827" lon="15.65044">
        <ele>348.926978</ele>
        <time>2022-09-19T09:54:02.178Z</time>
      </trkpt>
      <trkpt lat="46.68282" lon="15.65034">
        <ele>348.390402</ele>
        <time>2022-09-19T09:54:04.177Z</time>
      </trkpt>
      <trkpt lat="46.68295" lon="15.65023">
        <ele>347.832798</ele>
        <time>2022-09-19T09:54:06.191Z</time>
      </trkpt>
      <trkpt lat="46.68307" lon="15.65011">
        <ele>347.253954</ele>
        <time>2022-09-19T09:54:08.250Z</time>
      </trkpt>
      <trkpt lat="46.6832" lon="15.64999">
        <ele>346.670681</ele>
        <time>2022-09-19T09:54:10.185Z</time>
      </trkpt>
      <trkpt lat="46.68332" lon="15.64986">
        <ele>346.079862</ele>
        <time>2022-09-19T09:54:12.192Z</time>
      </trkpt>
      <trkpt lat="46.68345" lon="15.64972">
        <ele>345.473475</ele>
        <time>2022-09-19T09:54:14.166Z</time>
      </trkpt>
      <trkpt lat="46.68358" lon="15.64959">
        <ele>344.866988</ele>
        <time>2022-09-19T09:54:16.183Z</time>
      </trkpt>
      <trkpt lat="46.6837" lon="15.64946">
        <ele>344.348222</ele>
        <time>2022-09-19T09:54:18.181Z</time>
      </trkpt>
      <trkpt lat="46.68383" lon="15.64932">
        <ele>343.840623</ele>
        <time>2022-09-19T09:54:20.177Z</time>
      </trkpt>
      <trkpt lat="46.68396" lon="15.64917">
        <ele>343.336577</ele>
        <time>2022-09-19T09:54:22.184Z</time>
      </trkpt>
      <trkpt lat="46.68409" lon="15.64903">
        <ele>342.825208</ele>
        <time>2022-09-19T09:54:24.191Z</time>
      </trkpt>
      <trkpt lat="46.68422" lon="15.6489">
        <ele>342.322631</ele>
        <time>2022-09-19T09:54:26.180Z</time>
      </trkpt>
      <trkpt lat="46.68435" lon="15.64876">
        <ele>341.808688</ele>
        <time>2022-09-19T09:54:28.178Z</time>
      </trkpt>
      <trkpt lat="46.68449" lon="15.64862">
        <ele>341.271752</ele>
        <time>2022-09-19T09:54:30.189Z</time>
      </trkpt>
      <trkpt lat="46.68464" lon="15.64848">
        <ele>340.727038</ele>
        <time>2022-09-19T09:54:32.180Z</time>
      </trkpt>
      <trkpt lat="46.68478" lon="15.64834">
        <ele>340.189959</ele>
        <time>2022-09-19T09:54:34.211Z</time>
      </trkpt>
      <trkpt lat="46.68492" lon="15.6482">
        <ele>339.648867</ele>
        <time>2022-09-19T09:54:36.183Z</time>
      </trkpt>
      <trkpt lat="46.68506" lon="15.64806">
        <ele>339.101336</ele>
        <time>2022-09-19T09:54:38.178Z</time>
      </trkpt>
      <trkpt lat="46.68521" lon="15.64791">
        <ele>338.674003</ele>
        <time>2022-09-19T09:54:40.254Z</time>
      </trkpt>
      <trkpt lat="46.68535" lon="15.64778">
        <ele>338.273975</ele>
        <time>2022-09-19T09:54:42.206Z</time>
      </trkpt>
      <trkpt lat="46.68549" lon="15.64764">
        <ele>337.881644</ele>
        <time>2022-09-19T09:54:44.182Z</time>
      </trkpt>
      <trkpt lat="46.68562" lon="15.64751">
        <ele>337.496111</ele>
        <time>2022-09-19T09:54:46.193Z</time>
      </trkpt>
      <trkpt lat="46.68576" lon="15.64738">
        <ele>337.11254</ele>
        <time>2022-09-19T09:54:48.195Z</time>
      </trkpt>
      <trkpt lat="46.68589" lon="15.64724">
        <ele>336.727354</ele>
        <time>2022-09-19T09:54:50.184Z</time>
      </trkpt>
      <trkpt lat="46.68602" lon="15.64711">
        <ele>336.358319</ele>
        <time>2022-09-19T09:54:52.179Z</time>
      </trkpt>
      <trkpt lat="46.68615" lon="15.64698">
        <ele>335.990296</ele>
        <time>2022-09-19T09:54:54.180Z</time>
      </trkpt>
      <trkpt lat="46.68628" lon="15.64685">
        <ele>335.621931</ele>
        <time>2022-09-19T09:54:56.255Z</time>
      </trkpt>
      <trkpt lat="46.6864" lon="15.64672">
        <ele>335.252897</ele>
        <time>2022-09-19T09:54:58.173Z</time>
      </trkpt>
      <trkpt lat="46.68654" lon="15.64659">
        <ele>334.878618</ele>
        <time>2022-09-19T09:55:00.182Z</time>
      </trkpt>
      <trkpt lat="46.68666" lon="15.64646">
        <ele>334.713998</ele>
        <time>2022-09-19T09:55:02.176Z</time>
      </trkpt>
      <trkpt lat="46.68679" lon="15.64634">
        <ele>334.606436</ele>
        <time>2022-09-19T09:55:04.173Z</time>
      </trkpt>
      <trkpt lat="46.68693" lon="15.64622">
        <ele>334.498087</ele>
        <time>2022-09-19T09:55:06.187Z</time>
      </trkpt>
      <trkpt lat="46.68707" lon="15.6461">
        <ele>334.38988</ele>
        <time>2022-09-19T09:55:08.192Z</time>
      </trkpt>
      <trkpt lat="46.6872" lon="15.64597">
        <ele>334.278302</ele>
        <time>2022-09-19T09:55:10.193Z</time>
      </trkpt>
      <trkpt lat="46.68733" lon="15.64584">
        <ele>334.171876</ele>
        <time>2022-09-19T09:55:12.181Z</time>
      </trkpt>
      <trkpt lat="46.68746" lon="15.64572">
        <ele>334.06545</ele>
        <time>2022-09-19T09:55:14.171Z</time>
      </trkpt>
      <trkpt lat="46.68759" lon="15.64559">
        <ele>333.961463</ele>
        <time>2022-09-19T09:55:16.180Z</time>
      </trkpt>
      <trkpt lat="46.6877" lon="15.64547">
        <ele>333.862255</ele>
        <time>2022-09-19T09:55:18.225Z</time>
      </trkpt>
      <trkpt lat="46.68782" lon="15.64534">
        <ele>333.761676</ele>
        <time>2022-09-19T09:55:20.195Z</time>
      </trkpt>
      <trkpt lat="46.68794" lon="15.64521">
        <ele>333.660567</ele>
        <time>2022-09-19T09:55:22.182Z</time>
      </trkpt>
      <trkpt lat="46.68806" lon="15.64508">
        <ele>333.559713</ele>
        <time>2022-09-19T09:55:24.183Z</time>
      </trkpt>
      <trkpt lat="46.68817" lon="15.64496">
        <ele>333.419087</ele>
        <time>2022-09-19T09:55:26.191Z</time>
      </trkpt>
      <trkpt lat="46.68829" lon="15.64485">
        <ele>333.279232</ele>
        <time>2022-09-19T09:55:28.182Z</time>
      </trkpt>
      <trkpt lat="46.6884" lon="15.64472">
        <ele>333.14213</ele>
        <time>2022-09-19T09:55:30.171Z</time>
      </trkpt>
      <trkpt lat="46.68851" lon="15.64461">
        <ele>333.012642</ele>
        <time>2022-09-19T09:55:32.194Z</time>
      </trkpt>
      <trkpt lat="46.68862" lon="15.64452">
        <ele>332.887641</ele>
        <time>2022-09-19T09:55:34.190Z</time>
      </trkpt>
      <trkpt lat="46.68872" lon="15.64443">
        <ele>332.768246</ele>
        <time>2022-09-19T09:55:36.184Z</time>
      </trkpt>
      <trkpt lat="46.68882" lon="15.64433">
        <ele>332.650089</ele>
        <time>2022-09-19T09:55:38.180Z</time>
      </trkpt>
      <trkpt lat="46.68892" lon="15.64424">
        <ele>332.535871</ele>
        <time>2022-09-19T09:55:40.221Z</time>
      </trkpt>
      <trkpt lat="46.68901" lon="15.64416">
        <ele>332.428325</ele>
        <time>2022-09-19T09:55:42.183Z</time>
      </trkpt>
      <trkpt lat="46.6891" lon="15.64408">
        <ele>332.327608</ele>
        <time>2022-09-19T09:55:44.178Z</time>
      </trkpt>
      <trkpt lat="46.68919" lon="15.64401">
        <ele>332.231819</ele>
        <time>2022-09-19T09:55:46.221Z</time>
      </trkpt>
      <trkpt lat="46.68927" lon="15.64395">
        <ele>332.139201</ele>
        <time>2022-09-19T09:55:48.211Z</time>
      </trkpt>
      <trkpt lat="46.68935" lon="15.64388">
        <ele>332.045277</ele>
        <time>2022-09-19T09:55:50.182Z</time>
      </trkpt>
      <trkpt lat="46.68944" lon="15.64381">
        <ele>331.950828</ele>
        <time>2022-09-19T09:55:52.182Z</time>
      </trkpt>
      <trkpt lat="46.68952" lon="15.64373">
        <ele>331.85852</ele>
        <time>2022-09-19T09:55:54.191Z</time>
      </trkpt>
      <trkpt lat="46.68959" lon="15.64366">
        <ele>331.764612</ele>
        <time>2022-09-19T09:55:56.179Z</time>
      </trkpt>
      <trkpt lat="46.68967" lon="15.64358">
        <ele>331.67046</ele>
        <time>2022-09-19T09:55:58.185Z</time>
      </trkpt>
      <trkpt lat="46.68978" lon="15.64346">
        <ele>331.525825</ele>
        <time>2022-09-19T09:56:01.182Z</time>
      </trkpt>
      <trkpt lat="46.68987" lon="15.64337">
        <ele>331.408571</ele>
        <time>2022-09-19T09:56:04.175Z</time>
      </trkpt>
      <trkpt lat="46.68998" lon="15.64325">
        <ele>331.263936</ele>
        <time>2022-09-19T09:56:07.183Z</time>
      </trkpt>
      <trkpt lat="46.69008" lon="15.64314">
        <ele>331.134586</ele>
        <time>2022-09-19T09:56:09.206Z</time>
      </trkpt>
      <trkpt lat="46.69018" lon="15.64305">
        <ele>331.012398</ele>
        <time>2022-09-19T09:56:11.189Z</time>
      </trkpt>
      <trkpt lat="46.69026" lon="15.64296">
        <ele>330.903407</ele>
        <time>2022-09-19T09:56:13.171Z</time>
      </trkpt>
      <trkpt lat="46.69038" lon="15.64286">
        <ele>330.761574</ele>
        <time>2022-09-19T09:56:16.194Z</time>
      </trkpt>
      <trkpt lat="46.69049" lon="15.64276">
        <ele>330.621557</ele>
        <time>2022-09-19T09:56:19.186Z</time>
      </trkpt>
      <trkpt lat="46.69057" lon="15.64269">
        <ele>330.526503</ele>
        <time>2022-09-19T09:56:21.185Z</time>
      </trkpt>
      <trkpt lat="46.69065" lon="15.64259">
        <ele>330.410709</ele>
        <time>2022-09-19T09:56:24.199Z</time>
      </trkpt>
      <trkpt lat="46.69074" lon="15.64253">
        <ele>330.308124</ele>
        <time>2022-09-19T09:56:27.181Z</time>
      </trkpt>
      <trkpt lat="46.69082" lon="15.64246">
        <ele>330.210926</ele>
        <time>2022-09-19T09:56:32.192Z</time>
      </trkpt>
      <trkpt lat="46.69097" lon="15.64218">
        <ele>329.953281</ele>
        <time>2022-09-19T09:57:32.188Z</time>
      </trkpt>
      <trkpt lat="46.69107" lon="15.64209">
        <ele>329.788692</ele>
        <time>2022-09-19T09:57:37.177Z</time>
      </trkpt>
      <trkpt lat="46.69116" lon="15.64203">
        <ele>329.622203</ele>
        <time>2022-09-19T09:57:40.186Z</time>
      </trkpt>
      <trkpt lat="46.69126" lon="15.64197">
        <ele>329.44087</ele>
        <time>2022-09-19T09:57:43.197Z</time>
      </trkpt>
      <trkpt lat="46.69135" lon="15.6419">
        <ele>329.269393</ele>
        <time>2022-09-19T09:57:46.253Z</time>
      </trkpt>
      <trkpt lat="46.69146" lon="15.64181">
        <ele>329.072912</ele>
        <time>2022-09-19T09:57:49.170Z</time>
      </trkpt>
      <trkpt lat="46.69155" lon="15.64174">
        <ele>328.89089</ele>
        <time>2022-09-19T09:57:52.171Z</time>
      </trkpt>
      <trkpt lat="46.69166" lon="15.64166">
        <ele>328.692997</ele>
        <time>2022-09-19T09:57:55.225Z</time>
      </trkpt>
      <trkpt lat="46.69177" lon="15.64159">
        <ele>328.496542</ele>
        <time>2022-09-19T09:57:58.180Z</time>
      </trkpt>
      <trkpt lat="46.69188" lon="15.6415">
        <ele>328.286166</ele>
        <time>2022-09-19T09:58:01.251Z</time>
      </trkpt>
      <trkpt lat="46.69196" lon="15.64143">
        <ele>328.134686</ele>
        <time>2022-09-19T09:58:03.189Z</time>
      </trkpt>
      <trkpt lat="46.69204" lon="15.64136">
        <ele>327.97374</ele>
        <time>2022-09-19T09:58:05.161Z</time>
      </trkpt>
      <trkpt lat="46.69212" lon="15.64128">
        <ele>327.815412</ele>
        <time>2022-09-19T09:58:07.177Z</time>
      </trkpt>
      <trkpt lat="46.69221" lon="15.64121">
        <ele>327.647815</ele>
        <time>2022-09-19T09:58:09.180Z</time>
      </trkpt>
      <trkpt lat="46.6923" lon="15.64115">
        <ele>327.473335</ele>
        <time>2022-09-19T09:58:11.193Z</time>
      </trkpt>
      <trkpt lat="46.6924" lon="15.64108">
        <ele>327.301859</ele>
        <time>2022-09-19T09:58:13.171Z</time>
      </trkpt>
      <trkpt lat="46.69249" lon="15.64103">
        <ele>327.136732</ele>
        <time>2022-09-19T09:58:15.189Z</time>
      </trkpt>
      <trkpt lat="46.69258" lon="15.64098">
        <ele>326.969565</ele>
        <time>2022-09-19T09:58:17.173Z</time>
      </trkpt>
      <trkpt lat="46.69267" lon="15.64092">
        <ele>326.831334</ele>
        <time>2022-09-19T09:58:19.267Z</time>
      </trkpt>
      <trkpt lat="46.69277" lon="15.64082">
        <ele>326.65515</ele>
        <time>2022-09-19T09:58:22.184Z</time>
      </trkpt>
      <trkpt lat="46.69285" lon="15.64073">
        <ele>326.518173</ele>
        <time>2022-09-19T09:58:25.213Z</time>
      </trkpt>
      <trkpt lat="46.69293" lon="15.64065">
        <ele>326.391819</ele>
        <time>2022-09-19T09:58:30.183Z</time>
      </trkpt>
      <trkpt lat="46.69301" lon="15.64056">
        <ele>326.244779</ele>
        <time>2022-09-19T09:58:35.254Z</time>
      </trkpt>
      <trkpt lat="46.69312" lon="15.64046">
        <ele>326.071605</ele>
        <time>2022-09-19T09:58:38.195Z</time>
      </trkpt>
      <trkpt lat="46.69322" lon="15.64035">
        <ele>325.893185</ele>
        <time>2022-09-19T09:58:41.189Z</time>
      </trkpt>
      <trkpt lat="46.69331" lon="15.64021">
        <ele>325.71314</ele>
        <time>2022-09-19T09:58:44.280Z</time>
      </trkpt>
      <trkpt lat="46.6934" lon="15.6401">
        <ele>325.550376</ele>
        <time>2022-09-19T09:58:47.230Z</time>
      </trkpt>
      <trkpt lat="46.69349" lon="15.64001">
        <ele>325.393289</ele>
        <time>2022-09-19T09:58:50.170Z</time>
      </trkpt>
      <trkpt lat="46.6936" lon="15.63992">
        <ele>325.225647</ele>
        <time>2022-09-19T09:58:53.189Z</time>
      </trkpt>
      <trkpt lat="46.6937" lon="15.63983">
        <ele>325.058813</ele>
        <time>2022-09-19T09:58:56.201Z</time>
      </trkpt>
      <trkpt lat="46.6938" lon="15.63973">
        <ele>324.891459</ele>
        <time>2022-09-19T09:58:59.161Z</time>
      </trkpt>
      <trkpt lat="46.69391" lon="15.63963">
        <ele>324.718286</ele>
        <time>2022-09-19T09:59:02.187Z</time>
      </trkpt>
      <trkpt lat="46.694" lon="15.63953">
        <ele>324.554444</ele>
        <time>2022-09-19T09:59:05.197Z</time>
      </trkpt>
      <trkpt lat="46.69411" lon="15.63944">
        <ele>324.670258</ele>
        <time>2022-09-19T09:59:08.174Z</time>
      </trkpt>
      <trkpt lat="46.69421" lon="15.63935">
        <ele>325.572291</ele>
        <time>2022-09-19T09:59:11.198Z</time>
      </trkpt>
      <trkpt lat="46.69432" lon="15.63925">
        <ele>326.507743</ele>
        <time>2022-09-19T09:59:14.181Z</time>
      </trkpt>
      <trkpt lat="46.69442" lon="15.63916">
        <ele>327.361459</ele>
        <time>2022-09-19T09:59:17.175Z</time>
      </trkpt>
      <trkpt lat="46.69451" lon="15.63907">
        <ele>328.152767</ele>
        <time>2022-09-19T09:59:20.188Z</time>
      </trkpt>
      <trkpt lat="46.69461" lon="15.63907">
        <ele>328.939623</ele>
        <time>2022-09-19T09:59:24.198Z</time>
      </trkpt>
      <trkpt lat="46.69471" lon="15.63904">
        <ele>329.689394</ele>
        <time>2022-09-19T09:59:29.172Z</time>
      </trkpt>
      <trkpt lat="46.69482" lon="15.63888">
        <ele>330.8304</ele>
        <time>2022-09-19T10:06:23.202Z</time>
      </trkpt>
      <trkpt lat="46.69492" lon="15.63878">
        <ele>331.719271</ele>
        <time>2022-09-19T10:06:27.185Z</time>
      </trkpt>
      <trkpt lat="46.695" lon="15.6387">
        <ele>332.396933</ele>
        <time>2022-09-19T10:06:30.177Z</time>
      </trkpt>
      <trkpt lat="46.69507" lon="15.63862">
        <ele>333.083289</ele>
        <time>2022-09-19T10:06:33.200Z</time>
      </trkpt>
      <trkpt lat="46.69516" lon="15.63854">
        <ele>333.835421</ele>
        <time>2022-09-19T10:06:36.230Z</time>
      </trkpt>
      <trkpt lat="46.69525" lon="15.63846">
        <ele>334.64617</ele>
        <time>2022-09-19T10:06:39.195Z</time>
      </trkpt>
      <trkpt lat="46.69535" lon="15.63835">
        <ele>335.52004</ele>
        <time>2022-09-19T10:06:42.215Z</time>
      </trkpt>
      <trkpt lat="46.69544" lon="15.63824">
        <ele>336.400673</ele>
        <time>2022-09-19T10:06:45.191Z</time>
      </trkpt>
      <trkpt lat="46.69555" lon="15.63815">
        <ele>337.326844</ele>
        <time>2022-09-19T10:06:48.175Z</time>
      </trkpt>
      <trkpt lat="46.69566" lon="15.63807">
        <ele>337.632744</ele>
        <time>2022-09-19T10:06:51.178Z</time>
      </trkpt>
      <trkpt lat="46.69579" lon="15.638">
        <ele>337.590934</ele>
        <time>2022-09-19T10:06:54.217Z</time>
      </trkpt>
      <trkpt lat="46.69587" lon="15.63795">
        <ele>337.561989</ele>
        <time>2022-09-19T10:06:56.189Z</time>
      </trkpt>
      <trkpt lat="46.69596" lon="15.6379">
        <ele>337.533776</ele>
        <time>2022-09-19T10:06:58.179Z</time>
      </trkpt>
      <trkpt lat="46.69604" lon="15.63785">
        <ele>337.505327</ele>
        <time>2022-09-19T10:07:00.212Z</time>
      </trkpt>
      <trkpt lat="46.69613" lon="15.6378">
        <ele>337.476143</ele>
        <time>2022-09-19T10:07:02.174Z</time>
      </trkpt>
      <trkpt lat="46.69622" lon="15.63775">
        <ele>337.446546</ele>
        <time>2022-09-19T10:07:04.186Z</time>
      </trkpt>
      <trkpt lat="46.69631" lon="15.63769">
        <ele>337.415688</ele>
        <time>2022-09-19T10:07:06.213Z</time>
      </trkpt>
      <trkpt lat="46.6964" lon="15.63763">
        <ele>337.384949</ele>
        <time>2022-09-19T10:07:08.204Z</time>
      </trkpt>
      <trkpt lat="46.6965" lon="15.63758">
        <ele>337.353024</ele>
        <time>2022-09-19T10:07:10.194Z</time>
      </trkpt>
      <trkpt lat="46.6966" lon="15.63753">
        <ele>337.320888</ele>
        <time>2022-09-19T10:07:12.228Z</time>
      </trkpt>
      <trkpt lat="46.6967" lon="15.63747">
        <ele>337.288172</ele>
        <time>2022-09-19T10:07:14.196Z</time>
      </trkpt>
      <trkpt lat="46.69679" lon="15.63742">
        <ele>337.256111</ele>
        <time>2022-09-19T10:07:16.205Z</time>
      </trkpt>
      <trkpt lat="46.69689" lon="15.63738">
        <ele>337.223841</ele>
        <time>2022-09-19T10:07:18.174Z</time>
      </trkpt>
      <trkpt lat="46.697" lon="15.63733">
        <ele>337.190499</ele>
        <time>2022-09-19T10:07:20.168Z</time>
      </trkpt>
      <trkpt lat="46.6971" lon="15.63729">
        <ele>337.157453</ele>
        <time>2022-09-19T10:07:22.168Z</time>
      </trkpt>
      <trkpt lat="46.69721" lon="15.63725">
        <ele>337.122464</ele>
        <time>2022-09-19T10:07:24.163Z</time>
      </trkpt>
      <trkpt lat="46.69732" lon="15.63721">
        <ele>337.040596</ele>
        <time>2022-09-19T10:07:26.214Z</time>
      </trkpt>
      <trkpt lat="46.69743" lon="15.63718">
        <ele>336.874359</ele>
        <time>2022-09-19T10:07:28.153Z</time>
      </trkpt>
      <trkpt lat="46.6976" lon="15.63713">
        <ele>336.61931</ele>
        <time>2022-09-19T10:07:31.146Z</time>
      </trkpt>
      <trkpt lat="46.69771" lon="15.6371">
        <ele>336.454016</ele>
        <time>2022-09-19T10:07:33.176Z</time>
      </trkpt>
      <trkpt lat="46.69783" lon="15.63707">
        <ele>336.286935</ele>
        <time>2022-09-19T10:07:35.194Z</time>
      </trkpt>
      <trkpt lat="46.69794" lon="15.63703">
        <ele>336.119275</ele>
        <time>2022-09-19T10:07:37.147Z</time>
      </trkpt>
      <trkpt lat="46.69805" lon="15.637">
        <ele>335.953238</ele>
        <time>2022-09-19T10:07:39.170Z</time>
      </trkpt>
      <trkpt lat="46.69816" lon="15.63697">
        <ele>335.784728</ele>
        <time>2022-09-19T10:07:41.154Z</time>
      </trkpt>
      <trkpt lat="46.69828" lon="15.63695">
        <ele>335.621521</ele>
        <time>2022-09-19T10:07:43.175Z</time>
      </trkpt>
      <trkpt lat="46.69839" lon="15.63691">
        <ele>335.458128</ele>
        <time>2022-09-19T10:07:45.190Z</time>
      </trkpt>
      <trkpt lat="46.69849" lon="15.63688">
        <ele>335.300199</ele>
        <time>2022-09-19T10:07:47.209Z</time>
      </trkpt>
      <trkpt lat="46.6986" lon="15.63685">
        <ele>335.14114</ele>
        <time>2022-09-19T10:07:49.226Z</time>
      </trkpt>
      <trkpt lat="46.69871" lon="15.63682">
        <ele>334.977617</ele>
        <time>2022-09-19T10:07:51.165Z</time>
      </trkpt>
      <trkpt lat="46.69882" lon="15.63681">
        <ele>334.821749</ele>
        <time>2022-09-19T10:07:53.157Z</time>
      </trkpt>
      <trkpt lat="46.69893" lon="15.6368">
        <ele>334.664498</ele>
        <time>2022-09-19T10:07:55.158Z</time>
      </trkpt>
      <trkpt lat="46.69903" lon="15.63678">
        <ele>334.511794</ele>
        <time>2022-09-19T10:07:57.181Z</time>
      </trkpt>
      <trkpt lat="46.69913" lon="15.63676">
        <ele>334.797917</ele>
        <time>2022-09-19T10:07:59.183Z</time>
      </trkpt>
      <trkpt lat="46.69922" lon="15.63674">
        <ele>335.142666</ele>
        <time>2022-09-19T10:08:01.191Z</time>
      </trkpt>
      <trkpt lat="46.69935" lon="15.6367">
        <ele>335.633378</ele>
        <time>2022-09-19T10:08:04.183Z</time>
      </trkpt>
      <trkpt lat="46.69947" lon="15.63667">
        <ele>336.093975</ele>
        <time>2022-09-19T10:08:07.189Z</time>
      </trkpt>
      <trkpt lat="46.6996" lon="15.63664">
        <ele>336.561063</ele>
        <time>2022-09-19T10:08:10.188Z</time>
      </trkpt>
      <trkpt lat="46.69973" lon="15.63661">
        <ele>337.049356</ele>
        <time>2022-09-19T10:08:13.439Z</time>
      </trkpt>
      <trkpt lat="46.69987" lon="15.63659">
        <ele>337.550791</ele>
        <time>2022-09-19T10:08:16.170Z</time>
      </trkpt>
      <trkpt lat="46.69996" lon="15.63658">
        <ele>337.891043</ele>
        <time>2022-09-19T10:08:18.214Z</time>
      </trkpt>
      <trkpt lat="46.70005" lon="15.63657">
        <ele>338.232951</ele>
        <time>2022-09-19T10:08:20.173Z</time>
      </trkpt>
      <trkpt lat="46.70014" lon="15.63657">
        <ele>338.580137</ele>
        <time>2022-09-19T10:08:22.211Z</time>
      </trkpt>
      <trkpt lat="46.70024" lon="15.63656">
        <ele>338.920013</ele>
        <time>2022-09-19T10:08:24.194Z</time>
      </trkpt>
      <trkpt lat="46.70033" lon="15.63655">
        <ele>339.261921</ele>
        <time>2022-09-19T10:08:26.185Z</time>
      </trkpt>
      <trkpt lat="46.70042" lon="15.63654">
        <ele>339.614579</ele>
        <time>2022-09-19T10:08:28.245Z</time>
      </trkpt>
      <trkpt lat="46.70052" lon="15.63652">
        <ele>339.965075</ele>
        <time>2022-09-19T10:08:30.173Z</time>
      </trkpt>
      <trkpt lat="46.70061" lon="15.6365">
        <ele>340.315572</ele>
        <time>2022-09-19T10:08:32.188Z</time>
      </trkpt>
      <trkpt lat="46.7007" lon="15.63648">
        <ele>340.662069</ele>
        <time>2022-09-19T10:08:34.190Z</time>
      </trkpt>
      <trkpt lat="46.70084" lon="15.63647">
        <ele>341.070401</ele>
        <time>2022-09-19T10:08:37.196Z</time>
      </trkpt>
      <trkpt lat="46.70095" lon="15.63645">
        <ele>340.616106</ele>
        <time>2022-09-19T10:08:39.230Z</time>
      </trkpt>
      <trkpt lat="46.70104" lon="15.63642">
        <ele>340.187498</ele>
        <time>2022-09-19T10:08:41.184Z</time>
      </trkpt>
      <trkpt lat="46.70114" lon="15.63642">
        <ele>339.739403</ele>
        <time>2022-09-19T10:08:43.183Z</time>
      </trkpt>
      <trkpt lat="46.70124" lon="15.6364">
        <ele>339.290897</ele>
        <time>2022-09-19T10:08:45.182Z</time>
      </trkpt>
      <trkpt lat="46.70135" lon="15.6364">
        <ele>338.825764</ele>
        <time>2022-09-19T10:08:47.211Z</time>
      </trkpt>
      <trkpt lat="46.70145" lon="15.63639">
        <ele>338.391109</ele>
        <time>2022-09-19T10:08:49.176Z</time>
      </trkpt>
      <trkpt lat="46.70154" lon="15.63638">
        <ele>337.951192</ele>
        <time>2022-09-19T10:08:51.193Z</time>
      </trkpt>
      <trkpt lat="46.70164" lon="15.63637">
        <ele>337.507517</ele>
        <time>2022-09-19T10:08:53.192Z</time>
      </trkpt>
      <trkpt lat="46.70175" lon="15.63636">
        <ele>337.050905</ele>
        <time>2022-09-19T10:08:55.175Z</time>
      </trkpt>
      <trkpt lat="46.70185" lon="15.63635">
        <ele>336.59661</ele>
        <time>2022-09-19T10:08:57.173Z</time>
      </trkpt>
      <trkpt lat="46.70195" lon="15.63634">
        <ele>336.152021</ele>
        <time>2022-09-19T10:08:59.193Z</time>
      </trkpt>
      <trkpt lat="46.70204" lon="15.63632">
        <ele>335.729481</ele>
        <time>2022-09-19T10:09:01.229Z</time>
      </trkpt>
      <trkpt lat="46.70214" lon="15.63631">
        <ele>335.290027</ele>
        <time>2022-09-19T10:09:03.189Z</time>
      </trkpt>
      <trkpt lat="46.70224" lon="15.6363">
        <ele>334.870575</ele>
        <time>2022-09-19T10:09:05.164Z</time>
      </trkpt>
      <trkpt lat="46.70233" lon="15.63628">
        <ele>334.441956</ele>
        <time>2022-09-19T10:09:07.179Z</time>
      </trkpt>
      <trkpt lat="46.70243" lon="15.63626">
        <ele>333.999771</ele>
        <time>2022-09-19T10:09:09.161Z</time>
      </trkpt>
      <trkpt lat="46.70253" lon="15.63624">
        <ele>333.571528</ele>
        <time>2022-09-19T10:09:11.180Z</time>
      </trkpt>
      <trkpt lat="46.70263" lon="15.63623">
        <ele>333.113443</ele>
        <time>2022-09-19T10:09:13.190Z</time>
      </trkpt>
      <trkpt lat="46.70273" lon="15.63621">
        <ele>332.436529</ele>
        <time>2022-09-19T10:09:15.199Z</time>
      </trkpt>
      <trkpt lat="46.70283" lon="15.63619">
        <ele>331.766668</ele>
        <time>2022-09-19T10:09:17.186Z</time>
      </trkpt>
      <trkpt lat="46.70293" lon="15.63617">
        <ele>331.086815</ele>
        <time>2022-09-19T10:09:19.182Z</time>
      </trkpt>
      <trkpt lat="46.70303" lon="15.63615">
        <ele>330.405581</ele>
        <time>2022-09-19T10:09:21.180Z</time>
      </trkpt>
      <trkpt lat="46.70314" lon="15.63613">
        <ele>329.72758</ele>
        <time>2022-09-19T10:09:23.212Z</time>
      </trkpt>
      <trkpt lat="46.70324" lon="15.63611">
        <ele>329.048992</ele>
        <time>2022-09-19T10:09:25.224Z</time>
      </trkpt>
      <trkpt lat="46.70334" lon="15.63608">
        <ele>328.373523</ele>
        <time>2022-09-19T10:09:27.185Z</time>
      </trkpt>
      <trkpt lat="46.70344" lon="15.63606">
        <ele>327.679267</ele>
        <time>2022-09-19T10:09:29.192Z</time>
      </trkpt>
      <trkpt lat="46.70355" lon="15.63603">
        <ele>326.972904</ele>
        <time>2022-09-19T10:09:31.188Z</time>
      </trkpt>
      <trkpt lat="46.70365" lon="15.63599">
        <ele>326.284014</ele>
        <time>2022-09-19T10:09:33.180Z</time>
      </trkpt>
      <trkpt lat="46.70375" lon="15.63596">
        <ele>325.602534</ele>
        <time>2022-09-19T10:09:35.197Z</time>
      </trkpt>
      <trkpt lat="46.70385" lon="15.63592">
        <ele>324.920011</ele>
        <time>2022-09-19T10:09:37.174Z</time>
      </trkpt>
      <trkpt lat="46.70395" lon="15.63589">
        <ele>324.220579</ele>
        <time>2022-09-19T10:09:39.189Z</time>
      </trkpt>
      <trkpt lat="46.70406" lon="15.63585">
        <ele>323.490115</ele>
        <time>2022-09-19T10:09:41.184Z</time>
      </trkpt>
      <trkpt lat="46.70417" lon="15.63581">
        <ele>322.770395</ele>
        <time>2022-09-19T10:09:43.192Z</time>
      </trkpt>
      <trkpt lat="46.70427" lon="15.63577">
        <ele>322.065214</ele>
        <time>2022-09-19T10:09:45.210Z</time>
      </trkpt>
      <trkpt lat="46.70437" lon="15.63573">
        <ele>321.367595</ele>
        <time>2022-09-19T10:09:47.195Z</time>
      </trkpt>
      <trkpt lat="46.70447" lon="15.63568">
        <ele>320.965396</ele>
        <time>2022-09-19T10:09:49.194Z</time>
      </trkpt>
      <trkpt lat="46.70457" lon="15.63564">
        <ele>320.603573</ele>
        <time>2022-09-19T10:09:51.216Z</time>
      </trkpt>
      <trkpt lat="46.70466" lon="15.63559">
        <ele>320.258386</ele>
        <time>2022-09-19T10:09:53.232Z</time>
      </trkpt>
      <trkpt lat="46.70477" lon="15.63551">
        <ele>319.808385</ele>
        <time>2022-09-19T10:09:56.191Z</time>
      </trkpt>
      <trkpt lat="46.70479" lon="15.63534">
        <ele>319.38502</ele>
        <time>2022-09-19T10:09:59.187Z</time>
      </trkpt>
      <trkpt lat="46.70477" lon="15.63519">
        <ele>319.01155</ele>
        <time>2022-09-19T10:10:01.178Z</time>
      </trkpt>
      <trkpt lat="46.70477" lon="15.63505">
        <ele>318.670953</ele>
        <time>2022-09-19T10:10:04.204Z</time>
      </trkpt>
      <trkpt lat="46.70488" lon="15.63501">
        <ele>318.249094</ele>
        <time>2022-09-19T10:10:08.234Z</time>
      </trkpt>
      <trkpt lat="46.70501" lon="15.63498">
        <ele>317.792121</ele>
        <time>2022-09-19T10:10:11.197Z</time>
      </trkpt>
      <trkpt lat="46.7051" lon="15.63496">
        <ele>317.464769</ele>
        <time>2022-09-19T10:10:13.183Z</time>
      </trkpt>
      <trkpt lat="46.70519" lon="15.63492">
        <ele>317.130666</ele>
        <time>2022-09-19T10:10:15.243Z</time>
      </trkpt>
      <trkpt lat="46.70528" lon="15.63487">
        <ele>316.793219</ele>
        <time>2022-09-19T10:10:17.184Z</time>
      </trkpt>
      <trkpt lat="46.70537" lon="15.63482">
        <ele>316.448224</ele>
        <time>2022-09-19T10:10:19.269Z</time>
      </trkpt>
      <trkpt lat="46.70547" lon="15.63477">
        <ele>316.058465</ele>
        <time>2022-09-19T10:10:21.188Z</time>
      </trkpt>
      <trkpt lat="46.70557" lon="15.63471">
        <ele>315.662171</ele>
        <time>2022-09-19T10:10:23.182Z</time>
      </trkpt>
      <trkpt lat="46.70568" lon="15.63465">
        <ele>315.261649</ele>
        <time>2022-09-19T10:10:25.212Z</time>
      </trkpt>
      <trkpt lat="46.70578" lon="15.63459">
        <ele>314.880068</ele>
        <time>2022-09-19T10:10:27.186Z</time>
      </trkpt>
      <trkpt lat="46.70587" lon="15.63452">
        <ele>314.907769</ele>
        <time>2022-09-19T10:10:29.209Z</time>
      </trkpt>
      <trkpt lat="46.70597" lon="15.63445">
        <ele>314.933555</ele>
        <time>2022-09-19T10:10:31.186Z</time>
      </trkpt>
      <trkpt lat="46.70605" lon="15.6344">
        <ele>314.957082</ele>
        <time>2022-09-19T10:10:33.187Z</time>
      </trkpt>
      <trkpt lat="46.70614" lon="15.63434">
        <ele>314.981284</ele>
        <time>2022-09-19T10:10:35.213Z</time>
      </trkpt>
      <trkpt lat="46.70622" lon="15.63428">
        <ele>315.004928</ele>
        <time>2022-09-19T10:10:37.170Z</time>
      </trkpt>
      <trkpt lat="46.70631" lon="15.63422">
        <ele>315.029878</ele>
        <time>2022-09-19T10:10:39.189Z</time>
      </trkpt>
      <trkpt lat="46.7064" lon="15.63415">
        <ele>315.055718</ele>
        <time>2022-09-19T10:10:41.152Z</time>
      </trkpt>
      <trkpt lat="46.70648" lon="15.63407">
        <ele>315.081472</ele>
        <time>2022-09-19T10:10:43.178Z</time>
      </trkpt>
      <trkpt lat="46.70657" lon="15.634">
        <ele>315.105992</ele>
        <time>2022-09-19T10:10:45.164Z</time>
      </trkpt>
      <trkpt lat="46.70664" lon="15.63393">
        <ele>315.130052</ele>
        <time>2022-09-19T10:10:47.246Z</time>
      </trkpt>
      <trkpt lat="46.70672" lon="15.63384">
        <ele>315.155213</ele>
        <time>2022-09-19T10:10:49.179Z</time>
      </trkpt>
      <trkpt lat="46.70682" lon="15.63373">
        <ele>315.185756</ele>
        <time>2022-09-19T10:10:52.228Z</time>
      </trkpt>
      <trkpt lat="46.70692" lon="15.63377">
        <ele>315.211427</ele>
        <time>2022-09-19T10:10:57.212Z</time>
      </trkpt>
      <trkpt lat="46.70695" lon="15.63393">
        <ele>315.241724</ele>
        <time>2022-09-19T10:11:00.164Z</time>
      </trkpt>
      <trkpt lat="46.70696" lon="15.6341">
        <ele>315.271838</ele>
        <time>2022-09-19T10:11:04.207Z</time>
      </trkpt>
      <trkpt lat="46.70701" lon="15.63425">
        <ele>315.300905</ele>
        <time>2022-09-19T10:11:07.172Z</time>
      </trkpt>
      <trkpt lat="46.70709" lon="15.6343">
        <ele>315.323996</ele>
        <time>2022-09-19T10:11:09.276Z</time>
      </trkpt>
      <trkpt lat="46.7072" lon="15.63426">
        <ele>315.603004</ele>
        <time>2022-09-19T10:11:11.182Z</time>
      </trkpt>
      <trkpt lat="46.70727" lon="15.63416">
        <ele>316.175669</ele>
        <time>2022-09-19T10:11:13.192Z</time>
      </trkpt>
      <trkpt lat="46.70733" lon="15.63406">
        <ele>316.689595</ele>
        <time>2022-09-19T10:11:15.177Z</time>
      </trkpt>
      <trkpt lat="46.70745" lon="15.63399">
        <ele>317.373001</ele>
        <time>2022-09-19T10:11:18.184Z</time>
      </trkpt>
      <trkpt lat="46.70757" lon="15.63395">
        <ele>318.082161</ele>
        <time>2022-09-19T10:11:21.184Z</time>
      </trkpt>
      <trkpt lat="46.70769" lon="15.63392">
        <ele>318.764066</ele>
        <time>2022-09-19T10:11:24.172Z</time>
      </trkpt>
      <trkpt lat="46.70778" lon="15.63391">
        <ele>319.271925</ele>
        <time>2022-09-19T10:11:26.166Z</time>
      </trkpt>
      <trkpt lat="46.70791" lon="15.6339">
        <ele>319.980069</ele>
        <time>2022-09-19T10:11:29.188Z</time>
      </trkpt>
      <trkpt lat="46.70803" lon="15.6339">
        <ele>320.632126</ele>
        <time>2022-09-19T10:11:32.180Z</time>
      </trkpt>
      <trkpt lat="46.70814" lon="15.63389">
        <ele>321.273047</ele>
        <time>2022-09-19T10:11:35.168Z</time>
      </trkpt>
      <trkpt lat="46.70825" lon="15.6339">
        <ele>321.885841</ele>
        <time>2022-09-19T10:11:38.156Z</time>
      </trkpt>
      <trkpt lat="46.70836" lon="15.6339">
        <ele>322.493245</ele>
        <time>2022-09-19T10:11:41.178Z</time>
      </trkpt>
      <trkpt lat="46.70846" lon="15.63392">
        <ele>323.081767</ele>
        <time>2022-09-19T10:11:44.186Z</time>
      </trkpt>
      <trkpt lat="46.70857" lon="15.63394">
        <ele>323.657332</ele>
        <time>2022-09-19T10:11:47.175Z</time>
      </trkpt>
      <trkpt lat="46.70867" lon="15.63396">
        <ele>324.22514</ele>
        <time>2022-09-19T10:11:50.169Z</time>
      </trkpt>
      <trkpt lat="46.70877" lon="15.63398">
        <ele>324.805615</ele>
        <time>2022-09-19T10:11:53.166Z</time>
      </trkpt>
      <trkpt lat="46.70887" lon="15.634">
        <ele>325.368901</ele>
        <time>2022-09-19T10:11:56.153Z</time>
      </trkpt>
      <trkpt lat="46.70898" lon="15.63401">
        <ele>325.636048</ele>
        <time>2022-09-19T10:11:59.171Z</time>
      </trkpt>
      <trkpt lat="46.70909" lon="15.63402">
        <ele>325.883462</ele>
        <time>2022-09-19T10:12:02.205Z</time>
      </trkpt>
      <trkpt lat="46.70919" lon="15.63403">
        <ele>326.123696</ele>
        <time>2022-09-19T10:12:05.173Z</time>
      </trkpt>
      <trkpt lat="46.70929" lon="15.63404">
        <ele>326.368358</ele>
        <time>2022-09-19T10:12:08.174Z</time>
      </trkpt>
      <trkpt lat="46.7094" lon="15.63405">
        <ele>326.623054</ele>
        <time>2022-09-19T10:12:11.335Z</time>
      </trkpt>
      <trkpt lat="46.7095" lon="15.63406">
        <ele>326.885155</ele>
        <time>2022-09-19T10:12:14.178Z</time>
      </trkpt>
      <trkpt lat="46.70961" lon="15.63408">
        <ele>327.138469</ele>
        <time>2022-09-19T10:12:17.181Z</time>
      </trkpt>
      <trkpt lat="46.70972" lon="15.6341">
        <ele>327.398048</ele>
        <time>2022-09-19T10:12:20.174Z</time>
      </trkpt>
      <trkpt lat="46.70983" lon="15.63412">
        <ele>327.680705</ele>
        <time>2022-09-19T10:12:23.199Z</time>
      </trkpt>
      <trkpt lat="46.70995" lon="15.63414">
        <ele>327.962476</ele>
        <time>2022-09-19T10:12:26.222Z</time>
      </trkpt>
      <trkpt lat="46.71007" lon="15.63414">
        <ele>328.252905</ele>
        <time>2022-09-19T10:12:29.239Z</time>
      </trkpt>
      <trkpt lat="46.7102" lon="15.63415">
        <ele>328.557441</ele>
        <time>2022-09-19T10:12:32.188Z</time>
      </trkpt>
      <trkpt lat="46.71033" lon="15.63417">
        <ele>328.868328</ele>
        <time>2022-09-19T10:12:35.182Z</time>
      </trkpt>
      <trkpt lat="46.71046" lon="15.63419">
        <ele>329.180811</ele>
        <time>2022-09-19T10:12:38.185Z</time>
      </trkpt>
      <trkpt lat="46.71057" lon="15.63421">
        <ele>329.444029</ele>
        <time>2022-09-19T10:12:41.174Z</time>
      </trkpt>
      <trkpt lat="46.71064" lon="15.63412">
        <ele>329.670234</ele>
        <time>2022-09-19T10:12:46.213Z</time>
      </trkpt>
      <trkpt lat="46.71067" lon="15.63398">
        <ele>329.536168</ele>
        <time>2022-09-19T10:12:54.190Z</time>
      </trkpt>
      <trkpt lat="46.71075" lon="15.63384">
        <ele>329.366771</ele>
        <time>2022-09-19T10:12:58.315Z</time>
      </trkpt>
      <trkpt lat="46.7108" lon="15.63369">
        <ele>329.202962</ele>
        <time>2022-09-19T10:13:01.185Z</time>
      </trkpt>
      <trkpt lat="46.71084" lon="15.63354">
        <ele>329.046784</ele>
        <time>2022-09-19T10:13:04.190Z</time>
      </trkpt>
      <trkpt lat="46.71089" lon="15.63339">
        <ele>328.893589</ele>
        <time>2022-09-19T10:13:07.184Z</time>
      </trkpt>
      <trkpt lat="46.71094" lon="15.63323">
        <ele>328.731229</ele>
        <time>2022-09-19T10:13:10.197Z</time>
      </trkpt>
      <trkpt lat="46.71099" lon="15.63307">
        <ele>328.560842</ele>
        <time>2022-09-19T10:13:13.220Z</time>
      </trkpt>
      <trkpt lat="46.71105" lon="15.6329">
        <ele>328.378348</ele>
        <time>2022-09-19T10:13:16.193Z</time>
      </trkpt>
      <trkpt lat="46.7111" lon="15.63273">
        <ele>328.205221</ele>
        <time>2022-09-19T10:13:19.220Z</time>
      </trkpt>
      <trkpt lat="46.71116" lon="15.63255">
        <ele>328.021266</ele>
        <time>2022-09-19T10:13:22.173Z</time>
      </trkpt>
      <trkpt lat="46.71121" lon="15.63243">
        <ele>327.890739</ele>
        <time>2022-09-19T10:13:24.183Z</time>
      </trkpt>
      <trkpt lat="46.71125" lon="15.63232">
        <ele>327.766191</ele>
        <time>2022-09-19T10:13:26.184Z</time>
      </trkpt>
      <trkpt lat="46.7113" lon="15.63216">
        <ele>327.59883</ele>
        <time>2022-09-19T10:13:29.188Z</time>
      </trkpt>
      <trkpt lat="46.71136" lon="15.63202">
        <ele>327.444793</ele>
        <time>2022-09-19T10:13:32.182Z</time>
      </trkpt>
      <trkpt lat="46.71142" lon="15.63186">
        <ele>327.274065</ele>
        <time>2022-09-19T10:13:35.187Z</time>
      </trkpt>
      <trkpt lat="46.7115" lon="15.63172">
        <ele>327.32512</ele>
        <time>2022-09-19T10:13:38.211Z</time>
      </trkpt>
      <trkpt lat="46.71159" lon="15.6316">
        <ele>327.572297</ele>
        <time>2022-09-19T10:13:41.197Z</time>
      </trkpt>
      <trkpt lat="46.71167" lon="15.6315">
        <ele>327.780245</ele>
        <time>2022-09-19T10:13:43.221Z</time>
      </trkpt>
      <trkpt lat="46.71174" lon="15.63136">
        <ele>328.017612</ele>
        <time>2022-09-19T10:13:45.175Z</time>
      </trkpt>
      <trkpt lat="46.71181" lon="15.6312">
        <ele>328.271662</ele>
        <time>2022-09-19T10:13:47.212Z</time>
      </trkpt>
      <trkpt lat="46.71186" lon="15.63106">
        <ele>328.496022</ele>
        <time>2022-09-19T10:13:49.187Z</time>
      </trkpt>
      <trkpt lat="46.71192" lon="15.63094">
        <ele>328.704598</ele>
        <time>2022-09-19T10:13:51.181Z</time>
      </trkpt>
      <trkpt lat="46.71198" lon="15.63082">
        <ele>328.899795</ele>
        <time>2022-09-19T10:13:53.202Z</time>
      </trkpt>
      <trkpt lat="46.71204" lon="15.63072">
        <ele>329.091036</ele>
        <time>2022-09-19T10:13:55.184Z</time>
      </trkpt>
      <trkpt lat="46.71212" lon="15.63056">
        <ele>329.347203</ele>
        <time>2022-09-19T10:13:58.230Z</time>
      </trkpt>
      <trkpt lat="46.71218" lon="15.63042">
        <ele>329.587514</ele>
        <time>2022-09-19T10:14:01.199Z</time>
      </trkpt>
      <trkpt lat="46.71226" lon="15.63027">
        <ele>329.84188</ele>
        <time>2022-09-19T10:14:04.225Z</time>
      </trkpt>
      <trkpt lat="46.71234" lon="15.63012">
        <ele>330.099197</ele>
        <time>2022-09-19T10:14:07.190Z</time>
      </trkpt>
      <trkpt lat="46.71242" lon="15.62997">
        <ele>330.363029</ele>
        <time>2022-09-19T10:14:10.190Z</time>
      </trkpt>
      <trkpt lat="46.7125" lon="15.62982">
        <ele>330.619447</ele>
        <time>2022-09-19T10:14:13.225Z</time>
      </trkpt>
      <trkpt lat="46.71257" lon="15.62968">
        <ele>330.705196</ele>
        <time>2022-09-19T10:14:16.191Z</time>
      </trkpt>
      <trkpt lat="46.71265" lon="15.62954">
        <ele>330.39133</ele>
        <time>2022-09-19T10:14:19.181Z</time>
      </trkpt>
      <trkpt lat="46.71274" lon="15.62944">
        <ele>330.113223</ele>
        <time>2022-09-19T10:14:22.180Z</time>
      </trkpt>
      <trkpt lat="46.71287" lon="15.62945">
        <ele>329.778407</ele>
        <time>2022-09-19T10:14:25.185Z</time>
      </trkpt>
      <trkpt lat="46.71297" lon="15.62949">
        <ele>329.511946</ele>
        <time>2022-09-19T10:14:27.180Z</time>
      </trkpt>
      <trkpt lat="46.71307" lon="15.62942">
        <ele>329.2423</ele>
        <time>2022-09-19T10:14:30.191Z</time>
      </trkpt>
      <trkpt lat="46.71309" lon="15.62925">
        <ele>328.943635</ele>
        <time>2022-09-19T10:14:33.198Z</time>
      </trkpt>
      <trkpt lat="46.71303" lon="15.62909">
        <ele>328.614577</ele>
        <time>2022-09-19T10:14:36.256Z</time>
      </trkpt>
      <trkpt lat="46.71299" lon="15.62894">
        <ele>328.346109</ele>
        <time>2022-09-19T10:14:40.176Z</time>
      </trkpt>
      <trkpt lat="46.713" lon="15.62881">
        <ele>328.104178</ele>
        <time>2022-09-19T10:14:44.212Z</time>
      </trkpt>
      <trkpt lat="46.71309" lon="15.62868">
        <ele>327.779216</ele>
        <time>2022-09-19T10:14:47.184Z</time>
      </trkpt>
      <trkpt lat="46.71319" lon="15.6286">
        <ele>327.484417</ele>
        <time>2022-09-19T10:14:50.170Z</time>
      </trkpt>
      <trkpt lat="46.71329" lon="15.62846">
        <ele>327.131071</ele>
        <time>2022-09-19T10:14:53.188Z</time>
      </trkpt>
      <trkpt lat="46.71336" lon="15.62836">
        <ele>326.874243</ele>
        <time>2022-09-19T10:14:55.165Z</time>
      </trkpt>
      <trkpt lat="46.71343" lon="15.62825">
        <ele>326.630773</ele>
        <time>2022-09-19T10:14:57.186Z</time>
      </trkpt>
      <trkpt lat="46.7135" lon="15.62809">
        <ele>326.286842</ele>
        <time>2022-09-19T10:15:00.182Z</time>
      </trkpt>
      <trkpt lat="46.71356" lon="15.62797">
        <ele>326.172255</ele>
        <time>2022-09-19T10:15:02.177Z</time>
      </trkpt>
      <trkpt lat="46.71363" lon="15.62785">
        <ele>326.128702</ele>
        <time>2022-09-19T10:15:04.188Z</time>
      </trkpt>
      <trkpt lat="46.71369" lon="15.62774">
        <ele>326.086243</ele>
        <time>2022-09-19T10:15:06.220Z</time>
      </trkpt>
      <trkpt lat="46.71377" lon="15.62759">
        <ele>326.030049</ele>
        <time>2022-09-19T10:15:09.192Z</time>
      </trkpt>
      <trkpt lat="46.71387" lon="15.62745">
        <ele>325.972807</ele>
        <time>2022-09-19T10:15:12.183Z</time>
      </trkpt>
      <trkpt lat="46.71396" lon="15.62732">
        <ele>325.917104</ele>
        <time>2022-09-19T10:15:15.192Z</time>
      </trkpt>
      <trkpt lat="46.71405" lon="15.62721">
        <ele>325.866971</ele>
        <time>2022-09-19T10:15:18.222Z</time>
      </trkpt>
      <trkpt lat="46.71414" lon="15.62711">
        <ele>325.817164</ele>
        <time>2022-09-19T10:15:21.217Z</time>
      </trkpt>
      <trkpt lat="46.71423" lon="15.62698">
        <ele>325.764535</ele>
        <time>2022-09-19T10:15:24.191Z</time>
      </trkpt>
      <trkpt lat="46.71432" lon="15.62685">
        <ele>325.709346</ele>
        <time>2022-09-19T10:15:27.183Z</time>
      </trkpt>
      <trkpt lat="46.71438" lon="15.62676">
        <ele>325.669953</ele>
        <time>2022-09-19T10:15:29.193Z</time>
      </trkpt>
      <trkpt lat="46.71445" lon="15.62667">
        <ele>325.630931</ele>
        <time>2022-09-19T10:15:31.185Z</time>
      </trkpt>
      <trkpt lat="46.71452" lon="15.62658">
        <ele>325.590553</ele>
        <time>2022-09-19T10:15:33.180Z</time>
      </trkpt>
      <trkpt lat="46.7146" lon="15.62649">
        <ele>325.549464</ele>
        <time>2022-09-19T10:15:35.177Z</time>
      </trkpt>
      <trkpt lat="46.71467" lon="15.62639">
        <ele>325.506788</ele>
        <time>2022-09-19T10:15:37.167Z</time>
      </trkpt>
      <trkpt lat="46.71474" lon="15.62629">
        <ele>325.46458</ele>
        <time>2022-09-19T10:15:39.180Z</time>
      </trkpt>
      <trkpt lat="46.71482" lon="15.62621">
        <ele>325.424588</ele>
        <time>2022-09-19T10:15:41.183Z</time>
      </trkpt>
      <trkpt lat="46.71488" lon="15.62611">
        <ele>325.385129</ele>
        <time>2022-09-19T10:15:43.214Z</time>
      </trkpt>
      <trkpt lat="46.71495" lon="15.62601">
        <ele>325.344003</ele>
        <time>2022-09-19T10:15:45.194Z</time>
      </trkpt>
      <trkpt lat="46.71502" lon="15.62591">
        <ele>325.303075</ele>
        <time>2022-09-19T10:15:47.221Z</time>
      </trkpt>
      <trkpt lat="46.71509" lon="15.62582">
        <ele>325.264768</ele>
        <time>2022-09-19T10:15:49.173Z</time>
      </trkpt>
      <trkpt lat="46.71515" lon="15.62573">
        <ele>325.226851</ele>
        <time>2022-09-19T10:15:51.179Z</time>
      </trkpt>
      <trkpt lat="46.71523" lon="15.62558">
        <ele>325.173614</ele>
        <time>2022-09-19T10:15:54.177Z</time>
      </trkpt>
      <trkpt lat="46.71531" lon="15.62545">
        <ele>325.121951</ele>
        <time>2022-09-19T10:15:57.186Z</time>
      </trkpt>
      <trkpt lat="46.71539" lon="15.62532">
        <ele>325.070699</ele>
        <time>2022-09-19T10:16:00.217Z</time>
      </trkpt>
      <trkpt lat="46.71547" lon="15.62517">
        <ele>325.017727</ele>
        <time>2022-09-19T10:16:03.173Z</time>
      </trkpt>
      <trkpt lat="46.71555" lon="15.62503">
        <ele>324.965157</ele>
        <time>2022-09-19T10:16:06.181Z</time>
      </trkpt>
      <trkpt lat="46.71563" lon="15.62489">
        <ele>324.91045</ele>
        <time>2022-09-19T10:16:09.182Z</time>
      </trkpt>
      <trkpt lat="46.71571" lon="15.62473">
        <ele>324.854948</ele>
        <time>2022-09-19T10:16:12.164Z</time>
      </trkpt>
      <trkpt lat="46.7158" lon="15.6246">
        <ele>324.801156</ele>
        <time>2022-09-19T10:16:15.183Z</time>
      </trkpt>
      <trkpt lat="46.71588" lon="15.62445">
        <ele>324.748143</ele>
        <time>2022-09-19T10:16:18.187Z</time>
      </trkpt>
      <trkpt lat="46.71595" lon="15.62431">
        <ele>324.696234</ele>
        <time>2022-09-19T10:16:21.187Z</time>
      </trkpt>
      <trkpt lat="46.71604" lon="15.62418">
        <ele>324.641445</ele>
        <time>2022-09-19T10:16:24.194Z</time>
      </trkpt>
      <trkpt lat="46.71611" lon="15.62404">
        <ele>324.586034</ele>
        <time>2022-09-19T10:16:27.194Z</time>
      </trkpt>
      <trkpt lat="46.71619" lon="15.6239">
        <ele>324.529154</ele>
        <time>2022-09-19T10:16:30.188Z</time>
      </trkpt>
      <trkpt lat="46.71627" lon="15.62376">
        <ele>324.469508</ele>
        <time>2022-09-19T10:16:33.227Z</time>
      </trkpt>
      <trkpt lat="46.71635" lon="15.62362">
        <ele>324.410037</ele>
        <time>2022-09-19T10:16:36.183Z</time>
      </trkpt>
      <trkpt lat="46.71643" lon="15.62348">
        <ele>324.350831</ele>
        <time>2022-09-19T10:16:39.198Z</time>
      </trkpt>
      <trkpt lat="46.71652" lon="15.62335">
        <ele>324.293803</ele>
        <time>2022-09-19T10:16:42.191Z</time>
      </trkpt>
      <trkpt lat="46.71663" lon="15.62328">
        <ele>324.238437</ele>
        <time>2022-09-19T10:16:45.205Z</time>
      </trkpt>
      <trkpt lat="46.71674" lon="15.62322">
        <ele>324.183151</ele>
        <time>2022-09-19T10:16:48.159Z</time>
      </trkpt>
      <trkpt lat="46.71686" lon="15.62316">
        <ele>324.124892</ele>
        <time>2022-09-19T10:16:51.185Z</time>
      </trkpt>
      <trkpt lat="46.71698" lon="15.62311">
        <ele>324.06763</ele>
        <time>2022-09-19T10:16:54.214Z</time>
      </trkpt>
      <trkpt lat="46.71709" lon="15.62307">
        <ele>324.013333</ele>
        <time>2022-09-19T10:16:57.189Z</time>
      </trkpt>
      <trkpt lat="46.71721" lon="15.62301">
        <ele>323.95527</ele>
        <time>2022-09-19T10:17:00.187Z</time>
      </trkpt>
      <trkpt lat="46.71733" lon="15.62296">
        <ele>323.89819</ele>
        <time>2022-09-19T10:17:03.195Z</time>
      </trkpt>
      <trkpt lat="46.71745" lon="15.62291">
        <ele>323.840946</ele>
        <time>2022-09-19T10:17:06.207Z</time>
      </trkpt>
      <trkpt lat="46.71756" lon="15.62286">
        <ele>324.084696</ele>
        <time>2022-09-19T10:17:09.180Z</time>
      </trkpt>
      <trkpt lat="46.71767" lon="15.62281">
        <ele>324.349739</ele>
        <time>2022-09-19T10:17:12.184Z</time>
      </trkpt>
      <trkpt lat="46.71778" lon="15.62275">
        <ele>324.618559</ele>
        <time>2022-09-19T10:17:15.199Z</time>
      </trkpt>
      <trkpt lat="46.71788" lon="15.62265">
        <ele>324.879297</ele>
        <time>2022-09-19T10:17:18.191Z</time>
      </trkpt>
      <trkpt lat="46.71796" lon="15.62255">
        <ele>325.126715</ele>
        <time>2022-09-19T10:17:21.301Z</time>
      </trkpt>
      <trkpt lat="46.71805" lon="15.62243">
        <ele>325.3927</ele>
        <time>2022-09-19T10:17:24.192Z</time>
      </trkpt>
      <trkpt lat="46.71814" lon="15.6223">
        <ele>325.66251</ele>
        <time>2022-09-19T10:17:27.200Z</time>
      </trkpt>
      <trkpt lat="46.71823" lon="15.62217">
        <ele>325.95284</ele>
        <time>2022-09-19T10:17:30.171Z</time>
      </trkpt>
      <trkpt lat="46.71831" lon="15.62205">
        <ele>326.216534</ele>
        <time>2022-09-19T10:17:33.166Z</time>
      </trkpt>
      <trkpt lat="46.71839" lon="15.62192">
        <ele>326.469701</ele>
        <time>2022-09-19T10:17:36.148Z</time>
      </trkpt>
      <trkpt lat="46.71847" lon="15.6218">
        <ele>326.730397</ele>
        <time>2022-09-19T10:17:39.176Z</time>
      </trkpt>
      <trkpt lat="46.71855" lon="15.62168">
        <ele>326.985697</ele>
        <time>2022-09-19T10:17:42.153Z</time>
      </trkpt>
      <trkpt lat="46.71864" lon="15.62156">
        <ele>327.255901</ele>
        <time>2022-09-19T10:17:45.156Z</time>
      </trkpt>
      <trkpt lat="46.71872" lon="15.62144">
        <ele>327.513315</ele>
        <time>2022-09-19T10:17:48.185Z</time>
      </trkpt>
      <trkpt lat="46.71881" lon="15.62131">
        <ele>327.793645</ele>
        <time>2022-09-19T10:17:51.187Z</time>
      </trkpt>
      <trkpt lat="46.71891" lon="15.62118">
        <ele>327.875544</ele>
        <time>2022-09-19T10:17:54.181Z</time>
      </trkpt>
      <trkpt lat="46.71898" lon="15.62105">
        <ele>327.90402</ele>
        <time>2022-09-19T10:17:57.176Z</time>
      </trkpt>
      <trkpt lat="46.71907" lon="15.62092">
        <ele>327.9344</ele>
        <time>2022-09-19T10:18:00.185Z</time>
      </trkpt>
      <trkpt lat="46.71914" lon="15.62083">
        <ele>327.957613</ele>
        <time>2022-09-19T10:18:02.188Z</time>
      </trkpt>
      <trkpt lat="46.71921" lon="15.62073">
        <ele>327.981765</ele>
        <time>2022-09-19T10:18:04.210Z</time>
      </trkpt>
      <trkpt lat="46.71927" lon="15.62062">
        <ele>328.006178</ele>
        <time>2022-09-19T10:18:06.188Z</time>
      </trkpt>
      <trkpt lat="46.71934" lon="15.62052">
        <ele>328.029017</ele>
        <time>2022-09-19T10:18:08.155Z</time>
      </trkpt>
      <trkpt lat="46.71943" lon="15.62038">
        <ele>328.061387</ele>
        <time>2022-09-19T10:18:11.189Z</time>
      </trkpt>
      <trkpt lat="46.71951" lon="15.62024">
        <ele>328.093502</ele>
        <time>2022-09-19T10:18:14.181Z</time>
      </trkpt>
      <trkpt lat="46.71959" lon="15.6201">
        <ele>328.123533</ele>
        <time>2022-09-19T10:18:17.194Z</time>
      </trkpt>
      <trkpt lat="46.71966" lon="15.61996">
        <ele>328.15185</ele>
        <time>2022-09-19T10:18:20.189Z</time>
      </trkpt>
      <trkpt lat="46.71972" lon="15.61983">
        <ele>328.178905</ele>
        <time>2022-09-19T10:18:23.180Z</time>
      </trkpt>
      <trkpt lat="46.71978" lon="15.6197">
        <ele>328.205545</ele>
        <time>2022-09-19T10:18:26.190Z</time>
      </trkpt>
      <trkpt lat="46.71983" lon="15.61955">
        <ele>328.232915</ele>
        <time>2022-09-19T10:18:29.184Z</time>
      </trkpt>
      <trkpt lat="46.71988" lon="15.61942">
        <ele>328.257597</ele>
        <time>2022-09-19T10:18:32.170Z</time>
      </trkpt>
      <trkpt lat="46.71991" lon="15.6193">
        <ele>328.279624</ele>
        <time>2022-09-19T10:18:35.175Z</time>
      </trkpt>
      <trkpt lat="46.71995" lon="15.61916">
        <ele>328.282309</ele>
        <time>2022-09-19T10:18:39.194Z</time>
      </trkpt>
      <trkpt lat="46.71999" lon="15.61901">
        <ele>328.266415</ele>
        <time>2022-09-19T10:18:43.181Z</time>
      </trkpt>
      <trkpt lat="46.72002" lon="15.61889">
        <ele>328.253525</ele>
        <time>2022-09-19T10:18:46.153Z</time>
      </trkpt>
      <trkpt lat="46.72009" lon="15.61878">
        <ele>328.239949</ele>
        <time>2022-09-19T10:18:49.200Z</time>
      </trkpt>
      <trkpt lat="46.72014" lon="15.61868">
        <ele>328.227116</ele>
        <time>2022-09-19T10:18:52.164Z</time>
      </trkpt>
      <trkpt lat="46.7202" lon="15.61857">
        <ele>328.213521</ele>
        <time>2022-09-19T10:18:57.190Z</time>
      </trkpt>
      <trkpt lat="46.72022" lon="15.61843">
        <ele>328.19939</ele>
        <time>2022-09-19T10:19:03.197Z</time>
      </trkpt>
      <trkpt lat="46.72011" lon="15.6184">
        <ele>328.183398</ele>
        <time>2022-09-19T10:19:07.177Z</time>
      </trkpt>
      <trkpt lat="46.72002" lon="15.61837">
        <ele>328.170388</ele>
        <time>2022-09-19T10:19:11.185Z</time>
      </trkpt>
      <trkpt lat="46.72002" lon="15.61822">
        <ele>328.155081</ele>
        <time>2022-09-19T10:19:18.171Z</time>
      </trkpt>
      <trkpt lat="46.72007" lon="15.61806">
        <ele>328.138555</ele>
        <time>2022-09-19T10:19:22.168Z</time>
      </trkpt>
      <trkpt lat="46.72009" lon="15.61793">
        <ele>328.125101</ele>
        <time>2022-09-19T10:19:25.167Z</time>
      </trkpt>
      <trkpt lat="46.72013" lon="15.61778">
        <ele>328.10971</ele>
        <time>2022-09-19T10:19:28.179Z</time>
      </trkpt>
      <trkpt lat="46.72017" lon="15.61763">
        <ele>328.094048</ele>
        <time>2022-09-19T10:19:31.167Z</time>
      </trkpt>
      <trkpt lat="46.72019" lon="15.61748">
        <ele>328.079007</ele>
        <time>2022-09-19T10:19:34.247Z</time>
      </trkpt>
      <trkpt lat="46.72023" lon="15.61733">
        <ele>328.062836</ele>
        <time>2022-09-19T10:19:37.196Z</time>
      </trkpt>
      <trkpt lat="46.72026" lon="15.61718">
        <ele>328.047528</ele>
        <time>2022-09-19T10:19:40.176Z</time>
      </trkpt>
      <trkpt lat="46.7203" lon="15.61701">
        <ele>328.065177</ele>
        <time>2022-09-19T10:19:43.175Z</time>
      </trkpt>
      <trkpt lat="46.72033" lon="15.61686">
        <ele>328.234043</ele>
        <time>2022-09-19T10:19:46.191Z</time>
      </trkpt>
      <trkpt lat="46.72037" lon="15.6167">
        <ele>328.403871</ele>
        <time>2022-09-19T10:19:49.194Z</time>
      </trkpt>
      <trkpt lat="46.72041" lon="15.61654">
        <ele>328.574199</ele>
        <time>2022-09-19T10:19:52.188Z</time>
      </trkpt>
      <trkpt lat="46.72044" lon="15.61638">
        <ele>328.746579</ele>
        <time>2022-09-19T10:19:55.218Z</time>
      </trkpt>
      <trkpt lat="46.72048" lon="15.61621">
        <ele>328.932362</ele>
        <time>2022-09-19T10:19:58.193Z</time>
      </trkpt>
      <trkpt lat="46.72053" lon="15.61604">
        <ele>329.118662</ele>
        <time>2022-09-19T10:20:01.171Z</time>
      </trkpt>
      <trkpt lat="46.72057" lon="15.61587">
        <ele>329.299401</ele>
        <time>2022-09-19T10:20:04.183Z</time>
      </trkpt>
      <trkpt lat="46.72061" lon="15.6157">
        <ele>329.480318</ele>
        <time>2022-09-19T10:20:07.190Z</time>
      </trkpt>
      <trkpt lat="46.72065" lon="15.61555">
        <ele>329.648294</ele>
        <time>2022-09-19T10:20:10.187Z</time>
      </trkpt>
      <trkpt lat="46.7207" lon="15.61539">
        <ele>329.828474</ele>
        <time>2022-09-19T10:20:13.206Z</time>
      </trkpt>
      <trkpt lat="46.72074" lon="15.61523">
        <ele>330.000791</ele>
        <time>2022-09-19T10:20:16.180Z</time>
      </trkpt>
      <trkpt lat="46.72078" lon="15.61507">
        <ele>330.174593</ele>
        <time>2022-09-19T10:20:19.182Z</time>
      </trkpt>
      <trkpt lat="46.72083" lon="15.61492">
        <ele>330.344363</ele>
        <time>2022-09-19T10:20:22.188Z</time>
      </trkpt>
      <trkpt lat="46.72087" lon="15.61476">
        <ele>330.519494</ele>
        <time>2022-09-19T10:20:25.190Z</time>
      </trkpt>
      <trkpt lat="46.72091" lon="15.61458">
        <ele>330.710939</ele>
        <time>2022-09-19T10:20:28.195Z</time>
      </trkpt>
      <trkpt lat="46.72096" lon="15.61442">
        <ele>331.26535</ele>
        <time>2022-09-19T10:20:31.162Z</time>
      </trkpt>
      <trkpt lat="46.721" lon="15.61426">
        <ele>331.810669</ele>
        <time>2022-09-19T10:20:34.179Z</time>
      </trkpt>
      <trkpt lat="46.72105" lon="15.61408">
        <ele>332.444159</ele>
        <time>2022-09-19T10:20:37.188Z</time>
      </trkpt>
      <trkpt lat="46.72109" lon="15.61395">
        <ele>332.875421</ele>
        <time>2022-09-19T10:20:39.172Z</time>
      </trkpt>
      <trkpt lat="46.72113" lon="15.61382">
        <ele>333.352156</ele>
        <time>2022-09-19T10:20:41.205Z</time>
      </trkpt>
      <trkpt lat="46.72117" lon="15.6137">
        <ele>333.78798</ele>
        <time>2022-09-19T10:20:43.178Z</time>
      </trkpt>
      <trkpt lat="46.72123" lon="15.61353">
        <ele>334.384671</ele>
        <time>2022-09-19T10:20:46.170Z</time>
      </trkpt>
      <trkpt lat="46.72129" lon="15.61335">
        <ele>335.017716</ele>
        <time>2022-09-19T10:20:49.188Z</time>
      </trkpt>
      <trkpt lat="46.72135" lon="15.61318">
        <ele>335.636038</ele>
        <time>2022-09-19T10:20:52.166Z</time>
      </trkpt>
      <trkpt lat="46.7214" lon="15.61302">
        <ele>336.210052</ele>
        <time>2022-09-19T10:20:55.175Z</time>
      </trkpt>
      <trkpt lat="46.72147" lon="15.61286">
        <ele>336.814904</ele>
        <time>2022-09-19T10:20:58.169Z</time>
      </trkpt>
      <trkpt lat="46.72153" lon="15.61271">
        <ele>337.372255</ele>
        <time>2022-09-19T10:21:01.177Z</time>
      </trkpt>
      <trkpt lat="46.72161" lon="15.61256">
        <ele>337.974525</ele>
        <time>2022-09-19T10:21:04.184Z</time>
      </trkpt>
      <trkpt lat="46.72165" lon="15.61244">
        <ele>338.397485</ele>
        <time>2022-09-19T10:21:06.165Z</time>
      </trkpt>
      <trkpt lat="46.72171" lon="15.61227">
        <ele>339.030505</ele>
        <time>2022-09-19T10:21:09.198Z</time>
      </trkpt>
      <trkpt lat="46.72175" lon="15.61214">
        <ele>338.915042</ele>
        <time>2022-09-19T10:21:11.152Z</time>
      </trkpt>
      <trkpt lat="46.72178" lon="15.61202">
        <ele>338.666101</ele>
        <time>2022-09-19T10:21:13.192Z</time>
      </trkpt>
      <trkpt lat="46.72182" lon="15.61189">
        <ele>338.409609</ele>
        <time>2022-09-19T10:21:15.197Z</time>
      </trkpt>
      <trkpt lat="46.72186" lon="15.61175">
        <ele>338.136004</ele>
        <time>2022-09-19T10:21:17.188Z</time>
      </trkpt>
      <trkpt lat="46.72191" lon="15.61163">
        <ele>337.879094</ele>
        <time>2022-09-19T10:21:19.174Z</time>
      </trkpt>
      <trkpt lat="46.72195" lon="15.61151">
        <ele>337.635221</ele>
        <time>2022-09-19T10:21:21.195Z</time>
      </trkpt>
      <trkpt lat="46.72201" lon="15.61134">
        <ele>337.293157</ele>
        <time>2022-09-19T10:21:24.186Z</time>
      </trkpt>
      <trkpt lat="46.72204" lon="15.61122">
        <ele>337.051114</ele>
        <time>2022-09-19T10:21:26.170Z</time>
      </trkpt>
      <trkpt lat="46.7221" lon="15.61104">
        <ele>336.694082</ele>
        <time>2022-09-19T10:21:29.210Z</time>
      </trkpt>
      <trkpt lat="46.72215" lon="15.61088">
        <ele>336.362086</ele>
        <time>2022-09-19T10:21:32.180Z</time>
      </trkpt>
      <trkpt lat="46.7222" lon="15.61071">
        <ele>336.027776</ele>
        <time>2022-09-19T10:21:35.187Z</time>
      </trkpt>
      <trkpt lat="46.72224" lon="15.61054">
        <ele>335.693118</ele>
        <time>2022-09-19T10:21:38.195Z</time>
      </trkpt>
      <trkpt lat="46.7223" lon="15.61036">
        <ele>335.332238</ele>
        <time>2022-09-19T10:21:41.201Z</time>
      </trkpt>
      <trkpt lat="46.72236" lon="15.61019">
        <ele>334.969033</ele>
        <time>2022-09-19T10:21:44.187Z</time>
      </trkpt>
      <trkpt lat="46.72242" lon="15.61002">
        <ele>334.618495</ele>
        <time>2022-09-19T10:21:47.195Z</time>
      </trkpt>
      <trkpt lat="46.72249" lon="15.60984">
        <ele>334.273205</ele>
        <time>2022-09-19T10:21:50.189Z</time>
      </trkpt>
      <trkpt lat="46.72255" lon="15.60967">
        <ele>334.027679</ele>
        <time>2022-09-19T10:21:53.174Z</time>
      </trkpt>
      <trkpt lat="46.7226" lon="15.60956">
        <ele>333.864772</ele>
        <time>2022-09-19T10:21:55.180Z</time>
      </trkpt>
      <trkpt lat="46.72264" lon="15.60943">
        <ele>333.685716</ele>
        <time>2022-09-19T10:21:57.193Z</time>
      </trkpt>
      <trkpt lat="46.72271" lon="15.60926">
        <ele>333.447005</ele>
        <time>2022-09-19T10:22:00.170Z</time>
      </trkpt>
      <trkpt lat="46.72277" lon="15.60909">
        <ele>333.202172</ele>
        <time>2022-09-19T10:22:03.199Z</time>
      </trkpt>
      <trkpt lat="46.72284" lon="15.60892">
        <ele>332.9604</ele>
        <time>2022-09-19T10:22:06.195Z</time>
      </trkpt>
      <trkpt lat="46.7229" lon="15.60876">
        <ele>332.728691</ele>
        <time>2022-09-19T10:22:09.180Z</time>
      </trkpt>
      <trkpt lat="46.72297" lon="15.60862">
        <ele>332.510701</ele>
        <time>2022-09-19T10:22:12.233Z</time>
      </trkpt>
      <trkpt lat="46.72301" lon="15.6085">
        <ele>332.348269</ele>
        <time>2022-09-19T10:22:14.189Z</time>
      </trkpt>
      <trkpt lat="46.72306" lon="15.60839">
        <ele>332.178419</ele>
        <time>2022-09-19T10:22:16.180Z</time>
      </trkpt>
      <trkpt lat="46.72311" lon="15.60827">
        <ele>332.011183</ele>
        <time>2022-09-19T10:22:18.223Z</time>
      </trkpt>
      <trkpt lat="46.72317" lon="15.60812">
        <ele>331.791624</ele>
        <time>2022-09-19T10:22:21.180Z</time>
      </trkpt>
      <trkpt lat="46.72323" lon="15.60797">
        <ele>331.570988</ele>
        <time>2022-09-19T10:22:24.194Z</time>
      </trkpt>
      <trkpt lat="46.72329" lon="15.60781">
        <ele>331.344484</ele>
        <time>2022-09-19T10:22:27.183Z</time>
      </trkpt>
      <trkpt lat="46.72334" lon="15.60769">
        <ele>331.180953</ele>
        <time>2022-09-19T10:22:29.230Z</time>
      </trkpt>
      <trkpt lat="46.7234" lon="15.60755">
        <ele>331.072013</ele>
        <time>2022-09-19T10:22:32.193Z</time>
      </trkpt>
      <trkpt lat="46.72348" lon="15.60739">
        <ele>331.1733</ele>
        <time>2022-09-19T10:22:35.182Z</time>
      </trkpt>
      <trkpt lat="46.72355" lon="15.60723">
        <ele>331.280421</ele>
        <time>2022-09-19T10:22:38.181Z</time>
      </trkpt>
      <trkpt lat="46.72364" lon="15.60708">
        <ele>331.388079</ele>
        <time>2022-09-19T10:22:41.184Z</time>
      </trkpt>
      <trkpt lat="46.72369" lon="15.60697">
        <ele>331.460099</ele>
        <time>2022-09-19T10:22:43.188Z</time>
      </trkpt>
      <trkpt lat="46.72373" lon="15.60685">
        <ele>331.531882</ele>
        <time>2022-09-19T10:22:45.186Z</time>
      </trkpt>
      <trkpt lat="46.72381" lon="15.6067">
        <ele>331.634138</ele>
        <time>2022-09-19T10:22:48.198Z</time>
      </trkpt>
      <trkpt lat="46.72388" lon="15.60655">
        <ele>331.736774</ele>
        <time>2022-09-19T10:22:51.213Z</time>
      </trkpt>
      <trkpt lat="46.72395" lon="15.60639">
        <ele>331.838044</ele>
        <time>2022-09-19T10:22:54.191Z</time>
      </trkpt>
      <trkpt lat="46.72403" lon="15.60624">
        <ele>331.942014</ele>
        <time>2022-09-19T10:22:57.210Z</time>
      </trkpt>
      <trkpt lat="46.7241" lon="15.60609">
        <ele>332.039229</ele>
        <time>2022-09-19T10:23:00.185Z</time>
      </trkpt>
      <trkpt lat="46.72417" lon="15.60595">
        <ele>332.137963</ele>
        <time>2022-09-19T10:23:03.176Z</time>
      </trkpt>
      <trkpt lat="46.72423" lon="15.6058">
        <ele>332.233954</ele>
        <time>2022-09-19T10:23:06.189Z</time>
      </trkpt>
      <trkpt lat="46.7243" lon="15.60563">
        <ele>332.338073</ele>
        <time>2022-09-19T10:23:09.191Z</time>
      </trkpt>
      <trkpt lat="46.72435" lon="15.60551">
        <ele>332.416254</ele>
        <time>2022-09-19T10:23:11.181Z</time>
      </trkpt>
      <trkpt lat="46.72442" lon="15.60534">
        <ele>332.4889</ele>
        <time>2022-09-19T10:23:14.237Z</time>
      </trkpt>
      <trkpt lat="46.72446" lon="15.60523">
        <ele>332.516964</ele>
        <time>2022-09-19T10:23:16.201Z</time>
      </trkpt>
      <trkpt lat="46.7245" lon="15.60511">
        <ele>332.544311</ele>
        <time>2022-09-19T10:23:18.173Z</time>
      </trkpt>
      <trkpt lat="46.72454" lon="15.60498">
        <ele>332.572637</ele>
        <time>2022-09-19T10:23:20.186Z</time>
      </trkpt>
      <trkpt lat="46.72458" lon="15.60486">
        <ele>332.601873</ele>
        <time>2022-09-19T10:23:22.197Z</time>
      </trkpt>
      <trkpt lat="46.72461" lon="15.60473">
        <ele>332.629202</ele>
        <time>2022-09-19T10:23:24.184Z</time>
      </trkpt>
      <trkpt lat="46.72466" lon="15.60454">
        <ele>332.671182</ele>
        <time>2022-09-19T10:23:27.176Z</time>
      </trkpt>
      <trkpt lat="46.72471" lon="15.60436">
        <ele>332.711515</ele>
        <time>2022-09-19T10:23:30.212Z</time>
      </trkpt>
      <trkpt lat="46.72476" lon="15.60418">
        <ele>332.752378</ele>
        <time>2022-09-19T10:23:33.185Z</time>
      </trkpt>
      <trkpt lat="46.7248" lon="15.60405">
        <ele>332.781325</ele>
        <time>2022-09-19T10:23:35.178Z</time>
      </trkpt>
      <trkpt lat="46.72482" lon="15.60392">
        <ele>332.809249</ele>
        <time>2022-09-19T10:23:37.184Z</time>
      </trkpt>
      <trkpt lat="46.72485" lon="15.60379">
        <ele>332.837393</ele>
        <time>2022-09-19T10:23:39.194Z</time>
      </trkpt>
      <trkpt lat="46.72489" lon="15.60361">
        <ele>332.878386</ele>
        <time>2022-09-19T10:23:42.171Z</time>
      </trkpt>
      <trkpt lat="46.72493" lon="15.60348">
        <ele>332.905757</ele>
        <time>2022-09-19T10:23:44.185Z</time>
      </trkpt>
      <trkpt lat="46.72496" lon="15.60336">
        <ele>332.93397</ele>
        <time>2022-09-19T10:23:46.180Z</time>
      </trkpt>
      <trkpt lat="46.72498" lon="15.60323">
        <ele>332.962314</ele>
        <time>2022-09-19T10:23:48.198Z</time>
      </trkpt>
      <trkpt lat="46.72501" lon="15.6031">
        <ele>332.989839</ele>
        <time>2022-09-19T10:23:50.206Z</time>
      </trkpt>
      <trkpt lat="46.72504" lon="15.60297">
        <ele>333.007422</ele>
        <time>2022-09-19T10:23:52.198Z</time>
      </trkpt>
      <trkpt lat="46.7251" lon="15.60279">
        <ele>332.935766</ele>
        <time>2022-09-19T10:23:55.202Z</time>
      </trkpt>
      <trkpt lat="46.72514" lon="15.60263">
        <ele>332.869892</ele>
        <time>2022-09-19T10:23:58.221Z</time>
      </trkpt>
      <trkpt lat="46.72518" lon="15.60247">
        <ele>332.807394</ele>
        <time>2022-09-19T10:24:01.189Z</time>
      </trkpt>
      <trkpt lat="46.72522" lon="15.60229">
        <ele>332.738057</ele>
        <time>2022-09-19T10:24:04.191Z</time>
      </trkpt>
      <trkpt lat="46.72525" lon="15.60216">
        <ele>332.689489</ele>
        <time>2022-09-19T10:24:06.195Z</time>
      </trkpt>
      <trkpt lat="46.72529" lon="15.60198">
        <ele>332.618835</ele>
        <time>2022-09-19T10:24:09.193Z</time>
      </trkpt>
      <trkpt lat="46.72532" lon="15.6018">
        <ele>332.54961</ele>
        <time>2022-09-19T10:24:12.185Z</time>
      </trkpt>
      <trkpt lat="46.72536" lon="15.60161">
        <ele>332.478429</ele>
        <time>2022-09-19T10:24:15.215Z</time>
      </trkpt>
      <trkpt lat="46.7254" lon="15.60143">
        <ele>332.406823</ele>
        <time>2022-09-19T10:24:18.190Z</time>
      </trkpt>
      <trkpt lat="46.72543" lon="15.60129">
        <ele>332.356225</ele>
        <time>2022-09-19T10:24:20.193Z</time>
      </trkpt>
      <trkpt lat="46.72545" lon="15.60116">
        <ele>332.304487</ele>
        <time>2022-09-19T10:24:22.185Z</time>
      </trkpt>
      <trkpt lat="46.72548" lon="15.60103">
        <ele>332.255371</ele>
        <time>2022-09-19T10:24:24.211Z</time>
      </trkpt>
      <trkpt lat="46.72551" lon="15.60085">
        <ele>332.187935</ele>
        <time>2022-09-19T10:24:27.191Z</time>
      </trkpt>
      <trkpt lat="46.72555" lon="15.60068">
        <ele>332.122314</ele>
        <time>2022-09-19T10:24:30.171Z</time>
      </trkpt>
      <trkpt lat="46.72558" lon="15.60051">
        <ele>332.0556</ele>
        <time>2022-09-19T10:24:33.216Z</time>
      </trkpt>
      <trkpt lat="46.72562" lon="15.60033">
        <ele>332.078603</ele>
        <time>2022-09-19T10:24:36.209Z</time>
      </trkpt>
      <trkpt lat="46.72566" lon="15.60016">
        <ele>332.110979</ele>
        <time>2022-09-19T10:24:39.193Z</time>
      </trkpt>
      <trkpt lat="46.72568" lon="15.59998">
        <ele>332.144166</ele>
        <time>2022-09-19T10:24:42.190Z</time>
      </trkpt>
      <trkpt lat="46.72571" lon="15.59985">
        <ele>332.168488</ele>
        <time>2022-09-19T10:24:44.188Z</time>
      </trkpt>
      <trkpt lat="46.72574" lon="15.59971">
        <ele>332.194616</ele>
        <time>2022-09-19T10:24:46.180Z</time>
      </trkpt>
      <trkpt lat="46.72577" lon="15.59958">
        <ele>332.219869</ele>
        <time>2022-09-19T10:24:48.185Z</time>
      </trkpt>
      <trkpt lat="46.7258" lon="15.59945">
        <ele>332.244361</ele>
        <time>2022-09-19T10:24:50.180Z</time>
      </trkpt>
      <trkpt lat="46.72584" lon="15.59927">
        <ele>332.278543</ele>
        <time>2022-09-19T10:24:53.190Z</time>
      </trkpt>
      <trkpt lat="46.72588" lon="15.5991">
        <ele>332.309305</ele>
        <time>2022-09-19T10:24:56.206Z</time>
      </trkpt>
      <trkpt lat="46.72591" lon="15.59892">
        <ele>332.342274</ele>
        <time>2022-09-19T10:24:59.176Z</time>
      </trkpt>
      <trkpt lat="46.72594" lon="15.59876">
        <ele>332.373808</ele>
        <time>2022-09-19T10:25:02.230Z</time>
      </trkpt>
      <trkpt lat="46.72598" lon="15.59858">
        <ele>332.406812</ele>
        <time>2022-09-19T10:25:05.176Z</time>
      </trkpt>
      <trkpt lat="46.726" lon="15.59841">
        <ele>332.438367</ele>
        <time>2022-09-19T10:25:08.198Z</time>
      </trkpt>
      <trkpt lat="46.72602" lon="15.59828">
        <ele>332.462237</ele>
        <time>2022-09-19T10:25:10.197Z</time>
      </trkpt>
      <trkpt lat="46.72605" lon="15.5981">
        <ele>332.495598</ele>
        <time>2022-09-19T10:25:13.213Z</time>
      </trkpt>
      <trkpt lat="46.72608" lon="15.59792">
        <ele>332.521516</ele>
        <time>2022-09-19T10:25:16.167Z</time>
      </trkpt>
      <trkpt lat="46.72612" lon="15.59776">
        <ele>332.530575</ele>
        <time>2022-09-19T10:25:19.198Z</time>
      </trkpt>
      <trkpt lat="46.72615" lon="15.59759">
        <ele>332.539634</ele>
        <time>2022-09-19T10:25:22.168Z</time>
      </trkpt>
      <trkpt lat="46.7262" lon="15.59741">
        <ele>332.549424</ele>
        <time>2022-09-19T10:25:25.198Z</time>
      </trkpt>
      <trkpt lat="46.72624" lon="15.59723">
        <ele>332.559067</ele>
        <time>2022-09-19T10:25:28.175Z</time>
      </trkpt>
      <trkpt lat="46.72626" lon="15.5971">
        <ele>332.566153</ele>
        <time>2022-09-19T10:25:30.191Z</time>
      </trkpt>
      <trkpt lat="46.7263" lon="15.59692">
        <ele>332.57602</ele>
        <time>2022-09-19T10:25:33.180Z</time>
      </trkpt>
      <trkpt lat="46.72634" lon="15.59674">
        <ele>332.586031</ele>
        <time>2022-09-19T10:25:36.186Z</time>
      </trkpt>
      <trkpt lat="46.72639" lon="15.59655">
        <ele>332.596065</ele>
        <time>2022-09-19T10:25:39.194Z</time>
      </trkpt>
      <trkpt lat="46.72643" lon="15.59643">
        <ele>332.602999</ele>
        <time>2022-09-19T10:25:41.224Z</time>
      </trkpt>
      <trkpt lat="46.72646" lon="15.59631">
        <ele>332.609855</ele>
        <time>2022-09-19T10:25:43.190Z</time>
      </trkpt>
      <trkpt lat="46.72649" lon="15.59618">
        <ele>332.616734</ele>
        <time>2022-09-19T10:25:45.191Z</time>
      </trkpt>
      <trkpt lat="46.72652" lon="15.59605">
        <ele>332.623832</ele>
        <time>2022-09-19T10:25:47.198Z</time>
      </trkpt>
      <trkpt lat="46.72656" lon="15.59587">
        <ele>332.633843</ele>
        <time>2022-09-19T10:25:50.185Z</time>
      </trkpt>
      <trkpt lat="46.72662" lon="15.5957">
        <ele>332.643737</ele>
        <time>2022-09-19T10:25:53.180Z</time>
      </trkpt>
      <trkpt lat="46.72666" lon="15.59558">
        <ele>332.650577</ele>
        <time>2022-09-19T10:25:55.178Z</time>
      </trkpt>
      <trkpt lat="46.72671" lon="15.59539">
        <ele>332.890883</ele>
        <time>2022-09-19T10:25:58.184Z</time>
      </trkpt>
      <trkpt lat="46.72675" lon="15.59527">
        <ele>333.14919</ele>
        <time>2022-09-19T10:26:00.202Z</time>
      </trkpt>
      <trkpt lat="46.7268" lon="15.59514">
        <ele>333.42251</ele>
        <time>2022-09-19T10:26:03.210Z</time>
      </trkpt>
      <trkpt lat="46.72685" lon="15.59502">
        <ele>333.690451</ele>
        <time>2022-09-19T10:26:08.185Z</time>
      </trkpt>
      <trkpt lat="46.72688" lon="15.59487">
        <ele>333.995634</ele>
        <time>2022-09-19T10:26:12.198Z</time>
      </trkpt>
      <trkpt lat="46.72692" lon="15.59474">
        <ele>334.267872</ele>
        <time>2022-09-19T10:26:15.185Z</time>
      </trkpt>
      <trkpt lat="46.72696" lon="15.59459">
        <ele>334.568596</ele>
        <time>2022-09-19T10:26:18.171Z</time>
      </trkpt>
      <trkpt lat="46.72701" lon="15.59446">
        <ele>334.853606</ele>
        <time>2022-09-19T10:26:21.188Z</time>
      </trkpt>
      <trkpt lat="46.72706" lon="15.59433">
        <ele>335.131269</ele>
        <time>2022-09-19T10:26:24.189Z</time>
      </trkpt>
      <trkpt lat="46.72711" lon="15.5942">
        <ele>335.428069</ele>
        <time>2022-09-19T10:26:27.188Z</time>
      </trkpt>
      <trkpt lat="46.72715" lon="15.59405">
        <ele>335.729918</ele>
        <time>2022-09-19T10:26:30.211Z</time>
      </trkpt>
      <trkpt lat="46.7272" lon="15.59392">
        <ele>336.019049</ele>
        <time>2022-09-19T10:26:33.178Z</time>
      </trkpt>
      <trkpt lat="46.72724" lon="15.59378">
        <ele>336.316603</ele>
        <time>2022-09-19T10:26:36.222Z</time>
      </trkpt>
      <trkpt lat="46.7273" lon="15.59362">
        <ele>336.653369</ele>
        <time>2022-09-19T10:26:39.203Z</time>
      </trkpt>
      <trkpt lat="46.72735" lon="15.59348">
        <ele>336.954069</ele>
        <time>2022-09-19T10:26:42.187Z</time>
      </trkpt>
      <trkpt lat="46.7274" lon="15.59335">
        <ele>337.248227</ele>
        <time>2022-09-19T10:26:45.165Z</time>
      </trkpt>
      <trkpt lat="46.72745" lon="15.5932">
        <ele>337.567535</ele>
        <time>2022-09-19T10:26:48.207Z</time>
      </trkpt>
      <trkpt lat="46.72751" lon="15.59305">
        <ele>337.545341</ele>
        <time>2022-09-19T10:26:51.208Z</time>
      </trkpt>
      <trkpt lat="46.72756" lon="15.5929">
        <ele>337.345689</ele>
        <time>2022-09-19T10:26:54.179Z</time>
      </trkpt>
      <trkpt lat="46.72761" lon="15.59275">
        <ele>337.136512</ele>
        <time>2022-09-19T10:26:57.187Z</time>
      </trkpt>
      <trkpt lat="46.72766" lon="15.5926">
        <ele>336.929525</ele>
        <time>2022-09-19T10:27:00.192Z</time>
      </trkpt>
      <trkpt lat="46.72771" lon="15.59245">
        <ele>336.734221</ele>
        <time>2022-09-19T10:27:03.196Z</time>
      </trkpt>
      <trkpt lat="46.72778" lon="15.5923">
        <ele>336.510423</ele>
        <time>2022-09-19T10:27:06.193Z</time>
      </trkpt>
      <trkpt lat="46.72783" lon="15.59219">
        <ele>336.35075</ele>
        <time>2022-09-19T10:27:08.185Z</time>
      </trkpt>
      <trkpt lat="46.72787" lon="15.59207">
        <ele>336.186652</ele>
        <time>2022-09-19T10:27:10.187Z</time>
      </trkpt>
      <trkpt lat="46.72792" lon="15.59195">
        <ele>336.019379</ele>
        <time>2022-09-19T10:27:12.186Z</time>
      </trkpt>
      <trkpt lat="46.72798" lon="15.59177">
        <ele>335.778499</ele>
        <time>2022-09-19T10:27:15.231Z</time>
      </trkpt>
      <trkpt lat="46.72803" lon="15.5916">
        <ele>335.548677</ele>
        <time>2022-09-19T10:27:18.200Z</time>
      </trkpt>
      <trkpt lat="46.72808" lon="15.59145">
        <ele>335.34948</ele>
        <time>2022-09-19T10:27:21.198Z</time>
      </trkpt>
      <trkpt lat="46.72813" lon="15.5913">
        <ele>335.143889</ele>
        <time>2022-09-19T10:27:24.181Z</time>
      </trkpt>
      <trkpt lat="46.72817" lon="15.59117">
        <ele>334.960925</ele>
        <time>2022-09-19T10:27:27.191Z</time>
      </trkpt>
      <trkpt lat="46.72821" lon="15.59103">
        <ele>334.781995</ele>
        <time>2022-09-19T10:27:30.181Z</time>
      </trkpt>
      <trkpt lat="46.72825" lon="15.59089">
        <ele>334.600125</ele>
        <time>2022-09-19T10:27:33.199Z</time>
      </trkpt>
      <trkpt lat="46.7283" lon="15.59076">
        <ele>334.490233</ele>
        <time>2022-09-19T10:27:36.180Z</time>
      </trkpt>
      <trkpt lat="46.72834" lon="15.5906">
        <ele>334.501835</ele>
        <time>2022-09-19T10:27:39.192Z</time>
      </trkpt>
      <trkpt lat="46.72839" lon="15.59042">
        <ele>334.51489</ele>
        <time>2022-09-19T10:27:42.182Z</time>
      </trkpt>
      <trkpt lat="46.72843" lon="15.59026">
        <ele>334.527093</ele>
        <time>2022-09-19T10:27:45.190Z</time>
      </trkpt>
      <trkpt lat="46.72847" lon="15.59011">
        <ele>334.538122</ele>
        <time>2022-09-19T10:27:48.219Z</time>
      </trkpt>
      <trkpt lat="46.72851" lon="15.58997">
        <ele>334.548459</ele>
        <time>2022-09-19T10:27:51.193Z</time>
      </trkpt>
      <trkpt lat="46.72854" lon="15.58982">
        <ele>334.559217</ele>
        <time>2022-09-19T10:27:54.231Z</time>
      </trkpt>
      <trkpt lat="46.72857" lon="15.58967">
        <ele>334.569847</ele>
        <time>2022-09-19T10:27:57.190Z</time>
      </trkpt>
      <trkpt lat="46.72861" lon="15.58953">
        <ele>334.580547</ele>
        <time>2022-09-19T10:28:00.182Z</time>
      </trkpt>
      <trkpt lat="46.72865" lon="15.58938">
        <ele>334.591275</ele>
        <time>2022-09-19T10:28:03.190Z</time>
      </trkpt>
      <trkpt lat="46.72868" lon="15.58922">
        <ele>334.602774</ele>
        <time>2022-09-19T10:28:06.200Z</time>
      </trkpt>
      <trkpt lat="46.7287" lon="15.58905">
        <ele>334.614557</ele>
        <time>2022-09-19T10:28:09.190Z</time>
      </trkpt>
      <trkpt lat="46.72874" lon="15.58889">
        <ele>334.626614</ele>
        <time>2022-09-19T10:28:12.202Z</time>
      </trkpt>
      <trkpt lat="46.72876" lon="15.58872">
        <ele>334.638015</ele>
        <time>2022-09-19T10:28:15.189Z</time>
      </trkpt>
      <trkpt lat="46.72879" lon="15.58857">
        <ele>334.649057</ele>
        <time>2022-09-19T10:28:18.183Z</time>
      </trkpt>
      <trkpt lat="46.72881" lon="15.58842">
        <ele>334.659338</ele>
        <time>2022-09-19T10:28:21.184Z</time>
      </trkpt>
      <trkpt lat="46.72884" lon="15.58826">
        <ele>334.632131</ele>
        <time>2022-09-19T10:28:24.209Z</time>
      </trkpt>
      <trkpt lat="46.72886" lon="15.5881">
        <ele>334.530278</ele>
        <time>2022-09-19T10:28:27.181Z</time>
      </trkpt>
      <trkpt lat="46.72888" lon="15.58794">
        <ele>334.426521</ele>
        <time>2022-09-19T10:28:30.251Z</time>
      </trkpt>
      <trkpt lat="46.7289" lon="15.58779">
        <ele>334.329519</ele>
        <time>2022-09-19T10:28:33.187Z</time>
      </trkpt>
      <trkpt lat="46.72892" lon="15.58762">
        <ele>334.226542</ele>
        <time>2022-09-19T10:28:36.207Z</time>
      </trkpt>
      <trkpt lat="46.72895" lon="15.58745">
        <ele>334.112477</ele>
        <time>2022-09-19T10:28:39.185Z</time>
      </trkpt>
      <trkpt lat="46.72898" lon="15.58727">
        <ele>333.998412</ele>
        <time>2022-09-19T10:28:42.212Z</time>
      </trkpt>
      <trkpt lat="46.72901" lon="15.58711">
        <ele>333.896969</ele>
        <time>2022-09-19T10:28:45.189Z</time>
      </trkpt>
      <trkpt lat="46.72902" lon="15.58695">
        <ele>333.794083</ele>
        <time>2022-09-19T10:28:48.285Z</time>
      </trkpt>
      <trkpt lat="46.72903" lon="15.58679">
        <ele>333.692474</ele>
        <time>2022-09-19T10:28:51.186Z</time>
      </trkpt>
      <trkpt lat="46.72904" lon="15.58664">
        <ele>333.597889</ele>
        <time>2022-09-19T10:28:54.185Z</time>
      </trkpt>
      <trkpt lat="46.72907" lon="15.5865">
        <ele>333.507825</ele>
        <time>2022-09-19T10:28:57.174Z</time>
      </trkpt>
      <trkpt lat="46.72906" lon="15.58636">
        <ele>333.423292</ele>
        <time>2022-09-19T10:29:00.207Z</time>
      </trkpt>
      <trkpt lat="46.72905" lon="15.5862">
        <ele>333.321978</ele>
        <time>2022-09-19T10:29:05.171Z</time>
      </trkpt>
      <trkpt lat="46.72905" lon="15.58605">
        <ele>333.225568</ele>
        <time>2022-09-19T10:29:09.177Z</time>
      </trkpt>
      <trkpt lat="46.72905" lon="15.58589">
        <ele>333.127907</ele>
        <time>2022-09-19T10:29:13.199Z</time>
      </trkpt>
      <trkpt lat="46.72906" lon="15.58573">
        <ele>333.025004</ele>
        <time>2022-09-19T10:29:17.247Z</time>
      </trkpt>
      <trkpt lat="46.72905" lon="15.58556">
        <ele>333.000025</ele>
        <time>2022-09-19T10:29:21.188Z</time>
      </trkpt>
      <trkpt lat="46.72904" lon="15.58543">
        <ele>332.979801</ele>
        <time>2022-09-19T10:29:25.185Z</time>
      </trkpt>
      <trkpt lat="46.72909" lon="15.58529">
        <ele>332.955687</ele>
        <time>2022-09-19T10:29:31.200Z</time>
      </trkpt>
      <trkpt lat="46.72911" lon="15.58512">
        <ele>332.929136</ele>
        <time>2022-09-19T10:29:34.186Z</time>
      </trkpt>
      <trkpt lat="46.72912" lon="15.58497">
        <ele>332.906772</ele>
        <time>2022-09-19T10:29:36.189Z</time>
      </trkpt>
      <trkpt lat="46.72914" lon="15.5848">
        <ele>332.880237</ele>
        <time>2022-09-19T10:29:39.192Z</time>
      </trkpt>
      <trkpt lat="46.72913" lon="15.58464">
        <ele>332.855838</ele>
        <time>2022-09-19T10:29:43.190Z</time>
      </trkpt>
      <trkpt lat="46.72911" lon="15.58451">
        <ele>332.834949</ele>
        <time>2022-09-19T10:29:48.180Z</time>
      </trkpt>
      <trkpt lat="46.72909" lon="15.58435">
        <ele>332.80998</ele>
        <time>2022-09-19T10:29:52.200Z</time>
      </trkpt>
      <trkpt lat="46.72909" lon="15.58421">
        <ele>332.78882</ele>
        <time>2022-09-19T10:29:55.194Z</time>
      </trkpt>
      <trkpt lat="46.7291" lon="15.58406">
        <ele>332.767167</ele>
        <time>2022-09-19T10:29:58.194Z</time>
      </trkpt>
      <trkpt lat="46.7291" lon="15.58392">
        <ele>332.745817</ele>
        <time>2022-09-19T10:30:01.184Z</time>
      </trkpt>
      <trkpt lat="46.7291" lon="15.58378">
        <ele>332.723763</ele>
        <time>2022-09-19T10:30:04.178Z</time>
      </trkpt>
      <trkpt lat="46.7291" lon="15.58364">
        <ele>332.702316</ele>
        <time>2022-09-19T10:30:07.198Z</time>
      </trkpt>
      <trkpt lat="46.72911" lon="15.58349">
        <ele>332.680258</ele>
        <time>2022-09-19T10:30:10.200Z</time>
      </trkpt>
      <trkpt lat="46.7291" lon="15.58335">
        <ele>332.657896</ele>
        <time>2022-09-19T10:30:13.208Z</time>
      </trkpt>
      <trkpt lat="46.72909" lon="15.5832">
        <ele>332.634957</ele>
        <time>2022-09-19T10:30:16.200Z</time>
      </trkpt>
      <trkpt lat="46.72907" lon="15.58306">
        <ele>332.623465</ele>
        <time>2022-09-19T10:30:19.202Z</time>
      </trkpt>
      <trkpt lat="46.72905" lon="15.5829">
        <ele>332.618098</ele>
        <time>2022-09-19T10:30:22.195Z</time>
      </trkpt>
      <trkpt lat="46.72904" lon="15.58276">
        <ele>332.612973</ele>
        <time>2022-09-19T10:30:25.184Z</time>
      </trkpt>
      <trkpt lat="46.72903" lon="15.58261">
        <ele>332.608053</ele>
        <time>2022-09-19T10:30:28.185Z</time>
      </trkpt>
      <trkpt lat="46.72902" lon="15.58247">
        <ele>332.603025</ele>
        <time>2022-09-19T10:30:31.200Z</time>
      </trkpt>
      <trkpt lat="46.72901" lon="15.5823">
        <ele>332.597352</ele>
        <time>2022-09-19T10:30:34.178Z</time>
      </trkpt>
      <trkpt lat="46.72899" lon="15.58213">
        <ele>332.591403</ele>
        <time>2022-09-19T10:30:37.199Z</time>
      </trkpt>
      <trkpt lat="46.72899" lon="15.58196">
        <ele>332.585518</ele>
        <time>2022-09-19T10:30:40.219Z</time>
      </trkpt>
      <trkpt lat="46.72898" lon="15.58178">
        <ele>332.579504</ele>
        <time>2022-09-19T10:30:43.187Z</time>
      </trkpt>
      <trkpt lat="46.72898" lon="15.58162">
        <ele>332.573892</ele>
        <time>2022-09-19T10:30:46.187Z</time>
      </trkpt>
      <trkpt lat="46.72898" lon="15.58144">
        <ele>332.567974</ele>
        <time>2022-09-19T10:30:49.195Z</time>
      </trkpt>
      <trkpt lat="46.729" lon="15.58128">
        <ele>332.562209</ele>
        <time>2022-09-19T10:30:52.191Z</time>
      </trkpt>
      <trkpt lat="46.72903" lon="15.58111">
        <ele>332.556304</ele>
        <time>2022-09-19T10:30:55.180Z</time>
      </trkpt>
      <trkpt lat="46.72904" lon="15.58095">
        <ele>332.550992</ele>
        <time>2022-09-19T10:30:58.178Z</time>
      </trkpt>
      <trkpt lat="46.72908" lon="15.5808">
        <ele>332.545431</ele>
        <time>2022-09-19T10:31:01.192Z</time>
      </trkpt>
      <trkpt lat="46.72912" lon="15.58064">
        <ele>332.539678</ele>
        <time>2022-09-19T10:31:04.202Z</time>
      </trkpt>
      <trkpt lat="46.72916" lon="15.58049">
        <ele>332.581557</ele>
        <time>2022-09-19T10:31:07.196Z</time>
      </trkpt>
      <trkpt lat="46.7292" lon="15.58033">
        <ele>332.682842</ele>
        <time>2022-09-19T10:31:10.190Z</time>
      </trkpt>
      <trkpt lat="46.72926" lon="15.58017">
        <ele>332.79298</ele>
        <time>2022-09-19T10:31:13.184Z</time>
      </trkpt>
      <trkpt lat="46.72932" lon="15.58002">
        <ele>332.897515</ele>
        <time>2022-09-19T10:31:16.187Z</time>
      </trkpt>
      <trkpt lat="46.7294" lon="15.57986">
        <ele>333.009695</ele>
        <time>2022-09-19T10:31:19.214Z</time>
      </trkpt>
      <trkpt lat="46.72946" lon="15.57972">
        <ele>333.115975</ele>
        <time>2022-09-19T10:31:22.185Z</time>
      </trkpt>
      <trkpt lat="46.72954" lon="15.57958">
        <ele>333.220627</ele>
        <time>2022-09-19T10:31:25.217Z</time>
      </trkpt>
      <trkpt lat="46.72963" lon="15.57943">
        <ele>333.337736</ele>
        <time>2022-09-19T10:31:28.184Z</time>
      </trkpt>
      <trkpt lat="46.72972" lon="15.57929">
        <ele>333.453838</ele>
        <time>2022-09-19T10:31:31.224Z</time>
      </trkpt>
      <trkpt lat="46.72979" lon="15.5792">
        <ele>333.537841</ele>
        <time>2022-09-19T10:31:33.183Z</time>
      </trkpt>
      <trkpt lat="46.72987" lon="15.5791">
        <ele>333.624655</ele>
        <time>2022-09-19T10:31:35.188Z</time>
      </trkpt>
      <trkpt lat="46.72994" lon="15.57901">
        <ele>333.710583</ele>
        <time>2022-09-19T10:31:37.227Z</time>
      </trkpt>
      <trkpt lat="46.73001" lon="15.57892">
        <ele>333.792694</ele>
        <time>2022-09-19T10:31:39.190Z</time>
      </trkpt>
      <trkpt lat="46.73012" lon="15.57882">
        <ele>333.904668</ele>
        <time>2022-09-19T10:31:42.192Z</time>
      </trkpt>
      <trkpt lat="46.73023" lon="15.57872">
        <ele>334.017264</ele>
        <time>2022-09-19T10:31:45.168Z</time>
      </trkpt>
      <trkpt lat="46.73031" lon="15.57865">
        <ele>334.099333</ele>
        <time>2022-09-19T10:31:47.196Z</time>
      </trkpt>
      <trkpt lat="46.73043" lon="15.57856">
        <ele>334.100142</ele>
        <time>2022-09-19T10:31:50.190Z</time>
      </trkpt>
      <trkpt lat="46.73055" lon="15.57848">
        <ele>334.098478</ele>
        <time>2022-09-19T10:31:53.195Z</time>
      </trkpt>
      <trkpt lat="46.73063" lon="15.57843">
        <ele>334.09731</ele>
        <time>2022-09-19T10:31:55.184Z</time>
      </trkpt>
      <trkpt lat="46.73076" lon="15.57839">
        <ele>334.095698</ele>
        <time>2022-09-19T10:31:58.200Z</time>
      </trkpt>
      <trkpt lat="46.73088" lon="15.57836">
        <ele>334.094156</ele>
        <time>2022-09-19T10:32:01.188Z</time>
      </trkpt>
      <trkpt lat="46.731" lon="15.57831">
        <ele>334.092484</ele>
        <time>2022-09-19T10:32:04.195Z</time>
      </trkpt>
      <trkpt lat="46.73112" lon="15.57827">
        <ele>334.091001</ele>
        <time>2022-09-19T10:32:07.172Z</time>
      </trkpt>
      <trkpt lat="46.73124" lon="15.57823">
        <ele>334.089457</ele>
        <time>2022-09-19T10:32:11.202Z</time>
      </trkpt>
      <trkpt lat="46.73136" lon="15.5782">
        <ele>334.087831</ele>
        <time>2022-09-19T10:32:14.186Z</time>
      </trkpt>
      <trkpt lat="46.73149" lon="15.5782">
        <ele>334.08621</ele>
        <time>2022-09-19T10:32:17.205Z</time>
      </trkpt>
      <trkpt lat="46.73158" lon="15.57818">
        <ele>334.085065</ele>
        <time>2022-09-19T10:32:19.178Z</time>
      </trkpt>
      <trkpt lat="46.73172" lon="15.57816">
        <ele>334.083313</ele>
        <time>2022-09-19T10:32:22.234Z</time>
      </trkpt>
      <trkpt lat="46.73185" lon="15.57819">
        <ele>334.081684</ele>
        <time>2022-09-19T10:32:25.193Z</time>
      </trkpt>
      <trkpt lat="46.73198" lon="15.5782">
        <ele>334.080075</ele>
        <time>2022-09-19T10:32:28.181Z</time>
      </trkpt>
      <trkpt lat="46.7321" lon="15.57822">
        <ele>334.198913</ele>
        <time>2022-09-19T10:32:31.184Z</time>
      </trkpt>
      <trkpt lat="46.73221" lon="15.57825">
        <ele>334.538978</ele>
        <time>2022-09-19T10:32:34.194Z</time>
      </trkpt>
      <trkpt lat="46.73233" lon="15.57827">
        <ele>334.896357</ele>
        <time>2022-09-19T10:32:37.187Z</time>
      </trkpt>
      <trkpt lat="46.73246" lon="15.57828">
        <ele>335.272166</ele>
        <time>2022-09-19T10:32:40.188Z</time>
      </trkpt>
      <trkpt lat="46.73259" lon="15.57831">
        <ele>335.67797</ele>
        <time>2022-09-19T10:32:43.189Z</time>
      </trkpt>
      <trkpt lat="46.73268" lon="15.57834">
        <ele>335.970203</ele>
        <time>2022-09-19T10:32:45.202Z</time>
      </trkpt>
      <trkpt lat="46.73278" lon="15.57838">
        <ele>336.270666</ele>
        <time>2022-09-19T10:32:47.205Z</time>
      </trkpt>
      <trkpt lat="46.73287" lon="15.57839">
        <ele>336.55155</ele>
        <time>2022-09-19T10:32:49.190Z</time>
      </trkpt>
      <trkpt lat="46.73296" lon="15.57841">
        <ele>336.825492</ele>
        <time>2022-09-19T10:32:51.190Z</time>
      </trkpt>
      <trkpt lat="46.7331" lon="15.57842">
        <ele>337.231091</ele>
        <time>2022-09-19T10:32:54.176Z</time>
      </trkpt>
      <trkpt lat="46.73319" lon="15.57843">
        <ele>337.507891</ele>
        <time>2022-09-19T10:32:56.193Z</time>
      </trkpt>
      <trkpt lat="46.73332" lon="15.57845">
        <ele>337.905877</ele>
        <time>2022-09-19T10:32:59.194Z</time>
      </trkpt>
      <trkpt lat="46.73345" lon="15.57846">
        <ele>338.297194</ele>
        <time>2022-09-19T10:33:02.179Z</time>
      </trkpt>
      <trkpt lat="46.73357" lon="15.57849">
        <ele>338.654541</ele>
        <time>2022-09-19T10:33:05.175Z</time>
      </trkpt>
      <trkpt lat="46.73369" lon="15.57851">
        <ele>339.016676</ele>
        <time>2022-09-19T10:33:08.169Z</time>
      </trkpt>
      <trkpt lat="46.73381" lon="15.57851">
        <ele>339.373962</ele>
        <time>2022-09-19T10:33:11.177Z</time>
      </trkpt>
      <trkpt lat="46.73394" lon="15.57853">
        <ele>339.378107</ele>
        <time>2022-09-19T10:33:14.180Z</time>
      </trkpt>
      <trkpt lat="46.73406" lon="15.57855">
        <ele>339.246847</ele>
        <time>2022-09-19T10:33:17.245Z</time>
      </trkpt>
      <trkpt lat="46.7342" lon="15.57858">
        <ele>339.108078</ele>
        <time>2022-09-19T10:33:20.195Z</time>
      </trkpt>
      <trkpt lat="46.73429" lon="15.57859">
        <ele>339.007688</ele>
        <time>2022-09-19T10:33:22.165Z</time>
      </trkpt>
      <trkpt lat="46.73438" lon="15.5786">
        <ele>338.912645</ele>
        <time>2022-09-19T10:33:24.184Z</time>
      </trkpt>
      <trkpt lat="46.73452" lon="15.57857">
        <ele>338.773783</ele>
        <time>2022-09-19T10:33:27.193Z</time>
      </trkpt>
      <trkpt lat="46.73465" lon="15.57855">
        <ele>338.63614</ele>
        <time>2022-09-19T10:33:30.191Z</time>
      </trkpt>
      <trkpt lat="46.73477" lon="15.57852">
        <ele>338.508834</ele>
        <time>2022-09-19T10:33:33.189Z</time>
      </trkpt>
      <trkpt lat="46.73487" lon="15.57851">
        <ele>338.401957</ele>
        <time>2022-09-19T10:33:36.183Z</time>
      </trkpt>
      <trkpt lat="46.73497" lon="15.5785">
        <ele>338.301783</ele>
        <time>2022-09-19T10:33:39.254Z</time>
      </trkpt>
      <trkpt lat="46.73508" lon="15.57849">
        <ele>338.183424</ele>
        <time>2022-09-19T10:33:42.190Z</time>
      </trkpt>
      <trkpt lat="46.73517" lon="15.57846">
        <ele>338.089819</ele>
        <time>2022-09-19T10:33:44.193Z</time>
      </trkpt>
      <trkpt lat="46.73529" lon="15.57842">
        <ele>337.95357</ele>
        <time>2022-09-19T10:33:47.174Z</time>
      </trkpt>
      <trkpt lat="46.73542" lon="15.57837">
        <ele>337.815619</ele>
        <time>2022-09-19T10:33:50.224Z</time>
      </trkpt>
      <trkpt lat="46.73554" lon="15.57834">
        <ele>337.685712</ele>
        <time>2022-09-19T10:33:53.189Z</time>
      </trkpt>
      <trkpt lat="46.73567" lon="15.57831">
        <ele>337.584889</ele>
        <time>2022-09-19T10:33:56.171Z</time>
      </trkpt>
      <trkpt lat="46.73579" lon="15.57827">
        <ele>337.539189</ele>
        <time>2022-09-19T10:33:59.193Z</time>
      </trkpt>
      <trkpt lat="46.73591" lon="15.57822">
        <ele>337.491249</ele>
        <time>2022-09-19T10:34:02.192Z</time>
      </trkpt>
      <trkpt lat="46.73603" lon="15.57816">
        <ele>337.441783</ele>
        <time>2022-09-19T10:34:05.182Z</time>
      </trkpt>
      <trkpt lat="46.73612" lon="15.57813">
        <ele>337.405564</ele>
        <time>2022-09-19T10:34:07.211Z</time>
      </trkpt>
      <trkpt lat="46.73621" lon="15.57808">
        <ele>337.368639</ele>
        <time>2022-09-19T10:34:09.199Z</time>
      </trkpt>
      <trkpt lat="46.7363" lon="15.57804">
        <ele>337.334315</ele>
        <time>2022-09-19T10:34:11.179Z</time>
      </trkpt>
      <trkpt lat="46.73642" lon="15.57798">
        <ele>337.282523</ele>
        <time>2022-09-19T10:34:14.180Z</time>
      </trkpt>
      <trkpt lat="46.73651" lon="15.57793">
        <ele>337.247305</ele>
        <time>2022-09-19T10:34:16.197Z</time>
      </trkpt>
      <trkpt lat="46.73664" lon="15.57787">
        <ele>337.196876</ele>
        <time>2022-09-19T10:34:19.182Z</time>
      </trkpt>
      <trkpt lat="46.73674" lon="15.57781">
        <ele>337.153284</ele>
        <time>2022-09-19T10:34:22.196Z</time>
      </trkpt>
      <trkpt lat="46.73685" lon="15.57777">
        <ele>337.111171</ele>
        <time>2022-09-19T10:34:25.183Z</time>
      </trkpt>
      <trkpt lat="46.73697" lon="15.5777">
        <ele>337.061735</ele>
        <time>2022-09-19T10:34:28.192Z</time>
      </trkpt>
      <trkpt lat="46.73709" lon="15.57763">
        <ele>337.012633</ele>
        <time>2022-09-19T10:34:31.182Z</time>
      </trkpt>
      <trkpt lat="46.73717" lon="15.57757">
        <ele>336.977224</ele>
        <time>2022-09-19T10:34:33.192Z</time>
      </trkpt>
      <trkpt lat="46.73728" lon="15.57749">
        <ele>336.928034</ele>
        <time>2022-09-19T10:34:36.188Z</time>
      </trkpt>
      <trkpt lat="46.7374" lon="15.5774">
        <ele>336.729875</ele>
        <time>2022-09-19T10:34:39.187Z</time>
      </trkpt>
      <trkpt lat="46.73752" lon="15.57732">
        <ele>336.471643</ele>
        <time>2022-09-19T10:34:42.191Z</time>
      </trkpt>
      <trkpt lat="46.73762" lon="15.57723">
        <ele>336.226979</ele>
        <time>2022-09-19T10:34:45.185Z</time>
      </trkpt>
      <trkpt lat="46.73773" lon="15.57713">
        <ele>335.9744</ele>
        <time>2022-09-19T10:34:48.197Z</time>
      </trkpt>
      <trkpt lat="46.73785" lon="15.57704">
        <ele>335.71719</ele>
        <time>2022-09-19T10:34:51.186Z</time>
      </trkpt>
      <trkpt lat="46.73795" lon="15.57695">
        <ele>335.467364</ele>
        <time>2022-09-19T10:34:54.189Z</time>
      </trkpt>
      <trkpt lat="46.73807" lon="15.57686">
        <ele>335.205799</ele>
        <time>2022-09-19T10:34:57.200Z</time>
      </trkpt>
      <trkpt lat="46.73817" lon="15.57675">
        <ele>334.95668</ele>
        <time>2022-09-19T10:35:00.194Z</time>
      </trkpt>
      <trkpt lat="46.73828" lon="15.57666">
        <ele>334.714023</ele>
        <time>2022-09-19T10:35:03.172Z</time>
      </trkpt>
      <trkpt lat="46.73838" lon="15.57657">
        <ele>334.47547</ele>
        <time>2022-09-19T10:35:06.188Z</time>
      </trkpt>
      <trkpt lat="46.73849" lon="15.57649">
        <ele>334.219049</ele>
        <time>2022-09-19T10:35:09.212Z</time>
      </trkpt>
      <trkpt lat="46.73858" lon="15.57642">
        <ele>334.022059</ele>
        <time>2022-09-19T10:35:11.192Z</time>
      </trkpt>
      <trkpt lat="46.73867" lon="15.57635">
        <ele>333.817411</ele>
        <time>2022-09-19T10:35:13.192Z</time>
      </trkpt>
      <trkpt lat="46.73875" lon="15.57627">
        <ele>333.626756</ele>
        <time>2022-09-19T10:35:15.226Z</time>
      </trkpt>
      <trkpt lat="46.73886" lon="15.57617">
        <ele>333.369648</ele>
        <time>2022-09-19T10:35:18.191Z</time>
      </trkpt>
      <trkpt lat="46.73897" lon="15.57607">
        <ele>333.332887</ele>
        <time>2022-09-19T10:35:21.173Z</time>
      </trkpt>
      <trkpt lat="46.73907" lon="15.57597">
        <ele>333.329823</ele>
        <time>2022-09-19T10:35:24.183Z</time>
      </trkpt>
      <trkpt lat="46.73918" lon="15.57588">
        <ele>333.326937</ele>
        <time>2022-09-19T10:35:27.206Z</time>
      </trkpt>
      <trkpt lat="46.73929" lon="15.57576">
        <ele>333.323718</ele>
        <time>2022-09-19T10:35:30.198Z</time>
      </trkpt>
      <trkpt lat="46.73936" lon="15.57569">
        <ele>333.32152</ele>
        <time>2022-09-19T10:35:32.196Z</time>
      </trkpt>
      <trkpt lat="46.73946" lon="15.57559">
        <ele>333.318575</ele>
        <time>2022-09-19T10:35:35.189Z</time>
      </trkpt>
      <trkpt lat="46.73956" lon="15.5755">
        <ele>333.315694</ele>
        <time>2022-09-19T10:35:38.186Z</time>
      </trkpt>
      <trkpt lat="46.73964" lon="15.57543">
        <ele>333.31351</ele>
        <time>2022-09-19T10:35:40.203Z</time>
      </trkpt>
      <trkpt lat="46.73975" lon="15.57534">
        <ele>333.310616</ele>
        <time>2022-09-19T10:35:43.220Z</time>
      </trkpt>
      <trkpt lat="46.73984" lon="15.57525">
        <ele>333.307838</ele>
        <time>2022-09-19T10:35:46.194Z</time>
      </trkpt>
      <trkpt lat="46.73996" lon="15.57515">
        <ele>333.304686</ele>
        <time>2022-09-19T10:35:49.193Z</time>
      </trkpt>
      <trkpt lat="46.74003" lon="15.57507">
        <ele>333.30239</ele>
        <time>2022-09-19T10:35:51.201Z</time>
      </trkpt>
      <trkpt lat="46.74015" lon="15.57498">
        <ele>333.299325</ele>
        <time>2022-09-19T10:35:54.227Z</time>
      </trkpt>
      <trkpt lat="46.74025" lon="15.57489">
        <ele>333.296471</ele>
        <time>2022-09-19T10:35:57.195Z</time>
      </trkpt>
      <trkpt lat="46.74035" lon="15.5748">
        <ele>333.293481</ele>
        <time>2022-09-19T10:36:00.181Z</time>
      </trkpt>
      <trkpt lat="46.74043" lon="15.57473">
        <ele>333.284025</ele>
        <time>2022-09-19T10:36:02.188Z</time>
      </trkpt>
      <trkpt lat="46.74054" lon="15.57462">
        <ele>333.258591</ele>
        <time>2022-09-19T10:36:05.232Z</time>
      </trkpt>
      <trkpt lat="46.74063" lon="15.5745">
        <ele>333.234381</ele>
        <time>2022-09-19T10:36:08.191Z</time>
      </trkpt>
      <trkpt lat="46.74074" lon="15.5744">
        <ele>333.209165</ele>
        <time>2022-09-19T10:36:11.233Z</time>
      </trkpt>
      <trkpt lat="46.74085" lon="15.5743">
        <ele>333.183146</ele>
        <time>2022-09-19T10:36:14.187Z</time>
      </trkpt>
      <trkpt lat="46.74094" lon="15.57423">
        <ele>333.164375</ele>
        <time>2022-09-19T10:36:16.191Z</time>
      </trkpt>
      <trkpt lat="46.74103" lon="15.57415">
        <ele>333.143161</ele>
        <time>2022-09-19T10:36:18.192Z</time>
      </trkpt>
      <trkpt lat="46.74112" lon="15.57407">
        <ele>333.123477</ele>
        <time>2022-09-19T10:36:20.192Z</time>
      </trkpt>
      <trkpt lat="46.74122" lon="15.57397">
        <ele>333.098958</ele>
        <time>2022-09-19T10:36:23.187Z</time>
      </trkpt>
      <trkpt lat="46.74134" lon="15.57387">
        <ele>333.07185</ele>
        <time>2022-09-19T10:36:26.194Z</time>
      </trkpt>
      <trkpt lat="46.74143" lon="15.5738">
        <ele>333.052233</ele>
        <time>2022-09-19T10:36:28.226Z</time>
      </trkpt>
      <trkpt lat="46.74154" lon="15.5737">
        <ele>333.026587</ele>
        <time>2022-09-19T10:36:31.169Z</time>
      </trkpt>
      <trkpt lat="46.74162" lon="15.57363">
        <ele>333.008697</ele>
        <time>2022-09-19T10:36:33.181Z</time>
      </trkpt>
      <trkpt lat="46.7417" lon="15.57356">
        <ele>332.990094</ele>
        <time>2022-09-19T10:36:35.193Z</time>
      </trkpt>
      <trkpt lat="46.74178" lon="15.57349">
        <ele>332.971351</ele>
        <time>2022-09-19T10:36:37.184Z</time>
      </trkpt>
      <trkpt lat="46.74185" lon="15.57341">
        <ele>332.953364</ele>
        <time>2022-09-19T10:36:39.181Z</time>
      </trkpt>
      <trkpt lat="46.74194" lon="15.57334">
        <ele>332.927565</ele>
        <time>2022-09-19T10:36:41.188Z</time>
      </trkpt>
      <trkpt lat="46.74201" lon="15.57327">
        <ele>332.883031</ele>
        <time>2022-09-19T10:36:43.184Z</time>
      </trkpt>
      <trkpt lat="46.74213" lon="15.57318">
        <ele>332.819879</ele>
        <time>2022-09-19T10:36:46.187Z</time>
      </trkpt>
      <trkpt lat="46.74224" lon="15.5731">
        <ele>332.757103</ele>
        <time>2022-09-19T10:36:49.191Z</time>
      </trkpt>
      <trkpt lat="46.74233" lon="15.57306">
        <ele>332.711047</ele>
        <time>2022-09-19T10:36:51.227Z</time>
      </trkpt>
      <trkpt lat="46.74245" lon="15.57298">
        <ele>332.644486</ele>
        <time>2022-09-19T10:36:54.194Z</time>
      </trkpt>
      <trkpt lat="46.74258" lon="15.5729">
        <ele>332.576483</ele>
        <time>2022-09-19T10:36:57.192Z</time>
      </trkpt>
      <trkpt lat="46.74267" lon="15.57286">
        <ele>332.528025</ele>
        <time>2022-09-19T10:36:59.190Z</time>
      </trkpt>
      <trkpt lat="46.74277" lon="15.57283">
        <ele>332.48115</ele>
        <time>2022-09-19T10:37:01.170Z</time>
      </trkpt>
      <trkpt lat="46.74286" lon="15.5728">
        <ele>332.43355</ele>
        <time>2022-09-19T10:37:03.188Z</time>
      </trkpt>
      <trkpt lat="46.74299" lon="15.57279">
        <ele>332.369683</ele>
        <time>2022-09-19T10:37:06.186Z</time>
      </trkpt>
      <trkpt lat="46.74311" lon="15.57277">
        <ele>332.307214</ele>
        <time>2022-09-19T10:37:09.186Z</time>
      </trkpt>
      <trkpt lat="46.74324" lon="15.57276">
        <ele>332.243815</ele>
        <time>2022-09-19T10:37:12.189Z</time>
      </trkpt>
      <trkpt lat="46.74334" lon="15.57273">
        <ele>332.195763</ele>
        <time>2022-09-19T10:37:14.199Z</time>
      </trkpt>
      <trkpt lat="46.74347" lon="15.57271">
        <ele>332.131396</ele>
        <time>2022-09-19T10:37:17.192Z</time>
      </trkpt>
      <trkpt lat="46.74358" lon="15.57269">
        <ele>332.073212</ele>
        <time>2022-09-19T10:37:20.190Z</time>
      </trkpt>
      <trkpt lat="46.74371" lon="15.57266">
        <ele>332.015957</ele>
        <time>2022-09-19T10:37:23.195Z</time>
      </trkpt>
      <trkpt lat="46.7438" lon="15.57265">
        <ele>331.977577</ele>
        <time>2022-09-19T10:37:25.208Z</time>
      </trkpt>
      <trkpt lat="46.7439" lon="15.57263">
        <ele>331.936009</ele>
        <time>2022-09-19T10:37:27.189Z</time>
      </trkpt>
      <trkpt lat="46.74403" lon="15.5726">
        <ele>331.883417</ele>
        <time>2022-09-19T10:37:30.193Z</time>
      </trkpt>
      <trkpt lat="46.74415" lon="15.57257">
        <ele>331.830911</ele>
        <time>2022-09-19T10:37:33.223Z</time>
      </trkpt>
      <trkpt lat="46.74428" lon="15.57255">
        <ele>331.777803</ele>
        <time>2022-09-19T10:37:36.186Z</time>
      </trkpt>
      <trkpt lat="46.74439" lon="15.57254">
        <ele>331.731947</ele>
        <time>2022-09-19T10:37:39.294Z</time>
      </trkpt>
      <trkpt lat="46.7445" lon="15.57253">
        <ele>331.684972</ele>
        <time>2022-09-19T10:37:42.189Z</time>
      </trkpt>
      <trkpt lat="46.74463" lon="15.5725">
        <ele>331.630191</ele>
        <time>2022-09-19T10:37:45.180Z</time>
      </trkpt>
      <trkpt lat="46.74476" lon="15.57243">
        <ele>331.57515</ele>
        <time>2022-09-19T10:37:48.185Z</time>
      </trkpt>
      <trkpt lat="46.74488" lon="15.57237">
        <ele>331.522159</ele>
        <time>2022-09-19T10:37:51.209Z</time>
      </trkpt>
      <trkpt lat="46.745" lon="15.57232">
        <ele>331.468925</ele>
        <time>2022-09-19T10:37:54.242Z</time>
      </trkpt>
      <trkpt lat="46.74511" lon="15.57232">
        <ele>331.422789</ele>
        <time>2022-09-19T10:37:57.185Z</time>
      </trkpt>
      <trkpt lat="46.74523" lon="15.57237">
        <ele>331.371488</ele>
        <time>2022-09-19T10:38:00.196Z</time>
      </trkpt>
      <trkpt lat="46.74536" lon="15.57236">
        <ele>331.319084</ele>
        <time>2022-09-19T10:38:03.193Z</time>
      </trkpt>
      <trkpt lat="46.74545" lon="15.57232">
        <ele>331.263229</ele>
        <time>2022-09-19T10:38:06.211Z</time>
      </trkpt>
      <trkpt lat="46.74554" lon="15.57227">
        <ele>331.198177</ele>
        <time>2022-09-19T10:38:09.169Z</time>
      </trkpt>
      <trkpt lat="46.74565" lon="15.57221">
        <ele>331.123635</ele>
        <time>2022-09-19T10:38:12.198Z</time>
      </trkpt>
      <trkpt lat="46.74576" lon="15.57216">
        <ele>331.044103</ele>
        <time>2022-09-19T10:38:15.196Z</time>
      </trkpt>
      <trkpt lat="46.74587" lon="15.57211">
        <ele>330.969276</ele>
        <time>2022-09-19T10:38:18.199Z</time>
      </trkpt>
      <trkpt lat="46.74597" lon="15.57207">
        <ele>330.896805</ele>
        <time>2022-09-19T10:38:21.201Z</time>
      </trkpt>
      <trkpt lat="46.74608" lon="15.57202">
        <ele>330.821577</ele>
        <time>2022-09-19T10:38:24.201Z</time>
      </trkpt>
      <trkpt lat="46.74619" lon="15.57197">
        <ele>330.744711</ele>
        <time>2022-09-19T10:38:27.212Z</time>
      </trkpt>
      <trkpt lat="46.7463" lon="15.57193">
        <ele>330.667974</ele>
        <time>2022-09-19T10:38:30.190Z</time>
      </trkpt>
      <trkpt lat="46.74642" lon="15.57186">
        <ele>330.586417</ele>
        <time>2022-09-19T10:38:33.193Z</time>
      </trkpt>
      <trkpt lat="46.74653" lon="15.5718">
        <ele>330.507451</ele>
        <time>2022-09-19T10:38:36.185Z</time>
      </trkpt>
      <trkpt lat="46.74664" lon="15.57173">
        <ele>330.427697</ele>
        <time>2022-09-19T10:38:39.229Z</time>
      </trkpt>
      <trkpt lat="46.74675" lon="15.57166">
        <ele>330.350635</ele>
        <time>2022-09-19T10:38:42.208Z</time>
      </trkpt>
      <trkpt lat="46.74686" lon="15.57159">
        <ele>330.271495</ele>
        <time>2022-09-19T10:38:45.189Z</time>
      </trkpt>
      <trkpt lat="46.74697" lon="15.57153">
        <ele>330.193316</ele>
        <time>2022-09-19T10:38:48.191Z</time>
      </trkpt>
      <trkpt lat="46.74708" lon="15.57146">
        <ele>330.114074</ele>
        <time>2022-09-19T10:38:51.187Z</time>
      </trkpt>
      <trkpt lat="46.74719" lon="15.57141">
        <ele>330.358255</ele>
        <time>2022-09-19T10:38:54.184Z</time>
      </trkpt>
      <trkpt lat="46.74731" lon="15.57135">
        <ele>330.643215</ele>
        <time>2022-09-19T10:38:57.188Z</time>
      </trkpt>
      <trkpt lat="46.7474" lon="15.5713">
        <ele>330.840757</ele>
        <time>2022-09-19T10:38:59.189Z</time>
      </trkpt>
      <trkpt lat="46.74749" lon="15.57125">
        <ele>331.04596</ele>
        <time>2022-09-19T10:39:01.235Z</time>
      </trkpt>
      <trkpt lat="46.74757" lon="15.5712">
        <ele>331.248591</ele>
        <time>2022-09-19T10:39:03.192Z</time>
      </trkpt>
      <trkpt lat="46.74766" lon="15.57116">
        <ele>331.458516</ele>
        <time>2022-09-19T10:39:05.197Z</time>
      </trkpt>
      <trkpt lat="46.74775" lon="15.57112">
        <ele>331.657105</ele>
        <time>2022-09-19T10:39:07.185Z</time>
      </trkpt>
      <trkpt lat="46.74787" lon="15.57105">
        <ele>331.932882</ele>
        <time>2022-09-19T10:39:10.190Z</time>
      </trkpt>
      <trkpt lat="46.74799" lon="15.57099">
        <ele>332.212657</ele>
        <time>2022-09-19T10:39:13.178Z</time>
      </trkpt>
      <trkpt lat="46.74807" lon="15.57095">
        <ele>332.411955</ele>
        <time>2022-09-19T10:39:15.199Z</time>
      </trkpt>
      <trkpt lat="46.74816" lon="15.57091">
        <ele>332.61424</ele>
        <time>2022-09-19T10:39:17.221Z</time>
      </trkpt>
      <trkpt lat="46.74829" lon="15.57085">
        <ele>332.910725</ele>
        <time>2022-09-19T10:39:20.189Z</time>
      </trkpt>
      <trkpt lat="46.74842" lon="15.57079">
        <ele>333.199592</ele>
        <time>2022-09-19T10:39:23.188Z</time>
      </trkpt>
      <trkpt lat="46.74854" lon="15.57073">
        <ele>333.475477</ele>
        <time>2022-09-19T10:39:26.186Z</time>
      </trkpt>
      <trkpt lat="46.74865" lon="15.57068">
        <ele>333.734248</ele>
        <time>2022-09-19T10:39:29.183Z</time>
      </trkpt>
      <trkpt lat="46.74877" lon="15.57062">
        <ele>334.009462</ele>
        <time>2022-09-19T10:39:32.228Z</time>
      </trkpt>
      <trkpt lat="46.74889" lon="15.57056">
        <ele>334.430567</ele>
        <time>2022-09-19T10:39:35.182Z</time>
      </trkpt>
      <trkpt lat="46.74898" lon="15.57052">
        <ele>334.746658</ele>
        <time>2022-09-19T10:39:37.220Z</time>
      </trkpt>
      <trkpt lat="46.74911" lon="15.57047">
        <ele>335.208289</ele>
        <time>2022-09-19T10:39:40.203Z</time>
      </trkpt>
      <trkpt lat="46.74923" lon="15.57041">
        <ele>335.665672</ele>
        <time>2022-09-19T10:39:43.196Z</time>
      </trkpt>
      <trkpt lat="46.74935" lon="15.57035">
        <ele>336.106161</ele>
        <time>2022-09-19T10:39:46.197Z</time>
      </trkpt>
      <trkpt lat="46.74947" lon="15.5703">
        <ele>336.527152</ele>
        <time>2022-09-19T10:39:49.209Z</time>
      </trkpt>
      <trkpt lat="46.74958" lon="15.57026">
        <ele>336.928931</ele>
        <time>2022-09-19T10:39:52.201Z</time>
      </trkpt>
      <trkpt lat="46.7497" lon="15.57022">
        <ele>337.345092</ele>
        <time>2022-09-19T10:39:55.197Z</time>
      </trkpt>
      <trkpt lat="46.74982" lon="15.57017">
        <ele>337.79038</ele>
        <time>2022-09-19T10:39:58.197Z</time>
      </trkpt>
      <trkpt lat="46.74995" lon="15.57013">
        <ele>338.229096</ele>
        <time>2022-09-19T10:40:01.197Z</time>
      </trkpt>
      <trkpt lat="46.75008" lon="15.57009">
        <ele>338.690584</ele>
        <time>2022-09-19T10:40:04.201Z</time>
      </trkpt>
      <trkpt lat="46.7502" lon="15.57005">
        <ele>339.143156</ele>
        <time>2022-09-19T10:40:07.186Z</time>
      </trkpt>
      <trkpt lat="46.75033" lon="15.57001">
        <ele>339.586268</ele>
        <time>2022-09-19T10:40:10.191Z</time>
      </trkpt>
      <trkpt lat="46.75046" lon="15.56997">
        <ele>340.036133</ele>
        <time>2022-09-19T10:40:13.222Z</time>
      </trkpt>
      <trkpt lat="46.75059" lon="15.56994">
        <ele>340.187958</ele>
        <time>2022-09-19T10:40:16.203Z</time>
      </trkpt>
      <trkpt lat="46.75068" lon="15.56992">
        <ele>340.079315</ele>
        <time>2022-09-19T10:40:18.186Z</time>
      </trkpt>
      <trkpt lat="46.75082" lon="15.56991">
        <ele>339.919421</ele>
        <time>2022-09-19T10:40:21.163Z</time>
      </trkpt>
      <trkpt lat="46.75091" lon="15.56989">
        <ele>339.812037</ele>
        <time>2022-09-19T10:40:23.184Z</time>
      </trkpt>
      <trkpt lat="46.75104" lon="15.56987">
        <ele>339.653878</ele>
        <time>2022-09-19T10:40:26.188Z</time>
      </trkpt>
      <trkpt lat="46.75117" lon="15.56985">
        <ele>339.49828</ele>
        <time>2022-09-19T10:40:29.168Z</time>
      </trkpt>
      <trkpt lat="46.7513" lon="15.56983">
        <ele>339.337344</ele>
        <time>2022-09-19T10:40:32.191Z</time>
      </trkpt>
      <trkpt lat="46.75143" lon="15.56981">
        <ele>339.17996</ele>
        <time>2022-09-19T10:40:35.202Z</time>
      </trkpt>
      <trkpt lat="46.75153" lon="15.56981">
        <ele>339.069348</ele>
        <time>2022-09-19T10:40:37.217Z</time>
      </trkpt>
      <trkpt lat="46.75162" lon="15.5698">
        <ele>338.957467</ele>
        <time>2022-09-19T10:40:39.189Z</time>
      </trkpt>
      <trkpt lat="46.75175" lon="15.56979">
        <ele>338.805008</ele>
        <time>2022-09-19T10:40:42.199Z</time>
      </trkpt>
      <trkpt lat="46.75188" lon="15.56979">
        <ele>338.651675</ele>
        <time>2022-09-19T10:40:45.196Z</time>
      </trkpt>
      <trkpt lat="46.75201" lon="15.56979">
        <ele>338.498342</ele>
        <time>2022-09-19T10:40:48.199Z</time>
      </trkpt>
      <trkpt lat="46.75214" lon="15.56978">
        <ele>338.343737</ele>
        <time>2022-09-19T10:40:51.201Z</time>
      </trkpt>
      <trkpt lat="46.75223" lon="15.56979">
        <ele>338.235362</ele>
        <time>2022-09-19T10:40:53.194Z</time>
      </trkpt>
      <trkpt lat="46.75232" lon="15.5698">
        <ele>338.121257</ele>
        <time>2022-09-19T10:40:55.175Z</time>
      </trkpt>
      <trkpt lat="46.75241" lon="15.5698">
        <ele>337.823887</ele>
        <time>2022-09-19T10:40:57.188Z</time>
      </trkpt>
      <trkpt lat="46.75254" lon="15.56981">
        <ele>337.373577</ele>
        <time>2022-09-19T10:41:00.232Z</time>
      </trkpt>
      <trkpt lat="46.75264" lon="15.56982">
        <ele>337.069069</ele>
        <time>2022-09-19T10:41:02.203Z</time>
      </trkpt>
      <trkpt lat="46.75277" lon="15.56983">
        <ele>336.636029</ele>
        <time>2022-09-19T10:41:05.191Z</time>
      </trkpt>
      <trkpt lat="46.7529" lon="15.56984">
        <ele>336.2055</ele>
        <time>2022-09-19T10:41:08.183Z</time>
      </trkpt>
      <trkpt lat="46.75302" lon="15.56986">
        <ele>335.783205</ele>
        <time>2022-09-19T10:41:11.190Z</time>
      </trkpt>
      <trkpt lat="46.75315" lon="15.56988">
        <ele>335.357874</ele>
        <time>2022-09-19T10:41:14.206Z</time>
      </trkpt>
      <trkpt lat="46.75328" lon="15.5699">
        <ele>334.930305</ele>
        <time>2022-09-19T10:41:17.214Z</time>
      </trkpt>
      <trkpt lat="46.7534" lon="15.56991">
        <ele>334.528212</ele>
        <time>2022-09-19T10:41:20.187Z</time>
      </trkpt>
      <trkpt lat="46.75353" lon="15.56994">
        <ele>334.115498</ele>
        <time>2022-09-19T10:41:23.185Z</time>
      </trkpt>
      <trkpt lat="46.75366" lon="15.56996">
        <ele>333.68638</ele>
        <time>2022-09-19T10:41:26.198Z</time>
      </trkpt>
      <trkpt lat="46.75378" lon="15.56998">
        <ele>333.258218</ele>
        <time>2022-09-19T10:41:29.192Z</time>
      </trkpt>
      <trkpt lat="46.75392" lon="15.57">
        <ele>332.815154</ele>
        <time>2022-09-19T10:41:32.179Z</time>
      </trkpt>
      <trkpt lat="46.75405" lon="15.57001">
        <ele>332.384774</ele>
        <time>2022-09-19T10:41:35.196Z</time>
      </trkpt>
      <trkpt lat="46.75417" lon="15.57003">
        <ele>332.164562</ele>
        <time>2022-09-19T10:41:38.186Z</time>
      </trkpt>
      <trkpt lat="46.7543" lon="15.57006">
        <ele>332.116526</ele>
        <time>2022-09-19T10:41:41.189Z</time>
      </trkpt>
      <trkpt lat="46.75443" lon="15.57009">
        <ele>332.068641</ele>
        <time>2022-09-19T10:41:44.196Z</time>
      </trkpt>
      <trkpt lat="46.75452" lon="15.57011">
        <ele>332.035479</ele>
        <time>2022-09-19T10:41:46.188Z</time>
      </trkpt>
      <trkpt lat="46.75462" lon="15.57013">
        <ele>332.00116</ele>
        <time>2022-09-19T10:41:48.193Z</time>
      </trkpt>
      <trkpt lat="46.75475" lon="15.57016">
        <ele>331.952235</ele>
        <time>2022-09-19T10:41:51.205Z</time>
      </trkpt>
      <trkpt lat="46.75488" lon="15.57019">
        <ele>331.90478</ele>
        <time>2022-09-19T10:41:54.185Z</time>
      </trkpt>
      <trkpt lat="46.75501" lon="15.57021">
        <ele>331.855939</ele>
        <time>2022-09-19T10:41:57.217Z</time>
      </trkpt>
      <trkpt lat="46.75514" lon="15.57024">
        <ele>331.808153</ele>
        <time>2022-09-19T10:42:00.193Z</time>
      </trkpt>
      <trkpt lat="46.75523" lon="15.57025">
        <ele>331.774421</ele>
        <time>2022-09-19T10:42:02.178Z</time>
      </trkpt>
      <trkpt lat="46.75536" lon="15.57028">
        <ele>331.726102</ele>
        <time>2022-09-19T10:42:05.177Z</time>
      </trkpt>
      <trkpt lat="46.75549" lon="15.5703">
        <ele>331.679369</ele>
        <time>2022-09-19T10:42:08.193Z</time>
      </trkpt>
      <trkpt lat="46.75561" lon="15.57032">
        <ele>331.634314</ele>
        <time>2022-09-19T10:42:11.194Z</time>
      </trkpt>
      <trkpt lat="46.75574" lon="15.57035">
        <ele>331.586356</ele>
        <time>2022-09-19T10:42:14.224Z</time>
      </trkpt>
      <trkpt lat="46.75587" lon="15.57038">
        <ele>331.540275</ele>
        <time>2022-09-19T10:42:17.206Z</time>
      </trkpt>
      <trkpt lat="46.756" lon="15.5704">
        <ele>331.320721</ele>
        <time>2022-09-19T10:42:20.192Z</time>
      </trkpt>
      <trkpt lat="46.75609" lon="15.57043">
        <ele>331.153816</ele>
        <time>2022-09-19T10:42:22.188Z</time>
      </trkpt>
      <trkpt lat="46.75622" lon="15.57046">
        <ele>330.904553</ele>
        <time>2022-09-19T10:42:25.212Z</time>
      </trkpt>
      <trkpt lat="46.75631" lon="15.57047">
        <ele>330.733954</ele>
        <time>2022-09-19T10:42:27.193Z</time>
      </trkpt>
      <trkpt lat="46.75644" lon="15.5705">
        <ele>330.493353</ele>
        <time>2022-09-19T10:42:30.205Z</time>
      </trkpt>
      <trkpt lat="46.75656" lon="15.57053">
        <ele>330.259717</ele>
        <time>2022-09-19T10:42:33.180Z</time>
      </trkpt>
      <trkpt lat="46.75669" lon="15.57056">
        <ele>330.025167</ele>
        <time>2022-09-19T10:42:36.190Z</time>
      </trkpt>
      <trkpt lat="46.75681" lon="15.57059">
        <ele>329.784725</ele>
        <time>2022-09-19T10:42:39.184Z</time>
      </trkpt>
      <trkpt lat="46.75694" lon="15.57061">
        <ele>329.539914</ele>
        <time>2022-09-19T10:42:42.220Z</time>
      </trkpt>
      <trkpt lat="46.75703" lon="15.57064">
        <ele>329.368612</ele>
        <time>2022-09-19T10:42:44.200Z</time>
      </trkpt>
      <trkpt lat="46.75716" lon="15.57068">
        <ele>329.128477</ele>
        <time>2022-09-19T10:42:47.211Z</time>
      </trkpt>
      <trkpt lat="46.75729" lon="15.57071">
        <ele>328.892504</ele>
        <time>2022-09-19T10:42:50.188Z</time>
      </trkpt>
      <trkpt lat="46.75741" lon="15.57073">
        <ele>328.651563</ele>
        <time>2022-09-19T10:42:53.217Z</time>
      </trkpt>
      <trkpt lat="46.75754" lon="15.57076">
        <ele>328.418521</ele>
        <time>2022-09-19T10:42:56.186Z</time>
      </trkpt>
      <trkpt lat="46.75766" lon="15.57078">
        <ele>328.186067</ele>
        <time>2022-09-19T10:42:59.180Z</time>
      </trkpt>
      <trkpt lat="46.75779" lon="15.5708">
        <ele>328.06339</ele>
        <time>2022-09-19T10:43:02.206Z</time>
      </trkpt>
      <trkpt lat="46.75791" lon="15.57083">
        <ele>327.942419</ele>
        <time>2022-09-19T10:43:05.193Z</time>
      </trkpt>
      <trkpt lat="46.75803" lon="15.57086">
        <ele>327.826057</ele>
        <time>2022-09-19T10:43:08.189Z</time>
      </trkpt>
      <trkpt lat="46.75815" lon="15.57089">
        <ele>327.710203</ele>
        <time>2022-09-19T10:43:11.186Z</time>
      </trkpt>
      <trkpt lat="46.75828" lon="15.57091">
        <ele>327.589944</ele>
        <time>2022-09-19T10:43:14.185Z</time>
      </trkpt>
      <trkpt lat="46.7584" lon="15.57093">
        <ele>327.468496</ele>
        <time>2022-09-19T10:43:17.193Z</time>
      </trkpt>
      <trkpt lat="46.75853" lon="15.57096">
        <ele>327.346872</ele>
        <time>2022-09-19T10:43:20.190Z</time>
      </trkpt>
      <trkpt lat="46.75865" lon="15.57099">
        <ele>327.225902</ele>
        <time>2022-09-19T10:43:23.185Z</time>
      </trkpt>
      <trkpt lat="46.75878" lon="15.57101">
        <ele>327.104693</ele>
        <time>2022-09-19T10:43:26.193Z</time>
      </trkpt>
      <trkpt lat="46.75891" lon="15.57104">
        <ele>326.980917</ele>
        <time>2022-09-19T10:43:29.189Z</time>
      </trkpt>
      <trkpt lat="46.75903" lon="15.57107">
        <ele>326.856907</ele>
        <time>2022-09-19T10:43:32.181Z</time>
      </trkpt>
      <trkpt lat="46.75916" lon="15.57111">
        <ele>326.734067</ele>
        <time>2022-09-19T10:43:35.197Z</time>
      </trkpt>
      <trkpt lat="46.75928" lon="15.57113">
        <ele>326.615548</ele>
        <time>2022-09-19T10:43:38.241Z</time>
      </trkpt>
      <trkpt lat="46.75941" lon="15.57116">
        <ele>326.492977</ele>
        <time>2022-09-19T10:43:41.206Z</time>
      </trkpt>
      <trkpt lat="46.75953" lon="15.57119">
        <ele>326.63778</ele>
        <time>2022-09-19T10:43:44.190Z</time>
      </trkpt>
      <trkpt lat="46.75966" lon="15.57121">
        <ele>326.877241</ele>
        <time>2022-09-19T10:43:47.186Z</time>
      </trkpt>
      <trkpt lat="46.75978" lon="15.57122">
        <ele>327.115977</ele>
        <time>2022-09-19T10:43:50.196Z</time>
      </trkpt>
      <trkpt lat="46.75991" lon="15.57125">
        <ele>327.355737</ele>
        <time>2022-09-19T10:43:53.181Z</time>
      </trkpt>
      <trkpt lat="46.76004" lon="15.57128">
        <ele>327.600939</ele>
        <time>2022-09-19T10:43:56.224Z</time>
      </trkpt>
      <trkpt lat="46.76016" lon="15.57131">
        <ele>327.841954</ele>
        <time>2022-09-19T10:43:59.181Z</time>
      </trkpt>
      <trkpt lat="46.76028" lon="15.57134">
        <ele>328.070042</ele>
        <time>2022-09-19T10:44:02.200Z</time>
      </trkpt>
      <trkpt lat="46.76039" lon="15.57137">
        <ele>328.293147</ele>
        <time>2022-09-19T10:44:05.206Z</time>
      </trkpt>
      <trkpt lat="46.76051" lon="15.57139">
        <ele>328.518138</ele>
        <time>2022-09-19T10:44:08.196Z</time>
      </trkpt>
      <trkpt lat="46.76063" lon="15.57142">
        <ele>328.747469</ele>
        <time>2022-09-19T10:44:11.229Z</time>
      </trkpt>
      <trkpt lat="46.76075" lon="15.57144">
        <ele>328.979081</ele>
        <time>2022-09-19T10:44:14.190Z</time>
      </trkpt>
      <trkpt lat="46.76087" lon="15.57145">
        <ele>329.21033</ele>
        <time>2022-09-19T10:44:17.187Z</time>
      </trkpt>
      <trkpt lat="46.761" lon="15.57148">
        <ele>329.450416</ele>
        <time>2022-09-19T10:44:20.193Z</time>
      </trkpt>
      <trkpt lat="46.76112" lon="15.57151">
        <ele>329.69374</ele>
        <time>2022-09-19T10:44:23.218Z</time>
      </trkpt>
      <trkpt lat="46.76124" lon="15.57154">
        <ele>329.868214</ele>
        <time>2022-09-19T10:44:26.210Z</time>
      </trkpt>
      <trkpt lat="46.76136" lon="15.57155">
        <ele>329.76453</ele>
        <time>2022-09-19T10:44:29.184Z</time>
      </trkpt>
      <trkpt lat="46.76149" lon="15.57158">
        <ele>329.659508</ele>
        <time>2022-09-19T10:44:32.183Z</time>
      </trkpt>
      <trkpt lat="46.76161" lon="15.57161">
        <ele>329.555411</ele>
        <time>2022-09-19T10:44:35.194Z</time>
      </trkpt>
      <trkpt lat="46.76173" lon="15.57164">
        <ele>329.447225</ele>
        <time>2022-09-19T10:44:38.186Z</time>
      </trkpt>
      <trkpt lat="46.76185" lon="15.57167">
        <ele>329.341853</ele>
        <time>2022-09-19T10:44:41.181Z</time>
      </trkpt>
      <trkpt lat="46.76199" lon="15.5717">
        <ele>329.227382</ele>
        <time>2022-09-19T10:44:44.167Z</time>
      </trkpt>
      <trkpt lat="46.76208" lon="15.57171">
        <ele>329.149629</ele>
        <time>2022-09-19T10:44:46.203Z</time>
      </trkpt>
      <trkpt lat="46.7622" lon="15.57174">
        <ele>329.041149</ele>
        <time>2022-09-19T10:44:49.211Z</time>
      </trkpt>
      <trkpt lat="46.76233" lon="15.57175">
        <ele>328.930732</ele>
        <time>2022-09-19T10:44:52.195Z</time>
      </trkpt>
      <trkpt lat="46.76246" lon="15.57178">
        <ele>328.822925</ele>
        <time>2022-09-19T10:44:55.217Z</time>
      </trkpt>
      <trkpt lat="46.76258" lon="15.5718">
        <ele>328.715594</ele>
        <time>2022-09-19T10:44:58.201Z</time>
      </trkpt>
      <trkpt lat="46.76271" lon="15.57183">
        <ele>328.604415</ele>
        <time>2022-09-19T10:45:01.218Z</time>
      </trkpt>
      <trkpt lat="46.76284" lon="15.57186">
        <ele>328.492306</ele>
        <time>2022-09-19T10:45:04.214Z</time>
      </trkpt>
      <trkpt lat="46.76297" lon="15.57189">
        <ele>328.37992</ele>
        <time>2022-09-19T10:45:07.239Z</time>
      </trkpt>
      <trkpt lat="46.7631" lon="15.57192">
        <ele>328.34232</ele>
        <time>2022-09-19T10:45:10.192Z</time>
      </trkpt>
      <trkpt lat="46.76323" lon="15.57195">
        <ele>328.329144</ele>
        <time>2022-09-19T10:45:13.192Z</time>
      </trkpt>
      <trkpt lat="46.76336" lon="15.57198">
        <ele>328.315615</ele>
        <time>2022-09-19T10:45:16.187Z</time>
      </trkpt>
      <trkpt lat="46.76348" lon="15.57201">
        <ele>328.302808</ele>
        <time>2022-09-19T10:45:19.185Z</time>
      </trkpt>
      <trkpt lat="46.76361" lon="15.57204">
        <ele>328.289643</ele>
        <time>2022-09-19T10:45:22.206Z</time>
      </trkpt>
      <trkpt lat="46.76374" lon="15.57207">
        <ele>328.27607</ele>
        <time>2022-09-19T10:45:25.187Z</time>
      </trkpt>
      <trkpt lat="46.76382" lon="15.57209">
        <ele>328.266716</ele>
        <time>2022-09-19T10:45:27.198Z</time>
      </trkpt>
      <trkpt lat="46.76392" lon="15.57211">
        <ele>328.257219</ele>
        <time>2022-09-19T10:45:29.236Z</time>
      </trkpt>
      <trkpt lat="46.76405" lon="15.57214">
        <ele>328.243656</ele>
        <time>2022-09-19T10:45:32.193Z</time>
      </trkpt>
      <trkpt lat="46.76417" lon="15.57217">
        <ele>328.230309</ele>
        <time>2022-09-19T10:45:35.208Z</time>
      </trkpt>
      <trkpt lat="46.76429" lon="15.57219">
        <ele>328.217715</ele>
        <time>2022-09-19T10:45:38.198Z</time>
      </trkpt>
      <trkpt lat="46.76442" lon="15.57221">
        <ele>328.20461</ele>
        <time>2022-09-19T10:45:41.183Z</time>
      </trkpt>
      <trkpt lat="46.76455" lon="15.57224">
        <ele>328.191558</ele>
        <time>2022-09-19T10:45:44.189Z</time>
      </trkpt>
      <trkpt lat="46.76467" lon="15.57227">
        <ele>328.17828</ele>
        <time>2022-09-19T10:45:47.224Z</time>
      </trkpt>
      <trkpt lat="46.76479" lon="15.5723">
        <ele>328.14444</ele>
        <time>2022-09-19T10:45:50.184Z</time>
      </trkpt>
      <trkpt lat="46.76492" lon="15.57233">
        <ele>327.924096</ele>
        <time>2022-09-19T10:45:53.166Z</time>
      </trkpt>
      <trkpt lat="46.76504" lon="15.57236">
        <ele>327.724164</ele>
        <time>2022-09-19T10:45:56.187Z</time>
      </trkpt>
      <trkpt lat="46.76516" lon="15.57238">
        <ele>327.522559</ele>
        <time>2022-09-19T10:45:59.176Z</time>
      </trkpt>
      <trkpt lat="46.76527" lon="15.57239">
        <ele>327.339332</ele>
        <time>2022-09-19T10:46:02.184Z</time>
      </trkpt>
      <trkpt lat="46.76536" lon="15.57243">
        <ele>327.169819</ele>
        <time>2022-09-19T10:46:05.176Z</time>
      </trkpt>
      <trkpt lat="46.76544" lon="15.57252">
        <ele>326.998228</ele>
        <time>2022-09-19T10:46:08.223Z</time>
      </trkpt>
      <trkpt lat="46.76549" lon="15.57265">
        <ele>326.829248</ele>
        <time>2022-09-19T10:46:12.192Z</time>
      </trkpt>
      <trkpt lat="46.76548" lon="15.5728">
        <ele>326.665727</ele>
        <time>2022-09-19T10:46:16.190Z</time>
      </trkpt>
      <trkpt lat="46.76549" lon="15.57296">
        <ele>326.480225</ele>
        <time>2022-09-19T10:46:20.229Z</time>
      </trkpt>
      <trkpt lat="46.76551" lon="15.57309">
        <ele>326.31537</ele>
        <time>2022-09-19T10:46:23.198Z</time>
      </trkpt>
      <trkpt lat="46.76554" lon="15.57324">
        <ele>326.132381</ele>
        <time>2022-09-19T10:46:26.186Z</time>
      </trkpt>
      <trkpt lat="46.7656" lon="15.57338">
        <ele>325.943174</ele>
        <time>2022-09-19T10:46:29.183Z</time>
      </trkpt>
      <trkpt lat="46.76571" lon="15.57346">
        <ele>325.744414</ele>
        <time>2022-09-19T10:46:32.178Z</time>
      </trkpt>
      <trkpt lat="46.76581" lon="15.57345">
        <ele>325.576448</ele>
        <time>2022-09-19T10:46:35.150Z</time>
      </trkpt>
      <trkpt lat="46.7659" lon="15.57343">
        <ele>325.420051</ele>
        <time>2022-09-19T10:46:38.202Z</time>
      </trkpt>
      <trkpt lat="46.76601" lon="15.5734">
        <ele>325.227726</ele>
        <time>2022-09-19T10:46:41.184Z</time>
      </trkpt>
      <trkpt lat="46.76603" lon="15.57328">
        <ele>325.131563</ele>
        <time>2022-09-19T10:46:45.320Z</time>
      </trkpt>
      <trkpt lat="46.76603" lon="15.57314">
        <ele>325.14965</ele>
        <time>2022-09-19T10:46:54.201Z</time>
      </trkpt>
      <trkpt lat="46.76604" lon="15.57301">
        <ele>325.167376</ele>
        <time>2022-09-19T10:47:00.192Z</time>
      </trkpt>
      <trkpt lat="46.76605" lon="15.57286">
        <ele>325.186551</ele>
        <time>2022-09-19T10:47:06.186Z</time>
      </trkpt>
      <trkpt lat="46.76607" lon="15.57273">
        <ele>325.205357</ele>
        <time>2022-09-19T10:47:11.183Z</time>
      </trkpt>
      <trkpt lat="46.7661" lon="15.5726">
        <ele>325.222787</ele>
        <time>2022-09-19T10:47:15.194Z</time>
      </trkpt>
      <trkpt lat="46.76616" lon="15.57247">
        <ele>325.24402</ele>
        <time>2022-09-19T10:47:19.193Z</time>
      </trkpt>
      <trkpt lat="46.76622" lon="15.57233">
        <ele>325.265968</ele>
        <time>2022-09-19T10:47:23.185Z</time>
      </trkpt>
      <trkpt lat="46.76626" lon="15.57221">
        <ele>325.283794</ele>
        <time>2022-09-19T10:47:26.221Z</time>
      </trkpt>
      <trkpt lat="46.76631" lon="15.5721">
        <ele>325.301603</ele>
        <time>2022-09-19T10:47:29.185Z</time>
      </trkpt>
      <trkpt lat="46.76637" lon="15.57196">
        <ele>325.323327</ele>
        <time>2022-09-19T10:47:33.189Z</time>
      </trkpt>
      <trkpt lat="46.76645" lon="15.57182">
        <ele>325.346398</ele>
        <time>2022-09-19T10:47:37.252Z</time>
      </trkpt>
      <trkpt lat="46.76652" lon="15.57169">
        <ele>325.369509</ele>
        <time>2022-09-19T10:47:41.201Z</time>
      </trkpt>
      <trkpt lat="46.7666" lon="15.57159">
        <ele>325.389869</ele>
        <time>2022-09-19T10:47:44.174Z</time>
      </trkpt>
      <trkpt lat="46.76668" lon="15.57149">
        <ele>325.410345</ele>
        <time>2022-09-19T10:47:47.188Z</time>
      </trkpt>
      <trkpt lat="46.76677" lon="15.57139">
        <ele>325.4323</ele>
        <time>2022-09-19T10:47:50.187Z</time>
      </trkpt>
      <trkpt lat="46.76686" lon="15.5713">
        <ele>325.452625</ele>
        <time>2022-09-19T10:47:53.174Z</time>
      </trkpt>
      <trkpt lat="46.76695" lon="15.57121">
        <ele>325.474587</ele>
        <time>2022-09-19T10:47:56.170Z</time>
      </trkpt>
      <trkpt lat="46.76703" lon="15.57114">
        <ele>325.964146</ele>
        <time>2022-09-19T10:47:58.191Z</time>
      </trkpt>
      <trkpt lat="46.76714" lon="15.57104">
        <ele>326.657962</ele>
        <time>2022-09-19T10:48:01.186Z</time>
      </trkpt>
      <trkpt lat="46.76726" lon="15.57096">
        <ele>327.362663</ele>
        <time>2022-09-19T10:48:04.197Z</time>
      </trkpt>
      <trkpt lat="46.76737" lon="15.57087">
        <ele>328.022999</ele>
        <time>2022-09-19T10:48:07.204Z</time>
      </trkpt>
      <trkpt lat="46.76747" lon="15.5708">
        <ele>328.627257</ele>
        <time>2022-09-19T10:48:10.220Z</time>
      </trkpt>
      <trkpt lat="46.76758" lon="15.57073">
        <ele>329.241682</ele>
        <time>2022-09-19T10:48:13.244Z</time>
      </trkpt>
      <trkpt lat="46.76769" lon="15.57067">
        <ele>329.868899</ele>
        <time>2022-09-19T10:48:16.193Z</time>
      </trkpt>
      <trkpt lat="46.76779" lon="15.57061">
        <ele>330.46607</ele>
        <time>2022-09-19T10:48:19.173Z</time>
      </trkpt>
      <trkpt lat="46.76789" lon="15.57057">
        <ele>331.011517</ele>
        <time>2022-09-19T10:48:22.183Z</time>
      </trkpt>
      <trkpt lat="46.76799" lon="15.57054">
        <ele>331.553351</ele>
        <time>2022-09-19T10:48:25.193Z</time>
      </trkpt>
      <trkpt lat="46.76809" lon="15.57051">
        <ele>332.065965</ele>
        <time>2022-09-19T10:48:28.192Z</time>
      </trkpt>
      <trkpt lat="46.76818" lon="15.57049">
        <ele>332.561288</ele>
        <time>2022-09-19T10:48:31.193Z</time>
      </trkpt>
      <trkpt lat="46.76829" lon="15.57053">
        <ele>333.193668</ele>
        <time>2022-09-19T10:48:35.209Z</time>
      </trkpt>
      <trkpt lat="46.76841" lon="15.57056">
        <ele>333.82896</ele>
        <time>2022-09-19T10:48:38.226Z</time>
      </trkpt>
      <trkpt lat="46.76853" lon="15.57051">
        <ele>334.467232</ele>
        <time>2022-09-19T10:48:41.201Z</time>
      </trkpt>
      <trkpt lat="46.76859" lon="15.57042">
        <ele>334.959583</ele>
        <time>2022-09-19T10:48:44.174Z</time>
      </trkpt>
      <trkpt lat="46.76869" lon="15.57035">
        <ele>334.754145</ele>
        <time>2022-09-19T10:48:47.170Z</time>
      </trkpt>
      <trkpt lat="46.76881" lon="15.57031">
        <ele>334.352744</ele>
        <time>2022-09-19T10:48:50.169Z</time>
      </trkpt>
      <trkpt lat="46.76893" lon="15.57027">
        <ele>333.983192</ele>
        <time>2022-09-19T10:48:53.229Z</time>
      </trkpt>
      <trkpt lat="46.76904" lon="15.57022">
        <ele>333.626572</ele>
        <time>2022-09-19T10:48:56.187Z</time>
      </trkpt>
      <trkpt lat="46.76915" lon="15.57017">
        <ele>333.252429</ele>
        <time>2022-09-19T10:48:59.212Z</time>
      </trkpt>
      <trkpt lat="46.76926" lon="15.57012">
        <ele>332.897015</ele>
        <time>2022-09-19T10:49:02.183Z</time>
      </trkpt>
      <trkpt lat="46.76937" lon="15.57009">
        <ele>332.543809</ele>
        <time>2022-09-19T10:49:05.179Z</time>
      </trkpt>
      <trkpt lat="46.76949" lon="15.57006">
        <ele>332.17912</ele>
        <time>2022-09-19T10:49:08.175Z</time>
      </trkpt>
      <trkpt lat="46.76961" lon="15.57002">
        <ele>331.794045</ele>
        <time>2022-09-19T10:49:11.174Z</time>
      </trkpt>
      <trkpt lat="46.76972" lon="15.56999">
        <ele>331.426883</ele>
        <time>2022-09-19T10:49:14.164Z</time>
      </trkpt>
      <trkpt lat="46.76984" lon="15.56995">
        <ele>331.054883</ele>
        <time>2022-09-19T10:49:17.207Z</time>
      </trkpt>
      <trkpt lat="46.77" lon="15.5699">
        <ele>330.551814</ele>
        <time>2022-09-19T10:49:21.175Z</time>
      </trkpt>
      <trkpt lat="46.77012" lon="15.56986">
        <ele>330.162389</ele>
        <time>2022-09-19T10:49:24.181Z</time>
      </trkpt>
      <trkpt lat="46.77025" lon="15.56981">
        <ele>329.752362</ele>
        <time>2022-09-19T10:49:27.166Z</time>
      </trkpt>
      <trkpt lat="46.77037" lon="15.56977">
        <ele>329.420875</ele>
        <time>2022-09-19T10:49:30.195Z</time>
      </trkpt>
      <trkpt lat="46.7705" lon="15.56972">
        <ele>329.384098</ele>
        <time>2022-09-19T10:49:33.207Z</time>
      </trkpt>
      <trkpt lat="46.77059" lon="15.56969">
        <ele>329.358844</ele>
        <time>2022-09-19T10:49:35.171Z</time>
      </trkpt>
      <trkpt lat="46.77068" lon="15.56967">
        <ele>329.334118</ele>
        <time>2022-09-19T10:49:37.238Z</time>
      </trkpt>
      <trkpt lat="46.77081" lon="15.56963">
        <ele>329.296931</ele>
        <time>2022-09-19T10:49:40.187Z</time>
      </trkpt>
      <trkpt lat="46.7709" lon="15.5696">
        <ele>329.271365</ele>
        <time>2022-09-19T10:49:42.215Z</time>
      </trkpt>
      <trkpt lat="46.771" lon="15.56957">
        <ele>329.245617</ele>
        <time>2022-09-19T10:49:44.196Z</time>
      </trkpt>
      <trkpt lat="46.77109" lon="15.56954">
        <ele>329.220095</ele>
        <time>2022-09-19T10:49:46.185Z</time>
      </trkpt>
      <trkpt lat="46.77118" lon="15.56951">
        <ele>329.193732</ele>
        <time>2022-09-19T10:49:48.171Z</time>
      </trkpt>
      <trkpt lat="46.77127" lon="15.56948">
        <ele>329.168478</ele>
        <time>2022-09-19T10:49:50.226Z</time>
      </trkpt>
      <trkpt lat="46.77136" lon="15.56946">
        <ele>329.142641</ele>
        <time>2022-09-19T10:49:52.200Z</time>
      </trkpt>
      <trkpt lat="46.77146" lon="15.56944">
        <ele>329.116598</ele>
        <time>2022-09-19T10:49:54.227Z</time>
      </trkpt>
      <trkpt lat="46.77155" lon="15.56941">
        <ele>329.090794</ele>
        <time>2022-09-19T10:49:56.191Z</time>
      </trkpt>
      <trkpt lat="46.77169" lon="15.56938">
        <ele>329.053348</ele>
        <time>2022-09-19T10:49:59.198Z</time>
      </trkpt>
      <trkpt lat="46.77182" lon="15.56934">
        <ele>329.017041</ele>
        <time>2022-09-19T10:50:02.185Z</time>
      </trkpt>
      <trkpt lat="46.77191" lon="15.56932">
        <ele>328.991744</ele>
        <time>2022-09-19T10:50:04.201Z</time>
      </trkpt>
      <trkpt lat="46.772" lon="15.56928">
        <ele>328.965471</ele>
        <time>2022-09-19T10:50:06.181Z</time>
      </trkpt>
      <trkpt lat="46.77213" lon="15.56923">
        <ele>328.889203</ele>
        <time>2022-09-19T10:50:09.191Z</time>
      </trkpt>
      <trkpt lat="46.77222" lon="15.56919">
        <ele>328.734377</ele>
        <time>2022-09-19T10:50:11.176Z</time>
      </trkpt>
      <trkpt lat="46.77234" lon="15.56917">
        <ele>328.522188</ele>
        <time>2022-09-19T10:50:14.185Z</time>
      </trkpt>
      <trkpt lat="46.77246" lon="15.56913">
        <ele>328.325218</ele>
        <time>2022-09-19T10:50:17.192Z</time>
      </trkpt>
      <trkpt lat="46.77258" lon="15.56907">
        <ele>328.1091</ele>
        <time>2022-09-19T10:50:20.185Z</time>
      </trkpt>
      <trkpt lat="46.77267" lon="15.56903">
        <ele>327.946915</ele>
        <time>2022-09-19T10:50:22.204Z</time>
      </trkpt>
      <trkpt lat="46.77276" lon="15.56898">
        <ele>327.782615</ele>
        <time>2022-09-19T10:50:24.182Z</time>
      </trkpt>
      <trkpt lat="46.77285" lon="15.56894">
        <ele>327.618314</ele>
        <time>2022-09-19T10:50:26.180Z</time>
      </trkpt>
      <trkpt lat="46.77298" lon="15.56889">
        <ele>327.391042</ele>
        <time>2022-09-19T10:50:29.211Z</time>
      </trkpt>
      <trkpt lat="46.7731" lon="15.56885">
        <ele>327.174111</ele>
        <time>2022-09-19T10:50:32.192Z</time>
      </trkpt>
      <trkpt lat="46.77322" lon="15.56881">
        <ele>326.969729</ele>
        <time>2022-09-19T10:50:35.184Z</time>
      </trkpt>
      <trkpt lat="46.77328" lon="15.56868">
        <ele>326.790964</ele>
        <time>2022-09-19T10:50:38.193Z</time>
      </trkpt>
      <trkpt lat="46.77326" lon="15.56853">
        <ele>326.60963</ele>
        <time>2022-09-19T10:50:40.183Z</time>
      </trkpt>
      <trkpt lat="46.77323" lon="15.56839">
        <ele>326.445316</ele>
        <time>2022-09-19T10:50:42.189Z</time>
      </trkpt>
      <trkpt lat="46.77321" lon="15.56821">
        <ele>326.224513</ele>
        <time>2022-09-19T10:50:45.196Z</time>
      </trkpt>
      <trkpt lat="46.7732" lon="15.56803">
        <ele>326.014828</ele>
        <time>2022-09-19T10:50:48.192Z</time>
      </trkpt>
      <trkpt lat="46.77319" lon="15.56784">
        <ele>325.6844</ele>
        <time>2022-09-19T10:50:51.213Z</time>
      </trkpt>
      <trkpt lat="46.77318" lon="15.56765">
        <ele>325.148082</ele>
        <time>2022-09-19T10:50:54.200Z</time>
      </trkpt>
      <trkpt lat="46.77317" lon="15.56751">
        <ele>324.777959</ele>
        <time>2022-09-19T10:50:56.197Z</time>
      </trkpt>
      <trkpt lat="46.77315" lon="15.56738">
        <ele>324.402948</ele>
        <time>2022-09-19T10:50:58.189Z</time>
      </trkpt>
      <trkpt lat="46.77313" lon="15.56724">
        <ele>324.011234</ele>
        <time>2022-09-19T10:51:00.192Z</time>
      </trkpt>
      <trkpt lat="46.77312" lon="15.5671">
        <ele>323.617527</ele>
        <time>2022-09-19T10:51:02.197Z</time>
      </trkpt>
      <trkpt lat="46.77312" lon="15.56696">
        <ele>323.221098</ele>
        <time>2022-09-19T10:51:04.193Z</time>
      </trkpt>
      <trkpt lat="46.77311" lon="15.56682">
        <ele>322.845254</ele>
        <time>2022-09-19T10:51:06.186Z</time>
      </trkpt>
      <trkpt lat="46.7731" lon="15.56669">
        <ele>322.464259</ele>
        <time>2022-09-19T10:51:08.202Z</time>
      </trkpt>
      <trkpt lat="46.77309" lon="15.56656">
        <ele>322.100163</ele>
        <time>2022-09-19T10:51:10.206Z</time>
      </trkpt>
      <trkpt lat="46.77309" lon="15.56638">
        <ele>321.61221</ele>
        <time>2022-09-19T10:51:13.192Z</time>
      </trkpt>
      <trkpt lat="46.77309" lon="15.56625">
        <ele>321.246424</ele>
        <time>2022-09-19T10:51:15.184Z</time>
      </trkpt>
      <trkpt lat="46.77308" lon="15.56612">
        <ele>320.879231</ele>
        <time>2022-09-19T10:51:17.225Z</time>
      </trkpt>
      <trkpt lat="46.77308" lon="15.56598">
        <ele>320.49388</ele>
        <time>2022-09-19T10:51:19.197Z</time>
      </trkpt>
      <trkpt lat="46.77309" lon="15.56584">
        <ele>320.111298</ele>
        <time>2022-09-19T10:51:21.209Z</time>
      </trkpt>
      <trkpt lat="46.77309" lon="15.5657">
        <ele>319.717805</ele>
        <time>2022-09-19T10:51:23.206Z</time>
      </trkpt>
      <trkpt lat="46.77308" lon="15.56556">
        <ele>319.340176</ele>
        <time>2022-09-19T10:51:25.197Z</time>
      </trkpt>
      <trkpt lat="46.77307" lon="15.56537">
        <ele>318.809939</ele>
        <time>2022-09-19T10:51:28.188Z</time>
      </trkpt>
      <trkpt lat="46.77306" lon="15.56518">
        <ele>318.427503</ele>
        <time>2022-09-19T10:51:31.203Z</time>
      </trkpt>
      <trkpt lat="46.77306" lon="15.56499">
        <ele>318.155393</ele>
        <time>2022-09-19T10:51:34.186Z</time>
      </trkpt>
      <trkpt lat="46.77306" lon="15.56481">
        <ele>317.890591</ele>
        <time>2022-09-19T10:51:37.199Z</time>
      </trkpt>
      <trkpt lat="46.77305" lon="15.56465">
        <ele>317.643407</ele>
        <time>2022-09-19T10:51:40.190Z</time>
      </trkpt>
      <trkpt lat="46.77305" lon="15.56448">
        <ele>317.391979</ele>
        <time>2022-09-19T10:51:43.194Z</time>
      </trkpt>
      <trkpt lat="46.77304" lon="15.5643">
        <ele>317.134055</ele>
        <time>2022-09-19T10:51:46.204Z</time>
      </trkpt>
      <trkpt lat="46.77303" lon="15.56413">
        <ele>316.87959</ele>
        <time>2022-09-19T10:51:49.201Z</time>
      </trkpt>
      <trkpt lat="46.77303" lon="15.56394">
        <ele>316.603149</ele>
        <time>2022-09-19T10:51:52.182Z</time>
      </trkpt>
      <trkpt lat="46.77304" lon="15.56376">
        <ele>316.324962</ele>
        <time>2022-09-19T10:51:55.207Z</time>
      </trkpt>
      <trkpt lat="46.77304" lon="15.56362">
        <ele>316.12523</ele>
        <time>2022-09-19T10:51:57.189Z</time>
      </trkpt>
      <trkpt lat="46.77305" lon="15.56343">
        <ele>315.834717</ele>
        <time>2022-09-19T10:52:00.183Z</time>
      </trkpt>
      <trkpt lat="46.77306" lon="15.56323">
        <ele>315.550845</ele>
        <time>2022-09-19T10:52:03.285Z</time>
      </trkpt>
      <trkpt lat="46.77306" lon="15.56304">
        <ele>315.265495</ele>
        <time>2022-09-19T10:52:06.185Z</time>
      </trkpt>
      <trkpt lat="46.77307" lon="15.56291">
        <ele>315.068327</ele>
        <time>2022-09-19T10:52:08.207Z</time>
      </trkpt>
      <trkpt lat="46.77307" lon="15.56271">
        <ele>314.779893</ele>
        <time>2022-09-19T10:52:11.211Z</time>
      </trkpt>
      <trkpt lat="46.77307" lon="15.56258">
        <ele>314.87398</ele>
        <time>2022-09-19T10:52:13.197Z</time>
      </trkpt>
      <trkpt lat="46.77308" lon="15.56239">
        <ele>315.211587</ele>
        <time>2022-09-19T10:52:16.197Z</time>
      </trkpt>
      <trkpt lat="46.77308" lon="15.56225">
        <ele>315.441745</ele>
        <time>2022-09-19T10:52:18.189Z</time>
      </trkpt>
      <trkpt lat="46.77309" lon="15.56212">
        <ele>315.673639</ele>
        <time>2022-09-19T10:52:20.217Z</time>
      </trkpt>
      <trkpt lat="46.7731" lon="15.56194">
        <ele>315.996312</ele>
        <time>2022-09-19T10:52:23.197Z</time>
      </trkpt>
      <trkpt lat="46.7731" lon="15.56175">
        <ele>316.323483</ele>
        <time>2022-09-19T10:52:26.190Z</time>
      </trkpt>
      <trkpt lat="46.77311" lon="15.56162">
        <ele>316.554033</ele>
        <time>2022-09-19T10:52:28.188Z</time>
      </trkpt>
      <trkpt lat="46.77312" lon="15.56143">
        <ele>316.8748</ele>
        <time>2022-09-19T10:52:31.181Z</time>
      </trkpt>
      <trkpt lat="46.77313" lon="15.5613">
        <ele>317.110782</ele>
        <time>2022-09-19T10:52:33.280Z</time>
      </trkpt>
      <trkpt lat="46.77313" lon="15.5611">
        <ele>317.446908</ele>
        <time>2022-09-19T10:52:36.241Z</time>
      </trkpt>
      <trkpt lat="46.77314" lon="15.56092">
        <ele>317.767524</ele>
        <time>2022-09-19T10:52:39.209Z</time>
      </trkpt>
      <trkpt lat="46.77315" lon="15.56074">
        <ele>318.079981</ele>
        <time>2022-09-19T10:52:42.215Z</time>
      </trkpt>
      <trkpt lat="46.77315" lon="15.56057">
        <ele>318.374401</ele>
        <time>2022-09-19T10:52:45.196Z</time>
      </trkpt>
      <trkpt lat="46.77317" lon="15.5604">
        <ele>318.678467</ele>
        <time>2022-09-19T10:52:48.200Z</time>
      </trkpt>
      <trkpt lat="46.77319" lon="15.56022">
        <ele>319.000878</ele>
        <time>2022-09-19T10:52:51.211Z</time>
      </trkpt>
      <trkpt lat="46.77321" lon="15.56003">
        <ele>319.338155</ele>
        <time>2022-09-19T10:52:54.230Z</time>
      </trkpt>
      <trkpt lat="46.77323" lon="15.55984">
        <ele>319.707571</ele>
        <time>2022-09-19T10:52:57.188Z</time>
      </trkpt>
      <trkpt lat="46.77325" lon="15.55966">
        <ele>320.066221</ele>
        <time>2022-09-19T10:53:00.262Z</time>
      </trkpt>
      <trkpt lat="46.77326" lon="15.55947">
        <ele>320.435125</ele>
        <time>2022-09-19T10:53:03.202Z</time>
      </trkpt>
      <trkpt lat="46.77328" lon="15.55928">
        <ele>320.811258</ele>
        <time>2022-09-19T10:53:06.178Z</time>
      </trkpt>
      <trkpt lat="46.7733" lon="15.55915">
        <ele>321.066866</ele>
        <time>2022-09-19T10:53:08.205Z</time>
      </trkpt>
      <trkpt lat="46.77331" lon="15.55901">
        <ele>321.327352</ele>
        <time>2022-09-19T10:53:10.205Z</time>
      </trkpt>
      <trkpt lat="46.77332" lon="15.55888">
        <ele>321.58442</ele>
        <time>2022-09-19T10:53:12.249Z</time>
      </trkpt>
      <trkpt lat="46.77335" lon="15.55869">
        <ele>321.967526</ele>
        <time>2022-09-19T10:53:15.202Z</time>
      </trkpt>
      <trkpt lat="46.77338" lon="15.5585">
        <ele>322.332599</ele>
        <time>2022-09-19T10:53:18.258Z</time>
      </trkpt>
      <trkpt lat="46.7734" lon="15.55832">
        <ele>322.700112</ele>
        <time>2022-09-19T10:53:21.267Z</time>
      </trkpt>
      <trkpt lat="46.77344" lon="15.55813">
        <ele>323.074591</ele>
        <time>2022-09-19T10:53:24.209Z</time>
      </trkpt>
      <trkpt lat="46.77348" lon="15.55801">
        <ele>323.337391</ele>
        <time>2022-09-19T10:53:26.190Z</time>
      </trkpt>
      <trkpt lat="46.77353" lon="15.55785">
        <ele>323.684276</ele>
        <time>2022-09-19T10:53:29.173Z</time>
      </trkpt>
      <trkpt lat="46.77359" lon="15.55769">
        <ele>324.02921</ele>
        <time>2022-09-19T10:53:32.188Z</time>
      </trkpt>
      <trkpt lat="46.77364" lon="15.55753">
        <ele>324.374051</ele>
        <time>2022-09-19T10:53:35.229Z</time>
      </trkpt>
      <trkpt lat="46.7737" lon="15.55736">
        <ele>324.151409</ele>
        <time>2022-09-19T10:53:38.184Z</time>
      </trkpt>
      <trkpt lat="46.77377" lon="15.5572">
        <ele>323.924963</ele>
        <time>2022-09-19T10:53:41.204Z</time>
      </trkpt>
      <trkpt lat="46.77383" lon="15.55704">
        <ele>323.705661</ele>
        <time>2022-09-19T10:53:44.189Z</time>
      </trkpt>
      <trkpt lat="46.77391" lon="15.55687">
        <ele>323.470743</ele>
        <time>2022-09-19T10:53:47.224Z</time>
      </trkpt>
      <trkpt lat="46.77397" lon="15.55672">
        <ele>323.251612</ele>
        <time>2022-09-19T10:53:50.196Z</time>
      </trkpt>
      <trkpt lat="46.77404" lon="15.55656">
        <ele>323.031397</ele>
        <time>2022-09-19T10:53:53.201Z</time>
      </trkpt>
      <trkpt lat="46.7741" lon="15.5564">
        <ele>322.812972</ele>
        <time>2022-09-19T10:53:56.199Z</time>
      </trkpt>
      <trkpt lat="46.77415" lon="15.55624">
        <ele>322.599989</ele>
        <time>2022-09-19T10:53:59.184Z</time>
      </trkpt>
      <trkpt lat="46.7742" lon="15.5561">
        <ele>322.419503</ele>
        <time>2022-09-19T10:54:02.191Z</time>
      </trkpt>
      <trkpt lat="46.77422" lon="15.55593">
        <ele>322.212916</ele>
        <time>2022-09-19T10:54:06.190Z</time>
      </trkpt>
      <trkpt lat="46.77425" lon="15.55578">
        <ele>322.029813</ele>
        <time>2022-09-19T10:54:09.211Z</time>
      </trkpt>
      <trkpt lat="46.77429" lon="15.55563">
        <ele>321.838911</ele>
        <time>2022-09-19T10:54:12.179Z</time>
      </trkpt>
      <trkpt lat="46.77432" lon="15.55548">
        <ele>321.653623</ele>
        <time>2022-09-19T10:54:15.195Z</time>
      </trkpt>
      <trkpt lat="46.77437" lon="15.55533">
        <ele>321.452782</ele>
        <time>2022-09-19T10:54:18.202Z</time>
      </trkpt>
      <trkpt lat="46.7744" lon="15.55518">
        <ele>321.270886</ele>
        <time>2022-09-19T10:54:21.196Z</time>
      </trkpt>
      <trkpt lat="46.77444" lon="15.55501">
        <ele>321.393162</ele>
        <time>2022-09-19T10:54:24.191Z</time>
      </trkpt>
      <trkpt lat="46.77448" lon="15.55485">
        <ele>321.545114</ele>
        <time>2022-09-19T10:54:27.196Z</time>
      </trkpt>
      <trkpt lat="46.77452" lon="15.55469">
        <ele>321.692517</ele>
        <time>2022-09-19T10:54:30.195Z</time>
      </trkpt>
      <trkpt lat="46.77455" lon="15.55453">
        <ele>321.841606</ele>
        <time>2022-09-19T10:54:33.184Z</time>
      </trkpt>
      <trkpt lat="46.77459" lon="15.55436">
        <ele>322.001613</ele>
        <time>2022-09-19T10:54:36.189Z</time>
      </trkpt>
      <trkpt lat="46.77462" lon="15.55417">
        <ele>322.170286</ele>
        <time>2022-09-19T10:54:39.204Z</time>
      </trkpt>
      <trkpt lat="46.77466" lon="15.554">
        <ele>322.32639</ele>
        <time>2022-09-19T10:54:42.191Z</time>
      </trkpt>
      <trkpt lat="46.7747" lon="15.55382">
        <ele>322.491251</ele>
        <time>2022-09-19T10:54:45.190Z</time>
      </trkpt>
      <trkpt lat="46.77475" lon="15.55365">
        <ele>322.653219</ele>
        <time>2022-09-19T10:54:48.191Z</time>
      </trkpt>
      <trkpt lat="46.77479" lon="15.55347">
        <ele>322.818472</ele>
        <time>2022-09-19T10:54:51.188Z</time>
      </trkpt>
      <trkpt lat="46.77484" lon="15.55332">
        <ele>322.973245</ele>
        <time>2022-09-19T10:54:54.199Z</time>
      </trkpt>
      <trkpt lat="46.77489" lon="15.55315">
        <ele>323.133454</ele>
        <time>2022-09-19T10:54:57.238Z</time>
      </trkpt>
      <trkpt lat="46.77495" lon="15.55297">
        <ele>323.30118</ele>
        <time>2022-09-19T10:55:00.178Z</time>
      </trkpt>
      <trkpt lat="46.775" lon="15.5528">
        <ele>323.467303</ele>
        <time>2022-09-19T10:55:03.189Z</time>
      </trkpt>
      <trkpt lat="46.77503" lon="15.55264">
        <ele>323.593696</ele>
        <time>2022-09-19T10:55:06.201Z</time>
      </trkpt>
      <trkpt lat="46.77504" lon="15.55245">
        <ele>323.696218</ele>
        <time>2022-09-19T10:55:09.200Z</time>
      </trkpt>
      <trkpt lat="46.77502" lon="15.55227">
        <ele>323.798754</ele>
        <time>2022-09-19T10:55:12.200Z</time>
      </trkpt>
      <trkpt lat="46.77499" lon="15.55212">
        <ele>323.881226</ele>
        <time>2022-09-19T10:55:14.190Z</time>
      </trkpt>
      <trkpt lat="46.77496" lon="15.55198">
        <ele>323.966245</ele>
        <time>2022-09-19T10:55:16.199Z</time>
      </trkpt>
      <trkpt lat="46.77493" lon="15.55184">
        <ele>324.04556</ele>
        <time>2022-09-19T10:55:18.193Z</time>
      </trkpt>
      <trkpt lat="46.7749" lon="15.5517">
        <ele>324.121207</ele>
        <time>2022-09-19T10:55:20.204Z</time>
      </trkpt>
      <trkpt lat="46.77486" lon="15.55152">
        <ele>324.226343</ele>
        <time>2022-09-19T10:55:23.205Z</time>
      </trkpt>
      <trkpt lat="46.77482" lon="15.55137">
        <ele>324.319008</ele>
        <time>2022-09-19T10:55:26.182Z</time>
      </trkpt>
      <trkpt lat="46.77478" lon="15.5512">
        <ele>324.414907</ele>
        <time>2022-09-19T10:55:29.204Z</time>
      </trkpt>
      <trkpt lat="46.77474" lon="15.55103">
        <ele>324.513325</ele>
        <time>2022-09-19T10:55:32.200Z</time>
      </trkpt>
      <trkpt lat="46.77469" lon="15.55087">
        <ele>324.609637</ele>
        <time>2022-09-19T10:55:35.202Z</time>
      </trkpt>
      <trkpt lat="46.77463" lon="15.55071">
        <ele>324.706093</ele>
        <time>2022-09-19T10:55:38.231Z</time>
      </trkpt>
      <trkpt lat="46.77459" lon="15.55055">
        <ele>324.803616</ele>
        <time>2022-09-19T10:55:41.211Z</time>
      </trkpt>
      <trkpt lat="46.77455" lon="15.55039">
        <ele>324.897198</ele>
        <time>2022-09-19T10:55:44.203Z</time>
      </trkpt>
      <trkpt lat="46.77452" lon="15.55024">
        <ele>324.981167</ele>
        <time>2022-09-19T10:55:48.174Z</time>
      </trkpt>
      <trkpt lat="46.77458" lon="15.55011">
        <ele>325.312661</ele>
        <time>2022-09-19T10:55:52.193Z</time>
      </trkpt>
      <trkpt lat="46.77465" lon="15.55001">
        <ele>325.654542</ele>
        <time>2022-09-19T10:55:55.185Z</time>
      </trkpt>
      <trkpt lat="46.77472" lon="15.5499">
        <ele>326.007107</ele>
        <time>2022-09-19T10:55:58.200Z</time>
      </trkpt>
      <trkpt lat="46.77479" lon="15.54978">
        <ele>326.387776</ele>
        <time>2022-09-19T10:56:01.189Z</time>
      </trkpt>
      <trkpt lat="46.77486" lon="15.54968">
        <ele>326.736412</ele>
        <time>2022-09-19T10:56:04.195Z</time>
      </trkpt>
      <trkpt lat="46.77493" lon="15.54957">
        <ele>327.100158</ele>
        <time>2022-09-19T10:56:07.187Z</time>
      </trkpt>
      <trkpt lat="46.77502" lon="15.54947">
        <ele>327.481225</ele>
        <time>2022-09-19T10:56:10.224Z</time>
      </trkpt>
      <trkpt lat="46.77511" lon="15.54936">
        <ele>327.891086</ele>
        <time>2022-09-19T10:56:13.208Z</time>
      </trkpt>
      <trkpt lat="46.77521" lon="15.54927">
        <ele>328.289073</ele>
        <time>2022-09-19T10:56:16.185Z</time>
      </trkpt>
      <trkpt lat="46.77532" lon="15.54919">
        <ele>328.719222</ele>
        <time>2022-09-19T10:56:19.201Z</time>
      </trkpt>
      <trkpt lat="46.77544" lon="15.54914">
        <ele>329.144134</ele>
        <time>2022-09-19T10:56:22.201Z</time>
      </trkpt>
      <trkpt lat="46.77557" lon="15.5491">
        <ele>329.611077</ele>
        <time>2022-09-19T10:56:25.191Z</time>
      </trkpt>
      <trkpt lat="46.77569" lon="15.54906">
        <ele>330.05954</ele>
        <time>2022-09-19T10:56:28.206Z</time>
      </trkpt>
      <trkpt lat="46.77581" lon="15.54902">
        <ele>330.492734</ele>
        <time>2022-09-19T10:56:31.201Z</time>
      </trkpt>
      <trkpt lat="46.77593" lon="15.54898">
        <ele>330.90965</ele>
        <time>2022-09-19T10:56:34.187Z</time>
      </trkpt>
      <trkpt lat="46.77605" lon="15.54894">
        <ele>331.254024</ele>
        <time>2022-09-19T10:56:37.205Z</time>
      </trkpt>
      <trkpt lat="46.77616" lon="15.54892">
        <ele>331.313376</ele>
        <time>2022-09-19T10:56:40.189Z</time>
      </trkpt>
      <trkpt lat="46.77628" lon="15.54889">
        <ele>331.371979</ele>
        <time>2022-09-19T10:56:43.192Z</time>
      </trkpt>
      <trkpt lat="46.7764" lon="15.54887">
        <ele>331.432814</ele>
        <time>2022-09-19T10:56:46.202Z</time>
      </trkpt>
      <trkpt lat="46.77652" lon="15.54883">
        <ele>331.496594</ele>
        <time>2022-09-19T10:56:49.208Z</time>
      </trkpt>
      <trkpt lat="46.77665" lon="15.54879">
        <ele>331.562123</ele>
        <time>2022-09-19T10:56:52.191Z</time>
      </trkpt>
      <trkpt lat="46.77677" lon="15.54876">
        <ele>331.624235</ele>
        <time>2022-09-19T10:56:55.221Z</time>
      </trkpt>
      <trkpt lat="46.77689" lon="15.54873">
        <ele>331.680954</ele>
        <time>2022-09-19T10:56:58.186Z</time>
      </trkpt>
      <trkpt lat="46.777" lon="15.5487">
        <ele>331.736418</ele>
        <time>2022-09-19T10:57:01.201Z</time>
      </trkpt>
      <trkpt lat="46.77711" lon="15.54867">
        <ele>331.792501</ele>
        <time>2022-09-19T10:57:04.208Z</time>
      </trkpt>
      <trkpt lat="46.77722" lon="15.54864">
        <ele>331.850748</ele>
        <time>2022-09-19T10:57:07.194Z</time>
      </trkpt>
      <trkpt lat="46.77733" lon="15.5486">
        <ele>331.909209</ele>
        <time>2022-09-19T10:57:10.198Z</time>
      </trkpt>
      <trkpt lat="46.77745" lon="15.54857">
        <ele>331.969496</ele>
        <time>2022-09-19T10:57:13.196Z</time>
      </trkpt>
      <trkpt lat="46.77756" lon="15.54854">
        <ele>332.024055</ele>
        <time>2022-09-19T10:57:16.208Z</time>
      </trkpt>
      <trkpt lat="46.77766" lon="15.5485">
        <ele>332.07602</ele>
        <time>2022-09-19T10:57:19.199Z</time>
      </trkpt>
      <trkpt lat="46.77776" lon="15.54848">
        <ele>332.128181</ele>
        <time>2022-09-19T10:57:22.200Z</time>
      </trkpt>
      <trkpt lat="46.77787" lon="15.54845">
        <ele>332.19749</ele>
        <time>2022-09-19T10:57:25.196Z</time>
      </trkpt>
      <trkpt lat="46.77797" lon="15.54841">
        <ele>332.270269</ele>
        <time>2022-09-19T10:57:28.216Z</time>
      </trkpt>
      <trkpt lat="46.77807" lon="15.54839">
        <ele>332.3426</ele>
        <time>2022-09-19T10:57:31.193Z</time>
      </trkpt>
      <trkpt lat="46.77817" lon="15.54837">
        <ele>332.415425</ele>
        <time>2022-09-19T10:57:34.223Z</time>
      </trkpt>
      <trkpt lat="46.77827" lon="15.54834">
        <ele>332.489865</ele>
        <time>2022-09-19T10:57:37.197Z</time>
      </trkpt>
      <trkpt lat="46.77836" lon="15.54829">
        <ele>332.560929</ele>
        <time>2022-09-19T10:57:40.198Z</time>
      </trkpt>
      <trkpt lat="46.77846" lon="15.54826">
        <ele>332.632126</ele>
        <time>2022-09-19T10:57:43.187Z</time>
      </trkpt>
      <trkpt lat="46.77856" lon="15.54822">
        <ele>332.704329</ele>
        <time>2022-09-19T10:57:46.194Z</time>
      </trkpt>
      <trkpt lat="46.77866" lon="15.54818">
        <ele>332.777034</ele>
        <time>2022-09-19T10:57:49.200Z</time>
      </trkpt>
      <trkpt lat="46.77875" lon="15.54813">
        <ele>332.850212</ele>
        <time>2022-09-19T10:57:52.200Z</time>
      </trkpt>
      <trkpt lat="46.77885" lon="15.54809">
        <ele>332.922363</ele>
        <time>2022-09-19T10:57:55.197Z</time>
      </trkpt>
      <trkpt lat="46.77895" lon="15.54805">
        <ele>332.997577</ele>
        <time>2022-09-19T10:57:58.193Z</time>
      </trkpt>
      <trkpt lat="46.77906" lon="15.54802">
        <ele>333.073619</ele>
        <time>2022-09-19T10:58:01.203Z</time>
      </trkpt>
      <trkpt lat="46.77917" lon="15.548">
        <ele>333.157844</ele>
        <time>2022-09-19T10:58:04.200Z</time>
      </trkpt>
      <trkpt lat="46.77929" lon="15.54797">
        <ele>333.243966</ele>
        <time>2022-09-19T10:58:07.242Z</time>
      </trkpt>
      <trkpt lat="46.77941" lon="15.54793">
        <ele>333.33041</ele>
        <time>2022-09-19T10:58:10.201Z</time>
      </trkpt>
      <trkpt lat="46.77952" lon="15.54791">
        <ele>333.410028</ele>
        <time>2022-09-19T10:58:13.183Z</time>
      </trkpt>
      <trkpt lat="46.77962" lon="15.54788">
        <ele>333.44287</ele>
        <time>2022-09-19T10:58:16.193Z</time>
      </trkpt>
      <trkpt lat="46.77972" lon="15.54785">
        <ele>333.460545</ele>
        <time>2022-09-19T10:58:19.187Z</time>
      </trkpt>
      <trkpt lat="46.77983" lon="15.5478">
        <ele>333.480288</ele>
        <time>2022-09-19T10:58:22.182Z</time>
      </trkpt>
      <trkpt lat="46.77994" lon="15.54776">
        <ele>333.500241</ele>
        <time>2022-09-19T10:58:25.183Z</time>
      </trkpt>
      <trkpt lat="46.78005" lon="15.54772">
        <ele>333.519911</ele>
        <time>2022-09-19T10:58:28.214Z</time>
      </trkpt>
      <trkpt lat="46.78017" lon="15.5477">
        <ele>333.540236</ele>
        <time>2022-09-19T10:58:31.196Z</time>
      </trkpt>
      <trkpt lat="46.78028" lon="15.54774">
        <ele>333.559567</ele>
        <time>2022-09-19T10:58:34.174Z</time>
      </trkpt>
      <trkpt lat="46.78035" lon="15.54784">
        <ele>333.576607</ele>
        <time>2022-09-19T10:58:37.205Z</time>
      </trkpt>
      <trkpt lat="46.78044" lon="15.54792">
        <ele>333.59527</ele>
        <time>2022-09-19T10:58:40.190Z</time>
      </trkpt>
      <trkpt lat="46.78054" lon="15.54793">
        <ele>333.611835</ele>
        <time>2022-09-19T10:58:42.203Z</time>
      </trkpt>
      <trkpt lat="46.78067" lon="15.54791">
        <ele>333.634692</ele>
        <time>2022-09-19T10:58:45.205Z</time>
      </trkpt>
      <trkpt lat="46.78079" lon="15.54789">
        <ele>333.655647</ele>
        <time>2022-09-19T10:58:48.190Z</time>
      </trkpt>
      <trkpt lat="46.7809" lon="15.54784">
        <ele>333.67646</ele>
        <time>2022-09-19T10:58:51.183Z</time>
      </trkpt>
      <trkpt lat="46.78101" lon="15.5478">
        <ele>333.69681</ele>
        <time>2022-09-19T10:58:54.186Z</time>
      </trkpt>
      <trkpt lat="46.78114" lon="15.54776">
        <ele>333.719052</ele>
        <time>2022-09-19T10:58:57.202Z</time>
      </trkpt>
      <trkpt lat="46.78124" lon="15.54771">
        <ele>333.736634</ele>
        <time>2022-09-19T10:58:59.179Z</time>
      </trkpt>
      <trkpt lat="46.78134" lon="15.54762">
        <ele>333.665348</ele>
        <time>2022-09-19T10:59:01.179Z</time>
      </trkpt>
      <trkpt lat="46.7814" lon="15.54744">
        <ele>333.541144</ele>
        <time>2022-09-19T10:59:03.192Z</time>
      </trkpt>
      <trkpt lat="46.78144" lon="15.54727">
        <ele>333.431521</ele>
        <time>2022-09-19T10:59:05.172Z</time>
      </trkpt>
      <trkpt lat="46.78145" lon="15.54706">
        <ele>333.309939</ele>
        <time>2022-09-19T10:59:07.173Z</time>
      </trkpt>
      <trkpt lat="46.78145" lon="15.5468">
        <ele>333.151305</ele>
        <time>2022-09-19T10:59:09.211Z</time>
      </trkpt>
      <trkpt lat="46.78145" lon="15.54655">
        <ele>333.005861</ele>
        <time>2022-09-19T10:59:11.182Z</time>
      </trkpt>
      <trkpt lat="46.78147" lon="15.54638">
        <ele>332.900068</ele>
        <time>2022-09-19T10:59:13.247Z</time>
      </trkpt>
      <trkpt lat="46.78151" lon="15.54621">
        <ele>332.790773</ele>
        <time>2022-09-19T10:59:16.179Z</time>
      </trkpt>
      <trkpt lat="46.78155" lon="15.54607">
        <ele>332.702719</ele>
        <time>2022-09-19T10:59:21.196Z</time>
      </trkpt>
      <trkpt lat="46.78164" lon="15.54601">
        <ele>332.615994</ele>
        <time>2022-09-19T10:59:28.191Z</time>
      </trkpt>
      <trkpt lat="46.78173" lon="15.54599">
        <ele>332.533915</ele>
        <time>2022-09-19T10:59:32.257Z</time>
      </trkpt>
      <trkpt lat="46.78185" lon="15.54596">
        <ele>332.430948</ele>
        <time>2022-09-19T10:59:36.168Z</time>
      </trkpt>
      <trkpt lat="46.78197" lon="15.54597">
        <ele>332.32411</ele>
        <time>2022-09-19T10:59:40.196Z</time>
      </trkpt>
      <trkpt lat="46.78206" lon="15.54608">
        <ele>332.223477</ele>
        <time>2022-09-19T10:59:44.193Z</time>
      </trkpt>
      <trkpt lat="46.78214" lon="15.54621">
        <ele>332.383588</ele>
        <time>2022-09-19T10:59:48.244Z</time>
      </trkpt>
      <trkpt lat="46.78224" lon="15.54621">
        <ele>332.731547</ele>
        <time>2022-09-19T10:59:51.190Z</time>
      </trkpt>
      <trkpt lat="46.78226" lon="15.54607">
        <ele>333.061919</ele>
        <time>2022-09-19T10:59:55.180Z</time>
      </trkpt>
      <trkpt lat="46.78226" lon="15.54589">
        <ele>333.49751</ele>
        <time>2022-09-19T10:59:58.185Z</time>
      </trkpt>
      <trkpt lat="46.78229" lon="15.54573">
        <ele>333.912009</ele>
        <time>2022-09-19T11:00:01.197Z</time>
      </trkpt>
      <trkpt lat="46.7823" lon="15.54556">
        <ele>334.320117</ele>
        <time>2022-09-19T11:00:04.194Z</time>
      </trkpt>
      <trkpt lat="46.7823" lon="15.5454">
        <ele>334.696238</ele>
        <time>2022-09-19T11:00:07.196Z</time>
      </trkpt>
      <trkpt lat="46.78231" lon="15.54526">
        <ele>335.048128</ele>
        <time>2022-09-19T11:00:10.205Z</time>
      </trkpt>
      <trkpt lat="46.78231" lon="15.54512">
        <ele>335.382711</ele>
        <time>2022-09-19T11:00:13.181Z</time>
      </trkpt>
      <trkpt lat="46.78233" lon="15.54498">
        <ele>335.720232</ele>
        <time>2022-09-19T11:00:16.182Z</time>
      </trkpt>
      <trkpt lat="46.78234" lon="15.54483">
        <ele>336.073609</ele>
        <time>2022-09-19T11:00:19.190Z</time>
      </trkpt>
      <trkpt lat="46.78236" lon="15.5447">
        <ele>336.405916</ele>
        <time>2022-09-19T11:00:22.193Z</time>
      </trkpt>
      <trkpt lat="46.78238" lon="15.54456">
        <ele>336.732786</ele>
        <time>2022-09-19T11:00:25.198Z</time>
      </trkpt>
      <trkpt lat="46.78239" lon="15.54441">
        <ele>337.104953</ele>
        <time>2022-09-19T11:00:28.223Z</time>
      </trkpt>
      <trkpt lat="46.78239" lon="15.54426">
        <ele>337.470797</ele>
        <time>2022-09-19T11:00:31.190Z</time>
      </trkpt>
      <trkpt lat="46.78239" lon="15.5441">
        <ele>337.841567</ele>
        <time>2022-09-19T11:00:34.210Z</time>
      </trkpt>
      <trkpt lat="46.78238" lon="15.54396">
        <ele>338.198744</ele>
        <time>2022-09-19T11:00:37.195Z</time>
      </trkpt>
      <trkpt lat="46.78237" lon="15.54382">
        <ele>338.5339</ele>
        <time>2022-09-19T11:00:40.201Z</time>
      </trkpt>
      <trkpt lat="46.78236" lon="15.54368">
        <ele>338.939119</ele>
        <time>2022-09-19T11:00:43.195Z</time>
      </trkpt>
      <trkpt lat="46.78235" lon="15.54352">
        <ele>339.407931</ele>
        <time>2022-09-19T11:00:46.206Z</time>
      </trkpt>
      <trkpt lat="46.78235" lon="15.54335">
        <ele>339.89682</ele>
        <time>2022-09-19T11:00:49.207Z</time>
      </trkpt>
      <trkpt lat="46.78234" lon="15.54318">
        <ele>340.370083</ele>
        <time>2022-09-19T11:00:52.231Z</time>
      </trkpt>
      <trkpt lat="46.78233" lon="15.54302">
        <ele>340.851538</ele>
        <time>2022-09-19T11:00:55.192Z</time>
      </trkpt>
      <trkpt lat="46.78232" lon="15.54284">
        <ele>341.351549</ele>
        <time>2022-09-19T11:00:58.185Z</time>
      </trkpt>
      <trkpt lat="46.78233" lon="15.54267">
        <ele>341.847311</ele>
        <time>2022-09-19T11:01:01.189Z</time>
      </trkpt>
      <trkpt lat="46.78231" lon="15.54249">
        <ele>342.381125</ele>
        <time>2022-09-19T11:01:04.234Z</time>
      </trkpt>
      <trkpt lat="46.78228" lon="15.54231">
        <ele>342.914186</ele>
        <time>2022-09-19T11:01:07.234Z</time>
      </trkpt>
      <trkpt lat="46.78229" lon="15.54214">
        <ele>343.400442</ele>
        <time>2022-09-19T11:01:10.196Z</time>
      </trkpt>
      <trkpt lat="46.78229" lon="15.54195">
        <ele>343.934702</ele>
        <time>2022-09-19T11:01:13.194Z</time>
      </trkpt>
      <trkpt lat="46.78227" lon="15.54177">
        <ele>344.459375</ele>
        <time>2022-09-19T11:01:16.221Z</time>
      </trkpt>
      <trkpt lat="46.78223" lon="15.5416">
        <ele>344.984578</ele>
        <time>2022-09-19T11:01:19.184Z</time>
      </trkpt>
      <trkpt lat="46.7822" lon="15.54143">
        <ele>345.489835</ele>
        <time>2022-09-19T11:01:22.185Z</time>
      </trkpt>
      <trkpt lat="46.78217" lon="15.54127">
        <ele>345.967397</ele>
        <time>2022-09-19T11:01:25.204Z</time>
      </trkpt>
      <trkpt lat="46.78215" lon="15.54108">
        <ele>345.94868</ele>
        <time>2022-09-19T11:01:28.184Z</time>
      </trkpt>
      <trkpt lat="46.78216" lon="15.54094">
        <ele>345.874462</ele>
        <time>2022-09-19T11:01:30.185Z</time>
      </trkpt>
      <trkpt lat="46.78218" lon="15.54078">
        <ele>345.795035</ele>
        <time>2022-09-19T11:01:32.243Z</time>
      </trkpt>
      <trkpt lat="46.78217" lon="15.54065">
        <ele>345.725562</ele>
        <time>2022-09-19T11:01:34.194Z</time>
      </trkpt>
      <trkpt lat="46.78215" lon="15.54051">
        <ele>345.65419</ele>
        <time>2022-09-19T11:01:36.183Z</time>
      </trkpt>
      <trkpt lat="46.78214" lon="15.54038">
        <ele>345.583934</ele>
        <time>2022-09-19T11:01:38.185Z</time>
      </trkpt>
      <trkpt lat="46.7821" lon="15.5402">
        <ele>345.489776</ele>
        <time>2022-09-19T11:01:41.187Z</time>
      </trkpt>
      <trkpt lat="46.78206" lon="15.54004">
        <ele>345.402578</ele>
        <time>2022-09-19T11:01:44.201Z</time>
      </trkpt>
      <trkpt lat="46.78201" lon="15.5399">
        <ele>345.320884</ele>
        <time>2022-09-19T11:01:47.192Z</time>
      </trkpt>
      <trkpt lat="46.78194" lon="15.53976">
        <ele>345.235985</ele>
        <time>2022-09-19T11:01:50.194Z</time>
      </trkpt>
      <trkpt lat="46.7819" lon="15.53962">
        <ele>345.156846</ele>
        <time>2022-09-19T11:01:53.190Z</time>
      </trkpt>
      <trkpt lat="46.78186" lon="15.53946">
        <ele>345.068063</ele>
        <time>2022-09-19T11:01:56.196Z</time>
      </trkpt>
      <trkpt lat="46.78181" lon="15.53931">
        <ele>344.984875</ele>
        <time>2022-09-19T11:01:59.189Z</time>
      </trkpt>
      <trkpt lat="46.78176" lon="15.53918">
        <ele>344.907846</ele>
        <time>2022-09-19T11:02:02.224Z</time>
      </trkpt>
      <trkpt lat="46.7817" lon="15.53907">
        <ele>344.83648</ele>
        <time>2022-09-19T11:02:05.189Z</time>
      </trkpt>
      <trkpt lat="46.78165" lon="15.53895">
        <ele>344.763674</ele>
        <time>2022-09-19T11:02:08.180Z</time>
      </trkpt>
      <trkpt lat="46.7816" lon="15.53881">
        <ele>344.655902</ele>
        <time>2022-09-19T11:02:11.192Z</time>
      </trkpt>
      <trkpt lat="46.78154" lon="15.53869">
        <ele>344.204526</ele>
        <time>2022-09-19T11:02:14.193Z</time>
      </trkpt>
      <trkpt lat="46.78147" lon="15.53856">
        <ele>343.730541</ele>
        <time>2022-09-19T11:02:18.191Z</time>
      </trkpt>
      <trkpt lat="46.78142" lon="15.53844">
        <ele>343.305983</ele>
        <time>2022-09-19T11:02:22.192Z</time>
      </trkpt>
      <trkpt lat="46.78147" lon="15.5383">
        <ele>342.835467</ele>
        <time>2022-09-19T11:02:29.185Z</time>
      </trkpt>
      <trkpt lat="46.78155" lon="15.5382">
        <ele>342.366328</ele>
        <time>2022-09-19T11:02:36.181Z</time>
      </trkpt>
      <trkpt lat="46.78156" lon="15.53806">
        <ele>341.950352</ele>
        <time>2022-09-19T11:02:41.188Z</time>
      </trkpt>
      <trkpt lat="46.78166" lon="15.53795">
        <ele>341.388918</ele>
        <time>2022-09-19T11:02:46.195Z</time>
      </trkpt>
      <trkpt lat="46.78169" lon="15.53782">
        <ele>340.978327</ele>
        <time>2022-09-19T11:02:55.217Z</time>
      </trkpt>
      <trkpt lat="46.7818" lon="15.53789">
        <ele>340.455168</ele>
        <time>2022-09-19T11:07:05.182Z</time>
      </trkpt>
      <trkpt lat="46.78154" lon="15.53816">
        <ele>339.05068</ele>
        <time>2022-09-19T11:08:35.198Z</time>
      </trkpt>
      <trkpt lat="46.78148" lon="15.53826">
        <ele>338.654853</ele>
        <time>2022-09-19T11:08:41.201Z</time>
      </trkpt>
      <trkpt lat="46.78138" lon="15.53822">
        <ele>338.195979</ele>
        <time>2022-09-19T11:08:48.178Z</time>
      </trkpt>
      <trkpt lat="46.78128" lon="15.53818">
        <ele>337.756995</ele>
        <time>2022-09-19T11:08:53.182Z</time>
      </trkpt>
      <trkpt lat="46.7812" lon="15.53811">
        <ele>337.322875</ele>
        <time>2022-09-19T11:08:58.193Z</time>
      </trkpt>
      <trkpt lat="46.78127" lon="15.53823">
        <ele>336.836654</ele>
        <time>2022-09-19T11:09:39.175Z</time>
      </trkpt>
      <trkpt lat="46.78134" lon="15.53835">
        <ele>336.571091</ele>
        <time>2022-09-19T11:09:43.223Z</time>
      </trkpt>
      <trkpt lat="46.78137" lon="15.53848">
        <ele>336.378443</ele>
        <time>2022-09-19T11:09:46.227Z</time>
      </trkpt>
      <trkpt lat="46.7813" lon="15.53858">
        <ele>336.168914</ele>
        <time>2022-09-19T11:09:50.194Z</time>
      </trkpt>
      <trkpt lat="46.78118" lon="15.53866">
        <ele>335.904247</ele>
        <time>2022-09-19T11:09:53.187Z</time>
      </trkpt>
      <trkpt lat="46.78107" lon="15.53874">
        <ele>335.655595</ele>
        <time>2022-09-19T11:09:56.181Z</time>
      </trkpt>
      <trkpt lat="46.78098" lon="15.53887">
        <ele>335.400339</ele>
        <time>2022-09-19T11:09:59.171Z</time>
      </trkpt>
      <trkpt lat="46.7809" lon="15.53898">
        <ele>335.162335</ele>
        <time>2022-09-19T11:10:02.181Z</time>
      </trkpt>
      <trkpt lat="46.78081" lon="15.53907">
        <ele>334.942935</ele>
        <time>2022-09-19T11:10:05.312Z</time>
      </trkpt>
      <trkpt lat="46.78073" lon="15.53914">
        <ele>334.739067</ele>
        <time>2022-09-19T11:10:08.184Z</time>
      </trkpt>
      <trkpt lat="46.78064" lon="15.53918">
        <ele>334.542193</ele>
        <time>2022-09-19T11:10:12.181Z</time>
      </trkpt>
      <trkpt lat="46.78067" lon="15.53895">
        <ele>334.201041</ele>
        <time>2022-09-19T11:12:47.193Z</time>
      </trkpt>
      <trkpt lat="46.78075" lon="15.53888">
        <ele>334.006491</ele>
        <time>2022-09-19T11:12:51.167Z</time>
      </trkpt>
      <trkpt lat="46.78085" lon="15.53881">
        <ele>333.792465</ele>
        <time>2022-09-19T11:12:56.186Z</time>
      </trkpt>
      <trkpt lat="46.78093" lon="15.53873">
        <ele>333.582961</ele>
        <time>2022-09-19T11:13:00.182Z</time>
      </trkpt>
      <trkpt lat="46.78103" lon="15.53866">
        <ele>333.365129</ele>
        <time>2022-09-19T11:13:04.186Z</time>
      </trkpt>
      <trkpt lat="46.78111" lon="15.53861">
        <ele>333.177665</ele>
        <time>2022-09-19T11:13:08.227Z</time>
      </trkpt>
      <trkpt lat="46.78121" lon="15.53855">
        <ele>332.798941</ele>
        <time>2022-09-19T11:13:13.180Z</time>
      </trkpt>
      <trkpt lat="46.7813" lon="15.53851">
        <ele>332.174508</ele>
        <time>2022-09-19T11:13:19.253Z</time>
      </trkpt>
      <trkpt lat="46.78128" lon="15.53838">
        <ele>331.5942</ele>
        <time>2022-09-19T11:13:24.189Z</time>
      </trkpt>
      <trkpt lat="46.78125" lon="15.53825">
        <ele>331.02039</ele>
        <time>2022-09-19T11:13:32.190Z</time>
      </trkpt>
      <trkpt lat="46.7812" lon="15.53812">
        <ele>330.361367</ele>
        <time>2022-09-19T11:13:38.178Z</time>
      </trkpt>
      <trkpt lat="46.78116" lon="15.53799">
        <ele>329.759663</ele>
        <time>2022-09-19T11:13:45.162Z</time>
      </trkpt>
      <trkpt lat="46.78112" lon="15.5378">
        <ele>328.879303</ele>
        <time>2022-09-19T11:16:18.195Z</time>
      </trkpt>
      <trkpt lat="46.78093" lon="15.53756">
        <ele>327.282627</ele>
        <time>2022-09-19T11:18:06.192Z</time>
      </trkpt>
      <trkpt lat="46.78102" lon="15.5375">
        <ele>326.672223</ele>
        <time>2022-09-19T11:18:10.253Z</time>
      </trkpt>
      <trkpt lat="46.78108" lon="15.5376">
        <ele>326.081849</ele>
        <time>2022-09-19T11:18:18.215Z</time>
      </trkpt>
      <trkpt lat="46.78103" lon="15.53772">
        <ele>325.48333</ele>
        <time>2022-09-19T11:30:11.210Z</time>
      </trkpt>
      <trkpt lat="46.78099" lon="15.5376">
        <ele>324.896213</ele>
        <time>2022-09-19T11:30:23.183Z</time>
      </trkpt>
      <trkpt lat="46.78094" lon="15.53747">
        <ele>324.260213</ele>
        <time>2022-09-19T11:30:31.190Z</time>
      </trkpt>
      <trkpt lat="46.78092" lon="15.53733">
        <ele>323.663918</ele>
        <time>2022-09-19T11:30:41.193Z</time>
      </trkpt>
      <trkpt lat="46.78106" lon="15.53709">
        <ele>322.304849</ele>
        <time>2022-09-19T11:40:33.207Z</time>
      </trkpt>
      <trkpt lat="46.78115" lon="15.53703">
        <ele>321.711027</ele>
        <time>2022-09-19T11:40:36.197Z</time>
      </trkpt>
      <trkpt lat="46.78124" lon="15.53694">
        <ele>321.76022</ele>
        <time>2022-09-19T11:40:39.200Z</time>
      </trkpt>
      <trkpt lat="46.78132" lon="15.53685">
        <ele>321.80827</ele>
        <time>2022-09-19T11:40:42.198Z</time>
      </trkpt>
      <trkpt lat="46.78143" lon="15.53679">
        <ele>321.860349</ele>
        <time>2022-09-19T11:40:45.203Z</time>
      </trkpt>
      <trkpt lat="46.78153" lon="15.53671">
        <ele>321.913999</ele>
        <time>2022-09-19T11:40:48.199Z</time>
      </trkpt>
      <trkpt lat="46.78162" lon="15.53661">
        <ele>321.965615</ele>
        <time>2022-09-19T11:40:51.200Z</time>
      </trkpt>
      <trkpt lat="46.78172" lon="15.53652">
        <ele>322.020451</ele>
        <time>2022-09-19T11:40:54.231Z</time>
      </trkpt>
      <trkpt lat="46.78182" lon="15.53642">
        <ele>322.076174</ele>
        <time>2022-09-19T11:40:57.191Z</time>
      </trkpt>
      <trkpt lat="46.78191" lon="15.53632">
        <ele>322.131135</ele>
        <time>2022-09-19T11:41:00.195Z</time>
      </trkpt>
      <trkpt lat="46.78203" lon="15.53624">
        <ele>322.190581</ele>
        <time>2022-09-19T11:41:03.205Z</time>
      </trkpt>
      <trkpt lat="46.78211" lon="15.53619">
        <ele>322.233001</ele>
        <time>2022-09-19T11:41:05.240Z</time>
      </trkpt>
      <trkpt lat="46.78224" lon="15.53612">
        <ele>322.293337</ele>
        <time>2022-09-19T11:41:08.233Z</time>
      </trkpt>
      <trkpt lat="46.78232" lon="15.53608">
        <ele>322.334978</ele>
        <time>2022-09-19T11:41:10.203Z</time>
      </trkpt>
      <trkpt lat="46.78241" lon="15.53604">
        <ele>322.379891</ele>
        <time>2022-09-19T11:41:12.182Z</time>
      </trkpt>
      <trkpt lat="46.78254" lon="15.53599">
        <ele>322.439641</ele>
        <time>2022-09-19T11:41:15.213Z</time>
      </trkpt>
      <trkpt lat="46.78266" lon="15.53592">
        <ele>322.501933</ele>
        <time>2022-09-19T11:41:18.233Z</time>
      </trkpt>
      <trkpt lat="46.78276" lon="15.53582">
        <ele>322.48609</ele>
        <time>2022-09-19T11:41:21.190Z</time>
      </trkpt>
      <trkpt lat="46.78284" lon="15.53574">
        <ele>322.321696</ele>
        <time>2022-09-19T11:41:25.193Z</time>
      </trkpt>
      <trkpt lat="46.78296" lon="15.53569">
        <ele>322.113618</ele>
        <time>2022-09-19T11:41:28.194Z</time>
      </trkpt>
      <trkpt lat="46.78308" lon="15.53564">
        <ele>321.890983</ele>
        <time>2022-09-19T11:41:31.206Z</time>
      </trkpt>
      <trkpt lat="46.78319" lon="15.53557">
        <ele>321.684298</ele>
        <time>2022-09-19T11:41:34.197Z</time>
      </trkpt>
      <trkpt lat="46.7833" lon="15.5355">
        <ele>321.482176</ele>
        <time>2022-09-19T11:41:37.229Z</time>
      </trkpt>
      <trkpt lat="46.78343" lon="15.53544">
        <ele>321.245487</ele>
        <time>2022-09-19T11:41:40.196Z</time>
      </trkpt>
      <trkpt lat="46.78355" lon="15.53537">
        <ele>321.024941</ele>
        <time>2022-09-19T11:41:43.196Z</time>
      </trkpt>
      <trkpt lat="46.78366" lon="15.53529">
        <ele>320.805015</ele>
        <time>2022-09-19T11:41:46.185Z</time>
      </trkpt>
      <trkpt lat="46.78377" lon="15.53518">
        <ele>320.592819</ele>
        <time>2022-09-19T11:41:49.237Z</time>
      </trkpt>
      <trkpt lat="46.78389" lon="15.53515">
        <ele>320.373801</ele>
        <time>2022-09-19T11:41:52.207Z</time>
      </trkpt>
      <trkpt lat="46.784" lon="15.53513">
        <ele>320.177587</ele>
        <time>2022-09-19T11:41:55.227Z</time>
      </trkpt>
      <trkpt lat="46.78409" lon="15.53508">
        <ele>320.010522</ele>
        <time>2022-09-19T11:41:58.182Z</time>
      </trkpt>
      <trkpt lat="46.7842" lon="15.53503">
        <ele>319.815129</ele>
        <time>2022-09-19T11:42:01.191Z</time>
      </trkpt>
      <trkpt lat="46.78431" lon="15.53497">
        <ele>319.620911</ele>
        <time>2022-09-19T11:42:04.197Z</time>
      </trkpt>
      <trkpt lat="46.78439" lon="15.53491">
        <ele>319.453623</ele>
        <time>2022-09-19T11:42:08.190Z</time>
      </trkpt>
      <trkpt lat="46.78447" lon="15.53469">
        <ele>318.792827</ele>
        <time>2022-09-19T11:42:26.207Z</time>
      </trkpt>
      <trkpt lat="46.78449" lon="15.53454">
        <ele>318.361272</ele>
        <time>2022-09-19T11:42:29.239Z</time>
      </trkpt>
      <trkpt lat="46.78452" lon="15.53434">
        <ele>317.793088</ele>
        <time>2022-09-19T11:42:32.190Z</time>
      </trkpt>
      <trkpt lat="46.78455" lon="15.53417">
        <ele>317.286771</ele>
        <time>2022-09-19T11:42:35.177Z</time>
      </trkpt>
      <trkpt lat="46.78456" lon="15.534">
        <ele>316.811578</ele>
        <time>2022-09-19T11:42:38.188Z</time>
      </trkpt>
      <trkpt lat="46.78458" lon="15.53383">
        <ele>316.337956</ele>
        <time>2022-09-19T11:42:41.182Z</time>
      </trkpt>
      <trkpt lat="46.78459" lon="15.53367">
        <ele>315.899688</ele>
        <time>2022-09-19T11:42:44.193Z</time>
      </trkpt>
      <trkpt lat="46.78459" lon="15.53353">
        <ele>315.487838</ele>
        <time>2022-09-19T11:42:47.192Z</time>
      </trkpt>
      <trkpt lat="46.78459" lon="15.53338">
        <ele>315.073025</ele>
        <time>2022-09-19T11:42:50.173Z</time>
      </trkpt>
      <trkpt lat="46.78459" lon="15.53322">
        <ele>314.61768</ele>
        <time>2022-09-19T11:42:53.180Z</time>
      </trkpt>
      <trkpt lat="46.7846" lon="15.53307">
        <ele>314.187443</ele>
        <time>2022-09-19T11:42:56.187Z</time>
      </trkpt>
      <trkpt lat="46.78463" lon="15.53292">
        <ele>313.762096</ele>
        <time>2022-09-19T11:42:59.197Z</time>
      </trkpt>
      <trkpt lat="46.78464" lon="15.53275">
        <ele>313.293523</ele>
        <time>2022-09-19T11:43:02.194Z</time>
      </trkpt>
      <trkpt lat="46.78466" lon="15.53262">
        <ele>312.904749</ele>
        <time>2022-09-19T11:43:05.188Z</time>
      </trkpt>
      <trkpt lat="46.78471" lon="15.53251">
        <ele>312.530271</ele>
        <time>2022-09-19T11:43:08.181Z</time>
      </trkpt>
      <trkpt lat="46.78478" lon="15.5324">
        <ele>312.128007</ele>
        <time>2022-09-19T11:43:11.267Z</time>
      </trkpt>
      <trkpt lat="46.78485" lon="15.53232">
        <ele>312.23143</ele>
        <time>2022-09-19T11:43:14.206Z</time>
      </trkpt>
      <trkpt lat="46.78493" lon="15.53224">
        <ele>312.402021</ele>
        <time>2022-09-19T11:43:17.238Z</time>
      </trkpt>
      <trkpt lat="46.78501" lon="15.53216">
        <ele>312.57426</ele>
        <time>2022-09-19T11:43:20.199Z</time>
      </trkpt>
      <trkpt lat="46.7851" lon="15.53209">
        <ele>312.749503</ele>
        <time>2022-09-19T11:43:23.199Z</time>
      </trkpt>
      <trkpt lat="46.78518" lon="15.532">
        <ele>312.928596</ele>
        <time>2022-09-19T11:43:27.179Z</time>
      </trkpt>
      <trkpt lat="46.78526" lon="15.5319">
        <ele>313.111074</ele>
        <time>2022-09-19T11:43:31.227Z</time>
      </trkpt>
      <trkpt lat="46.7853" lon="15.53175">
        <ele>313.31177</ele>
        <time>2022-09-19T11:43:35.216Z</time>
      </trkpt>
      <trkpt lat="46.78529" lon="15.53159">
        <ele>313.509644</ele>
        <time>2022-09-19T11:43:39.195Z</time>
      </trkpt>
      <trkpt lat="46.78538" lon="15.53133">
        <ele>313.854786</ele>
        <time>2022-09-19T11:44:12.224Z</time>
      </trkpt>
      <trkpt lat="46.78546" lon="15.53125">
        <ele>314.033104</ele>
        <time>2022-09-19T11:44:16.202Z</time>
      </trkpt>
      <trkpt lat="46.78554" lon="15.53117">
        <ele>314.196386</ele>
        <time>2022-09-19T11:44:20.187Z</time>
      </trkpt>
      <trkpt lat="46.7856" lon="15.53108">
        <ele>314.356476</ele>
        <time>2022-09-19T11:44:24.261Z</time>
      </trkpt>
      <trkpt lat="46.78568" lon="15.531">
        <ele>314.521214</ele>
        <time>2022-09-19T11:44:27.175Z</time>
      </trkpt>
      <trkpt lat="46.78577" lon="15.5309">
        <ele>314.721978</ele>
        <time>2022-09-19T11:44:31.183Z</time>
      </trkpt>
      <trkpt lat="46.78587" lon="15.53092">
        <ele>314.911688</ele>
        <time>2022-09-19T11:44:36.202Z</time>
      </trkpt>
      <trkpt lat="46.78593" lon="15.53106">
        <ele>315.114155</ele>
        <time>2022-09-19T11:44:41.205Z</time>
      </trkpt>
      <trkpt lat="46.786" lon="15.53119">
        <ele>315.228625</ele>
        <time>2022-09-19T11:44:45.200Z</time>
      </trkpt>
      <trkpt lat="46.78606" lon="15.53133">
        <ele>314.973836</ele>
        <time>2022-09-19T11:44:49.186Z</time>
      </trkpt>
      <trkpt lat="46.78612" lon="15.53146">
        <ele>314.729057</ele>
        <time>2022-09-19T11:44:53.199Z</time>
      </trkpt>
      <trkpt lat="46.78621" lon="15.53155">
        <ele>314.494354</ele>
        <time>2022-09-19T11:44:56.204Z</time>
      </trkpt>
      <trkpt lat="46.78629" lon="15.53165">
        <ele>314.252419</ele>
        <time>2022-09-19T11:44:59.193Z</time>
      </trkpt>
      <trkpt lat="46.78635" lon="15.53176">
        <ele>314.035921</ele>
        <time>2022-09-19T11:45:02.200Z</time>
      </trkpt>
      <trkpt lat="46.78643" lon="15.53187">
        <ele>313.790043</ele>
        <time>2022-09-19T11:45:05.205Z</time>
      </trkpt>
      <trkpt lat="46.78651" lon="15.53196">
        <ele>313.55805</ele>
        <time>2022-09-19T11:45:08.240Z</time>
      </trkpt>
      <trkpt lat="46.78661" lon="15.53202">
        <ele>313.31148</ele>
        <time>2022-09-19T11:45:11.197Z</time>
      </trkpt>
      <trkpt lat="46.7867" lon="15.53206">
        <ele>313.094559</ele>
        <time>2022-09-19T11:45:14.241Z</time>
      </trkpt>
      <trkpt lat="46.7868" lon="15.53208">
        <ele>312.882004</ele>
        <time>2022-09-19T11:45:17.185Z</time>
      </trkpt>
      <trkpt lat="46.7869" lon="15.5321">
        <ele>312.653465</ele>
        <time>2022-09-19T11:45:20.241Z</time>
      </trkpt>
      <trkpt lat="46.787" lon="15.53212">
        <ele>312.415315</ele>
        <time>2022-09-19T11:45:23.207Z</time>
      </trkpt>
      <trkpt lat="46.78711" lon="15.53211">
        <ele>312.169604</ele>
        <time>2022-09-19T11:45:26.181Z</time>
      </trkpt>
      <trkpt lat="46.7872" lon="15.53209">
        <ele>311.962071</ele>
        <time>2022-09-19T11:45:29.198Z</time>
      </trkpt>
      <trkpt lat="46.78732" lon="15.53209">
        <ele>311.689498</ele>
        <time>2022-09-19T11:45:33.202Z</time>
      </trkpt>
      <trkpt lat="46.78742" lon="15.5321">
        <ele>311.479187</ele>
        <time>2022-09-19T11:45:36.200Z</time>
      </trkpt>
      <trkpt lat="46.78751" lon="15.53207">
        <ele>311.270311</ele>
        <time>2022-09-19T11:45:39.200Z</time>
      </trkpt>
      <trkpt lat="46.78762" lon="15.53205">
        <ele>311.464863</ele>
        <time>2022-09-19T11:45:43.225Z</time>
      </trkpt>
      <trkpt lat="46.78773" lon="15.53207">
        <ele>311.766675</ele>
        <time>2022-09-19T11:45:47.218Z</time>
      </trkpt>
      <trkpt lat="46.78784" lon="15.53203">
        <ele>312.059473</ele>
        <time>2022-09-19T11:45:51.208Z</time>
      </trkpt>
      <trkpt lat="46.78794" lon="15.53199">
        <ele>312.35215</ele>
        <time>2022-09-19T11:45:55.196Z</time>
      </trkpt>
      <trkpt lat="46.78804" lon="15.53194">
        <ele>312.609301</ele>
        <time>2022-09-19T11:45:58.182Z</time>
      </trkpt>
      <trkpt lat="46.78815" lon="15.53193">
        <ele>312.898716</ele>
        <time>2022-09-19T11:46:02.197Z</time>
      </trkpt>
      <trkpt lat="46.78824" lon="15.53188">
        <ele>313.153377</ele>
        <time>2022-09-19T11:46:05.206Z</time>
      </trkpt>
      <trkpt lat="46.78833" lon="15.53183">
        <ele>313.410538</ele>
        <time>2022-09-19T11:46:08.198Z</time>
      </trkpt>
      <trkpt lat="46.78844" lon="15.53178">
        <ele>313.729752</ele>
        <time>2022-09-19T11:46:12.208Z</time>
      </trkpt>
      <trkpt lat="46.78856" lon="15.53176">
        <ele>314.046001</ele>
        <time>2022-09-19T11:46:15.200Z</time>
      </trkpt>
      <trkpt lat="46.78866" lon="15.53176">
        <ele>314.307224</ele>
        <time>2022-09-19T11:46:18.199Z</time>
      </trkpt>
      <trkpt lat="46.78876" lon="15.53176">
        <ele>314.555237</ele>
        <time>2022-09-19T11:46:21.198Z</time>
      </trkpt>
      <trkpt lat="46.78887" lon="15.53175">
        <ele>314.848368</ele>
        <time>2022-09-19T11:46:25.197Z</time>
      </trkpt>
      <trkpt lat="46.78899" lon="15.53178">
        <ele>315.165827</ele>
        <time>2022-09-19T11:46:29.201Z</time>
      </trkpt>
      <trkpt lat="46.78909" lon="15.5318">
        <ele>315.430309</ele>
        <time>2022-09-19T11:46:32.199Z</time>
      </trkpt>
      <trkpt lat="46.7892" lon="15.53182">
        <ele>315.738485</ele>
        <time>2022-09-19T11:46:35.196Z</time>
      </trkpt>
      <trkpt lat="46.78931" lon="15.53182">
        <ele>315.963277</ele>
        <time>2022-09-19T11:46:38.198Z</time>
      </trkpt>
      <trkpt lat="46.78943" lon="15.53182">
        <ele>315.926282</ele>
        <time>2022-09-19T11:46:41.207Z</time>
      </trkpt>
      <trkpt lat="46.78955" lon="15.53184">
        <ele>315.888171</ele>
        <time>2022-09-19T11:46:44.198Z</time>
      </trkpt>
      <trkpt lat="46.78966" lon="15.53184">
        <ele>315.853684</ele>
        <time>2022-09-19T11:46:47.203Z</time>
      </trkpt>
      <trkpt lat="46.78975" lon="15.53183">
        <ele>315.825402</ele>
        <time>2022-09-19T11:46:50.185Z</time>
      </trkpt>
      <trkpt lat="46.78986" lon="15.53185">
        <ele>315.790283</ele>
        <time>2022-09-19T11:46:55.205Z</time>
      </trkpt>
      <trkpt lat="46.78996" lon="15.53187">
        <ele>315.759763</ele>
        <time>2022-09-19T11:46:59.247Z</time>
      </trkpt>
      <trkpt lat="46.79007" lon="15.53189">
        <ele>315.724793</ele>
        <time>2022-09-19T11:47:03.196Z</time>
      </trkpt>
      <trkpt lat="46.79016" lon="15.53191">
        <ele>315.695632</ele>
        <time>2022-09-19T11:47:06.200Z</time>
      </trkpt>
      <trkpt lat="46.79025" lon="15.53192">
        <ele>315.66516</ele>
        <time>2022-09-19T11:47:09.169Z</time>
      </trkpt>
      <trkpt lat="46.79035" lon="15.53193">
        <ele>315.63411</ele>
        <time>2022-09-19T11:47:12.203Z</time>
      </trkpt>
      <trkpt lat="46.79045" lon="15.53192">
        <ele>315.603065</ele>
        <time>2022-09-19T11:47:15.197Z</time>
      </trkpt>
      <trkpt lat="46.79055" lon="15.53193">
        <ele>315.571354</ele>
        <time>2022-09-19T11:47:18.197Z</time>
      </trkpt>
      <trkpt lat="46.79065" lon="15.53194">
        <ele>315.540483</ele>
        <time>2022-09-19T11:47:21.231Z</time>
      </trkpt>
      <trkpt lat="46.79075" lon="15.53195">
        <ele>315.509418</ele>
        <time>2022-09-19T11:47:24.201Z</time>
      </trkpt>
      <trkpt lat="46.79084" lon="15.53194">
        <ele>315.48051</ele>
        <time>2022-09-19T11:47:27.266Z</time>
      </trkpt>
      <trkpt lat="46.79093" lon="15.53192">
        <ele>315.451247</ele>
        <time>2022-09-19T11:47:30.189Z</time>
      </trkpt>
      <trkpt lat="46.79104" lon="15.53191">
        <ele>315.419547</ele>
        <time>2022-09-19T11:47:33.203Z</time>
      </trkpt>
      <trkpt lat="46.79113" lon="15.53192">
        <ele>315.506594</ele>
        <time>2022-09-19T11:47:36.229Z</time>
      </trkpt>
      <trkpt lat="46.79126" lon="15.53193">
        <ele>315.753852</ele>
        <time>2022-09-19T11:47:40.204Z</time>
      </trkpt>
      <trkpt lat="46.79137" lon="15.53194">
        <ele>315.97412</ele>
        <time>2022-09-19T11:47:44.300Z</time>
      </trkpt>
      <trkpt lat="46.79148" lon="15.53196">
        <ele>316.174483</ele>
        <time>2022-09-19T11:47:48.183Z</time>
      </trkpt>
      <trkpt lat="46.79159" lon="15.53198">
        <ele>316.387031</ele>
        <time>2022-09-19T11:47:52.190Z</time>
      </trkpt>
      <trkpt lat="46.79167" lon="15.53206">
        <ele>316.573313</ele>
        <time>2022-09-19T11:47:57.181Z</time>
      </trkpt>
      <trkpt lat="46.79162" lon="15.53218">
        <ele>316.753749</ele>
        <time>2022-09-19T11:48:04.240Z</time>
      </trkpt>
      <trkpt lat="46.7917" lon="15.53209">
        <ele>316.948577</ele>
        <time>2022-09-19T11:48:32.203Z</time>
      </trkpt>
      <trkpt lat="46.79175" lon="15.53196">
        <ele>317.143111</ele>
        <time>2022-09-19T11:48:40.201Z</time>
      </trkpt>
      <trkpt lat="46.79177" lon="15.53183">
        <ele>317.329107</ele>
        <time>2022-09-19T11:48:45.274Z</time>
      </trkpt>
      <trkpt lat="46.7918" lon="15.5317">
        <ele>317.510376</ele>
        <time>2022-09-19T11:48:49.194Z</time>
      </trkpt>
      <trkpt lat="46.79182" lon="15.53157">
        <ele>317.684729</ele>
        <time>2022-09-19T11:48:52.206Z</time>
      </trkpt>
      <trkpt lat="46.79186" lon="15.53141">
        <ele>317.898543</ele>
        <time>2022-09-19T11:48:55.213Z</time>
      </trkpt>
      <trkpt lat="46.79189" lon="15.53125">
        <ele>318.119016</ele>
        <time>2022-09-19T11:48:58.207Z</time>
      </trkpt>
      <trkpt lat="46.79192" lon="15.5311">
        <ele>318.33185</ele>
        <time>2022-09-19T11:49:01.227Z</time>
      </trkpt>
      <trkpt lat="46.79195" lon="15.53095">
        <ele>318.537496</ele>
        <time>2022-09-19T11:49:04.198Z</time>
      </trkpt>
      <trkpt lat="46.792" lon="15.53081">
        <ele>318.744652</ele>
        <time>2022-09-19T11:49:07.188Z</time>
      </trkpt>
      <trkpt lat="46.79203" lon="15.53066">
        <ele>318.867115</ele>
        <time>2022-09-19T11:49:10.206Z</time>
      </trkpt>
      <trkpt lat="46.79206" lon="15.53052">
        <ele>318.839513</ele>
        <time>2022-09-19T11:49:13.202Z</time>
      </trkpt>
      <trkpt lat="46.79209" lon="15.53038">
        <ele>318.812709</ele>
        <time>2022-09-19T11:49:16.192Z</time>
      </trkpt>
      <trkpt lat="46.79212" lon="15.53024">
        <ele>318.786484</ele>
        <time>2022-09-19T11:49:19.198Z</time>
      </trkpt>
      <trkpt lat="46.79215" lon="15.5301">
        <ele>318.759689</ele>
        <time>2022-09-19T11:49:22.196Z</time>
      </trkpt>
      <trkpt lat="46.79219" lon="15.52996">
        <ele>318.731243</ele>
        <time>2022-09-19T11:49:25.201Z</time>
      </trkpt>
      <trkpt lat="46.79222" lon="15.52981">
        <ele>318.702373</ele>
        <time>2022-09-19T11:49:28.202Z</time>
      </trkpt>
      <trkpt lat="46.79226" lon="15.52967">
        <ele>318.674515</ele>
        <time>2022-09-19T11:49:31.190Z</time>
      </trkpt>
      <trkpt lat="46.7923" lon="15.52953">
        <ele>318.647697</ele>
        <time>2022-09-19T11:49:34.196Z</time>
      </trkpt>
      <trkpt lat="46.79233" lon="15.5294">
        <ele>318.621421</ele>
        <time>2022-09-19T11:49:37.201Z</time>
      </trkpt>
      <trkpt lat="46.79235" lon="15.52925">
        <ele>318.59357</ele>
        <time>2022-09-19T11:49:40.238Z</time>
      </trkpt>
      <trkpt lat="46.79239" lon="15.52908">
        <ele>318.562611</ele>
        <time>2022-09-19T11:49:43.185Z</time>
      </trkpt>
      <trkpt lat="46.79242" lon="15.52895">
        <ele>318.537535</ele>
        <time>2022-09-19T11:49:45.196Z</time>
      </trkpt>
      <trkpt lat="46.79245" lon="15.52882">
        <ele>318.512379</ele>
        <time>2022-09-19T11:49:47.201Z</time>
      </trkpt>
      <trkpt lat="46.79248" lon="15.52869">
        <ele>318.486756</ele>
        <time>2022-09-19T11:49:50.219Z</time>
      </trkpt>
      <trkpt lat="46.79251" lon="15.52856">
        <ele>318.461343</ele>
        <time>2022-09-19T11:49:54.196Z</time>
      </trkpt>
      <trkpt lat="46.79255" lon="15.52842">
        <ele>318.433251</ele>
        <time>2022-09-19T11:49:58.185Z</time>
      </trkpt>
      <trkpt lat="46.79258" lon="15.52824">
        <ele>318.400716</ele>
        <time>2022-09-19T11:50:02.239Z</time>
      </trkpt>
      <trkpt lat="46.79261" lon="15.5281">
        <ele>318.353588</ele>
        <time>2022-09-19T11:50:05.197Z</time>
      </trkpt>
      <trkpt lat="46.79263" lon="15.52795">
        <ele>318.301557</ele>
        <time>2022-09-19T11:50:08.197Z</time>
      </trkpt>
      <trkpt lat="46.79264" lon="15.52779">
        <ele>318.249417</ele>
        <time>2022-09-19T11:50:11.202Z</time>
      </trkpt>
      <trkpt lat="46.79264" lon="15.52763">
        <ele>318.195538</ele>
        <time>2022-09-19T11:50:14.245Z</time>
      </trkpt>
      <trkpt lat="46.79263" lon="15.52746">
        <ele>318.1366</ele>
        <time>2022-09-19T11:50:17.211Z</time>
      </trkpt>
      <trkpt lat="46.79262" lon="15.52729">
        <ele>318.078606</ele>
        <time>2022-09-19T11:50:20.190Z</time>
      </trkpt>
      <trkpt lat="46.79262" lon="15.52712">
        <ele>318.021643</ele>
        <time>2022-09-19T11:50:23.214Z</time>
      </trkpt>
      <trkpt lat="46.79261" lon="15.52695">
        <ele>317.964294</ele>
        <time>2022-09-19T11:50:26.204Z</time>
      </trkpt>
      <trkpt lat="46.7926" lon="15.52675">
        <ele>317.897135</ele>
        <time>2022-09-19T11:50:29.198Z</time>
      </trkpt>
      <trkpt lat="46.79258" lon="15.52655">
        <ele>317.829938</ele>
        <time>2022-09-19T11:50:32.200Z</time>
      </trkpt>
      <trkpt lat="46.79256" lon="15.52637">
        <ele>317.768608</ele>
        <time>2022-09-19T11:50:35.225Z</time>
      </trkpt>
      <trkpt lat="46.79254" lon="15.52619">
        <ele>317.707784</ele>
        <time>2022-09-19T11:50:38.205Z</time>
      </trkpt>
      <trkpt lat="46.79252" lon="15.52603">
        <ele>317.651965</ele>
        <time>2022-09-19T11:50:41.222Z</time>
      </trkpt>
      <trkpt lat="46.79247" lon="15.52587">
        <ele>317.592513</ele>
        <time>2022-09-19T11:50:44.193Z</time>
      </trkpt>
      <trkpt lat="46.79241" lon="15.52571">
        <ele>317.532499</ele>
        <time>2022-09-19T11:50:47.208Z</time>
      </trkpt>
      <trkpt lat="46.79235" lon="15.52558">
        <ele>317.35635</ele>
        <time>2022-09-19T11:50:50.214Z</time>
      </trkpt>
      <trkpt lat="46.79228" lon="15.52542">
        <ele>317.0852</ele>
        <time>2022-09-19T11:50:53.205Z</time>
      </trkpt>
      <trkpt lat="46.79221" lon="15.52526">
        <ele>316.807586</ele>
        <time>2022-09-19T11:50:56.206Z</time>
      </trkpt>
      <trkpt lat="46.79214" lon="15.52512">
        <ele>316.541255</ele>
        <time>2022-09-19T11:50:59.195Z</time>
      </trkpt>
      <trkpt lat="46.79207" lon="15.52497">
        <ele>316.278658</ele>
        <time>2022-09-19T11:51:02.196Z</time>
      </trkpt>
      <trkpt lat="46.792" lon="15.52483">
        <ele>316.019725</ele>
        <time>2022-09-19T11:51:05.196Z</time>
      </trkpt>
      <trkpt lat="46.79193" lon="15.52469">
        <ele>315.761428</ele>
        <time>2022-09-19T11:51:08.255Z</time>
      </trkpt>
      <trkpt lat="46.79185" lon="15.52455">
        <ele>315.494902</ele>
        <time>2022-09-19T11:51:11.200Z</time>
      </trkpt>
      <trkpt lat="46.79176" lon="15.52441">
        <ele>315.219781</ele>
        <time>2022-09-19T11:51:14.226Z</time>
      </trkpt>
      <trkpt lat="46.79169" lon="15.52427">
        <ele>314.943167</ele>
        <time>2022-09-19T11:51:17.214Z</time>
      </trkpt>
      <trkpt lat="46.79161" lon="15.52413">
        <ele>314.683317</ele>
        <time>2022-09-19T11:51:20.203Z</time>
      </trkpt>
      <trkpt lat="46.79154" lon="15.52397">
        <ele>314.402379</ele>
        <time>2022-09-19T11:51:23.196Z</time>
      </trkpt>
      <trkpt lat="46.79148" lon="15.52382">
        <ele>314.1476</ele>
        <time>2022-09-19T11:51:26.196Z</time>
      </trkpt>
      <trkpt lat="46.7914" lon="15.52371">
        <ele>313.917811</ele>
        <time>2022-09-19T11:51:30.194Z</time>
      </trkpt>
      <trkpt lat="46.79135" lon="15.52361">
        <ele>313.723127</ele>
        <time>2022-09-19T11:51:34.196Z</time>
      </trkpt>
      <trkpt lat="46.79128" lon="15.52348">
        <ele>313.629796</ele>
        <time>2022-09-19T11:51:38.187Z</time>
      </trkpt>
      <trkpt lat="46.79121" lon="15.52334">
        <ele>313.641075</ele>
        <time>2022-09-19T11:51:42.205Z</time>
      </trkpt>
      <trkpt lat="46.79114" lon="15.52322">
        <ele>313.650603</ele>
        <time>2022-09-19T11:51:45.185Z</time>
      </trkpt>
      <trkpt lat="46.79108" lon="15.52309">
        <ele>313.66107</ele>
        <time>2022-09-19T11:51:48.196Z</time>
      </trkpt>
      <trkpt lat="46.79102" lon="15.52296">
        <ele>313.671271</ele>
        <time>2022-09-19T11:51:51.194Z</time>
      </trkpt>
      <trkpt lat="46.79096" lon="15.52281">
        <ele>313.682353</ele>
        <time>2022-09-19T11:51:54.208Z</time>
      </trkpt>
      <trkpt lat="46.7909" lon="15.52266">
        <ele>313.692882</ele>
        <time>2022-09-19T11:51:57.200Z</time>
      </trkpt>
      <trkpt lat="46.79085" lon="15.52252">
        <ele>313.703639</ele>
        <time>2022-09-19T11:52:00.200Z</time>
      </trkpt>
      <trkpt lat="46.79077" lon="15.52238">
        <ele>313.715242</ele>
        <time>2022-09-19T11:52:03.203Z</time>
      </trkpt>
      <trkpt lat="46.79069" lon="15.52224">
        <ele>313.72629</ele>
        <time>2022-09-19T11:52:06.199Z</time>
      </trkpt>
      <trkpt lat="46.79062" lon="15.52212">
        <ele>313.736793</ele>
        <time>2022-09-19T11:52:09.198Z</time>
      </trkpt>
      <trkpt lat="46.79056" lon="15.52198">
        <ele>313.747423</ele>
        <time>2022-09-19T11:52:12.191Z</time>
      </trkpt>
      <trkpt lat="46.7905" lon="15.52185">
        <ele>313.757493</ele>
        <time>2022-09-19T11:52:15.211Z</time>
      </trkpt>
      <trkpt lat="46.79044" lon="15.52171">
        <ele>313.768015</ele>
        <time>2022-09-19T11:52:18.242Z</time>
      </trkpt>
      <trkpt lat="46.79038" lon="15.52161">
        <ele>313.776599</ele>
        <time>2022-09-19T11:52:20.230Z</time>
      </trkpt>
      <trkpt lat="46.79033" lon="15.5215">
        <ele>313.785269</ele>
        <time>2022-09-19T11:52:22.202Z</time>
      </trkpt>
      <trkpt lat="46.79025" lon="15.52135">
        <ele>314.194746</ele>
        <time>2022-09-19T11:52:25.193Z</time>
      </trkpt>
      <trkpt lat="46.79017" lon="15.5212">
        <ele>315.143139</ele>
        <time>2022-09-19T11:52:28.192Z</time>
      </trkpt>
      <trkpt lat="46.79009" lon="15.52105">
        <ele>316.057884</ele>
        <time>2022-09-19T11:52:31.202Z</time>
      </trkpt>
      <trkpt lat="46.79002" lon="15.5209">
        <ele>316.960297</ele>
        <time>2022-09-19T11:52:34.189Z</time>
      </trkpt>
      <trkpt lat="46.78993" lon="15.52076">
        <ele>317.855413</ele>
        <time>2022-09-19T11:52:37.174Z</time>
      </trkpt>
      <trkpt lat="46.78985" lon="15.52061">
        <ele>318.756378</ele>
        <time>2022-09-19T11:52:40.200Z</time>
      </trkpt>
      <trkpt lat="46.78977" lon="15.52047">
        <ele>319.638612</ele>
        <time>2022-09-19T11:52:43.202Z</time>
      </trkpt>
      <trkpt lat="46.78969" lon="15.52033">
        <ele>320.563337</ele>
        <time>2022-09-19T11:52:46.190Z</time>
      </trkpt>
      <trkpt lat="46.78961" lon="15.52018">
        <ele>321.470751</ele>
        <time>2022-09-19T11:52:49.201Z</time>
      </trkpt>
      <trkpt lat="46.78953" lon="15.52003">
        <ele>322.393642</ele>
        <time>2022-09-19T11:52:52.194Z</time>
      </trkpt>
      <trkpt lat="46.78945" lon="15.51989">
        <ele>323.311091</ele>
        <time>2022-09-19T11:52:55.195Z</time>
      </trkpt>
      <trkpt lat="46.78936" lon="15.51974">
        <ele>324.255102</ele>
        <time>2022-09-19T11:52:58.218Z</time>
      </trkpt>
      <trkpt lat="46.78929" lon="15.51959">
        <ele>325.151013</ele>
        <time>2022-09-19T11:53:01.195Z</time>
      </trkpt>
      <trkpt lat="46.7892" lon="15.51946">
        <ele>326.045672</ele>
        <time>2022-09-19T11:53:04.235Z</time>
      </trkpt>
      <trkpt lat="46.7891" lon="15.51933">
        <ele>326.490681</ele>
        <time>2022-09-19T11:53:07.201Z</time>
      </trkpt>
      <trkpt lat="46.78902" lon="15.51924">
        <ele>326.38919</ele>
        <time>2022-09-19T11:53:09.206Z</time>
      </trkpt>
      <trkpt lat="46.78895" lon="15.51915">
        <ele>326.29039</ele>
        <time>2022-09-19T11:53:11.201Z</time>
      </trkpt>
      <trkpt lat="46.78887" lon="15.51906">
        <ele>326.187935</ele>
        <time>2022-09-19T11:53:13.199Z</time>
      </trkpt>
      <trkpt lat="46.78879" lon="15.51899">
        <ele>326.086788</ele>
        <time>2022-09-19T11:53:15.243Z</time>
      </trkpt>
      <trkpt lat="46.78871" lon="15.51892">
        <ele>325.984493</ele>
        <time>2022-09-19T11:53:17.188Z</time>
      </trkpt>
      <trkpt lat="46.78863" lon="15.51884">
        <ele>325.887671</ele>
        <time>2022-09-19T11:53:19.203Z</time>
      </trkpt>
      <trkpt lat="46.78852" lon="15.51873">
        <ele>325.750403</ele>
        <time>2022-09-19T11:53:22.207Z</time>
      </trkpt>
      <trkpt lat="46.78843" lon="15.51862">
        <ele>325.626798</ele>
        <time>2022-09-19T11:53:25.196Z</time>
      </trkpt>
      <trkpt lat="46.78835" lon="15.51855">
        <ele>325.532243</ele>
        <time>2022-09-19T11:53:27.192Z</time>
      </trkpt>
      <trkpt lat="46.78827" lon="15.51849">
        <ele>325.436848</ele>
        <time>2022-09-19T11:53:29.191Z</time>
      </trkpt>
      <trkpt lat="46.78818" lon="15.51844">
        <ele>325.331573</ele>
        <time>2022-09-19T11:53:31.207Z</time>
      </trkpt>
      <trkpt lat="46.78807" lon="15.51839">
        <ele>325.217484</ele>
        <time>2022-09-19T11:53:33.200Z</time>
      </trkpt>
      <trkpt lat="46.78798" lon="15.51834">
        <ele>325.115147</ele>
        <time>2022-09-19T11:53:35.203Z</time>
      </trkpt>
      <trkpt lat="46.78789" lon="15.51828">
        <ele>325.01151</ele>
        <time>2022-09-19T11:53:37.225Z</time>
      </trkpt>
      <trkpt lat="46.7878" lon="15.51823">
        <ele>324.908921</ele>
        <time>2022-09-19T11:53:39.199Z</time>
      </trkpt>
      <trkpt lat="46.78771" lon="15.51819">
        <ele>324.814905</ele>
        <time>2022-09-19T11:53:41.193Z</time>
      </trkpt>
      <trkpt lat="46.78759" lon="15.51812">
        <ele>324.681159</ele>
        <time>2022-09-19T11:53:44.182Z</time>
      </trkpt>
      <trkpt lat="46.78748" lon="15.51805">
        <ele>324.321862</ele>
        <time>2022-09-19T11:53:47.228Z</time>
      </trkpt>
      <trkpt lat="46.78737" lon="15.51797">
        <ele>323.958605</ele>
        <time>2022-09-19T11:53:50.190Z</time>
      </trkpt>
      <trkpt lat="46.78724" lon="15.5179">
        <ele>323.565479</ele>
        <time>2022-09-19T11:53:53.196Z</time>
      </trkpt>
      <trkpt lat="46.78712" lon="15.51783">
        <ele>323.188507</ele>
        <time>2022-09-19T11:53:56.211Z</time>
      </trkpt>
      <trkpt lat="46.78701" lon="15.51775">
        <ele>322.820919</ele>
        <time>2022-09-19T11:53:59.206Z</time>
      </trkpt>
      <trkpt lat="46.7869" lon="15.51769">
        <ele>322.470172</ele>
        <time>2022-09-19T11:54:02.193Z</time>
      </trkpt>
      <trkpt lat="46.78678" lon="15.51764">
        <ele>322.119579</ele>
        <time>2022-09-19T11:54:05.252Z</time>
      </trkpt>
      <trkpt lat="46.78667" lon="15.51759">
        <ele>321.782419</ele>
        <time>2022-09-19T11:54:08.195Z</time>
      </trkpt>
      <trkpt lat="46.78657" lon="15.51753">
        <ele>321.473337</ele>
        <time>2022-09-19T11:54:11.247Z</time>
      </trkpt>
      <trkpt lat="46.78648" lon="15.51747">
        <ele>321.158086</ele>
        <time>2022-09-19T11:54:14.212Z</time>
      </trkpt>
      <trkpt lat="46.78638" lon="15.51739">
        <ele>320.850032</ele>
        <time>2022-09-19T11:54:17.235Z</time>
      </trkpt>
      <trkpt lat="46.7863" lon="15.5173">
        <ele>320.548625</ele>
        <time>2022-09-19T11:54:20.175Z</time>
      </trkpt>
      <trkpt lat="46.78621" lon="15.51724">
        <ele>320.244244</ele>
        <time>2022-09-19T11:54:23.187Z</time>
      </trkpt>
      <trkpt lat="46.78611" lon="15.51718">
        <ele>319.943168</ele>
        <time>2022-09-19T11:54:26.190Z</time>
      </trkpt>
      <trkpt lat="46.78601" lon="15.51713">
        <ele>319.629749</ele>
        <time>2022-09-19T11:54:29.201Z</time>
      </trkpt>
      <trkpt lat="46.78591" lon="15.51709">
        <ele>319.46263</ele>
        <time>2022-09-19T11:54:32.260Z</time>
      </trkpt>
      <trkpt lat="46.7858" lon="15.51705">
        <ele>319.617373</ele>
        <time>2022-09-19T11:54:35.223Z</time>
      </trkpt>
      <trkpt lat="46.78568" lon="15.51702">
        <ele>319.775258</ele>
        <time>2022-09-19T11:54:38.178Z</time>
      </trkpt>
      <trkpt lat="46.78558" lon="15.51699">
        <ele>319.926251</ele>
        <time>2022-09-19T11:54:41.206Z</time>
      </trkpt>
      <trkpt lat="46.78547" lon="15.51696">
        <ele>320.081906</ele>
        <time>2022-09-19T11:54:44.200Z</time>
      </trkpt>
      <trkpt lat="46.78536" lon="15.51694">
        <ele>320.235615</ele>
        <time>2022-09-19T11:54:47.208Z</time>
      </trkpt>
      <trkpt lat="46.78524" lon="15.51696">
        <ele>320.389241</ele>
        <time>2022-09-19T11:54:50.277Z</time>
      </trkpt>
      <trkpt lat="46.78514" lon="15.51696">
        <ele>320.538208</ele>
        <time>2022-09-19T11:54:53.175Z</time>
      </trkpt>
      <trkpt lat="46.78503" lon="15.51697">
        <ele>320.680387</ele>
        <time>2022-09-19T11:54:56.197Z</time>
      </trkpt>
      <trkpt lat="46.78494" lon="15.51696">
        <ele>320.814617</ele>
        <time>2022-09-19T11:54:59.189Z</time>
      </trkpt>
      <trkpt lat="46.78483" lon="15.51694">
        <ele>320.968614</ele>
        <time>2022-09-19T11:55:03.209Z</time>
      </trkpt>
      <trkpt lat="46.78473" lon="15.51693">
        <ele>321.106967</ele>
        <time>2022-09-19T11:55:06.205Z</time>
      </trkpt>
      <trkpt lat="46.78462" lon="15.51689">
        <ele>321.256129</ele>
        <time>2022-09-19T11:55:09.206Z</time>
      </trkpt>
      <trkpt lat="46.78452" lon="15.51687">
        <ele>321.398165</ele>
        <time>2022-09-19T11:55:12.230Z</time>
      </trkpt>
      <trkpt lat="46.78442" lon="15.51685">
        <ele>321.541701</ele>
        <time>2022-09-19T11:55:15.199Z</time>
      </trkpt>
      <trkpt lat="46.78432" lon="15.51682">
        <ele>321.681595</ele>
        <time>2022-09-19T11:55:18.205Z</time>
      </trkpt>
      <trkpt lat="46.78421" lon="15.5168">
        <ele>321.832524</ele>
        <time>2022-09-19T11:55:21.202Z</time>
      </trkpt>
      <trkpt lat="46.7841" lon="15.51678">
        <ele>322.231886</ele>
        <time>2022-09-19T11:55:24.174Z</time>
      </trkpt>
      <trkpt lat="46.78398" lon="15.51677">
        <ele>322.81897</ele>
        <time>2022-09-19T11:55:27.228Z</time>
      </trkpt>
      <trkpt lat="46.78387" lon="15.51676">
        <ele>323.409783</ele>
        <time>2022-09-19T11:55:30.202Z</time>
      </trkpt>
      <trkpt lat="46.78376" lon="15.51677">
        <ele>323.985343</ele>
        <time>2022-09-19T11:55:33.196Z</time>
      </trkpt>
      <trkpt lat="46.78364" lon="15.51677">
        <ele>324.560377</ele>
        <time>2022-09-19T11:55:36.187Z</time>
      </trkpt>
      <trkpt lat="46.78352" lon="15.51679">
        <ele>325.175796</ele>
        <time>2022-09-19T11:55:39.203Z</time>
      </trkpt>
      <trkpt lat="46.78342" lon="15.51681">
        <ele>325.708824</ele>
        <time>2022-09-19T11:55:42.191Z</time>
      </trkpt>
      <trkpt lat="46.78332" lon="15.51684">
        <ele>326.260261</ele>
        <time>2022-09-19T11:55:45.190Z</time>
      </trkpt>
      <trkpt lat="46.78321" lon="15.51688">
        <ele>326.799866</ele>
        <time>2022-09-19T11:55:48.196Z</time>
      </trkpt>
      <trkpt lat="46.78313" lon="15.51692">
        <ele>327.268898</ele>
        <time>2022-09-19T11:55:51.158Z</time>
      </trkpt>
      <trkpt lat="46.78305" lon="15.51698">
        <ele>327.733996</ele>
        <time>2022-09-19T11:55:54.162Z</time>
      </trkpt>
      <trkpt lat="46.78296" lon="15.51703">
        <ele>328.225448</ele>
        <time>2022-09-19T11:55:57.210Z</time>
      </trkpt>
      <trkpt lat="46.78287" lon="15.51709">
        <ele>328.739932</ele>
        <time>2022-09-19T11:56:00.225Z</time>
      </trkpt>
      <trkpt lat="46.78278" lon="15.51717">
        <ele>329.26484</ele>
        <time>2022-09-19T11:56:03.202Z</time>
      </trkpt>
      <trkpt lat="46.78268" lon="15.51724">
        <ele>329.819304</ele>
        <time>2022-09-19T11:56:06.204Z</time>
      </trkpt>
      <trkpt lat="46.7826" lon="15.51733">
        <ele>330.370794</ele>
        <time>2022-09-19T11:56:09.234Z</time>
      </trkpt>
      <trkpt lat="46.7825" lon="15.51742">
        <ele>330.933109</ele>
        <time>2022-09-19T11:56:12.197Z</time>
      </trkpt>
      <trkpt lat="46.78242" lon="15.51752">
        <ele>331.104157</ele>
        <time>2022-09-19T11:56:15.206Z</time>
      </trkpt>
      <trkpt lat="46.78233" lon="15.5176">
        <ele>331.064206</ele>
        <time>2022-09-19T11:56:18.193Z</time>
      </trkpt>
      <trkpt lat="46.78225" lon="15.5177">
        <ele>331.024019</ele>
        <time>2022-09-19T11:56:21.188Z</time>
      </trkpt>
      <trkpt lat="46.78217" lon="15.5178">
        <ele>330.983661</ele>
        <time>2022-09-19T11:56:24.188Z</time>
      </trkpt>
      <trkpt lat="46.78207" lon="15.5179">
        <ele>330.939449</ele>
        <time>2022-09-19T11:56:27.209Z</time>
      </trkpt>
      <trkpt lat="46.78199" lon="15.518">
        <ele>330.898011</ele>
        <time>2022-09-19T11:56:30.194Z</time>
      </trkpt>
      <trkpt lat="46.7819" lon="15.51808">
        <ele>330.858877</ele>
        <time>2022-09-19T11:56:33.208Z</time>
      </trkpt>
      <trkpt lat="46.78181" lon="15.51817">
        <ele>330.818607</ele>
        <time>2022-09-19T11:56:36.210Z</time>
      </trkpt>
      <trkpt lat="46.78173" lon="15.51824">
        <ele>330.780606</ele>
        <time>2022-09-19T11:56:39.213Z</time>
      </trkpt>
      <trkpt lat="46.78164" lon="15.51831">
        <ele>330.742936</ele>
        <time>2022-09-19T11:56:42.204Z</time>
      </trkpt>
      <trkpt lat="46.78155" lon="15.51838">
        <ele>330.703295</ele>
        <time>2022-09-19T11:56:45.200Z</time>
      </trkpt>
      <trkpt lat="46.78146" lon="15.51846">
        <ele>330.662999</ele>
        <time>2022-09-19T11:56:48.224Z</time>
      </trkpt>
      <trkpt lat="46.78136" lon="15.51853">
        <ele>330.620954</ele>
        <time>2022-09-19T11:56:51.212Z</time>
      </trkpt>
      <trkpt lat="46.78125" lon="15.51858">
        <ele>330.57878</ele>
        <time>2022-09-19T11:56:54.205Z</time>
      </trkpt>
      <trkpt lat="46.78115" lon="15.51862">
        <ele>330.540041</ele>
        <time>2022-09-19T11:56:57.203Z</time>
      </trkpt>
      <trkpt lat="46.78106" lon="15.51865">
        <ele>330.502133</ele>
        <time>2022-09-19T11:57:00.197Z</time>
      </trkpt>
      <trkpt lat="46.78097" lon="15.5187">
        <ele>330.465453</ele>
        <time>2022-09-19T11:57:03.208Z</time>
      </trkpt>
      <trkpt lat="46.78088" lon="15.51874">
        <ele>330.280871</ele>
        <time>2022-09-19T11:57:06.193Z</time>
      </trkpt>
      <trkpt lat="46.78078" lon="15.51879">
        <ele>329.917035</ele>
        <time>2022-09-19T11:57:09.189Z</time>
      </trkpt>
      <trkpt lat="46.78068" lon="15.51884">
        <ele>329.555949</ele>
        <time>2022-09-19T11:57:12.204Z</time>
      </trkpt>
      <trkpt lat="46.78059" lon="15.51888">
        <ele>329.196032</ele>
        <time>2022-09-19T11:57:15.202Z</time>
      </trkpt>
      <trkpt lat="46.78049" lon="15.51893">
        <ele>328.832351</ele>
        <time>2022-09-19T11:57:18.207Z</time>
      </trkpt>
      <trkpt lat="46.78039" lon="15.51899">
        <ele>328.447092</ele>
        <time>2022-09-19T11:57:21.209Z</time>
      </trkpt>
      <trkpt lat="46.78029" lon="15.51904">
        <ele>328.067412</ele>
        <time>2022-09-19T11:57:24.195Z</time>
      </trkpt>
      <trkpt lat="46.78018" lon="15.5191">
        <ele>327.650025</ele>
        <time>2022-09-19T11:57:27.191Z</time>
      </trkpt>
      <trkpt lat="46.78005" lon="15.51913">
        <ele>327.174927</ele>
        <time>2022-09-19T11:57:30.206Z</time>
      </trkpt>
      <trkpt lat="46.77995" lon="15.51915">
        <ele>326.822246</ele>
        <time>2022-09-19T11:57:32.233Z</time>
      </trkpt>
      <trkpt lat="46.77985" lon="15.51916">
        <ele>326.460534</ele>
        <time>2022-09-19T11:57:34.237Z</time>
      </trkpt>
      <trkpt lat="46.77974" lon="15.51916">
        <ele>326.064062</ele>
        <time>2022-09-19T11:57:36.277Z</time>
      </trkpt>
      <trkpt lat="46.77962" lon="15.51913">
        <ele>325.632603</ele>
        <time>2022-09-19T11:57:38.200Z</time>
      </trkpt>
      <trkpt lat="46.7795" lon="15.51909">
        <ele>325.181404</ele>
        <time>2022-09-19T11:57:40.189Z</time>
      </trkpt>
      <trkpt lat="46.77937" lon="15.51903">
        <ele>324.718938</ele>
        <time>2022-09-19T11:57:42.217Z</time>
      </trkpt>
      <trkpt lat="46.77925" lon="15.51894">
        <ele>324.235647</ele>
        <time>2022-09-19T11:57:44.201Z</time>
      </trkpt>
      <trkpt lat="46.77914" lon="15.51883">
        <ele>324.32431</ele>
        <time>2022-09-19T11:57:46.187Z</time>
      </trkpt>
      <trkpt lat="46.77903" lon="15.51871">
        <ele>324.816864</ele>
        <time>2022-09-19T11:57:48.163Z</time>
      </trkpt>
      <trkpt lat="46.77895" lon="15.51858">
        <ele>325.279477</ele>
        <time>2022-09-19T11:57:50.173Z</time>
      </trkpt>
      <trkpt lat="46.77887" lon="15.51845">
        <ele>325.709268</ele>
        <time>2022-09-19T11:57:52.189Z</time>
      </trkpt>
      <trkpt lat="46.77882" lon="15.51831">
        <ele>326.104137</ele>
        <time>2022-09-19T11:57:54.244Z</time>
      </trkpt>
      <trkpt lat="46.77878" lon="15.51817">
        <ele>326.490628</ele>
        <time>2022-09-19T11:57:56.192Z</time>
      </trkpt>
      <trkpt lat="46.77876" lon="15.51804">
        <ele>326.837821</ele>
        <time>2022-09-19T11:57:58.182Z</time>
      </trkpt>
      <trkpt lat="46.77873" lon="15.51786">
        <ele>327.28853</ele>
        <time>2022-09-19T11:58:01.212Z</time>
      </trkpt>
      <trkpt lat="46.77873" lon="15.5177">
        <ele>327.697098</ele>
        <time>2022-09-19T11:58:05.226Z</time>
      </trkpt>
      <trkpt lat="46.77875" lon="15.51757">
        <ele>328.045073</ele>
        <time>2022-09-19T11:58:10.177Z</time>
      </trkpt>
      <trkpt lat="46.77878" lon="15.51744">
        <ele>328.394474</ele>
        <time>2022-09-19T11:58:18.175Z</time>
      </trkpt>
      <trkpt lat="46.77866" lon="15.51743">
        <ele>328.846555</ele>
        <time>2022-09-19T12:00:19.199Z</time>
      </trkpt>
      <trkpt lat="46.77864" lon="15.5173">
        <ele>329.193267</ele>
        <time>2022-09-19T12:00:22.189Z</time>
      </trkpt>
      <trkpt lat="46.77864" lon="15.51714">
        <ele>329.596364</ele>
        <time>2022-09-19T12:00:26.205Z</time>
      </trkpt>
      <trkpt lat="46.77865" lon="15.51699">
        <ele>329.969041</ele>
        <time>2022-09-19T12:00:30.200Z</time>
      </trkpt>
      <trkpt lat="46.77864" lon="15.51683">
        <ele>330.364948</ele>
        <time>2022-09-19T12:00:34.182Z</time>
      </trkpt>
      <trkpt lat="46.77864" lon="15.51667">
        <ele>330.686549</ele>
        <time>2022-09-19T12:00:38.212Z</time>
      </trkpt>
      <trkpt lat="46.77864" lon="15.51652">
        <ele>330.675707</ele>
        <time>2022-09-19T12:00:42.199Z</time>
      </trkpt>
      <trkpt lat="46.77863" lon="15.51637">
        <ele>330.665899</ele>
        <time>2022-09-19T12:00:46.182Z</time>
      </trkpt>
      <trkpt lat="46.77864" lon="15.51623">
        <ele>330.65623</ele>
        <time>2022-09-19T12:00:50.206Z</time>
      </trkpt>
      <trkpt lat="46.77864" lon="15.51609">
        <ele>330.646244</ele>
        <time>2022-09-19T12:00:54.189Z</time>
      </trkpt>
      <trkpt lat="46.77864" lon="15.51594">
        <ele>330.635804</ele>
        <time>2022-09-19T12:00:58.217Z</time>
      </trkpt>
      <trkpt lat="46.77864" lon="15.51579">
        <ele>330.625513</ele>
        <time>2022-09-19T12:01:02.215Z</time>
      </trkpt>
      <trkpt lat="46.77864" lon="15.51564">
        <ele>330.615016</ele>
        <time>2022-09-19T12:01:06.206Z</time>
      </trkpt>
      <trkpt lat="46.77864" lon="15.51548">
        <ele>330.603893</ele>
        <time>2022-09-19T12:01:10.178Z</time>
      </trkpt>
      <trkpt lat="46.77862" lon="15.51531">
        <ele>330.592261</ele>
        <time>2022-09-19T12:01:14.205Z</time>
      </trkpt>
      <trkpt lat="46.77861" lon="15.51515">
        <ele>330.580928</ele>
        <time>2022-09-19T12:01:18.204Z</time>
      </trkpt>
      <trkpt lat="46.7786" lon="15.51499">
        <ele>330.570313</ele>
        <time>2022-09-19T12:01:22.195Z</time>
      </trkpt>
      <trkpt lat="46.77858" lon="15.51482">
        <ele>330.558339</ele>
        <time>2022-09-19T12:01:26.198Z</time>
      </trkpt>
      <trkpt lat="46.77857" lon="15.51465">
        <ele>330.546459</ele>
        <time>2022-09-19T12:01:30.188Z</time>
      </trkpt>
      <trkpt lat="46.77855" lon="15.51449">
        <ele>330.534867</ele>
        <time>2022-09-19T12:01:34.229Z</time>
      </trkpt>
      <trkpt lat="46.77854" lon="15.51433">
        <ele>330.523849</ele>
        <time>2022-09-19T12:01:38.323Z</time>
      </trkpt>
      <trkpt lat="46.77853" lon="15.51417">
        <ele>330.513121</ele>
        <time>2022-09-19T12:01:42.211Z</time>
      </trkpt>
      <trkpt lat="46.77853" lon="15.51402">
        <ele>330.539165</ele>
        <time>2022-09-19T12:01:46.188Z</time>
      </trkpt>
      <trkpt lat="46.77852" lon="15.51386">
        <ele>330.606681</ele>
        <time>2022-09-19T12:01:50.208Z</time>
      </trkpt>
      <trkpt lat="46.77851" lon="15.5137">
        <ele>330.67335</ele>
        <time>2022-09-19T12:01:54.228Z</time>
      </trkpt>
      <trkpt lat="46.77849" lon="15.51353">
        <ele>330.746546</ele>
        <time>2022-09-19T12:01:58.203Z</time>
      </trkpt>
      <trkpt lat="46.77847" lon="15.5134">
        <ele>330.804486</ele>
        <time>2022-09-19T12:02:01.185Z</time>
      </trkpt>
      <trkpt lat="46.77845" lon="15.51326">
        <ele>330.863948</ele>
        <time>2022-09-19T12:02:04.190Z</time>
      </trkpt>
      <trkpt lat="46.77843" lon="15.51313">
        <ele>330.920263</ele>
        <time>2022-09-19T12:02:07.250Z</time>
      </trkpt>
      <trkpt lat="46.77841" lon="15.51299">
        <ele>330.980575</ele>
        <time>2022-09-19T12:02:10.197Z</time>
      </trkpt>
      <trkpt lat="46.77839" lon="15.51285">
        <ele>331.044055</ele>
        <time>2022-09-19T12:02:13.195Z</time>
      </trkpt>
      <trkpt lat="46.77836" lon="15.5127">
        <ele>331.111284</ele>
        <time>2022-09-19T12:02:16.199Z</time>
      </trkpt>
      <trkpt lat="46.77832" lon="15.51254">
        <ele>331.182213</ele>
        <time>2022-09-19T12:02:19.239Z</time>
      </trkpt>
      <trkpt lat="46.77827" lon="15.51237">
        <ele>331.258575</ele>
        <time>2022-09-19T12:02:22.207Z</time>
      </trkpt>
      <trkpt lat="46.77824" lon="15.51219">
        <ele>331.338909</ele>
        <time>2022-09-19T12:02:25.265Z</time>
      </trkpt>
      <trkpt lat="46.7782" lon="15.51206">
        <ele>331.398286</ele>
        <time>2022-09-19T12:02:27.192Z</time>
      </trkpt>
      <trkpt lat="46.77817" lon="15.51192">
        <ele>331.461743</ele>
        <time>2022-09-19T12:02:29.210Z</time>
      </trkpt>
      <trkpt lat="46.77812" lon="15.51178">
        <ele>331.528969</ele>
        <time>2022-09-19T12:02:31.213Z</time>
      </trkpt>
      <trkpt lat="46.77807" lon="15.51163">
        <ele>331.600229</ele>
        <time>2022-09-19T12:02:33.213Z</time>
      </trkpt>
      <trkpt lat="46.77802" lon="15.51148">
        <ele>331.486219</ele>
        <time>2022-09-19T12:02:35.198Z</time>
      </trkpt>
      <trkpt lat="46.77798" lon="15.51133">
        <ele>331.269002</ele>
        <time>2022-09-19T12:02:37.201Z</time>
      </trkpt>
      <trkpt lat="46.77793" lon="15.51117">
        <ele>331.041801</ele>
        <time>2022-09-19T12:02:39.302Z</time>
      </trkpt>
      <trkpt lat="46.77789" lon="15.51101">
        <ele>330.817009</ele>
        <time>2022-09-19T12:02:41.209Z</time>
      </trkpt>
      <trkpt lat="46.77785" lon="15.51086">
        <ele>330.599519</ele>
        <time>2022-09-19T12:02:43.187Z</time>
      </trkpt>
      <trkpt lat="46.7778" lon="15.5107">
        <ele>330.376801</ele>
        <time>2022-09-19T12:02:45.231Z</time>
      </trkpt>
      <trkpt lat="46.77776" lon="15.51054">
        <ele>330.15125</ele>
        <time>2022-09-19T12:02:47.244Z</time>
      </trkpt>
      <trkpt lat="46.77771" lon="15.51039">
        <ele>329.929288</ele>
        <time>2022-09-19T12:02:49.207Z</time>
      </trkpt>
      <trkpt lat="46.77764" lon="15.51026">
        <ele>329.711608</ele>
        <time>2022-09-19T12:02:51.205Z</time>
      </trkpt>
      <trkpt lat="46.77755" lon="15.51015">
        <ele>329.484918</ele>
        <time>2022-09-19T12:02:53.251Z</time>
      </trkpt>
      <trkpt lat="46.77746" lon="15.51003">
        <ele>329.241608</ele>
        <time>2022-09-19T12:02:55.205Z</time>
      </trkpt>
      <trkpt lat="46.77736" lon="15.50993">
        <ele>329.010304</ele>
        <time>2022-09-19T12:02:57.195Z</time>
      </trkpt>
      <trkpt lat="46.77726" lon="15.50984">
        <ele>328.786893</ele>
        <time>2022-09-19T12:02:59.207Z</time>
      </trkpt>
      <trkpt lat="46.77716" lon="15.50977">
        <ele>328.57372</ele>
        <time>2022-09-19T12:03:01.216Z</time>
      </trkpt>
      <trkpt lat="46.77707" lon="15.50969">
        <ele>328.376103</ele>
        <time>2022-09-19T12:03:03.198Z</time>
      </trkpt>
      <trkpt lat="46.77699" lon="15.5096">
        <ele>328.175064</ele>
        <time>2022-09-19T12:03:05.194Z</time>
      </trkpt>
      <trkpt lat="46.77691" lon="15.5095">
        <ele>327.892667</ele>
        <time>2022-09-19T12:03:07.220Z</time>
      </trkpt>
      <trkpt lat="46.77684" lon="15.5094">
        <ele>327.609049</ele>
        <time>2022-09-19T12:03:09.201Z</time>
      </trkpt>
      <trkpt lat="46.77676" lon="15.50929">
        <ele>327.318024</ele>
        <time>2022-09-19T12:03:11.209Z</time>
      </trkpt>
      <trkpt lat="46.7767" lon="15.50918">
        <ele>327.039739</ele>
        <time>2022-09-19T12:03:13.231Z</time>
      </trkpt>
      <trkpt lat="46.77664" lon="15.50907">
        <ele>326.767371</ele>
        <time>2022-09-19T12:03:15.209Z</time>
      </trkpt>
      <trkpt lat="46.77658" lon="15.50895">
        <ele>326.488396</ele>
        <time>2022-09-19T12:03:17.203Z</time>
      </trkpt>
      <trkpt lat="46.77652" lon="15.50883">
        <ele>326.208067</ele>
        <time>2022-09-19T12:03:19.204Z</time>
      </trkpt>
      <trkpt lat="46.77645" lon="15.50872">
        <ele>325.924298</ele>
        <time>2022-09-19T12:03:21.207Z</time>
      </trkpt>
      <trkpt lat="46.77639" lon="15.50861">
        <ele>325.638853</ele>
        <time>2022-09-19T12:03:23.206Z</time>
      </trkpt>
      <trkpt lat="46.77633" lon="15.50849">
        <ele>325.355443</ele>
        <time>2022-09-19T12:03:25.190Z</time>
      </trkpt>
      <trkpt lat="46.77627" lon="15.50838">
        <ele>325.073885</ele>
        <time>2022-09-19T12:03:27.221Z</time>
      </trkpt>
      <trkpt lat="46.7762" lon="15.50825">
        <ele>324.779147</ele>
        <time>2022-09-19T12:03:29.199Z</time>
      </trkpt>
      <trkpt lat="46.77613" lon="15.50813">
        <ele>324.462946</ele>
        <time>2022-09-19T12:03:31.216Z</time>
      </trkpt>
      <trkpt lat="46.77605" lon="15.508">
        <ele>324.120673</ele>
        <time>2022-09-19T12:03:33.207Z</time>
      </trkpt>
      <trkpt lat="46.77596" lon="15.50786">
        <ele>323.770269</ele>
        <time>2022-09-19T12:03:35.200Z</time>
      </trkpt>
      <trkpt lat="46.77589" lon="15.50773">
        <ele>323.457329</ele>
        <time>2022-09-19T12:03:37.203Z</time>
      </trkpt>
      <trkpt lat="46.77582" lon="15.50762">
        <ele>323.151371</ele>
        <time>2022-09-19T12:03:39.197Z</time>
      </trkpt>
      <trkpt lat="46.77573" lon="15.50751">
        <ele>323.07743</ele>
        <time>2022-09-19T12:03:41.204Z</time>
      </trkpt>
      <trkpt lat="46.77564" lon="15.50742">
        <ele>323.018627</ele>
        <time>2022-09-19T12:03:43.200Z</time>
      </trkpt>
      <trkpt lat="46.77553" lon="15.50734">
        <ele>322.958901</ele>
        <time>2022-09-19T12:03:45.269Z</time>
      </trkpt>
      <trkpt lat="46.77543" lon="15.50726">
        <ele>322.898349</ele>
        <time>2022-09-19T12:03:47.218Z</time>
      </trkpt>
      <trkpt lat="46.77532" lon="15.5072">
        <ele>322.838212</ele>
        <time>2022-09-19T12:03:49.181Z</time>
      </trkpt>
      <trkpt lat="46.77522" lon="15.50714">
        <ele>322.783334</ele>
        <time>2022-09-19T12:03:51.201Z</time>
      </trkpt>
      <trkpt lat="46.77512" lon="15.5071">
        <ele>322.730453</ele>
        <time>2022-09-19T12:03:53.196Z</time>
      </trkpt>
      <trkpt lat="46.77502" lon="15.50707">
        <ele>322.679384</ele>
        <time>2022-09-19T12:03:55.182Z</time>
      </trkpt>
      <trkpt lat="46.77492" lon="15.50705">
        <ele>322.630212</ele>
        <time>2022-09-19T12:03:57.209Z</time>
      </trkpt>
      <trkpt lat="46.7748" lon="15.50702">
        <ele>322.565865</ele>
        <time>2022-09-19T12:04:00.224Z</time>
      </trkpt>
      <trkpt lat="46.7747" lon="15.50701">
        <ele>322.514743</ele>
        <time>2022-09-19T12:04:03.211Z</time>
      </trkpt>
      <trkpt lat="46.77459" lon="15.50701">
        <ele>322.458614</ele>
        <time>2022-09-19T12:04:07.214Z</time>
      </trkpt>
      <trkpt lat="46.7745" lon="15.50705">
        <ele>322.410095</ele>
        <time>2022-09-19T12:04:11.203Z</time>
      </trkpt>
      <trkpt lat="46.77458" lon="15.50713">
        <ele>322.362036</ele>
        <time>2022-09-19T12:04:16.177Z</time>
      </trkpt>
      <trkpt lat="46.77468" lon="15.50713">
        <ele>322.308975</ele>
        <time>2022-09-19T12:04:20.205Z</time>
      </trkpt>
      <trkpt lat="46.77478" lon="15.50715">
        <ele>322.259654</ele>
        <time>2022-09-19T12:04:23.204Z</time>
      </trkpt>
      <trkpt lat="46.77487" lon="15.50717">
        <ele>322.224394</ele>
        <time>2022-09-19T12:04:26.203Z</time>
      </trkpt>
      <trkpt lat="46.77498" lon="15.50718">
        <ele>322.375185</ele>
        <time>2022-09-19T12:04:29.229Z</time>
      </trkpt>
      <trkpt lat="46.77507" lon="15.5072">
        <ele>322.507789</ele>
        <time>2022-09-19T12:04:31.186Z</time>
      </trkpt>
      <trkpt lat="46.77517" lon="15.50723">
        <ele>322.661212</ele>
        <time>2022-09-19T12:04:34.190Z</time>
      </trkpt>
      <trkpt lat="46.77527" lon="15.50728">
        <ele>322.81159</ele>
        <time>2022-09-19T12:04:37.209Z</time>
      </trkpt>
      <trkpt lat="46.77538" lon="15.50735">
        <ele>322.982149</ele>
        <time>2022-09-19T12:04:41.211Z</time>
      </trkpt>
      <trkpt lat="46.77547" lon="15.50738">
        <ele>323.114243</ele>
        <time>2022-09-19T12:04:44.192Z</time>
      </trkpt>
      <trkpt lat="46.77556" lon="15.50742">
        <ele>323.251174</ele>
        <time>2022-09-19T12:04:47.196Z</time>
      </trkpt>
      <trkpt lat="46.77566" lon="15.50734">
        <ele>323.418831</ele>
        <time>2022-09-19T12:04:51.246Z</time>
      </trkpt>
      <trkpt lat="46.77571" lon="15.50718">
        <ele>323.592024</ele>
        <time>2022-09-19T12:04:54.185Z</time>
      </trkpt>
      <trkpt lat="46.77575" lon="15.50702">
        <ele>323.759875</ele>
        <time>2022-09-19T12:04:57.158Z</time>
      </trkpt>
      <trkpt lat="46.77578" lon="15.50687">
        <ele>323.917719</ele>
        <time>2022-09-19T12:05:00.226Z</time>
      </trkpt>
      <trkpt lat="46.77581" lon="15.50673">
        <ele>324.062051</ele>
        <time>2022-09-19T12:05:03.205Z</time>
      </trkpt>
      <trkpt lat="46.77584" lon="15.50656">
        <ele>324.231267</ele>
        <time>2022-09-19T12:05:07.210Z</time>
      </trkpt>
      <trkpt lat="46.77586" lon="15.50641">
        <ele>324.387674</ele>
        <time>2022-09-19T12:05:11.204Z</time>
      </trkpt>
      <trkpt lat="46.77588" lon="15.50626">
        <ele>324.541346</ele>
        <time>2022-09-19T12:05:15.206Z</time>
      </trkpt>
      <trkpt lat="46.7759" lon="15.5061">
        <ele>324.702201</ele>
        <time>2022-09-19T12:05:19.196Z</time>
      </trkpt>
      <trkpt lat="46.77594" lon="15.50594">
        <ele>324.881362</ele>
        <time>2022-09-19T12:05:23.207Z</time>
      </trkpt>
      <trkpt lat="46.77596" lon="15.50577">
        <ele>325.085288</ele>
        <time>2022-09-19T12:05:27.201Z</time>
      </trkpt>
      <trkpt lat="46.77598" lon="15.50564">
        <ele>325.246945</ele>
        <time>2022-09-19T12:05:30.204Z</time>
      </trkpt>
      <trkpt lat="46.77601" lon="15.5055">
        <ele>325.423619</ele>
        <time>2022-09-19T12:05:33.201Z</time>
      </trkpt>
      <trkpt lat="46.77604" lon="15.50535">
        <ele>325.614321</ele>
        <time>2022-09-19T12:05:36.209Z</time>
      </trkpt>
      <trkpt lat="46.77609" lon="15.50519">
        <ele>325.834555</ele>
        <time>2022-09-19T12:05:39.215Z</time>
      </trkpt>
      <trkpt lat="46.77613" lon="15.50501">
        <ele>326.064456</ele>
        <time>2022-09-19T12:05:42.196Z</time>
      </trkpt>
      <trkpt lat="46.77618" lon="15.50485">
        <ele>326.28092</ele>
        <time>2022-09-19T12:05:45.205Z</time>
      </trkpt>
      <trkpt lat="46.77623" lon="15.50468">
        <ele>326.503398</ele>
        <time>2022-09-19T12:05:48.210Z</time>
      </trkpt>
      <trkpt lat="46.77629" lon="15.50451">
        <ele>326.738409</ele>
        <time>2022-09-19T12:05:51.220Z</time>
      </trkpt>
      <trkpt lat="46.77635" lon="15.50433">
        <ele>326.9755</ele>
        <time>2022-09-19T12:05:54.200Z</time>
      </trkpt>
      <trkpt lat="46.77641" lon="15.50415">
        <ele>327.21269</ele>
        <time>2022-09-19T12:05:57.224Z</time>
      </trkpt>
      <trkpt lat="46.77646" lon="15.50399">
        <ele>327.435063</ele>
        <time>2022-09-19T12:06:00.189Z</time>
      </trkpt>
      <trkpt lat="46.77651" lon="15.50383">
        <ele>327.65262</ele>
        <time>2022-09-19T12:06:03.208Z</time>
      </trkpt>
      <trkpt lat="46.77656" lon="15.50366">
        <ele>327.878305</ele>
        <time>2022-09-19T12:06:06.205Z</time>
      </trkpt>
      <trkpt lat="46.77661" lon="15.50349">
        <ele>328.082618</ele>
        <time>2022-09-19T12:06:09.236Z</time>
      </trkpt>
      <trkpt lat="46.77667" lon="15.50333">
        <ele>328.264769</ele>
        <time>2022-09-19T12:06:12.202Z</time>
      </trkpt>
      <trkpt lat="46.77672" lon="15.50317">
        <ele>328.447035</ele>
        <time>2022-09-19T12:06:15.203Z</time>
      </trkpt>
      <trkpt lat="46.77677" lon="15.50302">
        <ele>328.616563</ele>
        <time>2022-09-19T12:06:18.198Z</time>
      </trkpt>
      <trkpt lat="46.77681" lon="15.50286">
        <ele>328.791967</ele>
        <time>2022-09-19T12:06:21.197Z</time>
      </trkpt>
      <trkpt lat="46.77685" lon="15.5027">
        <ele>328.965894</ele>
        <time>2022-09-19T12:06:24.197Z</time>
      </trkpt>
      <trkpt lat="46.77689" lon="15.50254">
        <ele>329.141992</ele>
        <time>2022-09-19T12:06:27.202Z</time>
      </trkpt>
      <trkpt lat="46.77693" lon="15.50237">
        <ele>329.323277</ele>
        <time>2022-09-19T12:06:30.287Z</time>
      </trkpt>
      <trkpt lat="46.77695" lon="15.50218">
        <ele>329.515855</ele>
        <time>2022-09-19T12:06:33.216Z</time>
      </trkpt>
      <trkpt lat="46.77698" lon="15.502">
        <ele>329.701153</ele>
        <time>2022-09-19T12:06:36.206Z</time>
      </trkpt>
      <trkpt lat="46.77701" lon="15.50183">
        <ele>329.881496</ele>
        <time>2022-09-19T12:06:39.193Z</time>
      </trkpt>
      <trkpt lat="46.77705" lon="15.50167">
        <ele>330.057762</ele>
        <time>2022-09-19T12:06:42.211Z</time>
      </trkpt>
      <trkpt lat="46.7771" lon="15.50149">
        <ele>330.249304</ele>
        <time>2022-09-19T12:06:45.179Z</time>
      </trkpt>
      <trkpt lat="46.77714" lon="15.50133">
        <ele>330.430121</ele>
        <time>2022-09-19T12:06:48.232Z</time>
      </trkpt>
      <trkpt lat="46.7772" lon="15.50116">
        <ele>330.62483</ele>
        <time>2022-09-19T12:06:51.200Z</time>
      </trkpt>
      <trkpt lat="46.77725" lon="15.501">
        <ele>330.867691</ele>
        <time>2022-09-19T12:06:54.203Z</time>
      </trkpt>
      <trkpt lat="46.7773" lon="15.50085">
        <ele>331.142813</ele>
        <time>2022-09-19T12:06:57.194Z</time>
      </trkpt>
      <trkpt lat="46.77736" lon="15.50071">
        <ele>331.416627</ele>
        <time>2022-09-19T12:07:00.200Z</time>
      </trkpt>
      <trkpt lat="46.77742" lon="15.50057">
        <ele>331.683923</ele>
        <time>2022-09-19T12:07:03.216Z</time>
      </trkpt>
      <trkpt lat="46.77749" lon="15.50046">
        <ele>331.927223</ele>
        <time>2022-09-19T12:07:06.267Z</time>
      </trkpt>
      <trkpt lat="46.77759" lon="15.50036">
        <ele>332.214561</ele>
        <time>2022-09-19T12:07:09.257Z</time>
      </trkpt>
      <trkpt lat="46.77768" lon="15.50026">
        <ele>332.492002</ele>
        <time>2022-09-19T12:07:12.204Z</time>
      </trkpt>
      <trkpt lat="46.77777" lon="15.50015">
        <ele>332.756248</ele>
        <time>2022-09-19T12:07:15.194Z</time>
      </trkpt>
      <trkpt lat="46.77784" lon="15.50005">
        <ele>333.003359</ele>
        <time>2022-09-19T12:07:18.193Z</time>
      </trkpt>
      <trkpt lat="46.77795" lon="15.49994">
        <ele>333.318215</ele>
        <time>2022-09-19T12:07:21.218Z</time>
      </trkpt>
      <trkpt lat="46.77803" lon="15.49986">
        <ele>333.539124</ele>
        <time>2022-09-19T12:07:23.212Z</time>
      </trkpt>
      <trkpt lat="46.77813" lon="15.49973">
        <ele>333.84879</ele>
        <time>2022-09-19T12:07:26.212Z</time>
      </trkpt>
      <trkpt lat="46.77819" lon="15.49964">
        <ele>334.065709</ele>
        <time>2022-09-19T12:07:28.275Z</time>
      </trkpt>
      <trkpt lat="46.77825" lon="15.49954">
        <ele>334.278145</ele>
        <time>2022-09-19T12:07:30.256Z</time>
      </trkpt>
      <trkpt lat="46.77834" lon="15.4994">
        <ele>334.598749</ele>
        <time>2022-09-19T12:07:33.199Z</time>
      </trkpt>
      <trkpt lat="46.7784" lon="15.49929">
        <ele>334.82164</ele>
        <time>2022-09-19T12:07:35.201Z</time>
      </trkpt>
      <trkpt lat="46.77846" lon="15.49918">
        <ele>335.018174</ele>
        <time>2022-09-19T12:07:37.201Z</time>
      </trkpt>
      <trkpt lat="46.77851" lon="15.49906">
        <ele>335.170511</ele>
        <time>2022-09-19T12:07:39.264Z</time>
      </trkpt>
      <trkpt lat="46.77857" lon="15.49895">
        <ele>335.325005</ele>
        <time>2022-09-19T12:07:41.224Z</time>
      </trkpt>
      <trkpt lat="46.77863" lon="15.49883">
        <ele>335.480046</ele>
        <time>2022-09-19T12:07:43.208Z</time>
      </trkpt>
      <trkpt lat="46.77869" lon="15.49873">
        <ele>335.63283</ele>
        <time>2022-09-19T12:07:45.220Z</time>
      </trkpt>
      <trkpt lat="46.77875" lon="15.49862">
        <ele>335.781831</ele>
        <time>2022-09-19T12:07:47.195Z</time>
      </trkpt>
      <trkpt lat="46.77883" lon="15.49854">
        <ele>335.946124</ele>
        <time>2022-09-19T12:07:49.229Z</time>
      </trkpt>
      <trkpt lat="46.77891" lon="15.49846">
        <ele>336.096941</ele>
        <time>2022-09-19T12:07:51.200Z</time>
      </trkpt>
      <trkpt lat="46.779" lon="15.49834">
        <ele>336.286803</ele>
        <time>2022-09-19T12:07:54.187Z</time>
      </trkpt>
      <trkpt lat="46.77909" lon="15.49822">
        <ele>336.480056</ele>
        <time>2022-09-19T12:07:57.205Z</time>
      </trkpt>
      <trkpt lat="46.77918" lon="15.4981">
        <ele>336.68525</ele>
        <time>2022-09-19T12:08:00.187Z</time>
      </trkpt>
      <trkpt lat="46.77925" lon="15.49801">
        <ele>336.829745</ele>
        <time>2022-09-19T12:08:02.202Z</time>
      </trkpt>
      <trkpt lat="46.77933" lon="15.49788">
        <ele>337.018151</ele>
        <time>2022-09-19T12:08:05.194Z</time>
      </trkpt>
      <trkpt lat="46.7794" lon="15.49776">
        <ele>337.189461</ele>
        <time>2022-09-19T12:08:08.238Z</time>
      </trkpt>
      <trkpt lat="46.77946" lon="15.49766">
        <ele>337.337107</ele>
        <time>2022-09-19T12:08:11.201Z</time>
      </trkpt>
      <trkpt lat="46.77954" lon="15.49757">
        <ele>337.504007</ele>
        <time>2022-09-19T12:08:15.175Z</time>
      </trkpt>
      <trkpt lat="46.77962" lon="15.49748">
        <ele>337.665116</ele>
        <time>2022-09-19T12:08:19.183Z</time>
      </trkpt>
      <trkpt lat="46.77971" lon="15.49739">
        <ele>337.8394</ele>
        <time>2022-09-19T12:08:23.186Z</time>
      </trkpt>
      <trkpt lat="46.77979" lon="15.4973">
        <ele>338.021048</ele>
        <time>2022-09-19T12:08:27.189Z</time>
      </trkpt>
      <trkpt lat="46.77988" lon="15.49722">
        <ele>338.198483</ele>
        <time>2022-09-19T12:08:30.228Z</time>
      </trkpt>
      <trkpt lat="46.77997" lon="15.49711">
        <ele>338.410099</ele>
        <time>2022-09-19T12:08:33.197Z</time>
      </trkpt>
      <trkpt lat="46.78005" lon="15.49704">
        <ele>338.581148</ele>
        <time>2022-09-19T12:08:35.203Z</time>
      </trkpt>
      <trkpt lat="46.78014" lon="15.49696">
        <ele>338.76897</ele>
        <time>2022-09-19T12:08:37.191Z</time>
      </trkpt>
      <trkpt lat="46.78022" lon="15.49687">
        <ele>338.959388</ele>
        <time>2022-09-19T12:08:39.203Z</time>
      </trkpt>
      <trkpt lat="46.78033" lon="15.49677">
        <ele>339.184461</ele>
        <time>2022-09-19T12:08:41.242Z</time>
      </trkpt>
      <trkpt lat="46.78044" lon="15.49667">
        <ele>339.421558</ele>
        <time>2022-09-19T12:08:43.194Z</time>
      </trkpt>
      <trkpt lat="46.78054" lon="15.49659">
        <ele>339.626713</ele>
        <time>2022-09-19T12:08:45.207Z</time>
      </trkpt>
      <trkpt lat="46.78064" lon="15.49652">
        <ele>339.81929</ele>
        <time>2022-09-19T12:08:47.203Z</time>
      </trkpt>
      <trkpt lat="46.78072" lon="15.49645">
        <ele>339.992363</ele>
        <time>2022-09-19T12:08:49.200Z</time>
      </trkpt>
      <trkpt lat="46.78084" lon="15.49639">
        <ele>340.219691</ele>
        <time>2022-09-19T12:08:52.246Z</time>
      </trkpt>
      <trkpt lat="46.78094" lon="15.49637">
        <ele>340.403247</ele>
        <time>2022-09-19T12:08:54.203Z</time>
      </trkpt>
      <trkpt lat="46.78103" lon="15.49636">
        <ele>340.56933</ele>
        <time>2022-09-19T12:08:56.197Z</time>
      </trkpt>
      <trkpt lat="46.78116" lon="15.49635">
        <ele>340.805237</ele>
        <time>2022-09-19T12:08:59.204Z</time>
      </trkpt>
      <trkpt lat="46.78129" lon="15.49634">
        <ele>341.032275</ele>
        <time>2022-09-19T12:09:02.201Z</time>
      </trkpt>
      <trkpt lat="46.7814" lon="15.49633">
        <ele>341.144135</ele>
        <time>2022-09-19T12:09:05.198Z</time>
      </trkpt>
      <trkpt lat="46.7815" lon="15.49632">
        <ele>341.225342</ele>
        <time>2022-09-19T12:09:08.204Z</time>
      </trkpt>
      <trkpt lat="46.78159" lon="15.49629">
        <ele>341.304714</ele>
        <time>2022-09-19T12:09:11.202Z</time>
      </trkpt>
      <trkpt lat="46.78168" lon="15.49625">
        <ele>341.386155</ele>
        <time>2022-09-19T12:09:14.207Z</time>
      </trkpt>
      <trkpt lat="46.78178" lon="15.4962">
        <ele>341.472108</ele>
        <time>2022-09-19T12:09:17.193Z</time>
      </trkpt>
      <trkpt lat="46.78187" lon="15.49612">
        <ele>341.560662</ele>
        <time>2022-09-19T12:09:20.236Z</time>
      </trkpt>
      <trkpt lat="46.78195" lon="15.49605">
        <ele>341.638716</ele>
        <time>2022-09-19T12:09:23.184Z</time>
      </trkpt>
      <trkpt lat="46.78203" lon="15.49597">
        <ele>341.722049</ele>
        <time>2022-09-19T12:09:26.226Z</time>
      </trkpt>
      <trkpt lat="46.78211" lon="15.49589">
        <ele>341.807186</ele>
        <time>2022-09-19T12:09:29.201Z</time>
      </trkpt>
      <trkpt lat="46.78219" lon="15.49581">
        <ele>341.888628</ele>
        <time>2022-09-19T12:09:32.204Z</time>
      </trkpt>
      <trkpt lat="46.78229" lon="15.49571">
        <ele>341.987387</ele>
        <time>2022-09-19T12:09:36.202Z</time>
      </trkpt>
      <trkpt lat="46.78238" lon="15.49561">
        <ele>342.083107</ele>
        <time>2022-09-19T12:09:40.195Z</time>
      </trkpt>
      <trkpt lat="46.78247" lon="15.49551">
        <ele>342.174713</ele>
        <time>2022-09-19T12:09:44.203Z</time>
      </trkpt>
      <trkpt lat="46.78256" lon="15.49542">
        <ele>342.26842</ele>
        <time>2022-09-19T12:09:48.241Z</time>
      </trkpt>
      <trkpt lat="46.78266" lon="15.49534">
        <ele>342.368367</ele>
        <time>2022-09-19T12:09:52.198Z</time>
      </trkpt>
      <trkpt lat="46.78275" lon="15.49529">
        <ele>342.445015</ele>
        <time>2022-09-19T12:09:55.196Z</time>
      </trkpt>
      <trkpt lat="46.78284" lon="15.49525">
        <ele>342.526836</ele>
        <time>2022-09-19T12:09:58.189Z</time>
      </trkpt>
      <trkpt lat="46.78293" lon="15.49521">
        <ele>342.56237</ele>
        <time>2022-09-19T12:10:01.204Z</time>
      </trkpt>
      <trkpt lat="46.78302" lon="15.49517">
        <ele>342.516605</ele>
        <time>2022-09-19T12:10:04.194Z</time>
      </trkpt>
      <trkpt lat="46.78312" lon="15.49512">
        <ele>342.466164</ele>
        <time>2022-09-19T12:10:07.202Z</time>
      </trkpt>
      <trkpt lat="46.78323" lon="15.49507">
        <ele>342.412296</ele>
        <time>2022-09-19T12:10:10.228Z</time>
      </trkpt>
      <trkpt lat="46.78334" lon="15.49502">
        <ele>342.359287</ele>
        <time>2022-09-19T12:10:13.178Z</time>
      </trkpt>
      <trkpt lat="46.78345" lon="15.49496">
        <ele>342.302297</ele>
        <time>2022-09-19T12:10:16.236Z</time>
      </trkpt>
      <trkpt lat="46.78356" lon="15.49488">
        <ele>342.245421</ele>
        <time>2022-09-19T12:10:19.194Z</time>
      </trkpt>
      <trkpt lat="46.78366" lon="15.4948">
        <ele>342.188497</ele>
        <time>2022-09-19T12:10:22.198Z</time>
      </trkpt>
      <trkpt lat="46.78375" lon="15.49472">
        <ele>342.136768</ele>
        <time>2022-09-19T12:10:25.198Z</time>
      </trkpt>
      <trkpt lat="46.78384" lon="15.49462">
        <ele>342.084583</ele>
        <time>2022-09-19T12:10:28.208Z</time>
      </trkpt>
      <trkpt lat="46.78393" lon="15.49451">
        <ele>342.030197</ele>
        <time>2022-09-19T12:10:31.204Z</time>
      </trkpt>
      <trkpt lat="46.78401" lon="15.49441">
        <ele>341.978158</ele>
        <time>2022-09-19T12:10:34.191Z</time>
      </trkpt>
      <trkpt lat="46.78409" lon="15.49432">
        <ele>341.931713</ele>
        <time>2022-09-19T12:10:37.221Z</time>
      </trkpt>
      <trkpt lat="46.78418" lon="15.49421">
        <ele>341.87634</ele>
        <time>2022-09-19T12:10:41.207Z</time>
      </trkpt>
      <trkpt lat="46.78426" lon="15.49411">
        <ele>341.825081</ele>
        <time>2022-09-19T12:10:45.199Z</time>
      </trkpt>
      <trkpt lat="46.78434" lon="15.49402">
        <ele>341.775025</ele>
        <time>2022-09-19T12:10:49.229Z</time>
      </trkpt>
      <trkpt lat="46.78442" lon="15.49393">
        <ele>341.727962</ele>
        <time>2022-09-19T12:10:53.242Z</time>
      </trkpt>
      <trkpt lat="46.78449" lon="15.49383">
        <ele>341.75367</ele>
        <time>2022-09-19T12:10:57.214Z</time>
      </trkpt>
      <trkpt lat="46.78458" lon="15.49373">
        <ele>341.796348</ele>
        <time>2022-09-19T12:11:02.200Z</time>
      </trkpt>
      <trkpt lat="46.78468" lon="15.49368">
        <ele>341.838748</ele>
        <time>2022-09-19T12:11:07.256Z</time>
      </trkpt>
      <trkpt lat="46.78478" lon="15.49364">
        <ele>341.876033</ele>
        <time>2022-09-19T12:11:11.195Z</time>
      </trkpt>
      <trkpt lat="46.78488" lon="15.49361">
        <ele>341.916861</ele>
        <time>2022-09-19T12:11:15.201Z</time>
      </trkpt>
      <trkpt lat="46.78498" lon="15.49359">
        <ele>341.955779</ele>
        <time>2022-09-19T12:11:19.210Z</time>
      </trkpt>
      <trkpt lat="46.78509" lon="15.49355">
        <ele>341.999165</ele>
        <time>2022-09-19T12:11:23.225Z</time>
      </trkpt>
      <trkpt lat="46.78519" lon="15.49352">
        <ele>342.042232</ele>
        <time>2022-09-19T12:11:27.202Z</time>
      </trkpt>
      <trkpt lat="46.78531" lon="15.49347">
        <ele>342.088897</ele>
        <time>2022-09-19T12:11:31.205Z</time>
      </trkpt>
      <trkpt lat="46.7854" lon="15.49343">
        <ele>342.124076</ele>
        <time>2022-09-19T12:11:34.228Z</time>
      </trkpt>
      <trkpt lat="46.7855" lon="15.49338">
        <ele>342.167773</ele>
        <time>2022-09-19T12:11:38.211Z</time>
      </trkpt>
      <trkpt lat="46.78561" lon="15.49333">
        <ele>342.210078</ele>
        <time>2022-09-19T12:11:42.213Z</time>
      </trkpt>
      <trkpt lat="46.78571" lon="15.49327">
        <ele>342.252755</ele>
        <time>2022-09-19T12:11:46.246Z</time>
      </trkpt>
      <trkpt lat="46.78582" lon="15.49322">
        <ele>342.298832</ele>
        <time>2022-09-19T12:11:50.200Z</time>
      </trkpt>
      <trkpt lat="46.78592" lon="15.49317">
        <ele>342.337126</ele>
        <time>2022-09-19T12:11:53.177Z</time>
      </trkpt>
      <trkpt lat="46.78602" lon="15.49311">
        <ele>342.379869</ele>
        <time>2022-09-19T12:11:56.204Z</time>
      </trkpt>
      <trkpt lat="46.78613" lon="15.49304">
        <ele>342.406865</ele>
        <time>2022-09-19T12:11:59.209Z</time>
      </trkpt>
      <trkpt lat="46.78625" lon="15.49297">
        <ele>342.324305</ele>
        <time>2022-09-19T12:12:02.223Z</time>
      </trkpt>
      <trkpt lat="46.78637" lon="15.4929">
        <ele>342.236908</ele>
        <time>2022-09-19T12:12:05.189Z</time>
      </trkpt>
      <trkpt lat="46.78647" lon="15.49284">
        <ele>342.172822</ele>
        <time>2022-09-19T12:12:07.199Z</time>
      </trkpt>
      <trkpt lat="46.78656" lon="15.49278">
        <ele>342.106804</ele>
        <time>2022-09-19T12:12:09.197Z</time>
      </trkpt>
      <trkpt lat="46.78665" lon="15.49272">
        <ele>342.043535</ele>
        <time>2022-09-19T12:12:11.203Z</time>
      </trkpt>
      <trkpt lat="46.78674" lon="15.49266">
        <ele>341.979693</ele>
        <time>2022-09-19T12:12:13.314Z</time>
      </trkpt>
      <trkpt lat="46.78683" lon="15.4926">
        <ele>341.916624</ele>
        <time>2022-09-19T12:12:15.199Z</time>
      </trkpt>
      <trkpt lat="46.78692" lon="15.49253">
        <ele>341.851815</ele>
        <time>2022-09-19T12:12:17.198Z</time>
      </trkpt>
      <trkpt lat="46.787" lon="15.49248">
        <ele>341.79063</ele>
        <time>2022-09-19T12:12:19.241Z</time>
      </trkpt>
      <trkpt lat="46.78709" lon="15.49241">
        <ele>341.728714</ele>
        <time>2022-09-19T12:12:21.222Z</time>
      </trkpt>
      <trkpt lat="46.78717" lon="15.49235">
        <ele>341.669309</ele>
        <time>2022-09-19T12:12:23.212Z</time>
      </trkpt>
      <trkpt lat="46.78728" lon="15.49226">
        <ele>341.587514</ele>
        <time>2022-09-19T12:12:26.185Z</time>
      </trkpt>
      <trkpt lat="46.78738" lon="15.49218">
        <ele>341.515943</ele>
        <time>2022-09-19T12:12:29.203Z</time>
      </trkpt>
      <trkpt lat="46.78747" lon="15.49209">
        <ele>341.448619</ele>
        <time>2022-09-19T12:12:32.234Z</time>
      </trkpt>
      <trkpt lat="46.78756" lon="15.49198">
        <ele>341.368299</ele>
        <time>2022-09-19T12:12:35.220Z</time>
      </trkpt>
      <trkpt lat="46.78767" lon="15.49187">
        <ele>341.284101</ele>
        <time>2022-09-19T12:12:38.201Z</time>
      </trkpt>
      <trkpt lat="46.78777" lon="15.49175">
        <ele>341.309469</ele>
        <time>2022-09-19T12:12:41.237Z</time>
      </trkpt>
      <trkpt lat="46.78787" lon="15.49165">
        <ele>341.366777</ele>
        <time>2022-09-19T12:12:44.205Z</time>
      </trkpt>
      <trkpt lat="46.78794" lon="15.49156">
        <ele>341.416568</ele>
        <time>2022-09-19T12:12:47.193Z</time>
      </trkpt>
      <trkpt lat="46.78802" lon="15.49147">
        <ele>341.46589</ele>
        <time>2022-09-19T12:12:50.214Z</time>
      </trkpt>
      <trkpt lat="46.7881" lon="15.49138">
        <ele>341.513431</ele>
        <time>2022-09-19T12:12:53.210Z</time>
      </trkpt>
      <trkpt lat="46.78817" lon="15.4913">
        <ele>341.559387</ele>
        <time>2022-09-19T12:12:56.198Z</time>
      </trkpt>
      <trkpt lat="46.78826" lon="15.49122">
        <ele>341.607411</ele>
        <time>2022-09-19T12:12:59.205Z</time>
      </trkpt>
      <trkpt lat="46.78836" lon="15.49116">
        <ele>341.661536</ele>
        <time>2022-09-19T12:13:02.208Z</time>
      </trkpt>
      <trkpt lat="46.78844" lon="15.49111">
        <ele>341.70636</ele>
        <time>2022-09-19T12:13:04.210Z</time>
      </trkpt>
      <trkpt lat="46.78854" lon="15.49107">
        <ele>341.756428</ele>
        <time>2022-09-19T12:13:06.203Z</time>
      </trkpt>
      <trkpt lat="46.78864" lon="15.49102">
        <ele>341.80902</ele>
        <time>2022-09-19T12:13:08.210Z</time>
      </trkpt>
      <trkpt lat="46.78874" lon="15.49097">
        <ele>341.860026</ele>
        <time>2022-09-19T12:13:10.213Z</time>
      </trkpt>
      <trkpt lat="46.78883" lon="15.49093">
        <ele>341.909411</ele>
        <time>2022-09-19T12:13:12.212Z</time>
      </trkpt>
      <trkpt lat="46.78892" lon="15.49089">
        <ele>341.957352</ele>
        <time>2022-09-19T12:13:14.204Z</time>
      </trkpt>
      <trkpt lat="46.78902" lon="15.49085">
        <ele>342.005589</ele>
        <time>2022-09-19T12:13:16.198Z</time>
      </trkpt>
      <trkpt lat="46.78911" lon="15.4908">
        <ele>342.054012</ele>
        <time>2022-09-19T12:13:18.200Z</time>
      </trkpt>
      <trkpt lat="46.7892" lon="15.49075">
        <ele>342.100697</ele>
        <time>2022-09-19T12:13:20.226Z</time>
      </trkpt>
      <trkpt lat="46.78932" lon="15.49069">
        <ele>342.121513</ele>
        <time>2022-09-19T12:13:23.216Z</time>
      </trkpt>
      <trkpt lat="46.78944" lon="15.49063">
        <ele>341.994074</ele>
        <time>2022-09-19T12:13:26.212Z</time>
      </trkpt>
      <trkpt lat="46.78956" lon="15.49056">
        <ele>341.869201</ele>
        <time>2022-09-19T12:13:29.202Z</time>
      </trkpt>
      <trkpt lat="46.78968" lon="15.49049">
        <ele>341.736099</ele>
        <time>2022-09-19T12:13:32.204Z</time>
      </trkpt>
      <trkpt lat="46.7898" lon="15.49042">
        <ele>341.604901</ele>
        <time>2022-09-19T12:13:35.211Z</time>
      </trkpt>
      <trkpt lat="46.78988" lon="15.49036">
        <ele>341.514694</ele>
        <time>2022-09-19T12:13:37.205Z</time>
      </trkpt>
      <trkpt lat="46.78996" lon="15.49029">
        <ele>341.423404</ele>
        <time>2022-09-19T12:13:39.216Z</time>
      </trkpt>
      <trkpt lat="46.79004" lon="15.49023">
        <ele>341.331353</ele>
        <time>2022-09-19T12:13:41.214Z</time>
      </trkpt>
      <trkpt lat="46.79012" lon="15.49016">
        <ele>341.236768</ele>
        <time>2022-09-19T12:13:43.209Z</time>
      </trkpt>
      <trkpt lat="46.79021" lon="15.49009">
        <ele>341.141656</ele>
        <time>2022-09-19T12:13:45.198Z</time>
      </trkpt>
      <trkpt lat="46.79029" lon="15.49001">
        <ele>341.046671</ele>
        <time>2022-09-19T12:13:47.206Z</time>
      </trkpt>
      <trkpt lat="46.79036" lon="15.48994">
        <ele>340.956546</ele>
        <time>2022-09-19T12:13:49.211Z</time>
      </trkpt>
      <trkpt lat="46.79047" lon="15.48985">
        <ele>340.829398</ele>
        <time>2022-09-19T12:13:52.205Z</time>
      </trkpt>
      <trkpt lat="46.79058" lon="15.48976">
        <ele>340.704333</ele>
        <time>2022-09-19T12:13:55.196Z</time>
      </trkpt>
      <trkpt lat="46.79066" lon="15.48969">
        <ele>340.610419</ele>
        <time>2022-09-19T12:13:57.206Z</time>
      </trkpt>
      <trkpt lat="46.79074" lon="15.48963">
        <ele>340.519998</ele>
        <time>2022-09-19T12:13:59.202Z</time>
      </trkpt>
      <trkpt lat="46.79084" lon="15.48954">
        <ele>340.403942</ele>
        <time>2022-09-19T12:14:02.213Z</time>
      </trkpt>
      <trkpt lat="46.79097" lon="15.48944">
        <ele>339.986992</ele>
        <time>2022-09-19T12:14:05.205Z</time>
      </trkpt>
      <trkpt lat="46.79111" lon="15.48938">
        <ele>339.408893</ele>
        <time>2022-09-19T12:14:07.204Z</time>
      </trkpt>
      <trkpt lat="46.79125" lon="15.48935">
        <ele>338.824592</ele>
        <time>2022-09-19T12:14:09.204Z</time>
      </trkpt>
      <trkpt lat="46.79137" lon="15.48931">
        <ele>338.318518</ele>
        <time>2022-09-19T12:14:11.196Z</time>
      </trkpt>
      <trkpt lat="46.79148" lon="15.48925">
        <ele>337.848827</ele>
        <time>2022-09-19T12:14:13.234Z</time>
      </trkpt>
      <trkpt lat="46.79159" lon="15.4892">
        <ele>337.383365</ele>
        <time>2022-09-19T12:14:15.214Z</time>
      </trkpt>
      <trkpt lat="46.7917" lon="15.48917">
        <ele>336.930438</ele>
        <time>2022-09-19T12:14:17.213Z</time>
      </trkpt>
      <trkpt lat="46.7918" lon="15.48913">
        <ele>336.517839</ele>
        <time>2022-09-19T12:14:19.189Z</time>
      </trkpt>
      <trkpt lat="46.79189" lon="15.48907">
        <ele>336.096767</ele>
        <time>2022-09-19T12:14:21.206Z</time>
      </trkpt>
      <trkpt lat="46.792" lon="15.48904">
        <ele>335.662864</ele>
        <time>2022-09-19T12:14:23.215Z</time>
      </trkpt>
      <trkpt lat="46.79211" lon="15.489">
        <ele>335.217818</ele>
        <time>2022-09-19T12:14:25.211Z</time>
      </trkpt>
      <trkpt lat="46.79222" lon="15.48896">
        <ele>334.748494</ele>
        <time>2022-09-19T12:14:27.202Z</time>
      </trkpt>
      <trkpt lat="46.79233" lon="15.48892">
        <ele>334.303448</ele>
        <time>2022-09-19T12:14:29.197Z</time>
      </trkpt>
      <trkpt lat="46.79243" lon="15.48889">
        <ele>333.876049</ele>
        <time>2022-09-19T12:14:31.196Z</time>
      </trkpt>
      <trkpt lat="46.79253" lon="15.48885">
        <ele>333.458523</ele>
        <time>2022-09-19T12:14:33.197Z</time>
      </trkpt>
      <trkpt lat="46.79263" lon="15.48882">
        <ele>333.082184</ele>
        <time>2022-09-19T12:14:35.234Z</time>
      </trkpt>
      <trkpt lat="46.79273" lon="15.48878">
        <ele>333.361184</ele>
        <time>2022-09-19T12:14:37.201Z</time>
      </trkpt>
      <trkpt lat="46.79282" lon="15.48875">
        <ele>333.63173</ele>
        <time>2022-09-19T12:14:39.242Z</time>
      </trkpt>
      <trkpt lat="46.79291" lon="15.48873">
        <ele>333.886141</ele>
        <time>2022-09-19T12:14:41.279Z</time>
      </trkpt>
      <trkpt lat="46.79301" lon="15.4887">
        <ele>334.143253</ele>
        <time>2022-09-19T12:14:43.200Z</time>
      </trkpt>
      <trkpt lat="46.7931" lon="15.48867">
        <ele>334.399569</ele>
        <time>2022-09-19T12:14:45.207Z</time>
      </trkpt>
      <trkpt lat="46.79319" lon="15.48865">
        <ele>334.656681</ele>
        <time>2022-09-19T12:14:47.203Z</time>
      </trkpt>
      <trkpt lat="46.79328" lon="15.48863">
        <ele>334.92067</ele>
        <time>2022-09-19T12:14:49.230Z</time>
      </trkpt>
      <trkpt lat="46.79337" lon="15.48861">
        <ele>335.17189</ele>
        <time>2022-09-19T12:14:51.207Z</time>
      </trkpt>
      <trkpt lat="46.79346" lon="15.4886">
        <ele>335.417007</ele>
        <time>2022-09-19T12:14:53.213Z</time>
      </trkpt>
      <trkpt lat="46.7936" lon="15.4886">
        <ele>335.793463</ele>
        <time>2022-09-19T12:14:56.200Z</time>
      </trkpt>
      <trkpt lat="46.79369" lon="15.4886">
        <ele>336.04635</ele>
        <time>2022-09-19T12:14:58.209Z</time>
      </trkpt>
      <trkpt lat="46.79382" lon="15.48863">
        <ele>336.400247</ele>
        <time>2022-09-19T12:15:01.199Z</time>
      </trkpt>
      <trkpt lat="46.79394" lon="15.48865">
        <ele>336.741716</ele>
        <time>2022-09-19T12:15:04.207Z</time>
      </trkpt>
      <trkpt lat="46.79406" lon="15.48869">
        <ele>337.057634</ele>
        <time>2022-09-19T12:15:07.201Z</time>
      </trkpt>
      <trkpt lat="46.79416" lon="15.48873">
        <ele>337.357971</ele>
        <time>2022-09-19T12:15:10.202Z</time>
      </trkpt>
      <trkpt lat="46.79426" lon="15.48878">
        <ele>337.641374</ele>
        <time>2022-09-19T12:15:13.198Z</time>
      </trkpt>
      <trkpt lat="46.79438" lon="15.48882">
        <ele>337.971138</ele>
        <time>2022-09-19T12:15:17.202Z</time>
      </trkpt>
      <trkpt lat="46.79447" lon="15.48886">
        <ele>338.119457</ele>
        <time>2022-09-19T12:15:20.196Z</time>
      </trkpt>
      <trkpt lat="46.79456" lon="15.4889">
        <ele>338.255819</ele>
        <time>2022-09-19T12:15:23.213Z</time>
      </trkpt>
      <trkpt lat="46.79466" lon="15.48892">
        <ele>338.395564</ele>
        <time>2022-09-19T12:15:26.202Z</time>
      </trkpt>
      <trkpt lat="46.79477" lon="15.48894">
        <ele>338.542495</ele>
        <time>2022-09-19T12:15:29.209Z</time>
      </trkpt>
      <trkpt lat="46.79487" lon="15.48896">
        <ele>338.689109</ele>
        <time>2022-09-19T12:15:32.192Z</time>
      </trkpt>
      <trkpt lat="46.79498" lon="15.48897">
        <ele>338.835192</ele>
        <time>2022-09-19T12:15:35.210Z</time>
      </trkpt>
      <trkpt lat="46.79509" lon="15.48896">
        <ele>338.98933</ele>
        <time>2022-09-19T12:15:38.200Z</time>
      </trkpt>
      <trkpt lat="46.79521" lon="15.48895">
        <ele>339.146581</ele>
        <time>2022-09-19T12:15:41.203Z</time>
      </trkpt>
      <trkpt lat="46.79532" lon="15.48892">
        <ele>339.303593</ele>
        <time>2022-09-19T12:15:44.200Z</time>
      </trkpt>
      <trkpt lat="46.79543" lon="15.48888">
        <ele>339.463561</ele>
        <time>2022-09-19T12:15:47.185Z</time>
      </trkpt>
      <trkpt lat="46.79554" lon="15.48882">
        <ele>339.628739</ele>
        <time>2022-09-19T12:15:50.207Z</time>
      </trkpt>
      <trkpt lat="46.79566" lon="15.48876">
        <ele>339.791906</ele>
        <time>2022-09-19T12:15:53.248Z</time>
      </trkpt>
      <trkpt lat="46.79577" lon="15.48871">
        <ele>339.955083</ele>
        <time>2022-09-19T12:15:56.201Z</time>
      </trkpt>
      <trkpt lat="46.79587" lon="15.48866">
        <ele>340.099903</ele>
        <time>2022-09-19T12:15:59.228Z</time>
      </trkpt>
      <trkpt lat="46.79596" lon="15.48861">
        <ele>340.238052</ele>
        <time>2022-09-19T12:16:02.204Z</time>
      </trkpt>
      <trkpt lat="46.79606" lon="15.48856">
        <ele>340.375742</ele>
        <time>2022-09-19T12:16:05.199Z</time>
      </trkpt>
      <trkpt lat="46.79615" lon="15.48851">
        <ele>340.482303</ele>
        <time>2022-09-19T12:16:08.199Z</time>
      </trkpt>
      <trkpt lat="46.79624" lon="15.48844">
        <ele>340.475134</ele>
        <time>2022-09-19T12:16:11.198Z</time>
      </trkpt>
      <trkpt lat="46.79634" lon="15.48837">
        <ele>340.467823</ele>
        <time>2022-09-19T12:16:14.216Z</time>
      </trkpt>
      <trkpt lat="46.79644" lon="15.4883">
        <ele>340.460533</ele>
        <time>2022-09-19T12:16:17.209Z</time>
      </trkpt>
      <trkpt lat="46.79654" lon="15.48823">
        <ele>340.453144</ele>
        <time>2022-09-19T12:16:20.227Z</time>
      </trkpt>
      <trkpt lat="46.79664" lon="15.48814">
        <ele>340.445218</ele>
        <time>2022-09-19T12:16:23.206Z</time>
      </trkpt>
      <trkpt lat="46.79674" lon="15.48805">
        <ele>340.43748</ele>
        <time>2022-09-19T12:16:26.243Z</time>
      </trkpt>
      <trkpt lat="46.79683" lon="15.48794">
        <ele>340.429739</ele>
        <time>2022-09-19T12:16:29.245Z</time>
      </trkpt>
      <trkpt lat="46.79692" lon="15.48783">
        <ele>340.421778</ele>
        <time>2022-09-19T12:16:32.204Z</time>
      </trkpt>
      <trkpt lat="46.79701" lon="15.48771">
        <ele>340.413312</ele>
        <time>2022-09-19T12:16:35.207Z</time>
      </trkpt>
      <trkpt lat="46.7971" lon="15.48759">
        <ele>340.405029</ele>
        <time>2022-09-19T12:16:38.202Z</time>
      </trkpt>
      <trkpt lat="46.7972" lon="15.48747">
        <ele>340.396614</ele>
        <time>2022-09-19T12:16:41.192Z</time>
      </trkpt>
      <trkpt lat="46.7973" lon="15.48734">
        <ele>340.387796</ele>
        <time>2022-09-19T12:16:44.201Z</time>
      </trkpt>
      <trkpt lat="46.79737" lon="15.48725">
        <ele>340.381497</ele>
        <time>2022-09-19T12:16:46.200Z</time>
      </trkpt>
      <trkpt lat="46.79743" lon="15.48716">
        <ele>340.375464</ele>
        <time>2022-09-19T12:16:48.253Z</time>
      </trkpt>
      <trkpt lat="46.7975" lon="15.48706">
        <ele>340.369158</ele>
        <time>2022-09-19T12:16:50.201Z</time>
      </trkpt>
      <trkpt lat="46.79757" lon="15.48697">
        <ele>340.372516</ele>
        <time>2022-09-19T12:16:52.209Z</time>
      </trkpt>
      <trkpt lat="46.79763" lon="15.48687">
        <ele>340.595345</ele>
        <time>2022-09-19T12:16:54.206Z</time>
      </trkpt>
      <trkpt lat="46.7977" lon="15.48671">
        <ele>340.922655</ele>
        <time>2022-09-19T12:16:57.214Z</time>
      </trkpt>
      <trkpt lat="46.79776" lon="15.48655">
        <ele>341.224959</ele>
        <time>2022-09-19T12:17:00.204Z</time>
      </trkpt>
      <trkpt lat="46.79781" lon="15.48638">
        <ele>341.534127</ele>
        <time>2022-09-19T12:17:03.210Z</time>
      </trkpt>
      <trkpt lat="46.79785" lon="15.48622">
        <ele>341.825576</ele>
        <time>2022-09-19T12:17:06.195Z</time>
      </trkpt>
      <trkpt lat="46.79788" lon="15.48605">
        <ele>342.11082</ele>
        <time>2022-09-19T12:17:09.205Z</time>
      </trkpt>
      <trkpt lat="46.79789" lon="15.48589">
        <ele>342.399139</ele>
        <time>2022-09-19T12:17:12.197Z</time>
      </trkpt>
      <trkpt lat="46.79791" lon="15.48571">
        <ele>342.698504</ele>
        <time>2022-09-19T12:17:15.196Z</time>
      </trkpt>
      <trkpt lat="46.79792" lon="15.48554">
        <ele>342.978575</ele>
        <time>2022-09-19T12:17:18.214Z</time>
      </trkpt>
      <trkpt lat="46.79793" lon="15.48539">
        <ele>343.231952</ele>
        <time>2022-09-19T12:17:21.185Z</time>
      </trkpt>
      <trkpt lat="46.79793" lon="15.48525">
        <ele>343.468888</ele>
        <time>2022-09-19T12:17:24.205Z</time>
      </trkpt>
      <trkpt lat="46.79795" lon="15.48512">
        <ele>343.706981</ele>
        <time>2022-09-19T12:17:27.198Z</time>
      </trkpt>
      <trkpt lat="46.79797" lon="15.48499">
        <ele>343.934078</ele>
        <time>2022-09-19T12:17:30.217Z</time>
      </trkpt>
      <trkpt lat="46.79803" lon="15.48485">
        <ele>344.206123</ele>
        <time>2022-09-19T12:17:33.202Z</time>
      </trkpt>
      <trkpt lat="46.7981" lon="15.4847">
        <ele>344.505604</ele>
        <time>2022-09-19T12:17:36.197Z</time>
      </trkpt>
      <trkpt lat="46.79816" lon="15.4846">
        <ele>344.733752</ele>
        <time>2022-09-19T12:17:38.203Z</time>
      </trkpt>
      <trkpt lat="46.79823" lon="15.48451">
        <ele>344.702226</ele>
        <time>2022-09-19T12:17:40.198Z</time>
      </trkpt>
      <trkpt lat="46.79831" lon="15.48441">
        <ele>344.562301</ele>
        <time>2022-09-19T12:17:42.193Z</time>
      </trkpt>
      <trkpt lat="46.79837" lon="15.48432">
        <ele>344.431912</ele>
        <time>2022-09-19T12:17:44.217Z</time>
      </trkpt>
      <trkpt lat="46.79846" lon="15.48419">
        <ele>344.250772</ele>
        <time>2022-09-19T12:17:47.207Z</time>
      </trkpt>
      <trkpt lat="46.79856" lon="15.48405">
        <ele>344.065285</ele>
        <time>2022-09-19T12:17:50.200Z</time>
      </trkpt>
      <trkpt lat="46.79864" lon="15.48392">
        <ele>343.887818</ele>
        <time>2022-09-19T12:17:53.207Z</time>
      </trkpt>
      <trkpt lat="46.79872" lon="15.48377">
        <ele>343.709754</ele>
        <time>2022-09-19T12:17:56.201Z</time>
      </trkpt>
      <trkpt lat="46.79879" lon="15.48362">
        <ele>343.530598</ele>
        <time>2022-09-19T12:17:59.208Z</time>
      </trkpt>
      <trkpt lat="46.79885" lon="15.48346">
        <ele>343.356976</ele>
        <time>2022-09-19T12:18:02.201Z</time>
      </trkpt>
      <trkpt lat="46.7989" lon="15.48332">
        <ele>343.201919</ele>
        <time>2022-09-19T12:18:05.201Z</time>
      </trkpt>
      <trkpt lat="46.79895" lon="15.48319">
        <ele>343.061092</ele>
        <time>2022-09-19T12:18:08.209Z</time>
      </trkpt>
      <trkpt lat="46.799" lon="15.48305">
        <ele>342.906788</ele>
        <time>2022-09-19T12:18:11.211Z</time>
      </trkpt>
      <trkpt lat="46.79906" lon="15.48291">
        <ele>342.749122</ele>
        <time>2022-09-19T12:18:14.205Z</time>
      </trkpt>
      <trkpt lat="46.79911" lon="15.4828">
        <ele>342.618536</ele>
        <time>2022-09-19T12:18:16.204Z</time>
      </trkpt>
      <trkpt lat="46.79919" lon="15.48267">
        <ele>342.451752</ele>
        <time>2022-09-19T12:18:18.212Z</time>
      </trkpt>
      <trkpt lat="46.79928" lon="15.48254">
        <ele>342.280223</ele>
        <time>2022-09-19T12:18:20.216Z</time>
      </trkpt>
      <trkpt lat="46.79935" lon="15.48243">
        <ele>342.043431</ele>
        <time>2022-09-19T12:18:22.211Z</time>
      </trkpt>
      <trkpt lat="46.7994" lon="15.48232">
        <ele>341.821995</ele>
        <time>2022-09-19T12:18:24.214Z</time>
      </trkpt>
      <trkpt lat="46.79948" lon="15.48216">
        <ele>341.513486</ele>
        <time>2022-09-19T12:18:27.206Z</time>
      </trkpt>
      <trkpt lat="46.79957" lon="15.48201">
        <ele>341.203688</ele>
        <time>2022-09-19T12:18:30.203Z</time>
      </trkpt>
      <trkpt lat="46.79966" lon="15.48186">
        <ele>340.891163</ele>
        <time>2022-09-19T12:18:33.205Z</time>
      </trkpt>
      <trkpt lat="46.79973" lon="15.48173">
        <ele>340.605813</ele>
        <time>2022-09-19T12:18:36.212Z</time>
      </trkpt>
      <trkpt lat="46.79981" lon="15.48159">
        <ele>340.327117</ele>
        <time>2022-09-19T12:18:39.204Z</time>
      </trkpt>
      <trkpt lat="46.79989" lon="15.48146">
        <ele>340.042997</ele>
        <time>2022-09-19T12:18:42.198Z</time>
      </trkpt>
      <trkpt lat="46.79996" lon="15.48133">
        <ele>339.775102</ele>
        <time>2022-09-19T12:18:45.237Z</time>
      </trkpt>
      <trkpt lat="46.80005" lon="15.48119">
        <ele>339.482398</ele>
        <time>2022-09-19T12:18:48.209Z</time>
      </trkpt>
      <trkpt lat="46.80013" lon="15.48108">
        <ele>339.215725</ele>
        <time>2022-09-19T12:18:51.212Z</time>
      </trkpt>
      <trkpt lat="46.80021" lon="15.48097">
        <ele>338.97621</ele>
        <time>2022-09-19T12:18:54.198Z</time>
      </trkpt>
      <trkpt lat="46.80029" lon="15.4809">
        <ele>338.750923</ele>
        <time>2022-09-19T12:18:57.206Z</time>
      </trkpt>
      <trkpt lat="46.80039" lon="15.48085">
        <ele>338.509221</ele>
        <time>2022-09-19T12:19:00.192Z</time>
      </trkpt>
      <trkpt lat="46.8005" lon="15.48082">
        <ele>338.248707</ele>
        <time>2022-09-19T12:19:03.208Z</time>
      </trkpt>
      <trkpt lat="46.80061" lon="15.48078">
        <ele>338.18251</ele>
        <time>2022-09-19T12:19:06.199Z</time>
      </trkpt>
      <trkpt lat="46.80071" lon="15.48075">
        <ele>338.508293</ele>
        <time>2022-09-19T12:19:09.206Z</time>
      </trkpt>
      <trkpt lat="46.80081" lon="15.4807">
        <ele>338.839343</ele>
        <time>2022-09-19T12:19:13.243Z</time>
      </trkpt>
      <trkpt lat="46.80088" lon="15.4806">
        <ele>339.138235</ele>
        <time>2022-09-19T12:19:16.198Z</time>
      </trkpt>
      <trkpt lat="46.80095" lon="15.4805">
        <ele>339.435876</ele>
        <time>2022-09-19T12:19:19.197Z</time>
      </trkpt>
      <trkpt lat="46.80103" lon="15.4804">
        <ele>339.786826</ele>
        <time>2022-09-19T12:19:23.233Z</time>
      </trkpt>
      <trkpt lat="46.80111" lon="15.48029">
        <ele>340.113244</ele>
        <time>2022-09-19T12:19:27.201Z</time>
      </trkpt>
      <trkpt lat="46.80118" lon="15.48017">
        <ele>340.452099</ele>
        <time>2022-09-19T12:19:31.201Z</time>
      </trkpt>
      <trkpt lat="46.80125" lon="15.48005">
        <ele>340.768715</ele>
        <time>2022-09-19T12:19:34.202Z</time>
      </trkpt>
      <trkpt lat="46.80132" lon="15.47994">
        <ele>341.102858</ele>
        <time>2022-09-19T12:19:37.223Z</time>
      </trkpt>
      <trkpt lat="46.80141" lon="15.47981">
        <ele>341.502396</ele>
        <time>2022-09-19T12:19:40.240Z</time>
      </trkpt>
      <trkpt lat="46.80151" lon="15.47965">
        <ele>341.942008</ele>
        <time>2022-09-19T12:19:43.200Z</time>
      </trkpt>
      <trkpt lat="46.80157" lon="15.47954">
        <ele>342.260632</ele>
        <time>2022-09-19T12:19:45.202Z</time>
      </trkpt>
      <trkpt lat="46.80163" lon="15.47944">
        <ele>342.545437</ele>
        <time>2022-09-19T12:19:47.205Z</time>
      </trkpt>
      <trkpt lat="46.80171" lon="15.47929">
        <ele>342.940362</ele>
        <time>2022-09-19T12:19:50.217Z</time>
      </trkpt>
      <trkpt lat="46.80178" lon="15.47912">
        <ele>343.357243</ele>
        <time>2022-09-19T12:19:53.195Z</time>
      </trkpt>
      <trkpt lat="46.80185" lon="15.47897">
        <ele>343.66187</ele>
        <time>2022-09-19T12:19:56.189Z</time>
      </trkpt>
      <trkpt lat="46.80191" lon="15.47884">
        <ele>343.729116</ele>
        <time>2022-09-19T12:19:59.234Z</time>
      </trkpt>
      <trkpt lat="46.80197" lon="15.4787">
        <ele>343.794714</ele>
        <time>2022-09-19T12:20:02.185Z</time>
      </trkpt>
      <trkpt lat="46.80202" lon="15.47856">
        <ele>343.86285</ele>
        <time>2022-09-19T12:20:05.209Z</time>
      </trkpt>
      <trkpt lat="46.80208" lon="15.47842">
        <ele>343.934628</ele>
        <time>2022-09-19T12:20:08.203Z</time>
      </trkpt>
      <trkpt lat="46.80216" lon="15.47827">
        <ele>344.010686</ele>
        <time>2022-09-19T12:20:11.209Z</time>
      </trkpt>
      <trkpt lat="46.80225" lon="15.47814">
        <ele>344.08865</ele>
        <time>2022-09-19T12:20:14.209Z</time>
      </trkpt>
      <trkpt lat="46.80234" lon="15.478">
        <ele>344.168675</ele>
        <time>2022-09-19T12:20:17.219Z</time>
      </trkpt>
      <trkpt lat="46.80242" lon="15.47787">
        <ele>344.244457</ele>
        <time>2022-09-19T12:20:20.205Z</time>
      </trkpt>
      <trkpt lat="46.80251" lon="15.47776">
        <ele>344.315401</ele>
        <time>2022-09-19T12:20:23.186Z</time>
      </trkpt>
      <trkpt lat="46.8026" lon="15.47766">
        <ele>344.384084</ele>
        <time>2022-09-19T12:20:26.202Z</time>
      </trkpt>
      <trkpt lat="46.80268" lon="15.47755">
        <ele>344.450413</ele>
        <time>2022-09-19T12:20:29.210Z</time>
      </trkpt>
      <trkpt lat="46.80278" lon="15.47745">
        <ele>344.526203</ele>
        <time>2022-09-19T12:20:32.200Z</time>
      </trkpt>
      <trkpt lat="46.80285" lon="15.47737">
        <ele>344.581498</ele>
        <time>2022-09-19T12:20:34.201Z</time>
      </trkpt>
      <trkpt lat="46.80294" lon="15.47724">
        <ele>344.659179</ele>
        <time>2022-09-19T12:20:37.206Z</time>
      </trkpt>
      <trkpt lat="46.80304" lon="15.47711">
        <ele>344.739591</ele>
        <time>2022-09-19T12:20:40.202Z</time>
      </trkpt>
      <trkpt lat="46.80312" lon="15.47696">
        <ele>345.234667</ele>
        <time>2022-09-19T12:20:43.217Z</time>
      </trkpt>
      <trkpt lat="46.80321" lon="15.47682">
        <ele>345.747738</ele>
        <time>2022-09-19T12:20:46.240Z</time>
      </trkpt>
      <trkpt lat="46.80328" lon="15.47667">
        <ele>346.233629</ele>
        <time>2022-09-19T12:20:49.200Z</time>
      </trkpt>
      <trkpt lat="46.80333" lon="15.47653">
        <ele>346.671205</ele>
        <time>2022-09-19T12:20:52.201Z</time>
      </trkpt>
      <trkpt lat="46.80337" lon="15.47639">
        <ele>347.08167</ele>
        <time>2022-09-19T12:20:55.201Z</time>
      </trkpt>
      <trkpt lat="46.80342" lon="15.47624">
        <ele>347.540538</ele>
        <time>2022-09-19T12:20:59.206Z</time>
      </trkpt>
      <trkpt lat="46.80345" lon="15.47611">
        <ele>347.92929</ele>
        <time>2022-09-19T12:21:03.187Z</time>
      </trkpt>
      <trkpt lat="46.80349" lon="15.47596">
        <ele>348.366963</ele>
        <time>2022-09-19T12:21:08.226Z</time>
      </trkpt>
      <trkpt lat="46.80352" lon="15.47581">
        <ele>348.779728</ele>
        <time>2022-09-19T12:21:13.209Z</time>
      </trkpt>
      <trkpt lat="46.80354" lon="15.47568">
        <ele>349.155294</ele>
        <time>2022-09-19T12:21:18.197Z</time>
      </trkpt>
      <trkpt lat="46.80357" lon="15.47553">
        <ele>349.579476</ele>
        <time>2022-09-19T12:21:23.194Z</time>
      </trkpt>
      <trkpt lat="46.80361" lon="15.4754">
        <ele>349.975403</ele>
        <time>2022-09-19T12:21:27.191Z</time>
      </trkpt>
      <trkpt lat="46.80364" lon="15.47526">
        <ele>350.363486</ele>
        <time>2022-09-19T12:21:31.201Z</time>
      </trkpt>
      <trkpt lat="46.80367" lon="15.47512">
        <ele>350.763305</ele>
        <time>2022-09-19T12:21:35.232Z</time>
      </trkpt>
      <trkpt lat="46.80371" lon="15.47498">
        <ele>351.183683</ele>
        <time>2022-09-19T12:21:39.203Z</time>
      </trkpt>
      <trkpt lat="46.80376" lon="15.47485">
        <ele>351.600454</ele>
        <time>2022-09-19T12:21:42.194Z</time>
      </trkpt>
      <trkpt lat="46.80382" lon="15.47471">
        <ele>351.883092</ele>
        <time>2022-09-19T12:21:45.194Z</time>
      </trkpt>
      <trkpt lat="46.80389" lon="15.47455">
        <ele>351.801921</ele>
        <time>2022-09-19T12:21:48.200Z</time>
      </trkpt>
      <trkpt lat="46.80396" lon="15.47439">
        <ele>351.721997</ele>
        <time>2022-09-19T12:21:51.208Z</time>
      </trkpt>
      <trkpt lat="46.80402" lon="15.47422">
        <ele>351.640204</ele>
        <time>2022-09-19T12:21:54.203Z</time>
      </trkpt>
      <trkpt lat="46.80407" lon="15.47408">
        <ele>351.57095</ele>
        <time>2022-09-19T12:21:57.191Z</time>
      </trkpt>
      <trkpt lat="46.80413" lon="15.47394">
        <ele>351.500697</ele>
        <time>2022-09-19T12:22:00.201Z</time>
      </trkpt>
      <trkpt lat="46.80419" lon="15.4738">
        <ele>351.428056</ele>
        <time>2022-09-19T12:22:03.203Z</time>
      </trkpt>
      <trkpt lat="46.80425" lon="15.47366">
        <ele>351.356086</ele>
        <time>2022-09-19T12:22:06.208Z</time>
      </trkpt>
      <trkpt lat="46.8043" lon="15.47351">
        <ele>351.283283</ele>
        <time>2022-09-19T12:22:09.239Z</time>
      </trkpt>
      <trkpt lat="46.80438" lon="15.47337">
        <ele>351.20742</ele>
        <time>2022-09-19T12:22:12.203Z</time>
      </trkpt>
      <trkpt lat="46.80447" lon="15.47326">
        <ele>351.135936</ele>
        <time>2022-09-19T12:22:15.206Z</time>
      </trkpt>
      <trkpt lat="46.80454" lon="15.47317">
        <ele>351.077183</ele>
        <time>2022-09-19T12:22:18.223Z</time>
      </trkpt>
      <trkpt lat="46.80461" lon="15.47306">
        <ele>351.012472</ele>
        <time>2022-09-19T12:22:21.205Z</time>
      </trkpt>
      <trkpt lat="46.80468" lon="15.47297">
        <ele>350.951319</ele>
        <time>2022-09-19T12:22:24.204Z</time>
      </trkpt>
      <trkpt lat="46.80477" lon="15.47287">
        <ele>350.878479</ele>
        <time>2022-09-19T12:22:28.216Z</time>
      </trkpt>
      <trkpt lat="46.80485" lon="15.47276">
        <ele>350.81273</ele>
        <time>2022-09-19T12:22:32.191Z</time>
      </trkpt>
      <trkpt lat="46.80494" lon="15.47268">
        <ele>350.698202</ele>
        <time>2022-09-19T12:22:36.217Z</time>
      </trkpt>
      <trkpt lat="46.80502" lon="15.47261">
        <ele>350.501501</ele>
        <time>2022-09-19T12:22:41.202Z</time>
      </trkpt>
      <trkpt lat="46.8051" lon="15.47253">
        <ele>350.31235</ele>
        <time>2022-09-19T12:22:46.206Z</time>
      </trkpt>
      <trkpt lat="46.8052" lon="15.47245">
        <ele>350.106721</ele>
        <time>2022-09-19T12:22:51.198Z</time>
      </trkpt>
      <trkpt lat="46.8053" lon="15.47239">
        <ele>349.895269</ele>
        <time>2022-09-19T12:22:57.203Z</time>
      </trkpt>
      <trkpt lat="46.80539" lon="15.47234">
        <ele>349.706115</ele>
        <time>2022-09-19T12:23:01.207Z</time>
      </trkpt>
      <trkpt lat="46.80548" lon="15.4723">
        <ele>349.522581</ele>
        <time>2022-09-19T12:23:06.197Z</time>
      </trkpt>
      <trkpt lat="46.80558" lon="15.47226">
        <ele>349.323927</ele>
        <time>2022-09-19T12:23:12.183Z</time>
      </trkpt>
      <trkpt lat="46.80568" lon="15.47224">
        <ele>349.129604</ele>
        <time>2022-09-19T12:23:18.208Z</time>
      </trkpt>
      <trkpt lat="46.80579" lon="15.47223">
        <ele>348.920781</ele>
        <time>2022-09-19T12:23:24.196Z</time>
      </trkpt>
      <trkpt lat="46.80591" lon="15.47225">
        <ele>348.679568</ele>
        <time>2022-09-19T12:23:28.210Z</time>
      </trkpt>
      <trkpt lat="46.80603" lon="15.47231">
        <ele>348.438244</ele>
        <time>2022-09-19T12:23:31.199Z</time>
      </trkpt>
      <trkpt lat="46.80615" lon="15.47236">
        <ele>348.195446</ele>
        <time>2022-09-19T12:23:34.198Z</time>
      </trkpt>
      <trkpt lat="46.80625" lon="15.47238">
        <ele>348.003022</ele>
        <time>2022-09-19T12:23:36.199Z</time>
      </trkpt>
      <trkpt lat="46.80636" lon="15.47239">
        <ele>347.802544</ele>
        <time>2022-09-19T12:23:38.195Z</time>
      </trkpt>
      <trkpt lat="46.80646" lon="15.47241">
        <ele>347.59604</ele>
        <time>2022-09-19T12:23:40.194Z</time>
      </trkpt>
      <trkpt lat="46.80657" lon="15.47245">
        <ele>347.382865</ele>
        <time>2022-09-19T12:23:42.216Z</time>
      </trkpt>
      <trkpt lat="46.80667" lon="15.47248">
        <ele>347.18148</ele>
        <time>2022-09-19T12:23:44.244Z</time>
      </trkpt>
      <trkpt lat="46.80677" lon="15.47251">
        <ele>346.995902</ele>
        <time>2022-09-19T12:23:46.205Z</time>
      </trkpt>
      <trkpt lat="46.80687" lon="15.47253">
        <ele>346.801508</ele>
        <time>2022-09-19T12:23:48.197Z</time>
      </trkpt>
      <trkpt lat="46.80698" lon="15.47255">
        <ele>346.585972</ele>
        <time>2022-09-19T12:23:50.233Z</time>
      </trkpt>
      <trkpt lat="46.80708" lon="15.47256">
        <ele>346.383599</ele>
        <time>2022-09-19T12:23:52.204Z</time>
      </trkpt>
      <trkpt lat="46.80718" lon="15.47258">
        <ele>346.192735</ele>
        <time>2022-09-19T12:23:54.194Z</time>
      </trkpt>
      <trkpt lat="46.80727" lon="15.4726">
        <ele>346.010149</ele>
        <time>2022-09-19T12:23:56.229Z</time>
      </trkpt>
      <trkpt lat="46.8074" lon="15.47261">
        <ele>345.770008</ele>
        <time>2022-09-19T12:23:59.204Z</time>
      </trkpt>
      <trkpt lat="46.80751" lon="15.47263">
        <ele>345.557193</ele>
        <time>2022-09-19T12:24:02.199Z</time>
      </trkpt>
      <trkpt lat="46.80761" lon="15.47268">
        <ele>345.345743</ele>
        <time>2022-09-19T12:24:05.198Z</time>
      </trkpt>
      <trkpt lat="46.80773" lon="15.47273">
        <ele>345.103493</ele>
        <time>2022-09-19T12:24:08.184Z</time>
      </trkpt>
      <trkpt lat="46.80784" lon="15.47275">
        <ele>344.892193</ele>
        <time>2022-09-19T12:24:11.202Z</time>
      </trkpt>
      <trkpt lat="46.80796" lon="15.47278">
        <ele>344.656709</ele>
        <time>2022-09-19T12:24:14.205Z</time>
      </trkpt>
      <trkpt lat="46.80809" lon="15.47282">
        <ele>344.405934</ele>
        <time>2022-09-19T12:24:17.211Z</time>
      </trkpt>
      <trkpt lat="46.8082" lon="15.47287">
        <ele>344.172597</ele>
        <time>2022-09-19T12:24:20.198Z</time>
      </trkpt>
      <trkpt lat="46.8083" lon="15.47293">
        <ele>343.962953</ele>
        <time>2022-09-19T12:24:23.244Z</time>
      </trkpt>
      <trkpt lat="46.80841" lon="15.47299">
        <ele>343.771138</ele>
        <time>2022-09-19T12:24:26.198Z</time>
      </trkpt>
      <trkpt lat="46.80851" lon="15.47308">
        <ele>343.620836</ele>
        <time>2022-09-19T12:24:29.257Z</time>
      </trkpt>
      <trkpt lat="46.8086" lon="15.47317">
        <ele>343.47372</ele>
        <time>2022-09-19T12:24:32.225Z</time>
      </trkpt>
      <trkpt lat="46.80869" lon="15.47325">
        <ele>343.332189</ele>
        <time>2022-09-19T12:24:35.200Z</time>
      </trkpt>
      <trkpt lat="46.80879" lon="15.47331">
        <ele>343.194977</ele>
        <time>2022-09-19T12:24:38.228Z</time>
      </trkpt>
      <trkpt lat="46.80889" lon="15.47335">
        <ele>343.05709</ele>
        <time>2022-09-19T12:24:41.209Z</time>
      </trkpt>
      <trkpt lat="46.809" lon="15.47339">
        <ele>342.908253</ele>
        <time>2022-09-19T12:24:44.202Z</time>
      </trkpt>
      <trkpt lat="46.80913" lon="15.4734">
        <ele>342.741639</ele>
        <time>2022-09-19T12:24:47.199Z</time>
      </trkpt>
      <trkpt lat="46.80922" lon="15.47338">
        <ele>342.6176</ele>
        <time>2022-09-19T12:24:49.204Z</time>
      </trkpt>
      <trkpt lat="46.80931" lon="15.47335">
        <ele>342.492769</ele>
        <time>2022-09-19T12:24:51.213Z</time>
      </trkpt>
      <trkpt lat="46.80941" lon="15.47331">
        <ele>342.362146</ele>
        <time>2022-09-19T12:24:53.211Z</time>
      </trkpt>
      <trkpt lat="46.8095" lon="15.47324">
        <ele>342.22781</ele>
        <time>2022-09-19T12:24:55.197Z</time>
      </trkpt>
      <trkpt lat="46.80959" lon="15.47316">
        <ele>342.092595</ele>
        <time>2022-09-19T12:24:57.207Z</time>
      </trkpt>
      <trkpt lat="46.80967" lon="15.47306">
        <ele>341.958489</ele>
        <time>2022-09-19T12:24:59.222Z</time>
      </trkpt>
      <trkpt lat="46.80975" lon="15.47297">
        <ele>341.822908</ele>
        <time>2022-09-19T12:25:01.203Z</time>
      </trkpt>
      <trkpt lat="46.80983" lon="15.47288">
        <ele>341.689811</ele>
        <time>2022-09-19T12:25:03.199Z</time>
      </trkpt>
      <trkpt lat="46.80991" lon="15.47278">
        <ele>341.551525</ele>
        <time>2022-09-19T12:25:05.213Z</time>
      </trkpt>
      <trkpt lat="46.80999" lon="15.47268">
        <ele>341.324137</ele>
        <time>2022-09-19T12:25:07.199Z</time>
      </trkpt>
      <trkpt lat="46.81007" lon="15.47259">
        <ele>340.978332</ele>
        <time>2022-09-19T12:25:09.199Z</time>
      </trkpt>
      <trkpt lat="46.81015" lon="15.47251">
        <ele>340.649001</ele>
        <time>2022-09-19T12:25:11.208Z</time>
      </trkpt>
      <trkpt lat="46.81023" lon="15.47244">
        <ele>340.33886</ele>
        <time>2022-09-19T12:25:13.209Z</time>
      </trkpt>
      <trkpt lat="46.81031" lon="15.47237">
        <ele>340.034518</ele>
        <time>2022-09-19T12:25:15.224Z</time>
      </trkpt>
      <trkpt lat="46.81042" lon="15.47228">
        <ele>339.601402</ele>
        <time>2022-09-19T12:25:18.184Z</time>
      </trkpt>
      <trkpt lat="46.81052" lon="15.4722">
        <ele>339.218258</ele>
        <time>2022-09-19T12:25:21.203Z</time>
      </trkpt>
      <trkpt lat="46.81063" lon="15.47212">
        <ele>338.816861</ele>
        <time>2022-09-19T12:25:24.250Z</time>
      </trkpt>
      <trkpt lat="46.81073" lon="15.47203">
        <ele>338.408746</ele>
        <time>2022-09-19T12:25:27.199Z</time>
      </trkpt>
      <trkpt lat="46.81083" lon="15.47194">
        <ele>338.008003</ele>
        <time>2022-09-19T12:25:30.288Z</time>
      </trkpt>
      <trkpt lat="46.81093" lon="15.47185">
        <ele>337.62262</ele>
        <time>2022-09-19T12:25:33.198Z</time>
      </trkpt>
      <trkpt lat="46.81102" lon="15.47175">
        <ele>337.235015</ele>
        <time>2022-09-19T12:25:36.200Z</time>
      </trkpt>
      <trkpt lat="46.81112" lon="15.47163">
        <ele>336.821995</ele>
        <time>2022-09-19T12:25:39.203Z</time>
      </trkpt>
      <trkpt lat="46.81121" lon="15.4715">
        <ele>336.385938</ele>
        <time>2022-09-19T12:25:42.206Z</time>
      </trkpt>
      <trkpt lat="46.81131" lon="15.47136">
        <ele>335.933076</ele>
        <time>2022-09-19T12:25:45.213Z</time>
      </trkpt>
      <trkpt lat="46.81137" lon="15.47126">
        <ele>335.625857</ele>
        <time>2022-09-19T12:25:47.195Z</time>
      </trkpt>
      <trkpt lat="46.81143" lon="15.47116">
        <ele>335.495485</ele>
        <time>2022-09-19T12:25:49.199Z</time>
      </trkpt>
      <trkpt lat="46.81149" lon="15.47106">
        <ele>335.647359</ele>
        <time>2022-09-19T12:25:51.198Z</time>
      </trkpt>
      <trkpt lat="46.81156" lon="15.47097">
        <ele>335.796022</ele>
        <time>2022-09-19T12:25:53.201Z</time>
      </trkpt>
      <trkpt lat="46.81162" lon="15.47087">
        <ele>335.944686</ele>
        <time>2022-09-19T12:25:55.218Z</time>
      </trkpt>
      <trkpt lat="46.81168" lon="15.47078">
        <ele>336.093497</ele>
        <time>2022-09-19T12:25:57.202Z</time>
      </trkpt>
      <trkpt lat="46.81175" lon="15.47068">
        <ele>336.243432</ele>
        <time>2022-09-19T12:25:59.191Z</time>
      </trkpt>
      <trkpt lat="46.81184" lon="15.47054">
        <ele>336.460147</ele>
        <time>2022-09-19T12:26:02.201Z</time>
      </trkpt>
      <trkpt lat="46.8119" lon="15.47044">
        <ele>336.610896</ele>
        <time>2022-09-19T12:26:04.199Z</time>
      </trkpt>
      <trkpt lat="46.81196" lon="15.47034">
        <ele>336.759421</ele>
        <time>2022-09-19T12:26:06.201Z</time>
      </trkpt>
      <trkpt lat="46.81202" lon="15.47024">
        <ele>336.910171</ele>
        <time>2022-09-19T12:26:08.185Z</time>
      </trkpt>
      <trkpt lat="46.81211" lon="15.4701">
        <ele>337.121686</ele>
        <time>2022-09-19T12:26:11.211Z</time>
      </trkpt>
      <trkpt lat="46.81219" lon="15.46996">
        <ele>337.334539</ele>
        <time>2022-09-19T12:26:14.209Z</time>
      </trkpt>
      <trkpt lat="46.81229" lon="15.46982">
        <ele>337.553207</ele>
        <time>2022-09-19T12:26:17.222Z</time>
      </trkpt>
      <trkpt lat="46.81238" lon="15.46971">
        <ele>337.753017</ele>
        <time>2022-09-19T12:26:20.189Z</time>
      </trkpt>
      <trkpt lat="46.81247" lon="15.46959">
        <ele>337.942795</ele>
        <time>2022-09-19T12:26:23.191Z</time>
      </trkpt>
      <trkpt lat="46.81255" lon="15.46948">
        <ele>338.127038</ele>
        <time>2022-09-19T12:26:26.205Z</time>
      </trkpt>
      <trkpt lat="46.81263" lon="15.46936">
        <ele>338.314421</ele>
        <time>2022-09-19T12:26:29.208Z</time>
      </trkpt>
      <trkpt lat="46.81271" lon="15.46924">
        <ele>338.471558</ele>
        <time>2022-09-19T12:26:32.200Z</time>
      </trkpt>
      <trkpt lat="46.81279" lon="15.46913">
        <ele>338.605578</ele>
        <time>2022-09-19T12:26:35.195Z</time>
      </trkpt>
      <trkpt lat="46.81286" lon="15.469">
        <ele>338.738631</ele>
        <time>2022-09-19T12:26:38.176Z</time>
      </trkpt>
      <trkpt lat="46.81294" lon="15.4689">
        <ele>338.870534</ele>
        <time>2022-09-19T12:26:41.206Z</time>
      </trkpt>
      <trkpt lat="46.81301" lon="15.46878">
        <ele>339.003608</ele>
        <time>2022-09-19T12:26:44.262Z</time>
      </trkpt>
      <trkpt lat="46.81309" lon="15.46866">
        <ele>339.14067</ele>
        <time>2022-09-19T12:26:47.212Z</time>
      </trkpt>
      <trkpt lat="46.81316" lon="15.46854">
        <ele>339.274356</ele>
        <time>2022-09-19T12:26:50.202Z</time>
      </trkpt>
      <trkpt lat="46.81323" lon="15.46841">
        <ele>339.403467</ele>
        <time>2022-09-19T12:26:53.279Z</time>
      </trkpt>
      <trkpt lat="46.8133" lon="15.4683">
        <ele>339.531784</ele>
        <time>2022-09-19T12:26:56.221Z</time>
      </trkpt>
      <trkpt lat="46.81336" lon="15.46817">
        <ele>339.664351</ele>
        <time>2022-09-19T12:26:59.204Z</time>
      </trkpt>
      <trkpt lat="46.81342" lon="15.46804">
        <ele>339.796678</ele>
        <time>2022-09-19T12:27:02.204Z</time>
      </trkpt>
      <trkpt lat="46.8135" lon="15.46792">
        <ele>339.931782</ele>
        <time>2022-09-19T12:27:05.197Z</time>
      </trkpt>
      <trkpt lat="46.81357" lon="15.46779">
        <ele>340.067675</ele>
        <time>2022-09-19T12:27:08.199Z</time>
      </trkpt>
      <trkpt lat="46.81365" lon="15.46766">
        <ele>340.212514</ele>
        <time>2022-09-19T12:27:11.203Z</time>
      </trkpt>
      <trkpt lat="46.81373" lon="15.46754">
        <ele>340.355918</ele>
        <time>2022-09-19T12:27:14.215Z</time>
      </trkpt>
      <trkpt lat="46.81381" lon="15.46742">
        <ele>340.491297</ele>
        <time>2022-09-19T12:27:17.249Z</time>
      </trkpt>
      <trkpt lat="46.8139" lon="15.46731">
        <ele>340.602713</ele>
        <time>2022-09-19T12:27:20.207Z</time>
      </trkpt>
      <trkpt lat="46.81399" lon="15.4672">
        <ele>340.678277</ele>
        <time>2022-09-19T12:27:23.223Z</time>
      </trkpt>
      <trkpt lat="46.81407" lon="15.46709">
        <ele>340.747686</ele>
        <time>2022-09-19T12:27:26.193Z</time>
      </trkpt>
      <trkpt lat="46.81415" lon="15.46697">
        <ele>340.819854</ele>
        <time>2022-09-19T12:27:29.195Z</time>
      </trkpt>
      <trkpt lat="46.81422" lon="15.46684">
        <ele>340.894775</ele>
        <time>2022-09-19T12:27:32.194Z</time>
      </trkpt>
      <trkpt lat="46.81429" lon="15.4667">
        <ele>340.971285</ele>
        <time>2022-09-19T12:27:35.201Z</time>
      </trkpt>
      <trkpt lat="46.81435" lon="15.46655">
        <ele>341.045408</ele>
        <time>2022-09-19T12:27:38.214Z</time>
      </trkpt>
      <trkpt lat="46.81441" lon="15.4664">
        <ele>341.123916</ele>
        <time>2022-09-19T12:27:41.204Z</time>
      </trkpt>
      <trkpt lat="46.81447" lon="15.46625">
        <ele>341.201723</ele>
        <time>2022-09-19T12:27:44.201Z</time>
      </trkpt>
      <trkpt lat="46.81453" lon="15.46611">
        <ele>341.273106</ele>
        <time>2022-09-19T12:27:47.209Z</time>
      </trkpt>
      <trkpt lat="46.8146" lon="15.46598">
        <ele>341.345265</ele>
        <time>2022-09-19T12:27:50.202Z</time>
      </trkpt>
      <trkpt lat="46.81467" lon="15.46585">
        <ele>341.414869</ele>
        <time>2022-09-19T12:27:53.224Z</time>
      </trkpt>
      <trkpt lat="46.81474" lon="15.46573">
        <ele>341.484187</ele>
        <time>2022-09-19T12:27:56.245Z</time>
      </trkpt>
      <trkpt lat="46.81481" lon="15.46561">
        <ele>341.5547</ele>
        <time>2022-09-19T12:27:59.190Z</time>
      </trkpt>
      <trkpt lat="46.81487" lon="15.46548">
        <ele>341.624271</ele>
        <time>2022-09-19T12:28:02.240Z</time>
      </trkpt>
      <trkpt lat="46.81493" lon="15.46535">
        <ele>341.694608</ele>
        <time>2022-09-19T12:28:05.208Z</time>
      </trkpt>
      <trkpt lat="46.81499" lon="15.46521">
        <ele>341.911706</ele>
        <time>2022-09-19T12:28:08.243Z</time>
      </trkpt>
      <trkpt lat="46.81503" lon="15.46508">
        <ele>342.177244</ele>
        <time>2022-09-19T12:28:11.203Z</time>
      </trkpt>
      <trkpt lat="46.81508" lon="15.46494">
        <ele>342.45653</ele>
        <time>2022-09-19T12:28:14.201Z</time>
      </trkpt>
      <trkpt lat="46.81513" lon="15.4648">
        <ele>342.73778</ele>
        <time>2022-09-19T12:28:17.192Z</time>
      </trkpt>
      <trkpt lat="46.81517" lon="15.46466">
        <ele>343.02262</ele>
        <time>2022-09-19T12:28:20.193Z</time>
      </trkpt>
      <trkpt lat="46.81523" lon="15.46453">
        <ele>343.294813</ele>
        <time>2022-09-19T12:28:23.206Z</time>
      </trkpt>
      <trkpt lat="46.81528" lon="15.46439">
        <ele>343.57951</ele>
        <time>2022-09-19T12:28:26.204Z</time>
      </trkpt>
      <trkpt lat="46.81533" lon="15.46425">
        <ele>343.865784</ele>
        <time>2022-09-19T12:28:29.214Z</time>
      </trkpt>
      <trkpt lat="46.81538" lon="15.46412">
        <ele>344.143827</ele>
        <time>2022-09-19T12:28:32.233Z</time>
      </trkpt>
      <trkpt lat="46.81543" lon="15.46398">
        <ele>344.423869</ele>
        <time>2022-09-19T12:28:35.198Z</time>
      </trkpt>
      <trkpt lat="46.81548" lon="15.46384">
        <ele>344.705693</ele>
        <time>2022-09-19T12:28:38.209Z</time>
      </trkpt>
      <trkpt lat="46.81553" lon="15.46372">
        <ele>344.965635</ele>
        <time>2022-09-19T12:28:41.219Z</time>
      </trkpt>
      <trkpt lat="46.81558" lon="15.46359">
        <ele>345.222887</ele>
        <time>2022-09-19T12:28:44.196Z</time>
      </trkpt>
      <trkpt lat="46.81563" lon="15.46347">
        <ele>345.488774</ele>
        <time>2022-09-19T12:28:47.193Z</time>
      </trkpt>
      <trkpt lat="46.81568" lon="15.46334">
        <ele>345.754951</ele>
        <time>2022-09-19T12:28:50.191Z</time>
      </trkpt>
      <trkpt lat="46.81574" lon="15.46323">
        <ele>345.993817</ele>
        <time>2022-09-19T12:28:53.189Z</time>
      </trkpt>
      <trkpt lat="46.81578" lon="15.46311">
        <ele>346.253415</ele>
        <time>2022-09-19T12:28:56.196Z</time>
      </trkpt>
      <trkpt lat="46.81583" lon="15.46299">
        <ele>346.48104</ele>
        <time>2022-09-19T12:28:59.206Z</time>
      </trkpt>
      <trkpt lat="46.81588" lon="15.46286">
        <ele>346.527235</ele>
        <time>2022-09-19T12:29:02.221Z</time>
      </trkpt>
      <trkpt lat="46.81594" lon="15.46273">
        <ele>346.576135</ele>
        <time>2022-09-19T12:29:05.201Z</time>
      </trkpt>
      <trkpt lat="46.81598" lon="15.4626">
        <ele>346.624266</ele>
        <time>2022-09-19T12:29:08.204Z</time>
      </trkpt>
      <trkpt lat="46.81604" lon="15.46248">
        <ele>346.673099</ele>
        <time>2022-09-19T12:29:11.198Z</time>
      </trkpt>
      <trkpt lat="46.8161" lon="15.46235">
        <ele>346.723795</ele>
        <time>2022-09-19T12:29:14.237Z</time>
      </trkpt>
      <trkpt lat="46.81616" lon="15.46221">
        <ele>346.774557</ele>
        <time>2022-09-19T12:29:17.196Z</time>
      </trkpt>
      <trkpt lat="46.81621" lon="15.46206">
        <ele>346.827511</ele>
        <time>2022-09-19T12:29:20.198Z</time>
      </trkpt>
      <trkpt lat="46.81625" lon="15.46192">
        <ele>346.878231</ele>
        <time>2022-09-19T12:29:23.207Z</time>
      </trkpt>
      <trkpt lat="46.81629" lon="15.46177">
        <ele>346.9288</ele>
        <time>2022-09-19T12:29:26.195Z</time>
      </trkpt>
      <trkpt lat="46.81633" lon="15.46163">
        <ele>346.979796</ele>
        <time>2022-09-19T12:29:29.223Z</time>
      </trkpt>
      <trkpt lat="46.81635" lon="15.46148">
        <ele>347.028712</ele>
        <time>2022-09-19T12:29:32.190Z</time>
      </trkpt>
      <trkpt lat="46.81637" lon="15.46131">
        <ele>347.081536</ele>
        <time>2022-09-19T12:29:35.239Z</time>
      </trkpt>
      <trkpt lat="46.81639" lon="15.46115">
        <ele>347.134944</ele>
        <time>2022-09-19T12:29:38.204Z</time>
      </trkpt>
      <trkpt lat="46.81641" lon="15.461">
        <ele>347.184176</ele>
        <time>2022-09-19T12:29:41.209Z</time>
      </trkpt>
      <trkpt lat="46.81643" lon="15.46085">
        <ele>347.233</ele>
        <time>2022-09-19T12:29:44.198Z</time>
      </trkpt>
      <trkpt lat="46.81645" lon="15.4607">
        <ele>347.28358</ele>
        <time>2022-09-19T12:29:47.237Z</time>
      </trkpt>
      <trkpt lat="46.81648" lon="15.46056">
        <ele>347.28479</ele>
        <time>2022-09-19T12:29:50.200Z</time>
      </trkpt>
      <trkpt lat="46.81653" lon="15.46042">
        <ele>347.137244</ele>
        <time>2022-09-19T12:29:53.199Z</time>
      </trkpt>
      <trkpt lat="46.81659" lon="15.4603">
        <ele>346.991857</ele>
        <time>2022-09-19T12:29:56.205Z</time>
      </trkpt>
      <trkpt lat="46.81666" lon="15.46018">
        <ele>346.838904</ele>
        <time>2022-09-19T12:29:59.189Z</time>
      </trkpt>
      <trkpt lat="46.81674" lon="15.46008">
        <ele>346.687291</ele>
        <time>2022-09-19T12:30:02.187Z</time>
      </trkpt>
      <trkpt lat="46.81682" lon="15.46">
        <ele>346.543269</ele>
        <time>2022-09-19T12:30:05.209Z</time>
      </trkpt>
      <trkpt lat="46.8169" lon="15.45992">
        <ele>346.402206</ele>
        <time>2022-09-19T12:30:08.209Z</time>
      </trkpt>
      <trkpt lat="46.81699" lon="15.45986">
        <ele>346.25524</ele>
        <time>2022-09-19T12:30:11.201Z</time>
      </trkpt>
      <trkpt lat="46.81708" lon="15.45979">
        <ele>346.112984</ele>
        <time>2022-09-19T12:30:14.196Z</time>
      </trkpt>
      <trkpt lat="46.81717" lon="15.45973">
        <ele>345.966876</ele>
        <time>2022-09-19T12:30:17.209Z</time>
      </trkpt>
      <trkpt lat="46.81727" lon="15.45967">
        <ele>345.81017</ele>
        <time>2022-09-19T12:30:20.200Z</time>
      </trkpt>
      <trkpt lat="46.81737" lon="15.45962">
        <ele>345.659886</ele>
        <time>2022-09-19T12:30:23.201Z</time>
      </trkpt>
      <trkpt lat="46.81746" lon="15.45956">
        <ele>345.521048</ele>
        <time>2022-09-19T12:30:26.234Z</time>
      </trkpt>
      <trkpt lat="46.81754" lon="15.4595">
        <ele>345.391273</ele>
        <time>2022-09-19T12:30:29.206Z</time>
      </trkpt>
      <trkpt lat="46.81762" lon="15.45942">
        <ele>345.25195</ele>
        <time>2022-09-19T12:30:32.238Z</time>
      </trkpt>
      <trkpt lat="46.8177" lon="15.45935">
        <ele>345.119408</ele>
        <time>2022-09-19T12:30:35.211Z</time>
      </trkpt>
      <trkpt lat="46.81778" lon="15.45927">
        <ele>344.977061</ele>
        <time>2022-09-19T12:30:38.209Z</time>
      </trkpt>
      <trkpt lat="46.81786" lon="15.45919">
        <ele>344.835345</ele>
        <time>2022-09-19T12:30:41.228Z</time>
      </trkpt>
      <trkpt lat="46.81794" lon="15.45911">
        <ele>344.769356</ele>
        <time>2022-09-19T12:30:44.180Z</time>
      </trkpt>
      <trkpt lat="46.81802" lon="15.45903">
        <ele>344.901551</ele>
        <time>2022-09-19T12:30:47.198Z</time>
      </trkpt>
      <trkpt lat="46.81809" lon="15.45894">
        <ele>345.031852</ele>
        <time>2022-09-19T12:30:50.204Z</time>
      </trkpt>
      <trkpt lat="46.81816" lon="15.45885">
        <ele>345.161962</ele>
        <time>2022-09-19T12:30:53.209Z</time>
      </trkpt>
      <trkpt lat="46.81823" lon="15.45875">
        <ele>345.295992</ele>
        <time>2022-09-19T12:30:56.203Z</time>
      </trkpt>
      <trkpt lat="46.8183" lon="15.45865">
        <ele>345.425036</ele>
        <time>2022-09-19T12:30:59.194Z</time>
      </trkpt>
      <trkpt lat="46.81836" lon="15.45856">
        <ele>345.557759</ele>
        <time>2022-09-19T12:31:02.224Z</time>
      </trkpt>
      <trkpt lat="46.81843" lon="15.45845">
        <ele>345.688028</ele>
        <time>2022-09-19T12:31:05.230Z</time>
      </trkpt>
      <trkpt lat="46.81849" lon="15.45835">
        <ele>345.815519</ele>
        <time>2022-09-19T12:31:08.190Z</time>
      </trkpt>
      <trkpt lat="46.81857" lon="15.45823">
        <ele>345.981703</ele>
        <time>2022-09-19T12:31:12.201Z</time>
      </trkpt>
      <trkpt lat="46.81863" lon="15.45813">
        <ele>346.109398</ele>
        <time>2022-09-19T12:31:15.209Z</time>
      </trkpt>
      <trkpt lat="46.8187" lon="15.45799">
        <ele>346.271696</ele>
        <time>2022-09-19T12:31:19.204Z</time>
      </trkpt>
      <trkpt lat="46.81877" lon="15.45787">
        <ele>346.42363</ele>
        <time>2022-09-19T12:31:23.210Z</time>
      </trkpt>
      <trkpt lat="46.81885" lon="15.45775">
        <ele>346.579486</ele>
        <time>2022-09-19T12:31:27.199Z</time>
      </trkpt>
      <trkpt lat="46.81892" lon="15.45762">
        <ele>346.742655</ele>
        <time>2022-09-19T12:31:31.210Z</time>
      </trkpt>
      <trkpt lat="46.81899" lon="15.45753">
        <ele>346.872032</ele>
        <time>2022-09-19T12:31:34.211Z</time>
      </trkpt>
      <trkpt lat="46.81907" lon="15.4574">
        <ele>347.031879</ele>
        <time>2022-09-19T12:31:38.181Z</time>
      </trkpt>
      <trkpt lat="46.81915" lon="15.45728">
        <ele>347.194595</ele>
        <time>2022-09-19T12:31:42.210Z</time>
      </trkpt>
      <trkpt lat="46.81922" lon="15.45715">
        <ele>347.933131</ele>
        <time>2022-09-19T12:31:46.212Z</time>
      </trkpt>
      <trkpt lat="46.81928" lon="15.45704">
        <ele>348.805715</ele>
        <time>2022-09-19T12:31:50.236Z</time>
      </trkpt>
      <trkpt lat="46.81934" lon="15.45691">
        <ele>349.70115</ele>
        <time>2022-09-19T12:31:54.204Z</time>
      </trkpt>
      <trkpt lat="46.81938" lon="15.45678">
        <ele>350.53986</ele>
        <time>2022-09-19T12:31:58.230Z</time>
      </trkpt>
      <trkpt lat="46.81941" lon="15.45665">
        <ele>351.341797</ele>
        <time>2022-09-19T12:32:02.184Z</time>
      </trkpt>
      <trkpt lat="46.81942" lon="15.45649">
        <ele>352.279187</ele>
        <time>2022-09-19T12:32:07.220Z</time>
      </trkpt>
      <trkpt lat="46.81942" lon="15.45635">
        <ele>353.112218</ele>
        <time>2022-09-19T12:32:12.200Z</time>
      </trkpt>
      <trkpt lat="46.81942" lon="15.45622">
        <ele>353.905369</ele>
        <time>2022-09-19T12:32:17.199Z</time>
      </trkpt>
      <trkpt lat="46.8194" lon="15.45607">
        <ele>354.77284</ele>
        <time>2022-09-19T12:32:23.175Z</time>
      </trkpt>
      <trkpt lat="46.81937" lon="15.45593">
        <ele>355.638568</ele>
        <time>2022-09-19T12:32:30.209Z</time>
      </trkpt>
      <trkpt lat="46.81935" lon="15.45579">
        <ele>356.47794</ele>
        <time>2022-09-19T12:32:37.200Z</time>
      </trkpt>
      <trkpt lat="46.81933" lon="15.45565">
        <ele>357.309088</ele>
        <time>2022-09-19T12:32:44.192Z</time>
      </trkpt>
      <trkpt lat="46.81932" lon="15.45552">
        <ele>358.087953</ele>
        <time>2022-09-19T12:32:50.226Z</time>
      </trkpt>
      <trkpt lat="46.8193" lon="15.45538">
        <ele>358.936552</ele>
        <time>2022-09-19T12:32:57.204Z</time>
      </trkpt>
      <trkpt lat="46.81929" lon="15.45524">
        <ele>359.773517</ele>
        <time>2022-09-19T12:33:04.177Z</time>
      </trkpt>
      <trkpt lat="46.81927" lon="15.4551">
        <ele>360.627936</ele>
        <time>2022-09-19T12:33:11.221Z</time>
      </trkpt>
      <trkpt lat="46.81927" lon="15.45495">
        <ele>361.513105</ele>
        <time>2022-09-19T12:33:18.225Z</time>
      </trkpt>
      <trkpt lat="46.81928" lon="15.45482">
        <ele>362.297549</ele>
        <time>2022-09-19T12:33:24.255Z</time>
      </trkpt>
      <trkpt lat="46.81929" lon="15.45468">
        <ele>362.754862</ele>
        <time>2022-09-19T12:33:30.184Z</time>
      </trkpt>
      <trkpt lat="46.81931" lon="15.45454">
        <ele>362.797386</ele>
        <time>2022-09-19T12:33:36.201Z</time>
      </trkpt>
      <trkpt lat="46.81933" lon="15.4544">
        <ele>362.83934</ele>
        <time>2022-09-19T12:33:42.196Z</time>
      </trkpt>
      <trkpt lat="46.81935" lon="15.45426">
        <ele>362.881886</ele>
        <time>2022-09-19T12:33:48.209Z</time>
      </trkpt>
      <trkpt lat="46.81937" lon="15.45412">
        <ele>362.922285</ele>
        <time>2022-09-19T12:33:53.186Z</time>
      </trkpt>
      <trkpt lat="46.81941" lon="15.454">
        <ele>362.961896</ele>
        <time>2022-09-19T12:33:57.285Z</time>
      </trkpt>
      <trkpt lat="46.81946" lon="15.45386">
        <ele>363.00737</ele>
        <time>2022-09-19T12:34:01.214Z</time>
      </trkpt>
      <trkpt lat="46.8195" lon="15.45373">
        <ele>363.050861</ele>
        <time>2022-09-19T12:34:05.195Z</time>
      </trkpt>
      <trkpt lat="46.81955" lon="15.4536">
        <ele>363.093189</ele>
        <time>2022-09-19T12:34:09.190Z</time>
      </trkpt>
      <trkpt lat="46.8196" lon="15.45346">
        <ele>363.139155</ele>
        <time>2022-09-19T12:34:13.204Z</time>
      </trkpt>
      <trkpt lat="46.81966" lon="15.45331">
        <ele>363.189116</ele>
        <time>2022-09-19T12:34:17.194Z</time>
      </trkpt>
      <trkpt lat="46.81971" lon="15.45316">
        <ele>363.237323</ele>
        <time>2022-09-19T12:34:21.227Z</time>
      </trkpt>
      <trkpt lat="46.81977" lon="15.45302">
        <ele>363.285843</ele>
        <time>2022-09-19T12:34:25.215Z</time>
      </trkpt>
      <trkpt lat="46.81983" lon="15.45289">
        <ele>363.333092</ele>
        <time>2022-09-19T12:34:29.202Z</time>
      </trkpt>
      <trkpt lat="46.81988" lon="15.45277">
        <ele>363.373346</ele>
        <time>2022-09-19T12:34:33.199Z</time>
      </trkpt>
      <trkpt lat="46.81994" lon="15.45265">
        <ele>363.416973</ele>
        <time>2022-09-19T12:34:38.207Z</time>
      </trkpt>
      <trkpt lat="46.82" lon="15.45254">
        <ele>363.45774</ele>
        <time>2022-09-19T12:34:43.204Z</time>
      </trkpt>
      <trkpt lat="46.82005" lon="15.4524">
        <ele>363.501857</ele>
        <time>2022-09-19T12:34:48.219Z</time>
      </trkpt>
      <trkpt lat="46.82009" lon="15.45228">
        <ele>364.739666</ele>
        <time>2022-09-19T12:34:53.207Z</time>
      </trkpt>
      <trkpt lat="46.82013" lon="15.45215">
        <ele>366.079356</ele>
        <time>2022-09-19T12:34:59.196Z</time>
      </trkpt>
      <trkpt lat="46.82016" lon="15.45203">
        <ele>367.369543</ele>
        <time>2022-09-19T12:35:06.216Z</time>
      </trkpt>
      <trkpt lat="46.82019" lon="15.4519">
        <ele>368.639634</ele>
        <time>2022-09-19T12:35:13.202Z</time>
      </trkpt>
      <trkpt lat="46.82023" lon="15.45176">
        <ele>370.050453</ele>
        <time>2022-09-19T12:35:19.200Z</time>
      </trkpt>
      <trkpt lat="46.82026" lon="15.45164">
        <ele>371.302598</ele>
        <time>2022-09-19T12:35:25.197Z</time>
      </trkpt>
      <trkpt lat="46.8203" lon="15.45151">
        <ele>372.681663</ele>
        <time>2022-09-19T12:35:33.223Z</time>
      </trkpt>
      <trkpt lat="46.82036" lon="15.45139">
        <ele>374.069257</ele>
        <time>2022-09-19T12:35:40.198Z</time>
      </trkpt>
      <trkpt lat="46.82043" lon="15.4513">
        <ele>375.434832</ele>
        <time>2022-09-19T12:35:47.207Z</time>
      </trkpt>
      <trkpt lat="46.82051" lon="15.45121">
        <ele>376.772738</ele>
        <time>2022-09-19T12:35:54.200Z</time>
      </trkpt>
      <trkpt lat="46.82058" lon="15.45112">
        <ele>378.092618</ele>
        <time>2022-09-19T12:36:03.201Z</time>
      </trkpt>
      <trkpt lat="46.82067" lon="15.45107">
        <ele>379.419733</ele>
        <time>2022-09-19T12:36:11.210Z</time>
      </trkpt>
      <trkpt lat="46.82073" lon="15.45097">
        <ele>380.693229</ele>
        <time>2022-09-19T12:36:20.242Z</time>
      </trkpt>
      <trkpt lat="46.82082" lon="15.45089">
        <ele>382.10876</ele>
        <time>2022-09-19T12:36:28.197Z</time>
      </trkpt>
      <trkpt lat="46.82089" lon="15.4508">
        <ele>383.408397</ele>
        <time>2022-09-19T12:36:35.200Z</time>
      </trkpt>
      <trkpt lat="46.82096" lon="15.45071">
        <ele>384.670071</ele>
        <time>2022-09-19T12:36:41.184Z</time>
      </trkpt>
      <trkpt lat="46.82103" lon="15.45063">
        <ele>385.940589</ele>
        <time>2022-09-19T12:36:47.201Z</time>
      </trkpt>
      <trkpt lat="46.82108" lon="15.4505">
        <ele>387.360794</ele>
        <time>2022-09-19T12:36:54.288Z</time>
      </trkpt>
      <trkpt lat="46.82113" lon="15.45037">
        <ele>388.63359</ele>
        <time>2022-09-19T12:36:59.236Z</time>
      </trkpt>
      <trkpt lat="46.82116" lon="15.45023">
        <ele>388.759945</ele>
        <time>2022-09-19T12:37:03.208Z</time>
      </trkpt>
      <trkpt lat="46.82118" lon="15.45009">
        <ele>388.882644</ele>
        <time>2022-09-19T12:37:06.213Z</time>
      </trkpt>
      <trkpt lat="46.82122" lon="15.44994">
        <ele>389.018332</ele>
        <time>2022-09-19T12:37:09.210Z</time>
      </trkpt>
      <trkpt lat="46.82127" lon="15.44979">
        <ele>389.166588</ele>
        <time>2022-09-19T12:37:13.184Z</time>
      </trkpt>
      <trkpt lat="46.82133" lon="15.44968">
        <ele>389.286982</ele>
        <time>2022-09-19T12:37:16.208Z</time>
      </trkpt>
      <trkpt lat="46.8214" lon="15.44957">
        <ele>389.409055</ele>
        <time>2022-09-19T12:37:21.240Z</time>
      </trkpt>
      <trkpt lat="46.82148" lon="15.44949">
        <ele>389.53451</ele>
        <time>2022-09-19T12:37:29.222Z</time>
      </trkpt>
      <trkpt lat="46.82157" lon="15.44945">
        <ele>389.64851</ele>
        <time>2022-09-19T12:37:36.201Z</time>
      </trkpt>
      <trkpt lat="46.82164" lon="15.44938">
        <ele>389.762304</ele>
        <time>2022-09-19T12:37:42.200Z</time>
      </trkpt>
      <trkpt lat="46.82174" lon="15.44936">
        <ele>389.881903</ele>
        <time>2022-09-19T12:37:47.186Z</time>
      </trkpt>
      <trkpt lat="46.82183" lon="15.44933">
        <ele>390.005196</ele>
        <time>2022-09-19T12:37:53.229Z</time>
      </trkpt>
      <trkpt lat="46.82193" lon="15.44927">
        <ele>390.137229</ele>
        <time>2022-09-19T12:37:58.213Z</time>
      </trkpt>
      <trkpt lat="46.82203" lon="15.44922">
        <ele>390.26631</ele>
        <time>2022-09-19T12:38:02.204Z</time>
      </trkpt>
      <trkpt lat="46.82212" lon="15.44919">
        <ele>390.387322</ele>
        <time>2022-09-19T12:38:05.222Z</time>
      </trkpt>
      <trkpt lat="46.82225" lon="15.44917">
        <ele>390.544226</ele>
        <time>2022-09-19T12:38:08.204Z</time>
      </trkpt>
      <trkpt lat="46.82236" lon="15.44919">
        <ele>390.688042</ele>
        <time>2022-09-19T12:38:10.204Z</time>
      </trkpt>
      <trkpt lat="46.82249" lon="15.44924">
        <ele>390.860981</ele>
        <time>2022-09-19T12:38:12.198Z</time>
      </trkpt>
      <trkpt lat="46.82262" lon="15.44933">
        <ele>390.026857</ele>
        <time>2022-09-19T12:38:14.206Z</time>
      </trkpt>
      <trkpt lat="46.82274" lon="15.44942">
        <ele>389.094756</ele>
        <time>2022-09-19T12:38:16.233Z</time>
      </trkpt>
      <trkpt lat="46.82286" lon="15.44949">
        <ele>388.2144</ele>
        <time>2022-09-19T12:38:18.217Z</time>
      </trkpt>
      <trkpt lat="46.82298" lon="15.44952">
        <ele>387.425903</ele>
        <time>2022-09-19T12:38:20.207Z</time>
      </trkpt>
      <trkpt lat="46.8231" lon="15.44952">
        <ele>386.576003</ele>
        <time>2022-09-19T12:38:22.205Z</time>
      </trkpt>
      <trkpt lat="46.82325" lon="15.44954">
        <ele>385.623384</ele>
        <time>2022-09-19T12:38:24.214Z</time>
      </trkpt>
      <trkpt lat="46.82339" lon="15.44955">
        <ele>384.676865</ele>
        <time>2022-09-19T12:38:26.202Z</time>
      </trkpt>
      <trkpt lat="46.82353" lon="15.44959">
        <ele>383.68592</ele>
        <time>2022-09-19T12:38:28.207Z</time>
      </trkpt>
      <trkpt lat="46.82367" lon="15.44965">
        <ele>382.700874</ele>
        <time>2022-09-19T12:38:30.182Z</time>
      </trkpt>
      <trkpt lat="46.82382" lon="15.44974">
        <ele>381.600401</ele>
        <time>2022-09-19T12:38:32.279Z</time>
      </trkpt>
      <trkpt lat="46.82399" lon="15.44987">
        <ele>380.347256</ele>
        <time>2022-09-19T12:38:34.258Z</time>
      </trkpt>
      <trkpt lat="46.82407" lon="15.44994">
        <ele>379.670827</ele>
        <time>2022-09-19T12:38:35.225Z</time>
      </trkpt>
      <trkpt lat="46.82416" lon="15.45002">
        <ele>378.974462</ele>
        <time>2022-09-19T12:38:36.216Z</time>
      </trkpt>
      <trkpt lat="46.82425" lon="15.4501">
        <ele>378.204162</ele>
        <time>2022-09-19T12:38:37.214Z</time>
      </trkpt>
      <trkpt lat="46.82433" lon="15.45018">
        <ele>377.436197</ele>
        <time>2022-09-19T12:38:38.237Z</time>
      </trkpt>
      <trkpt lat="46.82441" lon="15.45026">
        <ele>376.726889</ele>
        <time>2022-09-19T12:38:39.209Z</time>
      </trkpt>
      <trkpt lat="46.82457" lon="15.45037">
        <ele>375.391721</ele>
        <time>2022-09-19T12:38:41.194Z</time>
      </trkpt>
      <trkpt lat="46.82474" lon="15.45042">
        <ele>374.085089</ele>
        <time>2022-09-19T12:38:43.194Z</time>
      </trkpt>
      <trkpt lat="46.82492" lon="15.45044">
        <ele>372.72103</ele>
        <time>2022-09-19T12:38:45.200Z</time>
      </trkpt>
      <trkpt lat="46.82509" lon="15.45043">
        <ele>371.374749</ele>
        <time>2022-09-19T12:38:47.183Z</time>
      </trkpt>
      <trkpt lat="46.82526" lon="15.45042">
        <ele>370.103848</ele>
        <time>2022-09-19T12:38:49.227Z</time>
      </trkpt>
      <trkpt lat="46.82542" lon="15.45041">
        <ele>368.855211</ele>
        <time>2022-09-19T12:38:51.208Z</time>
      </trkpt>
      <trkpt lat="46.82558" lon="15.4504">
        <ele>367.67544</ele>
        <time>2022-09-19T12:38:53.210Z</time>
      </trkpt>
      <trkpt lat="46.82572" lon="15.45039">
        <ele>366.593774</ele>
        <time>2022-09-19T12:38:55.183Z</time>
      </trkpt>
      <trkpt lat="46.82586" lon="15.45036">
        <ele>365.538962</ele>
        <time>2022-09-19T12:38:57.216Z</time>
      </trkpt>
      <trkpt lat="46.82598" lon="15.45033">
        <ele>365.244779</ele>
        <time>2022-09-19T12:38:59.208Z</time>
      </trkpt>
      <trkpt lat="46.82608" lon="15.45028">
        <ele>365.534881</ele>
        <time>2022-09-19T12:39:01.191Z</time>
      </trkpt>
      <trkpt lat="46.82619" lon="15.45019">
        <ele>365.887664</ele>
        <time>2022-09-19T12:39:04.194Z</time>
      </trkpt>
      <trkpt lat="46.82625" lon="15.45007">
        <ele>366.162767</ele>
        <time>2022-09-19T12:39:07.206Z</time>
      </trkpt>
      <trkpt lat="46.82631" lon="15.44996">
        <ele>366.421941</ele>
        <time>2022-09-19T12:39:10.212Z</time>
      </trkpt>
      <trkpt lat="46.82637" lon="15.44982">
        <ele>366.736885</ele>
        <time>2022-09-19T12:39:14.214Z</time>
      </trkpt>
      <trkpt lat="46.82641" lon="15.44967">
        <ele>367.028813</ele>
        <time>2022-09-19T12:39:18.221Z</time>
      </trkpt>
      <trkpt lat="46.82645" lon="15.44954">
        <ele>367.296125</ele>
        <time>2022-09-19T12:39:22.201Z</time>
      </trkpt>
      <trkpt lat="46.82649" lon="15.44941">
        <ele>367.568756</ele>
        <time>2022-09-19T12:39:27.202Z</time>
      </trkpt>
      <trkpt lat="46.82655" lon="15.44928">
        <ele>367.849556</ele>
        <time>2022-09-19T12:39:32.208Z</time>
      </trkpt>
      <trkpt lat="46.82665" lon="15.44922">
        <ele>368.141034</ele>
        <time>2022-09-19T12:39:38.193Z</time>
      </trkpt>
      <trkpt lat="46.82675" lon="15.44918">
        <ele>368.42524</ele>
        <time>2022-09-19T12:39:43.194Z</time>
      </trkpt>
      <trkpt lat="46.82685" lon="15.44915">
        <ele>368.701037</ele>
        <time>2022-09-19T12:39:48.215Z</time>
      </trkpt>
      <trkpt lat="46.82695" lon="15.44914">
        <ele>368.99652</ele>
        <time>2022-09-19T12:39:53.215Z</time>
      </trkpt>
      <trkpt lat="46.82705" lon="15.44914">
        <ele>369.253282</ele>
        <time>2022-09-19T12:39:59.223Z</time>
      </trkpt>
      <trkpt lat="46.82714" lon="15.44911">
        <ele>369.5116</ele>
        <time>2022-09-19T12:40:06.197Z</time>
      </trkpt>
      <trkpt lat="46.82723" lon="15.44905">
        <ele>369.781802</ele>
        <time>2022-09-19T12:40:13.243Z</time>
      </trkpt>
      <trkpt lat="46.82732" lon="15.44897">
        <ele>370.12822</ele>
        <time>2022-09-19T12:40:20.220Z</time>
      </trkpt>
      <trkpt lat="46.82739" lon="15.4489">
        <ele>370.59394</ele>
        <time>2022-09-19T12:40:26.199Z</time>
      </trkpt>
      <trkpt lat="46.82748" lon="15.44881">
        <ele>371.140614</ele>
        <time>2022-09-19T12:40:33.202Z</time>
      </trkpt>
      <trkpt lat="46.82755" lon="15.44871">
        <ele>371.654359</ele>
        <time>2022-09-19T12:40:40.261Z</time>
      </trkpt>
      <trkpt lat="46.82763" lon="15.44861">
        <ele>372.190039</ele>
        <time>2022-09-19T12:40:47.211Z</time>
      </trkpt>
      <trkpt lat="46.82769" lon="15.44851">
        <ele>372.663793</ele>
        <time>2022-09-19T12:40:53.244Z</time>
      </trkpt>
      <trkpt lat="46.82775" lon="15.44839">
        <ele>373.17471</ele>
        <time>2022-09-19T12:41:00.193Z</time>
      </trkpt>
      <trkpt lat="46.8278" lon="15.44827">
        <ele>373.671547</ele>
        <time>2022-09-19T12:41:06.211Z</time>
      </trkpt>
      <trkpt lat="46.82784" lon="15.44815">
        <ele>374.138769</ele>
        <time>2022-09-19T12:41:12.231Z</time>
      </trkpt>
      <trkpt lat="46.82787" lon="15.44803">
        <ele>374.607197</ele>
        <time>2022-09-19T12:41:18.209Z</time>
      </trkpt>
      <trkpt lat="46.8279" lon="15.4479">
        <ele>375.096329</ele>
        <time>2022-09-19T12:41:24.209Z</time>
      </trkpt>
      <trkpt lat="46.82791" lon="15.44775">
        <ele>375.608155</ele>
        <time>2022-09-19T12:41:30.245Z</time>
      </trkpt>
      <trkpt lat="46.82791" lon="15.4476">
        <ele>376.146275</ele>
        <time>2022-09-19T12:41:36.215Z</time>
      </trkpt>
      <trkpt lat="46.82793" lon="15.44745">
        <ele>376.672629</ele>
        <time>2022-09-19T12:41:42.202Z</time>
      </trkpt>
      <trkpt lat="46.82795" lon="15.44731">
        <ele>377.203657</ele>
        <time>2022-09-19T12:41:48.213Z</time>
      </trkpt>
      <trkpt lat="46.82797" lon="15.44717">
        <ele>377.687518</ele>
        <time>2022-09-19T12:41:53.199Z</time>
      </trkpt>
      <trkpt lat="46.82799" lon="15.44704">
        <ele>378.177331</ele>
        <time>2022-09-19T12:41:58.199Z</time>
      </trkpt>
      <trkpt lat="46.82801" lon="15.44688">
        <ele>378.733276</ele>
        <time>2022-09-19T12:42:03.252Z</time>
      </trkpt>
      <trkpt lat="46.82802" lon="15.44673">
        <ele>379.283554</ele>
        <time>2022-09-19T12:42:08.212Z</time>
      </trkpt>
      <trkpt lat="46.82804" lon="15.44657">
        <ele>379.260916</ele>
        <time>2022-09-19T12:42:13.208Z</time>
      </trkpt>
      <trkpt lat="46.82805" lon="15.44644">
        <ele>379.242085</ele>
        <time>2022-09-19T12:42:17.196Z</time>
      </trkpt>
      <trkpt lat="46.82806" lon="15.44631">
        <ele>379.223085</ele>
        <time>2022-09-19T12:42:21.199Z</time>
      </trkpt>
      <trkpt lat="46.82807" lon="15.44618">
        <ele>379.203913</ele>
        <time>2022-09-19T12:42:25.252Z</time>
      </trkpt>
      <trkpt lat="46.82809" lon="15.44605">
        <ele>379.184564</ele>
        <time>2022-09-19T12:42:29.206Z</time>
      </trkpt>
      <trkpt lat="46.8281" lon="15.4459">
        <ele>379.163567</ele>
        <time>2022-09-19T12:42:33.216Z</time>
      </trkpt>
      <trkpt lat="46.82812" lon="15.44577">
        <ele>379.144047</ele>
        <time>2022-09-19T12:42:36.229Z</time>
      </trkpt>
      <trkpt lat="46.82813" lon="15.44561">
        <ele>379.121908</ele>
        <time>2022-09-19T12:42:39.217Z</time>
      </trkpt>
      <trkpt lat="46.82815" lon="15.44547">
        <ele>379.100936</ele>
        <time>2022-09-19T12:42:42.234Z</time>
      </trkpt>
      <trkpt lat="46.82818" lon="15.44534">
        <ele>379.080853</ele>
        <time>2022-09-19T12:42:45.198Z</time>
      </trkpt>
      <trkpt lat="46.82822" lon="15.44522">
        <ele>379.060833</ele>
        <time>2022-09-19T12:42:48.205Z</time>
      </trkpt>
      <trkpt lat="46.82826" lon="15.44509">
        <ele>379.041094</ele>
        <time>2022-09-19T12:42:51.217Z</time>
      </trkpt>
      <trkpt lat="46.82831" lon="15.44497">
        <ele>379.021127</ele>
        <time>2022-09-19T12:42:54.216Z</time>
      </trkpt>
      <trkpt lat="46.82836" lon="15.44484">
        <ele>379.000312</ele>
        <time>2022-09-19T12:42:57.208Z</time>
      </trkpt>
      <trkpt lat="46.82843" lon="15.44474">
        <ele>378.978291</ele>
        <time>2022-09-19T12:43:00.193Z</time>
      </trkpt>
      <trkpt lat="46.82853" lon="15.44464">
        <ele>378.952913</ele>
        <time>2022-09-19T12:43:04.193Z</time>
      </trkpt>
      <trkpt lat="46.82864" lon="15.44458">
        <ele>378.929175</ele>
        <time>2022-09-19T12:43:07.195Z</time>
      </trkpt>
      <trkpt lat="46.82875" lon="15.44455">
        <ele>378.905958</ele>
        <time>2022-09-19T12:43:10.244Z</time>
      </trkpt>
      <trkpt lat="46.82884" lon="15.44453">
        <ele>379.560514</ele>
        <time>2022-09-19T12:43:13.202Z</time>
      </trkpt>
      <trkpt lat="46.82893" lon="15.44459">
        <ele>380.199611</ele>
        <time>2022-09-19T12:43:16.199Z</time>
      </trkpt>
      <trkpt lat="46.829" lon="15.44467">
        <ele>380.861896</ele>
        <time>2022-09-19T12:43:19.202Z</time>
      </trkpt>
      <trkpt lat="46.82908" lon="15.44478">
        <ele>381.580905</ele>
        <time>2022-09-19T12:43:23.229Z</time>
      </trkpt>
      <trkpt lat="46.82914" lon="15.44489">
        <ele>382.269274</ele>
        <time>2022-09-19T12:43:27.201Z</time>
      </trkpt>
      <trkpt lat="46.82923" lon="15.44496">
        <ele>382.94232</ele>
        <time>2022-09-19T12:43:31.212Z</time>
      </trkpt>
      <trkpt lat="46.82932" lon="15.44502">
        <ele>383.679019</ele>
        <time>2022-09-19T12:43:36.208Z</time>
      </trkpt>
      <trkpt lat="46.82943" lon="15.44505">
        <ele>384.406027</ele>
        <time>2022-09-19T12:43:41.216Z</time>
      </trkpt>
      <trkpt lat="46.82952" lon="15.44505">
        <ele>385.035967</ele>
        <time>2022-09-19T12:43:46.214Z</time>
      </trkpt>
      <trkpt lat="46.82961" lon="15.44499">
        <ele>385.760069</ele>
        <time>2022-09-19T12:43:52.233Z</time>
      </trkpt>
      <trkpt lat="46.8297" lon="15.44491">
        <ele>386.449819</ele>
        <time>2022-09-19T12:43:58.215Z</time>
      </trkpt>
      <trkpt lat="46.82977" lon="15.44483">
        <ele>387.115572</ele>
        <time>2022-09-19T12:44:05.211Z</time>
      </trkpt>
      <trkpt lat="46.82985" lon="15.44474">
        <ele>387.803472</ele>
        <time>2022-09-19T12:44:12.232Z</time>
      </trkpt>
      <trkpt lat="46.82992" lon="15.44465">
        <ele>388.447125</ele>
        <time>2022-09-19T12:44:19.250Z</time>
      </trkpt>
      <trkpt lat="46.83" lon="15.44457">
        <ele>389.103848</ele>
        <time>2022-09-19T12:44:26.250Z</time>
      </trkpt>
      <trkpt lat="46.83008" lon="15.44449">
        <ele>389.76378</ele>
        <time>2022-09-19T12:44:33.196Z</time>
      </trkpt>
      <trkpt lat="46.83016" lon="15.4444">
        <ele>390.456796</ele>
        <time>2022-09-19T12:44:39.249Z</time>
      </trkpt>
      <trkpt lat="46.83025" lon="15.44434">
        <ele>391.139315</ele>
        <time>2022-09-19T12:44:45.217Z</time>
      </trkpt>
      <trkpt lat="46.83034" lon="15.44428">
        <ele>391.740384</ele>
        <time>2022-09-19T12:44:51.243Z</time>
      </trkpt>
      <trkpt lat="46.83042" lon="15.44423">
        <ele>392.258503</ele>
        <time>2022-09-19T12:44:57.218Z</time>
      </trkpt>
      <trkpt lat="46.83051" lon="15.44418">
        <ele>392.854406</ele>
        <time>2022-09-19T12:45:04.200Z</time>
      </trkpt>
      <trkpt lat="46.83061" lon="15.44416">
        <ele>393.444332</ele>
        <time>2022-09-19T12:45:11.204Z</time>
      </trkpt>
      <trkpt lat="46.83071" lon="15.44415">
        <ele>393.978757</ele>
        <time>2022-09-19T12:45:18.250Z</time>
      </trkpt>
      <trkpt lat="46.83079" lon="15.4441">
        <ele>394.501861</ele>
        <time>2022-09-19T12:45:24.265Z</time>
      </trkpt>
      <trkpt lat="46.83088" lon="15.44405">
        <ele>395.061824</ele>
        <time>2022-09-19T12:45:31.192Z</time>
      </trkpt>
      <trkpt lat="46.83097" lon="15.44401">
        <ele>395.621713</ele>
        <time>2022-09-19T12:45:39.216Z</time>
      </trkpt>
      <trkpt lat="46.83107" lon="15.44396">
        <ele>396.208814</ele>
        <time>2022-09-19T12:45:46.212Z</time>
      </trkpt>
      <trkpt lat="46.83116" lon="15.44391">
        <ele>396.772879</ele>
        <time>2022-09-19T12:45:52.214Z</time>
      </trkpt>
      <trkpt lat="46.83125" lon="15.44385">
        <ele>397.361008</ele>
        <time>2022-09-19T12:45:57.218Z</time>
      </trkpt>
      <trkpt lat="46.83136" lon="15.4438">
        <ele>398.008382</ele>
        <time>2022-09-19T12:46:01.205Z</time>
      </trkpt>
      <trkpt lat="46.83144" lon="15.44375">
        <ele>398.527665</ele>
        <time>2022-09-19T12:46:04.243Z</time>
      </trkpt>
      <trkpt lat="46.83154" lon="15.44368">
        <ele>399.180074</ele>
        <time>2022-09-19T12:46:08.221Z</time>
      </trkpt>
      <trkpt lat="46.8316" lon="15.44356">
        <ele>399.756577</ele>
        <time>2022-09-19T12:46:12.210Z</time>
      </trkpt>
      <trkpt lat="46.83162" lon="15.44343">
        <ele>400.294656</ele>
        <time>2022-09-19T12:46:15.223Z</time>
      </trkpt>
      <trkpt lat="46.83158" lon="15.44328">
        <ele>400.928367</ele>
        <time>2022-09-19T12:46:20.256Z</time>
      </trkpt>
      <trkpt lat="46.83155" lon="15.44312">
        <ele>401.589954</ele>
        <time>2022-09-19T12:46:25.218Z</time>
      </trkpt>
      <trkpt lat="46.83151" lon="15.44297">
        <ele>401.656709</ele>
        <time>2022-09-19T12:46:29.205Z</time>
      </trkpt>
      <trkpt lat="46.83148" lon="15.44285">
        <ele>401.492383</ele>
        <time>2022-09-19T12:46:32.224Z</time>
      </trkpt>
      <trkpt lat="46.83147" lon="15.44271">
        <ele>401.321793</ele>
        <time>2022-09-19T12:46:35.217Z</time>
      </trkpt>
      <trkpt lat="46.83146" lon="15.44256">
        <ele>401.13425</ele>
        <time>2022-09-19T12:46:38.192Z</time>
      </trkpt>
      <trkpt lat="46.83145" lon="15.44243">
        <ele>400.970752</ele>
        <time>2022-09-19T12:46:41.206Z</time>
      </trkpt>
      <trkpt lat="46.83145" lon="15.4423">
        <ele>400.805742</ele>
        <time>2022-09-19T12:46:44.203Z</time>
      </trkpt>
      <trkpt lat="46.83145" lon="15.44214">
        <ele>400.606032</ele>
        <time>2022-09-19T12:46:48.218Z</time>
      </trkpt>
      <trkpt lat="46.83146" lon="15.44198">
        <ele>400.404907</ele>
        <time>2022-09-19T12:46:52.208Z</time>
      </trkpt>
      <trkpt lat="46.83147" lon="15.44181">
        <ele>400.205074</ele>
        <time>2022-09-19T12:46:56.213Z</time>
      </trkpt>
      <trkpt lat="46.83147" lon="15.44167">
        <ele>400.027691</ele>
        <time>2022-09-19T12:46:59.195Z</time>
      </trkpt>
      <trkpt lat="46.83147" lon="15.44154">
        <ele>399.861391</ele>
        <time>2022-09-19T12:47:02.235Z</time>
      </trkpt>
      <trkpt lat="46.83146" lon="15.4414">
        <ele>399.691061</ele>
        <time>2022-09-19T12:47:05.223Z</time>
      </trkpt>
      <trkpt lat="46.83143" lon="15.44126">
        <ele>399.508729</ele>
        <time>2022-09-19T12:47:08.211Z</time>
      </trkpt>
      <trkpt lat="46.83141" lon="15.44111">
        <ele>399.316025</ele>
        <time>2022-09-19T12:47:11.212Z</time>
      </trkpt>
      <trkpt lat="46.83137" lon="15.44096">
        <ele>399.121791</ele>
        <time>2022-09-19T12:47:14.212Z</time>
      </trkpt>
      <trkpt lat="46.83133" lon="15.44083">
        <ele>398.936309</ele>
        <time>2022-09-19T12:47:17.202Z</time>
      </trkpt>
      <trkpt lat="46.83128" lon="15.4407">
        <ele>398.757909</ele>
        <time>2022-09-19T12:47:20.203Z</time>
      </trkpt>
      <trkpt lat="46.83122" lon="15.44058">
        <ele>398.573634</ele>
        <time>2022-09-19T12:47:23.209Z</time>
      </trkpt>
      <trkpt lat="46.83117" lon="15.44046">
        <ele>398.268171</ele>
        <time>2022-09-19T12:47:26.245Z</time>
      </trkpt>
      <trkpt lat="46.83111" lon="15.44032">
        <ele>397.84472</ele>
        <time>2022-09-19T12:47:30.194Z</time>
      </trkpt>
      <trkpt lat="46.83106" lon="15.44017">
        <ele>397.432148</ele>
        <time>2022-09-19T12:47:34.217Z</time>
      </trkpt>
      <trkpt lat="46.83104" lon="15.44001">
        <ele>397.009064</ele>
        <time>2022-09-19T12:47:38.217Z</time>
      </trkpt>
      <trkpt lat="46.83105" lon="15.43983">
        <ele>396.577315</ele>
        <time>2022-09-19T12:47:42.241Z</time>
      </trkpt>
      <trkpt lat="46.83108" lon="15.43967">
        <ele>396.158176</ele>
        <time>2022-09-19T12:47:46.211Z</time>
      </trkpt>
      <trkpt lat="46.83111" lon="15.4395">
        <ele>395.717024</ele>
        <time>2022-09-19T12:47:50.215Z</time>
      </trkpt>
      <trkpt lat="46.83114" lon="15.43934">
        <ele>395.291241</ele>
        <time>2022-09-19T12:47:54.245Z</time>
      </trkpt>
      <trkpt lat="46.83116" lon="15.4392">
        <ele>394.942474</ele>
        <time>2022-09-19T12:47:57.212Z</time>
      </trkpt>
      <trkpt lat="46.83117" lon="15.43906">
        <ele>394.588742</ele>
        <time>2022-09-19T12:48:00.246Z</time>
      </trkpt>
      <trkpt lat="46.8312" lon="15.4389">
        <ele>394.176034</ele>
        <time>2022-09-19T12:48:04.210Z</time>
      </trkpt>
      <trkpt lat="46.83125" lon="15.43878">
        <ele>393.800154</ele>
        <time>2022-09-19T12:48:08.223Z</time>
      </trkpt>
      <trkpt lat="46.83132" lon="15.43864">
        <ele>393.370696</ele>
        <time>2022-09-19T12:48:12.245Z</time>
      </trkpt>
      <trkpt lat="46.83138" lon="15.4385">
        <ele>392.964005</ele>
        <time>2022-09-19T12:48:16.205Z</time>
      </trkpt>
      <trkpt lat="46.83144" lon="15.43836">
        <ele>392.544874</ele>
        <time>2022-09-19T12:48:20.189Z</time>
      </trkpt>
      <trkpt lat="46.8315" lon="15.43822">
        <ele>392.125101</ele>
        <time>2022-09-19T12:48:24.205Z</time>
      </trkpt>
      <trkpt lat="46.83156" lon="15.43809">
        <ele>391.978446</ele>
        <time>2022-09-19T12:48:28.205Z</time>
      </trkpt>
      <trkpt lat="46.83164" lon="15.43798">
        <ele>392.106432</ele>
        <time>2022-09-19T12:48:32.203Z</time>
      </trkpt>
      <trkpt lat="46.83171" lon="15.43786">
        <ele>392.229535</ele>
        <time>2022-09-19T12:48:36.163Z</time>
      </trkpt>
      <trkpt lat="46.83177" lon="15.43773">
        <ele>392.35387</ele>
        <time>2022-09-19T12:48:40.200Z</time>
      </trkpt>
      <trkpt lat="46.83185" lon="15.43763">
        <ele>392.474413</ele>
        <time>2022-09-19T12:48:44.214Z</time>
      </trkpt>
      <trkpt lat="46.83191" lon="15.43752">
        <ele>392.578918</ele>
        <time>2022-09-19T12:48:48.244Z</time>
      </trkpt>
      <trkpt lat="46.83199" lon="15.43741">
        <ele>392.705501</ele>
        <time>2022-09-19T12:48:53.210Z</time>
      </trkpt>
      <trkpt lat="46.83204" lon="15.43731">
        <ele>392.811693</ele>
        <time>2022-09-19T12:48:57.215Z</time>
      </trkpt>
      <trkpt lat="46.8321" lon="15.43721">
        <ele>392.916356</ele>
        <time>2022-09-19T12:49:01.237Z</time>
      </trkpt>
      <trkpt lat="46.83216" lon="15.43711">
        <ele>393.020722</ele>
        <time>2022-09-19T12:49:05.213Z</time>
      </trkpt>
      <trkpt lat="46.83222" lon="15.437">
        <ele>393.130808</ele>
        <time>2022-09-19T12:49:09.197Z</time>
      </trkpt>
      <trkpt lat="46.83228" lon="15.43689">
        <ele>393.238946</ele>
        <time>2022-09-19T12:49:13.213Z</time>
      </trkpt>
      <trkpt lat="46.83234" lon="15.43676">
        <ele>393.360446</ele>
        <time>2022-09-19T12:49:18.205Z</time>
      </trkpt>
      <trkpt lat="46.83238" lon="15.43663">
        <ele>393.472372</ele>
        <time>2022-09-19T12:49:23.251Z</time>
      </trkpt>
      <trkpt lat="46.83241" lon="15.4365">
        <ele>393.585237</ele>
        <time>2022-09-19T12:49:29.194Z</time>
      </trkpt>
      <trkpt lat="46.83245" lon="15.43637">
        <ele>393.6906</ele>
        <time>2022-09-19T12:49:35.211Z</time>
      </trkpt>
      <trkpt lat="46.83246" lon="15.43623">
        <ele>393.800376</ele>
        <time>2022-09-19T12:49:41.206Z</time>
      </trkpt>
      <trkpt lat="46.83248" lon="15.43609">
        <ele>393.918542</ele>
        <time>2022-09-19T12:49:47.223Z</time>
      </trkpt>
      <trkpt lat="46.83251" lon="15.43595">
        <ele>394.19426</ele>
        <time>2022-09-19T12:49:53.203Z</time>
      </trkpt>
      <trkpt lat="46.83253" lon="15.43582">
        <ele>394.717864</ele>
        <time>2022-09-19T12:49:59.209Z</time>
      </trkpt>
      <trkpt lat="46.83255" lon="15.43568">
        <ele>395.240615</ele>
        <time>2022-09-19T12:50:05.215Z</time>
      </trkpt>
      <trkpt lat="46.83257" lon="15.43553">
        <ele>395.831059</ele>
        <time>2022-09-19T12:50:12.221Z</time>
      </trkpt>
      <trkpt lat="46.83259" lon="15.4354">
        <ele>396.366252</ele>
        <time>2022-09-19T12:50:18.216Z</time>
      </trkpt>
      <trkpt lat="46.83261" lon="15.43526">
        <ele>396.924221</ele>
        <time>2022-09-19T12:50:24.255Z</time>
      </trkpt>
      <trkpt lat="46.83262" lon="15.43511">
        <ele>397.475751</ele>
        <time>2022-09-19T12:50:30.189Z</time>
      </trkpt>
      <trkpt lat="46.83263" lon="15.43496">
        <ele>398.089029</ele>
        <time>2022-09-19T12:50:36.209Z</time>
      </trkpt>
      <trkpt lat="46.83265" lon="15.43483">
        <ele>398.60148</ele>
        <time>2022-09-19T12:50:41.195Z</time>
      </trkpt>
      <trkpt lat="46.83267" lon="15.43469">
        <ele>399.126422</ele>
        <time>2022-09-19T12:50:47.213Z</time>
      </trkpt>
      <trkpt lat="46.83268" lon="15.43455">
        <ele>399.701513</ele>
        <time>2022-09-19T12:50:53.218Z</time>
      </trkpt>
      <trkpt lat="46.8327" lon="15.4344">
        <ele>400.279509</ele>
        <time>2022-09-19T12:50:59.212Z</time>
      </trkpt>
      <trkpt lat="46.83272" lon="15.43426">
        <ele>400.828474</ele>
        <time>2022-09-19T12:51:05.212Z</time>
      </trkpt>
      <trkpt lat="46.83273" lon="15.43411">
        <ele>401.39975</ele>
        <time>2022-09-19T12:51:11.210Z</time>
      </trkpt>
      <trkpt lat="46.83274" lon="15.43398">
        <ele>401.918825</ele>
        <time>2022-09-19T12:51:17.224Z</time>
      </trkpt>
      <trkpt lat="46.83277" lon="15.43385">
        <ele>402.453994</ele>
        <time>2022-09-19T12:51:24.241Z</time>
      </trkpt>
      <trkpt lat="46.83279" lon="15.43371">
        <ele>403.011619</ele>
        <time>2022-09-19T12:51:31.219Z</time>
      </trkpt>
      <trkpt lat="46.83282" lon="15.43357">
        <ele>403.574748</ele>
        <time>2022-09-19T12:51:38.213Z</time>
      </trkpt>
      <trkpt lat="46.83284" lon="15.43343">
        <ele>404.107255</ele>
        <time>2022-09-19T12:51:45.206Z</time>
      </trkpt>
      <trkpt lat="46.83286" lon="15.43329">
        <ele>404.417954</ele>
        <time>2022-09-19T12:51:52.210Z</time>
      </trkpt>
      <trkpt lat="46.83291" lon="15.43318">
        <ele>404.691734</ele>
        <time>2022-09-19T12:51:59.210Z</time>
      </trkpt>
      <trkpt lat="46.83296" lon="15.43306">
        <ele>404.973413</ele>
        <time>2022-09-19T12:52:06.242Z</time>
      </trkpt>
      <trkpt lat="46.83301" lon="15.43294">
        <ele>405.263831</ele>
        <time>2022-09-19T12:52:14.205Z</time>
      </trkpt>
      <trkpt lat="46.83306" lon="15.43281">
        <ele>405.56502</ele>
        <time>2022-09-19T12:52:22.216Z</time>
      </trkpt>
      <trkpt lat="46.83313" lon="15.4327">
        <ele>405.873442</ele>
        <time>2022-09-19T12:52:30.186Z</time>
      </trkpt>
      <trkpt lat="46.83322" lon="15.43258">
        <ele>406.246031</ele>
        <time>2022-09-19T12:52:34.218Z</time>
      </trkpt>
      <trkpt lat="46.83331" lon="15.43244">
        <ele>406.62593</ele>
        <time>2022-09-19T12:52:37.170Z</time>
      </trkpt>
      <trkpt lat="46.83339" lon="15.43228">
        <ele>407.029914</ele>
        <time>2022-09-19T12:52:40.183Z</time>
      </trkpt>
      <trkpt lat="46.83341" lon="15.43214">
        <ele>407.341055</ele>
        <time>2022-09-19T12:52:42.194Z</time>
      </trkpt>
      <trkpt lat="46.83341" lon="15.43194">
        <ele>407.733786</ele>
        <time>2022-09-19T12:52:44.222Z</time>
      </trkpt>
      <trkpt lat="46.83338" lon="15.43173">
        <ele>408.177965</ele>
        <time>2022-09-19T12:52:46.301Z</time>
      </trkpt>
      <trkpt lat="46.83333" lon="15.43152">
        <ele>408.632812</ele>
        <time>2022-09-19T12:52:48.211Z</time>
      </trkpt>
      <trkpt lat="46.83327" lon="15.43131">
        <ele>409.094974</ele>
        <time>2022-09-19T12:52:50.264Z</time>
      </trkpt>
      <trkpt lat="46.83321" lon="15.43112">
        <ele>409.517527</ele>
        <time>2022-09-19T12:52:52.220Z</time>
      </trkpt>
      <trkpt lat="46.83313" lon="15.43094">
        <ele>408.988313</ele>
        <time>2022-09-19T12:52:54.199Z</time>
      </trkpt>
      <trkpt lat="46.83307" lon="15.43076">
        <ele>408.486782</ele>
        <time>2022-09-19T12:52:56.208Z</time>
      </trkpt>
      <trkpt lat="46.83301" lon="15.4306">
        <ele>408.043872</ele>
        <time>2022-09-19T12:52:58.213Z</time>
      </trkpt>
      <trkpt lat="46.83297" lon="15.43044">
        <ele>407.633312</ele>
        <time>2022-09-19T12:53:00.192Z</time>
      </trkpt>
      <trkpt lat="46.83293" lon="15.43027">
        <ele>407.186695</ele>
        <time>2022-09-19T12:53:02.245Z</time>
      </trkpt>
      <trkpt lat="46.83291" lon="15.43009">
        <ele>406.747554</ele>
        <time>2022-09-19T12:53:04.200Z</time>
      </trkpt>
      <trkpt lat="46.8329" lon="15.42989">
        <ele>406.240387</ele>
        <time>2022-09-19T12:53:06.277Z</time>
      </trkpt>
      <trkpt lat="46.83291" lon="15.42965">
        <ele>405.672404</ele>
        <time>2022-09-19T12:53:08.216Z</time>
      </trkpt>
      <trkpt lat="46.83294" lon="15.42942">
        <ele>405.085448</ele>
        <time>2022-09-19T12:53:10.212Z</time>
      </trkpt>
      <trkpt lat="46.83298" lon="15.42917">
        <ele>404.462358</ele>
        <time>2022-09-19T12:53:12.212Z</time>
      </trkpt>
      <trkpt lat="46.833" lon="15.42904">
        <ele>404.129924</ele>
        <time>2022-09-19T12:53:13.214Z</time>
      </trkpt>
      <trkpt lat="46.83302" lon="15.42891">
        <ele>403.800004</ele>
        <time>2022-09-19T12:53:14.220Z</time>
      </trkpt>
      <trkpt lat="46.83304" lon="15.42878">
        <ele>403.471574</ele>
        <time>2022-09-19T12:53:15.214Z</time>
      </trkpt>
      <trkpt lat="46.83305" lon="15.42865">
        <ele>403.145095</ele>
        <time>2022-09-19T12:53:16.201Z</time>
      </trkpt>
      <trkpt lat="46.8331" lon="15.42839">
        <ele>401.049951</ele>
        <time>2022-09-19T12:53:18.243Z</time>
      </trkpt>
      <trkpt lat="46.83315" lon="15.42827">
        <ele>399.811811</ele>
        <time>2022-09-19T12:53:19.234Z</time>
      </trkpt>
      <trkpt lat="46.83321" lon="15.42815">
        <ele>398.570909</ele>
        <time>2022-09-19T12:53:20.216Z</time>
      </trkpt>
      <trkpt lat="46.83327" lon="15.42804">
        <ele>397.304113</ele>
        <time>2022-09-19T12:53:21.204Z</time>
      </trkpt>
      <trkpt lat="46.83333" lon="15.42793">
        <ele>396.08387</ele>
        <time>2022-09-19T12:53:22.211Z</time>
      </trkpt>
      <trkpt lat="46.83339" lon="15.42783">
        <ele>394.917487</ele>
        <time>2022-09-19T12:53:23.208Z</time>
      </trkpt>
      <trkpt lat="46.8335" lon="15.42765">
        <ele>392.832071</ele>
        <time>2022-09-19T12:53:25.212Z</time>
      </trkpt>
      <trkpt lat="46.83359" lon="15.42748">
        <ele>390.90796</ele>
        <time>2022-09-19T12:53:27.205Z</time>
      </trkpt>
      <trkpt lat="46.83366" lon="15.42733">
        <ele>389.358718</ele>
        <time>2022-09-19T12:53:29.238Z</time>
      </trkpt>
      <trkpt lat="46.83371" lon="15.42721">
        <ele>388.137699</ele>
        <time>2022-09-19T12:53:31.220Z</time>
      </trkpt>
      <trkpt lat="46.83378" lon="15.42704">
        <ele>386.377949</ele>
        <time>2022-09-19T12:53:35.234Z</time>
      </trkpt>
      <trkpt lat="46.83384" lon="15.42692">
        <ele>385.143336</ele>
        <time>2022-09-19T12:53:37.204Z</time>
      </trkpt>
      <trkpt lat="46.83389" lon="15.42681">
        <ele>383.952352</ele>
        <time>2022-09-19T12:53:39.202Z</time>
      </trkpt>
      <trkpt lat="46.83394" lon="15.42668">
        <ele>382.706655</ele>
        <time>2022-09-19T12:53:41.203Z</time>
      </trkpt>
      <trkpt lat="46.83399" lon="15.42655">
        <ele>381.398043</ele>
        <time>2022-09-19T12:53:43.195Z</time>
      </trkpt>
      <trkpt lat="46.83403" lon="15.42639">
        <ele>379.979915</ele>
        <time>2022-09-19T12:53:45.215Z</time>
      </trkpt>
      <trkpt lat="46.83408" lon="15.42622">
        <ele>378.536488</ele>
        <time>2022-09-19T12:53:47.218Z</time>
      </trkpt>
      <trkpt lat="46.83412" lon="15.42605">
        <ele>377.112515</ele>
        <time>2022-09-19T12:53:49.214Z</time>
      </trkpt>
      <trkpt lat="46.83415" lon="15.42588">
        <ele>375.702012</ele>
        <time>2022-09-19T12:53:51.199Z</time>
      </trkpt>
      <trkpt lat="46.83419" lon="15.42571">
        <ele>374.307528</ele>
        <time>2022-09-19T12:53:53.211Z</time>
      </trkpt>
      <trkpt lat="46.83423" lon="15.42553">
        <ele>372.790454</ele>
        <time>2022-09-19T12:53:55.215Z</time>
      </trkpt>
      <trkpt lat="46.83427" lon="15.42534">
        <ele>371.242738</ele>
        <time>2022-09-19T12:53:57.218Z</time>
      </trkpt>
      <trkpt lat="46.83431" lon="15.42514">
        <ele>369.612947</ele>
        <time>2022-09-19T12:53:59.221Z</time>
      </trkpt>
      <trkpt lat="46.83435" lon="15.42492">
        <ele>367.780053</ele>
        <time>2022-09-19T12:54:01.209Z</time>
      </trkpt>
      <trkpt lat="46.8344" lon="15.42467">
        <ele>365.761607</ele>
        <time>2022-09-19T12:54:03.211Z</time>
      </trkpt>
      <trkpt lat="46.83442" lon="15.42454">
        <ele>364.65509</ele>
        <time>2022-09-19T12:54:04.246Z</time>
      </trkpt>
      <trkpt lat="46.83445" lon="15.4244">
        <ele>363.566316</ele>
        <time>2022-09-19T12:54:05.216Z</time>
      </trkpt>
      <trkpt lat="46.83448" lon="15.42427">
        <ele>362.481291</ele>
        <time>2022-09-19T12:54:06.203Z</time>
      </trkpt>
      <trkpt lat="46.83452" lon="15.42415">
        <ele>361.379288</ele>
        <time>2022-09-19T12:54:07.213Z</time>
      </trkpt>
      <trkpt lat="46.83456" lon="15.42402">
        <ele>360.238496</ele>
        <time>2022-09-19T12:54:08.306Z</time>
      </trkpt>
      <trkpt lat="46.83461" lon="15.42388">
        <ele>359.140579</ele>
        <time>2022-09-19T12:54:09.300Z</time>
      </trkpt>
      <trkpt lat="46.83467" lon="15.42375">
        <ele>358.178096</ele>
        <time>2022-09-19T12:54:10.209Z</time>
      </trkpt>
      <trkpt lat="46.83473" lon="15.42362">
        <ele>357.226745</ele>
        <time>2022-09-19T12:54:11.202Z</time>
      </trkpt>
      <trkpt lat="46.8348" lon="15.42348">
        <ele>356.245279</ele>
        <time>2022-09-19T12:54:12.204Z</time>
      </trkpt>
      <trkpt lat="46.83487" lon="15.42335">
        <ele>355.197347</ele>
        <time>2022-09-19T12:54:13.238Z</time>
      </trkpt>
      <trkpt lat="46.83494" lon="15.42322">
        <ele>354.194003</ele>
        <time>2022-09-19T12:54:14.231Z</time>
      </trkpt>
      <trkpt lat="46.83502" lon="15.42309">
        <ele>353.164068</ele>
        <time>2022-09-19T12:54:15.208Z</time>
      </trkpt>
      <trkpt lat="46.8351" lon="15.42297">
        <ele>352.144256</ele>
        <time>2022-09-19T12:54:16.208Z</time>
      </trkpt>
      <trkpt lat="46.83518" lon="15.42285">
        <ele>351.137436</ele>
        <time>2022-09-19T12:54:17.213Z</time>
      </trkpt>
      <trkpt lat="46.83526" lon="15.42274">
        <ele>350.132934</ele>
        <time>2022-09-19T12:54:18.233Z</time>
      </trkpt>
      <trkpt lat="46.83534" lon="15.42262">
        <ele>349.159964</ele>
        <time>2022-09-19T12:54:19.245Z</time>
      </trkpt>
      <trkpt lat="46.83542" lon="15.42251">
        <ele>348.222774</ele>
        <time>2022-09-19T12:54:20.230Z</time>
      </trkpt>
      <trkpt lat="46.83549" lon="15.4224">
        <ele>347.296084</ele>
        <time>2022-09-19T12:54:21.201Z</time>
      </trkpt>
      <trkpt lat="46.83556" lon="15.4223">
        <ele>346.419949</ele>
        <time>2022-09-19T12:54:22.215Z</time>
      </trkpt>
      <trkpt lat="46.83563" lon="15.4222">
        <ele>345.573361</ele>
        <time>2022-09-19T12:54:23.216Z</time>
      </trkpt>
      <trkpt lat="46.8357" lon="15.42209">
        <ele>344.652865</ele>
        <time>2022-09-19T12:54:24.210Z</time>
      </trkpt>
      <trkpt lat="46.83577" lon="15.422">
        <ele>343.818955</ele>
        <time>2022-09-19T12:54:25.192Z</time>
      </trkpt>
      <trkpt lat="46.83588" lon="15.42183">
        <ele>343.170177</ele>
        <time>2022-09-19T12:54:27.192Z</time>
      </trkpt>
      <trkpt lat="46.83598" lon="15.42164">
        <ele>342.620788</ele>
        <time>2022-09-19T12:54:29.251Z</time>
      </trkpt>
      <trkpt lat="46.836" lon="15.42145">
        <ele>342.180144</ele>
        <time>2022-09-19T12:54:31.221Z</time>
      </trkpt>
      <trkpt lat="46.83596" lon="15.42127">
        <ele>341.755626</ele>
        <time>2022-09-19T12:54:33.201Z</time>
      </trkpt>
      <trkpt lat="46.83589" lon="15.42113">
        <ele>341.362173</ele>
        <time>2022-09-19T12:54:35.200Z</time>
      </trkpt>
      <trkpt lat="46.83577" lon="15.42099">
        <ele>340.855059</ele>
        <time>2022-09-19T12:54:37.221Z</time>
      </trkpt>
      <trkpt lat="46.83565" lon="15.42087">
        <ele>340.376605</ele>
        <time>2022-09-19T12:54:39.196Z</time>
      </trkpt>
      <trkpt lat="46.83555" lon="15.42075">
        <ele>339.926354</ele>
        <time>2022-09-19T12:54:41.266Z</time>
      </trkpt>
      <trkpt lat="46.83544" lon="15.42063">
        <ele>339.471958</ele>
        <time>2022-09-19T12:54:43.216Z</time>
      </trkpt>
      <trkpt lat="46.83534" lon="15.4205">
        <ele>339.033252</ele>
        <time>2022-09-19T12:54:45.198Z</time>
      </trkpt>
      <trkpt lat="46.83527" lon="15.42036">
        <ele>338.635072</ele>
        <time>2022-09-19T12:54:47.207Z</time>
      </trkpt>
      <trkpt lat="46.83522" lon="15.42024">
        <ele>338.302076</ele>
        <time>2022-09-19T12:54:49.198Z</time>
      </trkpt>
      <trkpt lat="46.83518" lon="15.42011">
        <ele>337.983505</ele>
        <time>2022-09-19T12:54:51.204Z</time>
      </trkpt>
      <trkpt lat="46.83518" lon="15.41996">
        <ele>337.655126</ele>
        <time>2022-09-19T12:54:53.202Z</time>
      </trkpt>
      <trkpt lat="46.83523" lon="15.41982">
        <ele>337.247329</ele>
        <time>2022-09-19T12:54:55.202Z</time>
      </trkpt>
      <trkpt lat="46.83529" lon="15.41968">
        <ele>336.832694</ele>
        <time>2022-09-19T12:54:57.213Z</time>
      </trkpt>
      <trkpt lat="46.83533" lon="15.41952">
        <ele>336.41403</ele>
        <time>2022-09-19T12:54:59.217Z</time>
      </trkpt>
      <trkpt lat="46.83538" lon="15.41935">
        <ele>335.960411</ele>
        <time>2022-09-19T12:55:01.243Z</time>
      </trkpt>
      <trkpt lat="46.83542" lon="15.41919">
        <ele>335.524823</ele>
        <time>2022-09-19T12:55:03.227Z</time>
      </trkpt>
      <trkpt lat="46.83546" lon="15.41902">
        <ele>335.072636</ele>
        <time>2022-09-19T12:55:05.185Z</time>
      </trkpt>
      <trkpt lat="46.8355" lon="15.41884">
        <ele>334.590611</ele>
        <time>2022-09-19T12:55:07.235Z</time>
      </trkpt>
      <trkpt lat="46.83555" lon="15.41865">
        <ele>334.091616</ele>
        <time>2022-09-19T12:55:09.204Z</time>
      </trkpt>
      <trkpt lat="46.83561" lon="15.41846">
        <ele>333.577803</ele>
        <time>2022-09-19T12:55:11.214Z</time>
      </trkpt>
      <trkpt lat="46.83566" lon="15.41827">
        <ele>333.057037</ele>
        <time>2022-09-19T12:55:13.216Z</time>
      </trkpt>
      <trkpt lat="46.83572" lon="15.41807">
        <ele>332.523276</ele>
        <time>2022-09-19T12:55:15.206Z</time>
      </trkpt>
      <trkpt lat="46.83577" lon="15.41788">
        <ele>331.993217</ele>
        <time>2022-09-19T12:55:17.237Z</time>
      </trkpt>
      <trkpt lat="46.83582" lon="15.41768">
        <ele>331.462477</ele>
        <time>2022-09-19T12:55:19.207Z</time>
      </trkpt>
      <trkpt lat="46.83587" lon="15.41748">
        <ele>330.944714</ele>
        <time>2022-09-19T12:55:21.213Z</time>
      </trkpt>
      <trkpt lat="46.83591" lon="15.41729">
        <ele>330.463572</ele>
        <time>2022-09-19T12:55:23.239Z</time>
      </trkpt>
      <trkpt lat="46.83595" lon="15.41711">
        <ele>329.991773</ele>
        <time>2022-09-19T12:55:25.201Z</time>
      </trkpt>
      <trkpt lat="46.83599" lon="15.41693">
        <ele>329.53361</ele>
        <time>2022-09-19T12:55:27.208Z</time>
      </trkpt>
      <trkpt lat="46.83603" lon="15.41675">
        <ele>329.083288</ele>
        <time>2022-09-19T12:55:29.198Z</time>
      </trkpt>
      <trkpt lat="46.83609" lon="15.41658">
        <ele>328.630333</ele>
        <time>2022-09-19T12:55:31.205Z</time>
      </trkpt>
      <trkpt lat="46.83614" lon="15.41641">
        <ele>328.169329</ele>
        <time>2022-09-19T12:55:33.213Z</time>
      </trkpt>
      <trkpt lat="46.8362" lon="15.41623">
        <ele>327.692999</ele>
        <time>2022-09-19T12:55:35.210Z</time>
      </trkpt>
      <trkpt lat="46.83626" lon="15.41606">
        <ele>327.234371</ele>
        <time>2022-09-19T12:55:37.208Z</time>
      </trkpt>
      <trkpt lat="46.83632" lon="15.4159">
        <ele>326.790709</ele>
        <time>2022-09-19T12:55:39.235Z</time>
      </trkpt>
      <trkpt lat="46.83637" lon="15.41574">
        <ele>326.374247</ele>
        <time>2022-09-19T12:55:41.215Z</time>
      </trkpt>
      <trkpt lat="46.83642" lon="15.41559">
        <ele>325.972331</ele>
        <time>2022-09-19T12:55:43.217Z</time>
      </trkpt>
      <trkpt lat="46.83648" lon="15.41544">
        <ele>325.568753</ele>
        <time>2022-09-19T12:55:45.235Z</time>
      </trkpt>
      <trkpt lat="46.83652" lon="15.4153">
        <ele>325.187239</ele>
        <time>2022-09-19T12:55:47.223Z</time>
      </trkpt>
      <trkpt lat="46.83657" lon="15.41516">
        <ele>324.807273</ele>
        <time>2022-09-19T12:55:49.208Z</time>
      </trkpt>
      <trkpt lat="46.83662" lon="15.41502">
        <ele>324.907705</ele>
        <time>2022-09-19T12:55:51.200Z</time>
      </trkpt>
      <trkpt lat="46.83666" lon="15.41488">
        <ele>325.152381</ele>
        <time>2022-09-19T12:55:53.209Z</time>
      </trkpt>
      <trkpt lat="46.83671" lon="15.41475">
        <ele>325.385825</ele>
        <time>2022-09-19T12:55:55.215Z</time>
      </trkpt>
      <trkpt lat="46.83675" lon="15.41463">
        <ele>325.617813</ele>
        <time>2022-09-19T12:55:57.206Z</time>
      </trkpt>
      <trkpt lat="46.83679" lon="15.4145">
        <ele>325.843381</ele>
        <time>2022-09-19T12:55:59.223Z</time>
      </trkpt>
      <trkpt lat="46.83683" lon="15.41438">
        <ele>326.063128</ele>
        <time>2022-09-19T12:56:01.256Z</time>
      </trkpt>
      <trkpt lat="46.83688" lon="15.41421">
        <ele>326.362214</ele>
        <time>2022-09-19T12:56:04.218Z</time>
      </trkpt>
      <trkpt lat="46.83693" lon="15.41406">
        <ele>326.62512</ele>
        <time>2022-09-19T12:56:07.212Z</time>
      </trkpt>
      <trkpt lat="46.83697" lon="15.41394">
        <ele>326.850261</ele>
        <time>2022-09-19T12:56:10.217Z</time>
      </trkpt>
      <trkpt lat="46.83701" lon="15.41381">
        <ele>327.066228</ele>
        <time>2022-09-19T12:56:13.213Z</time>
      </trkpt>
      <trkpt lat="46.83705" lon="15.41369">
        <ele>327.290337</ele>
        <time>2022-09-19T12:56:16.228Z</time>
      </trkpt>
      <trkpt lat="46.83711" lon="15.41354">
        <ele>327.559527</ele>
        <time>2022-09-19T12:56:19.214Z</time>
      </trkpt>
      <trkpt lat="46.83716" lon="15.41338">
        <ele>327.843901</ele>
        <time>2022-09-19T12:56:22.205Z</time>
      </trkpt>
      <trkpt lat="46.83721" lon="15.41321">
        <ele>328.157856</ele>
        <time>2022-09-19T12:56:25.208Z</time>
      </trkpt>
      <trkpt lat="46.83727" lon="15.41304">
        <ele>328.464969</ele>
        <time>2022-09-19T12:56:28.201Z</time>
      </trkpt>
      <trkpt lat="46.83732" lon="15.41288">
        <ele>328.749878</ele>
        <time>2022-09-19T12:56:31.209Z</time>
      </trkpt>
      <trkpt lat="46.83737" lon="15.41273">
        <ele>329.067002</ele>
        <time>2022-09-19T12:56:34.261Z</time>
      </trkpt>
      <trkpt lat="46.83742" lon="15.41258">
        <ele>329.576587</ele>
        <time>2022-09-19T12:56:37.218Z</time>
      </trkpt>
      <trkpt lat="46.83747" lon="15.41244">
        <ele>330.077819</ele>
        <time>2022-09-19T12:56:40.213Z</time>
      </trkpt>
      <trkpt lat="46.83752" lon="15.41231">
        <ele>330.545447</ele>
        <time>2022-09-19T12:56:43.213Z</time>
      </trkpt>
      <trkpt lat="46.83757" lon="15.41219">
        <ele>330.97093</ele>
        <time>2022-09-19T12:56:46.205Z</time>
      </trkpt>
      <trkpt lat="46.83762" lon="15.41207">
        <ele>331.399078</ele>
        <time>2022-09-19T12:56:50.214Z</time>
      </trkpt>
      <trkpt lat="46.83766" lon="15.41195">
        <ele>331.815072</ele>
        <time>2022-09-19T12:56:56.204Z</time>
      </trkpt>
      <trkpt lat="46.83768" lon="15.4118">
        <ele>332.287332</ele>
        <time>2022-09-19T12:57:02.208Z</time>
      </trkpt>
      <trkpt lat="46.83759" lon="15.4117">
        <ele>332.774241</ele>
        <time>2022-09-19T12:57:06.214Z</time>
      </trkpt>
      <trkpt lat="46.83751" lon="15.41163">
        <ele>333.210776</ele>
        <time>2022-09-19T12:57:09.214Z</time>
      </trkpt>
      <trkpt lat="46.83739" lon="15.41157">
        <ele>333.764039</ele>
        <time>2022-09-19T12:57:13.265Z</time>
      </trkpt>
      <trkpt lat="46.8373" lon="15.41151">
        <ele>334.217601</ele>
        <time>2022-09-19T12:57:16.210Z</time>
      </trkpt>
      <trkpt lat="46.8372" lon="15.41143">
        <ele>334.766136</ele>
        <time>2022-09-19T12:57:19.262Z</time>
      </trkpt>
      <trkpt lat="46.83708" lon="15.41134">
        <ele>335.369135</ele>
        <time>2022-09-19T12:57:22.207Z</time>
      </trkpt>
      <trkpt lat="46.83699" lon="15.41128">
        <ele>335.795463</ele>
        <time>2022-09-19T12:57:24.214Z</time>
      </trkpt>
      <trkpt lat="46.83687" lon="15.4112">
        <ele>336.400459</ele>
        <time>2022-09-19T12:57:27.198Z</time>
      </trkpt>
      <trkpt lat="46.83678" lon="15.41116">
        <ele>336.842376</ele>
        <time>2022-09-19T12:57:29.205Z</time>
      </trkpt>
      <trkpt lat="46.83668" lon="15.41112">
        <ele>337.082449</ele>
        <time>2022-09-19T12:57:31.218Z</time>
      </trkpt>
      <trkpt lat="46.83658" lon="15.4111">
        <ele>336.99554</ele>
        <time>2022-09-19T12:57:33.185Z</time>
      </trkpt>
      <trkpt lat="46.83649" lon="15.41108">
        <ele>336.910239</ele>
        <time>2022-09-19T12:57:35.201Z</time>
      </trkpt>
      <trkpt lat="46.83639" lon="15.41105">
        <ele>336.825722</ele>
        <time>2022-09-19T12:57:37.213Z</time>
      </trkpt>
      <trkpt lat="46.8363" lon="15.41103">
        <ele>336.74051</ele>
        <time>2022-09-19T12:57:39.206Z</time>
      </trkpt>
      <trkpt lat="46.83621" lon="15.41102">
        <ele>336.657224</ele>
        <time>2022-09-19T12:57:41.208Z</time>
      </trkpt>
      <trkpt lat="46.83612" lon="15.411">
        <ele>336.575776</ele>
        <time>2022-09-19T12:57:43.212Z</time>
      </trkpt>
      <trkpt lat="46.83602" lon="15.41098">
        <ele>336.493522</ele>
        <time>2022-09-19T12:57:45.237Z</time>
      </trkpt>
      <trkpt lat="46.83589" lon="15.41096">
        <ele>336.377912</ele>
        <time>2022-09-19T12:57:48.215Z</time>
      </trkpt>
      <trkpt lat="46.83577" lon="15.41093">
        <ele>336.267661</ele>
        <time>2022-09-19T12:57:51.219Z</time>
      </trkpt>
      <trkpt lat="46.83564" lon="15.41091">
        <ele>336.148686</ele>
        <time>2022-09-19T12:57:54.202Z</time>
      </trkpt>
      <trkpt lat="46.83551" lon="15.41088">
        <ele>336.032991</ele>
        <time>2022-09-19T12:57:57.213Z</time>
      </trkpt>
      <trkpt lat="46.83538" lon="15.41086">
        <ele>335.921352</ele>
        <time>2022-09-19T12:58:00.202Z</time>
      </trkpt>
      <trkpt lat="46.83526" lon="15.41083">
        <ele>335.811806</ele>
        <time>2022-09-19T12:58:03.221Z</time>
      </trkpt>
      <trkpt lat="46.83514" lon="15.41081">
        <ele>335.703397</ele>
        <time>2022-09-19T12:58:06.213Z</time>
      </trkpt>
      <trkpt lat="46.83502" lon="15.41078">
        <ele>335.594538</ele>
        <time>2022-09-19T12:58:09.226Z</time>
      </trkpt>
      <trkpt lat="46.8349" lon="15.41075">
        <ele>335.616493</ele>
        <time>2022-09-19T12:58:12.210Z</time>
      </trkpt>
      <trkpt lat="46.83477" lon="15.4107">
        <ele>335.915124</ele>
        <time>2022-09-19T12:58:15.200Z</time>
      </trkpt>
      <trkpt lat="46.83468" lon="15.41066">
        <ele>336.131129</ele>
        <time>2022-09-19T12:58:17.246Z</time>
      </trkpt>
      <trkpt lat="46.83459" lon="15.41062">
        <ele>336.343274</ele>
        <time>2022-09-19T12:58:19.216Z</time>
      </trkpt>
      <trkpt lat="46.8345" lon="15.41057">
        <ele>336.569698</ele>
        <time>2022-09-19T12:58:21.227Z</time>
      </trkpt>
      <trkpt lat="46.8344" lon="15.41051">
        <ele>336.797683</ele>
        <time>2022-09-19T12:58:23.256Z</time>
      </trkpt>
      <trkpt lat="46.8343" lon="15.41045">
        <ele>337.047673</ele>
        <time>2022-09-19T12:58:25.212Z</time>
      </trkpt>
      <trkpt lat="46.8342" lon="15.41039">
        <ele>337.308181</ele>
        <time>2022-09-19T12:58:27.215Z</time>
      </trkpt>
      <trkpt lat="46.8341" lon="15.41032">
        <ele>337.555189</ele>
        <time>2022-09-19T12:58:29.215Z</time>
      </trkpt>
      <trkpt lat="46.834" lon="15.41026">
        <ele>337.792023</ele>
        <time>2022-09-19T12:58:31.219Z</time>
      </trkpt>
      <trkpt lat="46.83391" lon="15.4102">
        <ele>338.019296</ele>
        <time>2022-09-19T12:58:33.218Z</time>
      </trkpt>
      <trkpt lat="46.83382" lon="15.41014">
        <ele>338.249751</ele>
        <time>2022-09-19T12:58:35.204Z</time>
      </trkpt>
      <trkpt lat="46.83372" lon="15.41008">
        <ele>338.486586</ele>
        <time>2022-09-19T12:58:37.214Z</time>
      </trkpt>
      <trkpt lat="46.83363" lon="15.41002">
        <ele>338.712402</ele>
        <time>2022-09-19T12:58:39.215Z</time>
      </trkpt>
      <trkpt lat="46.83354" lon="15.40997">
        <ele>338.930739</ele>
        <time>2022-09-19T12:58:41.220Z</time>
      </trkpt>
      <trkpt lat="46.83346" lon="15.40991">
        <ele>339.140813</ele>
        <time>2022-09-19T12:58:43.213Z</time>
      </trkpt>
      <trkpt lat="46.83337" lon="15.40985">
        <ele>339.348831</ele>
        <time>2022-09-19T12:58:45.208Z</time>
      </trkpt>
      <trkpt lat="46.83329" lon="15.4098">
        <ele>339.557617</ele>
        <time>2022-09-19T12:58:47.221Z</time>
      </trkpt>
      <trkpt lat="46.83321" lon="15.40974">
        <ele>339.753381</ele>
        <time>2022-09-19T12:58:49.208Z</time>
      </trkpt>
      <trkpt lat="46.83312" lon="15.40969">
        <ele>339.946934</ele>
        <time>2022-09-19T12:58:51.193Z</time>
      </trkpt>
      <trkpt lat="46.83304" lon="15.40964">
        <ele>340.144434</ele>
        <time>2022-09-19T12:58:53.213Z</time>
      </trkpt>
      <trkpt lat="46.83295" lon="15.40958">
        <ele>340.343085</ele>
        <time>2022-09-19T12:58:55.210Z</time>
      </trkpt>
      <trkpt lat="46.83287" lon="15.40953">
        <ele>340.547087</ele>
        <time>2022-09-19T12:58:57.245Z</time>
      </trkpt>
      <trkpt lat="46.83278" lon="15.40948">
        <ele>340.750254</ele>
        <time>2022-09-19T12:58:59.219Z</time>
      </trkpt>
      <trkpt lat="46.83269" lon="15.40942">
        <ele>340.963301</ele>
        <time>2022-09-19T12:59:01.217Z</time>
      </trkpt>
      <trkpt lat="46.8326" lon="15.40936">
        <ele>341.17493</ele>
        <time>2022-09-19T12:59:03.208Z</time>
      </trkpt>
      <trkpt lat="46.83251" lon="15.40931">
        <ele>341.383302</ele>
        <time>2022-09-19T12:59:05.205Z</time>
      </trkpt>
      <trkpt lat="46.83241" lon="15.40927">
        <ele>341.593176</ele>
        <time>2022-09-19T12:59:07.211Z</time>
      </trkpt>
      <trkpt lat="46.83232" lon="15.40922">
        <ele>341.809715</ele>
        <time>2022-09-19T12:59:09.219Z</time>
      </trkpt>
      <trkpt lat="46.83222" lon="15.40918">
        <ele>342.020824</ele>
        <time>2022-09-19T12:59:11.221Z</time>
      </trkpt>
      <trkpt lat="46.83213" lon="15.40915">
        <ele>342.225948</ele>
        <time>2022-09-19T12:59:13.220Z</time>
      </trkpt>
      <trkpt lat="46.83201" lon="15.40911">
        <ele>342.496363</ele>
        <time>2022-09-19T12:59:16.209Z</time>
      </trkpt>
      <trkpt lat="46.83188" lon="15.40909">
        <ele>342.766401</ele>
        <time>2022-09-19T12:59:19.251Z</time>
      </trkpt>
      <trkpt lat="46.83177" lon="15.40908">
        <ele>343.005471</ele>
        <time>2022-09-19T12:59:22.221Z</time>
      </trkpt>
      <trkpt lat="46.83166" lon="15.40907">
        <ele>343.250032</ele>
        <time>2022-09-19T12:59:25.241Z</time>
      </trkpt>
      <trkpt lat="46.83155" lon="15.40907">
        <ele>343.476469</ele>
        <time>2022-09-19T12:59:28.208Z</time>
      </trkpt>
      <trkpt lat="46.83145" lon="15.40907">
        <ele>343.730494</ele>
        <time>2022-09-19T12:59:31.206Z</time>
      </trkpt>
      <trkpt lat="46.83136" lon="15.40906">
        <ele>343.976745</ele>
        <time>2022-09-19T12:59:34.205Z</time>
      </trkpt>
      <trkpt lat="46.83126" lon="15.40906">
        <ele>344.230845</ele>
        <time>2022-09-19T12:59:37.197Z</time>
      </trkpt>
      <trkpt lat="46.83117" lon="15.40905">
        <ele>344.469716</ele>
        <time>2022-09-19T12:59:40.203Z</time>
      </trkpt>
      <trkpt lat="46.83105" lon="15.40904">
        <ele>344.78159</ele>
        <time>2022-09-19T12:59:44.256Z</time>
      </trkpt>
      <trkpt lat="46.83094" lon="15.40903">
        <ele>345.067139</ele>
        <time>2022-09-19T12:59:48.212Z</time>
      </trkpt>
      <trkpt lat="46.83085" lon="15.40903">
        <ele>345.308181</ele>
        <time>2022-09-19T12:59:52.206Z</time>
      </trkpt>
      <trkpt lat="46.83074" lon="15.40902">
        <ele>345.572763</ele>
        <time>2022-09-19T12:59:56.216Z</time>
      </trkpt>
      <trkpt lat="46.83064" lon="15.40901">
        <ele>345.831333</ele>
        <time>2022-09-19T13:00:00.198Z</time>
      </trkpt>
      <trkpt lat="46.83054" lon="15.40899">
        <ele>346.092265</ele>
        <time>2022-09-19T13:00:04.218Z</time>
      </trkpt>
      <trkpt lat="46.83045" lon="15.40896">
        <ele>346.332252</ele>
        <time>2022-09-19T13:00:08.214Z</time>
      </trkpt>
      <trkpt lat="46.83036" lon="15.40893">
        <ele>346.589228</ele>
        <time>2022-09-19T13:00:12.196Z</time>
      </trkpt>
      <trkpt lat="46.83024" lon="15.40892">
        <ele>346.901883</ele>
        <time>2022-09-19T13:00:17.213Z</time>
      </trkpt>
      <trkpt lat="46.83014" lon="15.40894">
        <ele>347.154935</ele>
        <time>2022-09-19T13:00:22.212Z</time>
      </trkpt>
      <trkpt lat="46.83004" lon="15.40887">
        <ele>347.450181</ele>
        <time>2022-09-19T13:00:26.205Z</time>
      </trkpt>
      <trkpt lat="46.82995" lon="15.40879">
        <ele>347.727208</ele>
        <time>2022-09-19T13:00:30.185Z</time>
      </trkpt>
      <trkpt lat="46.82985" lon="15.4087">
        <ele>348.026909</ele>
        <time>2022-09-19T13:00:34.219Z</time>
      </trkpt>
      <trkpt lat="46.82975" lon="15.4086">
        <ele>348.794932</ele>
        <time>2022-09-19T13:00:38.205Z</time>
      </trkpt>
      <trkpt lat="46.82966" lon="15.40851">
        <ele>349.724699</ele>
        <time>2022-09-19T13:00:42.211Z</time>
      </trkpt>
      <trkpt lat="46.82957" lon="15.40841">
        <ele>350.64767</ele>
        <time>2022-09-19T13:00:46.220Z</time>
      </trkpt>
      <trkpt lat="46.82948" lon="15.40831">
        <ele>351.601502</ele>
        <time>2022-09-19T13:00:50.206Z</time>
      </trkpt>
      <trkpt lat="46.82939" lon="15.40821">
        <ele>352.557819</ele>
        <time>2022-09-19T13:00:54.212Z</time>
      </trkpt>
      <trkpt lat="46.82932" lon="15.40812">
        <ele>353.314429</ele>
        <time>2022-09-19T13:00:57.219Z</time>
      </trkpt>
      <trkpt lat="46.82925" lon="15.40803">
        <ele>354.08918</ele>
        <time>2022-09-19T13:01:00.204Z</time>
      </trkpt>
      <trkpt lat="46.82917" lon="15.40796">
        <ele>354.858381</ele>
        <time>2022-09-19T13:01:03.244Z</time>
      </trkpt>
      <trkpt lat="46.82909" lon="15.40788">
        <ele>355.654926</ele>
        <time>2022-09-19T13:01:06.210Z</time>
      </trkpt>
      <trkpt lat="46.82901" lon="15.40779">
        <ele>356.460797</ele>
        <time>2022-09-19T13:01:09.211Z</time>
      </trkpt>
      <trkpt lat="46.82894" lon="15.40771">
        <ele>357.229862</ele>
        <time>2022-09-19T13:01:12.205Z</time>
      </trkpt>
      <trkpt lat="46.82886" lon="15.40764">
        <ele>358.023277</ele>
        <time>2022-09-19T13:01:15.236Z</time>
      </trkpt>
      <trkpt lat="46.82878" lon="15.40756">
        <ele>358.796623</ele>
        <time>2022-09-19T13:01:18.205Z</time>
      </trkpt>
      <trkpt lat="46.8287" lon="15.40748">
        <ele>359.586292</ele>
        <time>2022-09-19T13:01:21.212Z</time>
      </trkpt>
      <trkpt lat="46.82862" lon="15.40741">
        <ele>360.363499</ele>
        <time>2022-09-19T13:01:24.211Z</time>
      </trkpt>
      <trkpt lat="46.82854" lon="15.40734">
        <ele>361.155845</ele>
        <time>2022-09-19T13:01:27.199Z</time>
      </trkpt>
      <trkpt lat="46.82846" lon="15.40727">
        <ele>361.944062</ele>
        <time>2022-09-19T13:01:30.197Z</time>
      </trkpt>
      <trkpt lat="46.82837" lon="15.40719">
        <ele>362.787837</ele>
        <time>2022-09-19T13:01:33.213Z</time>
      </trkpt>
      <trkpt lat="46.82828" lon="15.40712">
        <ele>362.888167</ele>
        <time>2022-09-19T13:01:36.210Z</time>
      </trkpt>
      <trkpt lat="46.82819" lon="15.40704">
        <ele>362.701131</ele>
        <time>2022-09-19T13:01:39.220Z</time>
      </trkpt>
      <trkpt lat="46.82811" lon="15.40696">
        <ele>362.516268</ele>
        <time>2022-09-19T13:01:42.213Z</time>
      </trkpt>
      <trkpt lat="46.82802" lon="15.40689">
        <ele>362.333578</ele>
        <time>2022-09-19T13:01:45.205Z</time>
      </trkpt>
      <trkpt lat="46.82793" lon="15.40681">
        <ele>362.151825</ele>
        <time>2022-09-19T13:01:48.217Z</time>
      </trkpt>
      <trkpt lat="46.82784" lon="15.40673">
        <ele>361.968053</ele>
        <time>2022-09-19T13:01:51.209Z</time>
      </trkpt>
      <trkpt lat="46.82776" lon="15.40665">
        <ele>361.788188</ele>
        <time>2022-09-19T13:01:54.259Z</time>
      </trkpt>
      <trkpt lat="46.82768" lon="15.40655">
        <ele>361.603646</ele>
        <time>2022-09-19T13:01:57.235Z</time>
      </trkpt>
      <trkpt lat="46.8276" lon="15.40644">
        <ele>361.398216</ele>
        <time>2022-09-19T13:02:00.200Z</time>
      </trkpt>
      <trkpt lat="46.82751" lon="15.4063">
        <ele>361.165149</ele>
        <time>2022-09-19T13:02:03.211Z</time>
      </trkpt>
      <trkpt lat="46.82745" lon="15.40619">
        <ele>360.988627</ele>
        <time>2022-09-19T13:02:05.257Z</time>
      </trkpt>
      <trkpt lat="46.82738" lon="15.40608">
        <ele>360.810001</ele>
        <time>2022-09-19T13:02:07.196Z</time>
      </trkpt>
      <trkpt lat="46.82732" lon="15.40596">
        <ele>360.62668</ele>
        <time>2022-09-19T13:02:09.218Z</time>
      </trkpt>
      <trkpt lat="46.82725" lon="15.40585">
        <ele>360.442915</ele>
        <time>2022-09-19T13:02:11.219Z</time>
      </trkpt>
      <trkpt lat="46.82718" lon="15.40574">
        <ele>360.25281</ele>
        <time>2022-09-19T13:02:13.210Z</time>
      </trkpt>
      <trkpt lat="46.82711" lon="15.40562">
        <ele>360.058071</ele>
        <time>2022-09-19T13:02:15.212Z</time>
      </trkpt>
      <trkpt lat="46.82704" lon="15.4055">
        <ele>359.8722</ele>
        <time>2022-09-19T13:02:17.196Z</time>
      </trkpt>
      <trkpt lat="46.82697" lon="15.40538">
        <ele>359.890777</ele>
        <time>2022-09-19T13:02:19.210Z</time>
      </trkpt>
      <trkpt lat="46.82691" lon="15.40526">
        <ele>360.068242</ele>
        <time>2022-09-19T13:02:21.238Z</time>
      </trkpt>
      <trkpt lat="46.82684" lon="15.40515">
        <ele>360.247249</ele>
        <time>2022-09-19T13:02:23.207Z</time>
      </trkpt>
      <trkpt lat="46.82677" lon="15.40504">
        <ele>360.429848</ele>
        <time>2022-09-19T13:02:25.222Z</time>
      </trkpt>
      <trkpt lat="46.82669" lon="15.40496">
        <ele>360.597333</ele>
        <time>2022-09-19T13:02:27.213Z</time>
      </trkpt>
      <trkpt lat="46.8266" lon="15.40488">
        <ele>360.778034</ele>
        <time>2022-09-19T13:02:29.205Z</time>
      </trkpt>
      <trkpt lat="46.82651" lon="15.40478">
        <ele>360.974691</ele>
        <time>2022-09-19T13:02:31.209Z</time>
      </trkpt>
      <trkpt lat="46.82642" lon="15.40467">
        <ele>361.181516</ele>
        <time>2022-09-19T13:02:33.205Z</time>
      </trkpt>
      <trkpt lat="46.82636" lon="15.40454">
        <ele>361.377541</ele>
        <time>2022-09-19T13:02:35.208Z</time>
      </trkpt>
      <trkpt lat="46.8263" lon="15.40437">
        <ele>361.600423</ele>
        <time>2022-09-19T13:02:37.227Z</time>
      </trkpt>
      <trkpt lat="46.82623" lon="15.40425">
        <ele>361.789917</ele>
        <time>2022-09-19T13:02:39.227Z</time>
      </trkpt>
      <trkpt lat="46.82615" lon="15.40416">
        <ele>361.965832</ele>
        <time>2022-09-19T13:02:41.209Z</time>
      </trkpt>
      <trkpt lat="46.82607" lon="15.40407">
        <ele>362.140611</ele>
        <time>2022-09-19T13:02:43.207Z</time>
      </trkpt>
      <trkpt lat="46.82599" lon="15.40396">
        <ele>362.331097</ele>
        <time>2022-09-19T13:02:46.216Z</time>
      </trkpt>
      <trkpt lat="46.82594" lon="15.40385">
        <ele>362.494389</ele>
        <time>2022-09-19T13:02:49.205Z</time>
      </trkpt>
      <trkpt lat="46.82587" lon="15.40373">
        <ele>362.676325</ele>
        <time>2022-09-19T13:02:52.214Z</time>
      </trkpt>
      <trkpt lat="46.82581" lon="15.4036">
        <ele>362.865155</ele>
        <time>2022-09-19T13:02:55.221Z</time>
      </trkpt>
      <trkpt lat="46.82577" lon="15.40347">
        <ele>362.506154</ele>
        <time>2022-09-19T13:02:58.217Z</time>
      </trkpt>
      <trkpt lat="46.82574" lon="15.40331">
        <ele>361.665315</ele>
        <time>2022-09-19T13:03:01.227Z</time>
      </trkpt>
      <trkpt lat="46.82568" lon="15.40314">
        <ele>360.705828</ele>
        <time>2022-09-19T13:03:04.245Z</time>
      </trkpt>
      <trkpt lat="46.82561" lon="15.40297">
        <ele>359.757347</ele>
        <time>2022-09-19T13:03:07.210Z</time>
      </trkpt>
      <trkpt lat="46.82555" lon="15.4028">
        <ele>358.81084</ele>
        <time>2022-09-19T13:03:10.194Z</time>
      </trkpt>
      <trkpt lat="46.82548" lon="15.40263">
        <ele>357.865933</ele>
        <time>2022-09-19T13:03:13.281Z</time>
      </trkpt>
      <trkpt lat="46.82542" lon="15.40246">
        <ele>356.9011</ele>
        <time>2022-09-19T13:03:16.241Z</time>
      </trkpt>
      <trkpt lat="46.82538" lon="15.40234">
        <ele>356.232413</ele>
        <time>2022-09-19T13:03:18.213Z</time>
      </trkpt>
      <trkpt lat="46.82533" lon="15.40221">
        <ele>355.534377</ele>
        <time>2022-09-19T13:03:20.213Z</time>
      </trkpt>
      <trkpt lat="46.82529" lon="15.40209">
        <ele>354.825483</ele>
        <time>2022-09-19T13:03:22.218Z</time>
      </trkpt>
      <trkpt lat="46.82524" lon="15.40195">
        <ele>354.098929</ele>
        <time>2022-09-19T13:03:24.211Z</time>
      </trkpt>
      <trkpt lat="46.8252" lon="15.40182">
        <ele>353.388787</ele>
        <time>2022-09-19T13:03:26.201Z</time>
      </trkpt>
      <trkpt lat="46.82515" lon="15.4017">
        <ele>352.710528</ele>
        <time>2022-09-19T13:03:28.208Z</time>
      </trkpt>
      <trkpt lat="46.82512" lon="15.40158">
        <ele>352.064674</ele>
        <time>2022-09-19T13:03:30.203Z</time>
      </trkpt>
      <trkpt lat="46.82506" lon="15.40142">
        <ele>351.144692</ele>
        <time>2022-09-19T13:03:33.202Z</time>
      </trkpt>
      <trkpt lat="46.825" lon="15.40125">
        <ele>350.222444</ele>
        <time>2022-09-19T13:03:36.216Z</time>
      </trkpt>
      <trkpt lat="46.82496" lon="15.40109">
        <ele>349.556251</ele>
        <time>2022-09-19T13:03:39.211Z</time>
      </trkpt>
      <trkpt lat="46.82495" lon="15.40096">
        <ele>349.055503</ele>
        <time>2022-09-19T13:03:41.194Z</time>
      </trkpt>
      <trkpt lat="46.82493" lon="15.40082">
        <ele>348.556039</ele>
        <time>2022-09-19T13:03:43.201Z</time>
      </trkpt>
      <trkpt lat="46.8249" lon="15.40064">
        <ele>347.850089</ele>
        <time>2022-09-19T13:03:46.195Z</time>
      </trkpt>
      <trkpt lat="46.82485" lon="15.40046">
        <ele>347.16389</ele>
        <time>2022-09-19T13:03:49.206Z</time>
      </trkpt>
      <trkpt lat="46.82479" lon="15.40029">
        <ele>346.47367</ele>
        <time>2022-09-19T13:03:52.229Z</time>
      </trkpt>
      <trkpt lat="46.82473" lon="15.40013">
        <ele>345.778559</ele>
        <time>2022-09-19T13:03:55.253Z</time>
      </trkpt>
      <trkpt lat="46.82465" lon="15.39998">
        <ele>345.088088</ele>
        <time>2022-09-19T13:03:58.211Z</time>
      </trkpt>
      <trkpt lat="46.82459" lon="15.39988">
        <ele>344.6034</ele>
        <time>2022-09-19T13:04:00.202Z</time>
      </trkpt>
      <trkpt lat="46.82449" lon="15.39975">
        <ele>343.889566</ele>
        <time>2022-09-19T13:04:03.196Z</time>
      </trkpt>
      <trkpt lat="46.82439" lon="15.39962">
        <ele>343.162257</ele>
        <time>2022-09-19T13:04:06.202Z</time>
      </trkpt>
      <trkpt lat="46.82428" lon="15.39952">
        <ele>342.450108</ele>
        <time>2022-09-19T13:04:09.218Z</time>
      </trkpt>
      <trkpt lat="46.82415" lon="15.39943">
        <ele>341.721356</ele>
        <time>2022-09-19T13:04:12.208Z</time>
      </trkpt>
      <trkpt lat="46.82407" lon="15.39936">
        <ele>341.189885</ele>
        <time>2022-09-19T13:04:14.215Z</time>
      </trkpt>
      <trkpt lat="46.82397" lon="15.3993">
        <ele>340.61687</ele>
        <time>2022-09-19T13:04:16.205Z</time>
      </trkpt>
      <trkpt lat="46.82387" lon="15.39923">
        <ele>340.290804</ele>
        <time>2022-09-19T13:04:18.191Z</time>
      </trkpt>
      <trkpt lat="46.82377" lon="15.39917">
        <ele>340.152744</ele>
        <time>2022-09-19T13:04:20.223Z</time>
      </trkpt>
      <trkpt lat="46.82368" lon="15.3991">
        <ele>340.016556</ele>
        <time>2022-09-19T13:04:22.221Z</time>
      </trkpt>
      <trkpt lat="46.82359" lon="15.39904">
        <ele>339.89081</ele>
        <time>2022-09-19T13:04:24.202Z</time>
      </trkpt>
      <trkpt lat="46.82349" lon="15.39898">
        <ele>339.756411</ele>
        <time>2022-09-19T13:04:26.213Z</time>
      </trkpt>
      <trkpt lat="46.82339" lon="15.39893">
        <ele>339.616589</ele>
        <time>2022-09-19T13:04:28.206Z</time>
      </trkpt>
      <trkpt lat="46.82329" lon="15.39887">
        <ele>339.474943</ele>
        <time>2022-09-19T13:04:30.204Z</time>
      </trkpt>
      <trkpt lat="46.82318" lon="15.39882">
        <ele>339.330243</ele>
        <time>2022-09-19T13:04:32.214Z</time>
      </trkpt>
      <trkpt lat="46.82307" lon="15.39876">
        <ele>339.187692</ele>
        <time>2022-09-19T13:04:34.223Z</time>
      </trkpt>
      <trkpt lat="46.82297" lon="15.39872">
        <ele>339.046985</ele>
        <time>2022-09-19T13:04:36.212Z</time>
      </trkpt>
      <trkpt lat="46.82287" lon="15.39868">
        <ele>338.914452</ele>
        <time>2022-09-19T13:04:38.223Z</time>
      </trkpt>
      <trkpt lat="46.82277" lon="15.39863">
        <ele>338.786027</ele>
        <time>2022-09-19T13:04:40.228Z</time>
      </trkpt>
      <trkpt lat="46.82267" lon="15.39859">
        <ele>338.653212</ele>
        <time>2022-09-19T13:04:42.218Z</time>
      </trkpt>
      <trkpt lat="46.82258" lon="15.39855">
        <ele>338.52339</ele>
        <time>2022-09-19T13:04:44.199Z</time>
      </trkpt>
      <trkpt lat="46.82248" lon="15.39851">
        <ele>338.394016</ele>
        <time>2022-09-19T13:04:46.199Z</time>
      </trkpt>
      <trkpt lat="46.82239" lon="15.39846">
        <ele>338.263815</ele>
        <time>2022-09-19T13:04:48.196Z</time>
      </trkpt>
      <trkpt lat="46.8223" lon="15.39842">
        <ele>338.146239</ele>
        <time>2022-09-19T13:04:50.227Z</time>
      </trkpt>
      <trkpt lat="46.82221" lon="15.39838">
        <ele>338.111043</ele>
        <time>2022-09-19T13:04:52.231Z</time>
      </trkpt>
      <trkpt lat="46.82209" lon="15.39832">
        <ele>338.356965</ele>
        <time>2022-09-19T13:04:55.209Z</time>
      </trkpt>
      <trkpt lat="46.82197" lon="15.39827">
        <ele>338.599568</ele>
        <time>2022-09-19T13:04:58.203Z</time>
      </trkpt>
      <trkpt lat="46.82184" lon="15.39822">
        <ele>338.852444</ele>
        <time>2022-09-19T13:05:01.200Z</time>
      </trkpt>
      <trkpt lat="46.82172" lon="15.39818">
        <ele>339.091207</ele>
        <time>2022-09-19T13:05:04.185Z</time>
      </trkpt>
      <trkpt lat="46.8216" lon="15.39814">
        <ele>339.327289</ele>
        <time>2022-09-19T13:05:07.211Z</time>
      </trkpt>
      <trkpt lat="46.82148" lon="15.39811">
        <ele>339.549226</ele>
        <time>2022-09-19T13:05:10.202Z</time>
      </trkpt>
      <trkpt lat="46.82137" lon="15.39808">
        <ele>339.770921</ele>
        <time>2022-09-19T13:05:13.204Z</time>
      </trkpt>
      <trkpt lat="46.82126" lon="15.39805">
        <ele>339.988617</ele>
        <time>2022-09-19T13:05:16.201Z</time>
      </trkpt>
      <trkpt lat="46.82114" lon="15.39804">
        <ele>340.203146</ele>
        <time>2022-09-19T13:05:19.195Z</time>
      </trkpt>
      <trkpt lat="46.82104" lon="15.39803">
        <ele>340.395209</ele>
        <time>2022-09-19T13:05:22.223Z</time>
      </trkpt>
      <trkpt lat="46.82093" lon="15.398">
        <ele>340.609197</ele>
        <time>2022-09-19T13:05:26.236Z</time>
      </trkpt>
      <trkpt lat="46.82083" lon="15.39797">
        <ele>340.820034</ele>
        <time>2022-09-19T13:05:30.213Z</time>
      </trkpt>
      <trkpt lat="46.82073" lon="15.39794">
        <ele>341.013185</ele>
        <time>2022-09-19T13:05:33.222Z</time>
      </trkpt>
      <trkpt lat="46.82062" lon="15.39792">
        <ele>341.214284</ele>
        <time>2022-09-19T13:05:36.198Z</time>
      </trkpt>
      <trkpt lat="46.82051" lon="15.3979">
        <ele>341.432411</ele>
        <time>2022-09-19T13:05:39.226Z</time>
      </trkpt>
      <trkpt lat="46.82039" lon="15.39787">
        <ele>341.644648</ele>
        <time>2022-09-19T13:05:42.224Z</time>
      </trkpt>
      <trkpt lat="46.82027" lon="15.39787">
        <ele>341.852285</ele>
        <time>2022-09-19T13:05:45.220Z</time>
      </trkpt>
      <trkpt lat="46.82015" lon="15.39786">
        <ele>342.075584</ele>
        <time>2022-09-19T13:05:48.241Z</time>
      </trkpt>
      <trkpt lat="46.82002" lon="15.39785">
        <ele>342.293926</ele>
        <time>2022-09-19T13:05:51.209Z</time>
      </trkpt>
      <trkpt lat="46.8199" lon="15.39784">
        <ele>342.505374</ele>
        <time>2022-09-19T13:05:54.194Z</time>
      </trkpt>
      <trkpt lat="46.81977" lon="15.39782">
        <ele>342.725111</ele>
        <time>2022-09-19T13:05:57.203Z</time>
      </trkpt>
      <trkpt lat="46.81965" lon="15.3978">
        <ele>342.939366</ele>
        <time>2022-09-19T13:06:00.202Z</time>
      </trkpt>
      <trkpt lat="46.81953" lon="15.39777">
        <ele>343.1563</ele>
        <time>2022-09-19T13:06:03.222Z</time>
      </trkpt>
      <trkpt lat="46.81941" lon="15.39774">
        <ele>343.373415</ele>
        <time>2022-09-19T13:06:06.207Z</time>
      </trkpt>
      <trkpt lat="46.81928" lon="15.39772">
        <ele>343.598649</ele>
        <time>2022-09-19T13:06:09.225Z</time>
      </trkpt>
      <trkpt lat="46.81915" lon="15.3977">
        <ele>343.821847</ele>
        <time>2022-09-19T13:06:12.213Z</time>
      </trkpt>
      <trkpt lat="46.81902" lon="15.39767">
        <ele>344.046777</ele>
        <time>2022-09-19T13:06:15.262Z</time>
      </trkpt>
      <trkpt lat="46.8189" lon="15.39765">
        <ele>344.263538</ele>
        <time>2022-09-19T13:06:18.210Z</time>
      </trkpt>
      <trkpt lat="46.81878" lon="15.39762">
        <ele>344.481698</ele>
        <time>2022-09-19T13:06:21.208Z</time>
      </trkpt>
      <trkpt lat="46.81865" lon="15.3976">
        <ele>344.71133</ele>
        <time>2022-09-19T13:06:24.215Z</time>
      </trkpt>
      <trkpt lat="46.81853" lon="15.39759">
        <ele>344.981602</ele>
        <time>2022-09-19T13:06:27.215Z</time>
      </trkpt>
      <trkpt lat="46.8184" lon="15.39756">
        <ele>345.258925</ele>
        <time>2022-09-19T13:06:30.185Z</time>
      </trkpt>
      <trkpt lat="46.81827" lon="15.39755">
        <ele>345.533627</ele>
        <time>2022-09-19T13:06:33.205Z</time>
      </trkpt>
      <trkpt lat="46.81815" lon="15.39753">
        <ele>345.808328</ele>
        <time>2022-09-19T13:06:36.220Z</time>
      </trkpt>
      <trkpt lat="46.81802" lon="15.39751">
        <ele>346.074175</ele>
        <time>2022-09-19T13:06:39.229Z</time>
      </trkpt>
      <trkpt lat="46.8179" lon="15.39749">
        <ele>346.332275</ele>
        <time>2022-09-19T13:06:42.219Z</time>
      </trkpt>
      <trkpt lat="46.81778" lon="15.39747">
        <ele>346.598916</ele>
        <time>2022-09-19T13:06:45.202Z</time>
      </trkpt>
      <trkpt lat="46.81766" lon="15.39744">
        <ele>346.861868</ele>
        <time>2022-09-19T13:06:48.215Z</time>
      </trkpt>
      <trkpt lat="46.81754" lon="15.39741">
        <ele>347.12503</ele>
        <time>2022-09-19T13:06:51.220Z</time>
      </trkpt>
      <trkpt lat="46.81742" lon="15.39739">
        <ele>347.385453</ele>
        <time>2022-09-19T13:06:54.222Z</time>
      </trkpt>
      <trkpt lat="46.8173" lon="15.39737">
        <ele>347.642015</ele>
        <time>2022-09-19T13:06:57.208Z</time>
      </trkpt>
      <trkpt lat="46.81719" lon="15.39734">
        <ele>347.890756</ele>
        <time>2022-09-19T13:07:00.235Z</time>
      </trkpt>
      <trkpt lat="46.81708" lon="15.39732">
        <ele>348.12986</ele>
        <time>2022-09-19T13:07:03.212Z</time>
      </trkpt>
      <trkpt lat="46.81696" lon="15.39729">
        <ele>348.37729</ele>
        <time>2022-09-19T13:07:06.209Z</time>
      </trkpt>
      <trkpt lat="46.81685" lon="15.39727">
        <ele>348.568458</ele>
        <time>2022-09-19T13:07:09.213Z</time>
      </trkpt>
      <trkpt lat="46.81675" lon="15.39725">
        <ele>348.690596</ele>
        <time>2022-09-19T13:07:12.205Z</time>
      </trkpt>
      <trkpt lat="46.81664" lon="15.39723">
        <ele>348.816484</ele>
        <time>2022-09-19T13:07:15.217Z</time>
      </trkpt>
      <trkpt lat="46.81653" lon="15.3972">
        <ele>348.94375</ele>
        <time>2022-09-19T13:07:18.226Z</time>
      </trkpt>
      <trkpt lat="46.81641" lon="15.39717">
        <ele>349.088141</ele>
        <time>2022-09-19T13:07:21.211Z</time>
      </trkpt>
      <trkpt lat="46.81629" lon="15.39713">
        <ele>349.220086</ele>
        <time>2022-09-19T13:07:24.217Z</time>
      </trkpt>
      <trkpt lat="46.81618" lon="15.3971">
        <ele>349.351872</ele>
        <time>2022-09-19T13:07:27.215Z</time>
      </trkpt>
      <trkpt lat="46.81606" lon="15.39706">
        <ele>349.494795</ele>
        <time>2022-09-19T13:07:30.206Z</time>
      </trkpt>
      <trkpt lat="46.81594" lon="15.39703">
        <ele>349.636257</ele>
        <time>2022-09-19T13:07:33.217Z</time>
      </trkpt>
      <trkpt lat="46.81582" lon="15.39698">
        <ele>349.775037</ele>
        <time>2022-09-19T13:07:36.217Z</time>
      </trkpt>
      <trkpt lat="46.81571" lon="15.39694">
        <ele>349.916245</ele>
        <time>2022-09-19T13:07:39.216Z</time>
      </trkpt>
      <trkpt lat="46.81558" lon="15.3969">
        <ele>350.060459</ele>
        <time>2022-09-19T13:07:42.261Z</time>
      </trkpt>
      <trkpt lat="46.81546" lon="15.39685">
        <ele>350.21381</ele>
        <time>2022-09-19T13:07:45.273Z</time>
      </trkpt>
      <trkpt lat="46.81532" lon="15.39681">
        <ele>350.369633</ele>
        <time>2022-09-19T13:07:48.216Z</time>
      </trkpt>
      <trkpt lat="46.81523" lon="15.39678">
        <ele>350.477065</ele>
        <time>2022-09-19T13:07:50.217Z</time>
      </trkpt>
      <trkpt lat="46.81514" lon="15.39674">
        <ele>350.591468</ele>
        <time>2022-09-19T13:07:52.218Z</time>
      </trkpt>
      <trkpt lat="46.81505" lon="15.39671">
        <ele>350.828133</ele>
        <time>2022-09-19T13:07:54.209Z</time>
      </trkpt>
      <trkpt lat="46.81496" lon="15.39668">
        <ele>351.060705</ele>
        <time>2022-09-19T13:07:56.278Z</time>
      </trkpt>
      <trkpt lat="46.81484" lon="15.39664">
        <ele>351.378861</ele>
        <time>2022-09-19T13:07:59.216Z</time>
      </trkpt>
      <trkpt lat="46.81472" lon="15.39661">
        <ele>351.686314</ele>
        <time>2022-09-19T13:08:02.261Z</time>
      </trkpt>
      <trkpt lat="46.8146" lon="15.39658">
        <ele>351.988989</ele>
        <time>2022-09-19T13:08:05.206Z</time>
      </trkpt>
      <trkpt lat="46.81449" lon="15.39655">
        <ele>352.282562</ele>
        <time>2022-09-19T13:08:08.241Z</time>
      </trkpt>
      <trkpt lat="46.8144" lon="15.39646">
        <ele>352.55803</ele>
        <time>2022-09-19T13:08:11.212Z</time>
      </trkpt>
      <trkpt lat="46.81433" lon="15.39632">
        <ele>352.866638</ele>
        <time>2022-09-19T13:08:14.213Z</time>
      </trkpt>
      <trkpt lat="46.81426" lon="15.39617">
        <ele>353.167908</ele>
        <time>2022-09-19T13:08:17.201Z</time>
      </trkpt>
      <trkpt lat="46.8142" lon="15.39602">
        <ele>353.492127</ele>
        <time>2022-09-19T13:08:20.236Z</time>
      </trkpt>
      <trkpt lat="46.81412" lon="15.39587">
        <ele>353.810655</ele>
        <time>2022-09-19T13:08:23.242Z</time>
      </trkpt>
      <trkpt lat="46.81405" lon="15.39573">
        <ele>354.126268</ele>
        <time>2022-09-19T13:08:26.208Z</time>
      </trkpt>
      <trkpt lat="46.81397" lon="15.3956">
        <ele>354.433584</ele>
        <time>2022-09-19T13:08:29.208Z</time>
      </trkpt>
      <trkpt lat="46.81388" lon="15.39547">
        <ele>354.742344</ele>
        <time>2022-09-19T13:08:32.211Z</time>
      </trkpt>
      <trkpt lat="46.81379" lon="15.39536">
        <ele>355.050597</ele>
        <time>2022-09-19T13:08:35.211Z</time>
      </trkpt>
      <trkpt lat="46.8137" lon="15.39525">
        <ele>355.225073</ele>
        <time>2022-09-19T13:08:38.212Z</time>
      </trkpt>
      <trkpt lat="46.81362" lon="15.39515">
        <ele>355.309544</ele>
        <time>2022-09-19T13:08:41.229Z</time>
      </trkpt>
      <trkpt lat="46.81355" lon="15.39506">
        <ele>355.387368</ele>
        <time>2022-09-19T13:08:44.219Z</time>
      </trkpt>
      <trkpt lat="46.81348" lon="15.39496">
        <ele>355.469661</ele>
        <time>2022-09-19T13:08:47.206Z</time>
      </trkpt>
      <trkpt lat="46.81339" lon="15.39485">
        <ele>355.565443</ele>
        <time>2022-09-19T13:08:50.257Z</time>
      </trkpt>
      <trkpt lat="46.81329" lon="15.39473">
        <ele>355.671559</ele>
        <time>2022-09-19T13:08:53.223Z</time>
      </trkpt>
      <trkpt lat="46.81319" lon="15.3946">
        <ele>355.779768</ele>
        <time>2022-09-19T13:08:56.222Z</time>
      </trkpt>
      <trkpt lat="46.81311" lon="15.39449">
        <ele>355.874441</ele>
        <time>2022-09-19T13:08:59.215Z</time>
      </trkpt>
      <trkpt lat="46.81302" lon="15.39438">
        <ele>355.966808</ele>
        <time>2022-09-19T13:09:02.209Z</time>
      </trkpt>
      <trkpt lat="46.81293" lon="15.39426">
        <ele>356.067682</ele>
        <time>2022-09-19T13:09:05.219Z</time>
      </trkpt>
      <trkpt lat="46.81283" lon="15.39413">
        <ele>356.176137</ele>
        <time>2022-09-19T13:09:08.214Z</time>
      </trkpt>
      <trkpt lat="46.81276" lon="15.39404">
        <ele>356.252223</ele>
        <time>2022-09-19T13:09:10.227Z</time>
      </trkpt>
      <trkpt lat="46.81269" lon="15.39394">
        <ele>356.329622</ele>
        <time>2022-09-19T13:09:12.205Z</time>
      </trkpt>
      <trkpt lat="46.81262" lon="15.39384">
        <ele>356.410367</ele>
        <time>2022-09-19T13:09:14.221Z</time>
      </trkpt>
      <trkpt lat="46.81255" lon="15.39374">
        <ele>356.48934</ele>
        <time>2022-09-19T13:09:16.196Z</time>
      </trkpt>
      <trkpt lat="46.81248" lon="15.39363">
        <ele>356.576957</ele>
        <time>2022-09-19T13:09:18.211Z</time>
      </trkpt>
      <trkpt lat="46.81241" lon="15.39352">
        <ele>356.625394</ele>
        <time>2022-09-19T13:09:20.220Z</time>
      </trkpt>
      <trkpt lat="46.81234" lon="15.39341">
        <ele>356.555259</ele>
        <time>2022-09-19T13:09:22.213Z</time>
      </trkpt>
      <trkpt lat="46.81227" lon="15.39331">
        <ele>356.488177</ele>
        <time>2022-09-19T13:09:24.228Z</time>
      </trkpt>
      <trkpt lat="46.8122" lon="15.39321">
        <ele>356.420598</ele>
        <time>2022-09-19T13:09:26.223Z</time>
      </trkpt>
      <trkpt lat="46.81214" lon="15.39312">
        <ele>356.357351</ele>
        <time>2022-09-19T13:09:28.196Z</time>
      </trkpt>
      <trkpt lat="46.81208" lon="15.39302">
        <ele>356.290903</ele>
        <time>2022-09-19T13:09:30.195Z</time>
      </trkpt>
      <trkpt lat="46.81201" lon="15.39292">
        <ele>356.225342</ele>
        <time>2022-09-19T13:09:32.216Z</time>
      </trkpt>
      <trkpt lat="46.81194" lon="15.39283">
        <ele>356.158775</ele>
        <time>2022-09-19T13:09:34.215Z</time>
      </trkpt>
      <trkpt lat="46.81188" lon="15.39273">
        <ele>356.094593</ele>
        <time>2022-09-19T13:09:36.218Z</time>
      </trkpt>
      <trkpt lat="46.81182" lon="15.39263">
        <ele>356.03021</ele>
        <time>2022-09-19T13:09:38.238Z</time>
      </trkpt>
      <trkpt lat="46.81175" lon="15.39254">
        <ele>355.966501</ele>
        <time>2022-09-19T13:09:40.211Z</time>
      </trkpt>
      <trkpt lat="46.81167" lon="15.39241">
        <ele>355.879733</ele>
        <time>2022-09-19T13:09:43.216Z</time>
      </trkpt>
      <trkpt lat="46.81158" lon="15.39228">
        <ele>355.794776</ele>
        <time>2022-09-19T13:09:46.216Z</time>
      </trkpt>
      <trkpt lat="46.8115" lon="15.39215">
        <ele>355.706133</ele>
        <time>2022-09-19T13:09:49.250Z</time>
      </trkpt>
      <trkpt lat="46.8114" lon="15.39201">
        <ele>355.609808</ele>
        <time>2022-09-19T13:09:52.216Z</time>
      </trkpt>
      <trkpt lat="46.81133" lon="15.39191">
        <ele>355.543563</ele>
        <time>2022-09-19T13:09:54.208Z</time>
      </trkpt>
      <trkpt lat="46.81128" lon="15.39181">
        <ele>355.478232</ele>
        <time>2022-09-19T13:09:56.261Z</time>
      </trkpt>
      <trkpt lat="46.81123" lon="15.39166">
        <ele>355.398745</ele>
        <time>2022-09-19T13:09:59.251Z</time>
      </trkpt>
      <trkpt lat="46.81123" lon="15.3915">
        <ele>355.238849</ele>
        <time>2022-09-19T13:10:02.225Z</time>
      </trkpt>
      <trkpt lat="46.81129" lon="15.39138">
        <ele>355.04852</ele>
        <time>2022-09-19T13:10:05.279Z</time>
      </trkpt>
      <trkpt lat="46.81139" lon="15.39124">
        <ele>354.802913</ele>
        <time>2022-09-19T13:10:08.212Z</time>
      </trkpt>
      <trkpt lat="46.81149" lon="15.39112">
        <ele>354.567885</ele>
        <time>2022-09-19T13:10:11.221Z</time>
      </trkpt>
      <trkpt lat="46.81158" lon="15.391">
        <ele>354.350839</ele>
        <time>2022-09-19T13:10:14.218Z</time>
      </trkpt>
      <trkpt lat="46.81166" lon="15.39088">
        <ele>354.135129</ele>
        <time>2022-09-19T13:10:17.211Z</time>
      </trkpt>
      <trkpt lat="46.81175" lon="15.39077">
        <ele>353.923773</ele>
        <time>2022-09-19T13:10:20.215Z</time>
      </trkpt>
      <trkpt lat="46.81183" lon="15.39066">
        <ele>353.718796</ele>
        <time>2022-09-19T13:10:23.217Z</time>
      </trkpt>
      <trkpt lat="46.81192" lon="15.39054">
        <ele>353.511311</ele>
        <time>2022-09-19T13:10:26.228Z</time>
      </trkpt>
      <trkpt lat="46.812" lon="15.39042">
        <ele>353.29825</ele>
        <time>2022-09-19T13:10:29.214Z</time>
      </trkpt>
      <trkpt lat="46.81208" lon="15.39031">
        <ele>353.089108</ele>
        <time>2022-09-19T13:10:32.220Z</time>
      </trkpt>
      <trkpt lat="46.81217" lon="15.39019">
        <ele>352.874727</ele>
        <time>2022-09-19T13:10:35.203Z</time>
      </trkpt>
      <trkpt lat="46.81226" lon="15.39007">
        <ele>352.65582</ele>
        <time>2022-09-19T13:10:38.240Z</time>
      </trkpt>
      <trkpt lat="46.81235" lon="15.38996">
        <ele>352.443134</ele>
        <time>2022-09-19T13:10:41.212Z</time>
      </trkpt>
      <trkpt lat="46.81243" lon="15.38984">
        <ele>352.237901</ele>
        <time>2022-09-19T13:10:44.196Z</time>
      </trkpt>
      <trkpt lat="46.81251" lon="15.38972">
        <ele>352.178062</ele>
        <time>2022-09-19T13:10:47.223Z</time>
      </trkpt>
      <trkpt lat="46.81259" lon="15.3896">
        <ele>352.352829</ele>
        <time>2022-09-19T13:10:50.215Z</time>
      </trkpt>
      <trkpt lat="46.81269" lon="15.38949">
        <ele>352.535384</ele>
        <time>2022-09-19T13:10:53.222Z</time>
      </trkpt>
      <trkpt lat="46.8128" lon="15.38949">
        <ele>352.713738</ele>
        <time>2022-09-19T13:10:56.206Z</time>
      </trkpt>
      <trkpt lat="46.81293" lon="15.38953">
        <ele>352.904644</ele>
        <time>2022-09-19T13:10:59.203Z</time>
      </trkpt>
      <trkpt lat="46.81305" lon="15.38957">
        <ele>353.095091</ele>
        <time>2022-09-19T13:11:02.222Z</time>
      </trkpt>
      <trkpt lat="46.81317" lon="15.3896">
        <ele>353.286889</ele>
        <time>2022-09-19T13:11:05.203Z</time>
      </trkpt>
      <trkpt lat="46.81329" lon="15.38964">
        <ele>353.467182</ele>
        <time>2022-09-19T13:11:08.208Z</time>
      </trkpt>
      <trkpt lat="46.8134" lon="15.38966">
        <ele>353.632287</ele>
        <time>2022-09-19T13:11:11.210Z</time>
      </trkpt>
      <trkpt lat="46.8135" lon="15.38968">
        <ele>353.781211</ele>
        <time>2022-09-19T13:11:14.209Z</time>
      </trkpt>
      <trkpt lat="46.81359" lon="15.38969">
        <ele>353.917897</ele>
        <time>2022-09-19T13:11:17.226Z</time>
      </trkpt>
      <trkpt lat="46.8137" lon="15.38969">
        <ele>354.081128</ele>
        <time>2022-09-19T13:11:21.250Z</time>
      </trkpt>
      <trkpt lat="46.8138" lon="15.38968">
        <ele>354.238527</ele>
        <time>2022-09-19T13:11:25.217Z</time>
      </trkpt>
      <trkpt lat="46.81389" lon="15.38966">
        <ele>354.382247</ele>
        <time>2022-09-19T13:11:29.244Z</time>
      </trkpt>
      <trkpt lat="46.814" lon="15.38963">
        <ele>354.54944</ele>
        <time>2022-09-19T13:11:34.210Z</time>
      </trkpt>
      <trkpt lat="46.81411" lon="15.38958">
        <ele>354.71627</ele>
        <time>2022-09-19T13:11:39.220Z</time>
      </trkpt>
      <trkpt lat="46.81419" lon="15.38954">
        <ele>354.898161</ele>
        <time>2022-09-19T13:11:43.211Z</time>
      </trkpt>
      <trkpt lat="46.81428" lon="15.38949">
        <ele>355.26793</ele>
        <time>2022-09-19T13:11:47.225Z</time>
      </trkpt>
      <trkpt lat="46.81437" lon="15.38942">
        <ele>355.649589</ele>
        <time>2022-09-19T13:11:51.253Z</time>
      </trkpt>
      <trkpt lat="46.81446" lon="15.38935">
        <ele>356.039413</ele>
        <time>2022-09-19T13:11:55.197Z</time>
      </trkpt>
      <trkpt lat="46.81454" lon="15.38925">
        <ele>356.455328</ele>
        <time>2022-09-19T13:11:59.236Z</time>
      </trkpt>
      <trkpt lat="46.81461" lon="15.38913">
        <ele>356.880459</ele>
        <time>2022-09-19T13:12:03.210Z</time>
      </trkpt>
      <trkpt lat="46.81464" lon="15.38898">
        <ele>357.289078</ele>
        <time>2022-09-19T13:12:07.222Z</time>
      </trkpt>
      <trkpt lat="46.81465" lon="15.38882">
        <ele>357.7266</ele>
        <time>2022-09-19T13:12:11.220Z</time>
      </trkpt>
      <trkpt lat="46.81467" lon="15.38867">
        <ele>358.140347</ele>
        <time>2022-09-19T13:12:15.221Z</time>
      </trkpt>
      <trkpt lat="46.8147" lon="15.38852">
        <ele>358.538439</ele>
        <time>2022-09-19T13:12:19.225Z</time>
      </trkpt>
      <trkpt lat="46.81473" lon="15.38838">
        <ele>358.948232</ele>
        <time>2022-09-19T13:12:23.205Z</time>
      </trkpt>
      <trkpt lat="46.81476" lon="15.38823">
        <ele>359.37061</ele>
        <time>2022-09-19T13:12:27.225Z</time>
      </trkpt>
      <trkpt lat="46.81481" lon="15.38808">
        <ele>359.787514</ele>
        <time>2022-09-19T13:12:31.229Z</time>
      </trkpt>
      <trkpt lat="46.81485" lon="15.38795">
        <ele>360.187972</ele>
        <time>2022-09-19T13:12:35.250Z</time>
      </trkpt>
      <trkpt lat="46.8149" lon="15.38783">
        <ele>360.559878</ele>
        <time>2022-09-19T13:12:39.211Z</time>
      </trkpt>
      <trkpt lat="46.81495" lon="15.38769">
        <ele>360.98355</ele>
        <time>2022-09-19T13:12:44.231Z</time>
      </trkpt>
      <trkpt lat="46.81502" lon="15.38757">
        <ele>361.405325</ele>
        <time>2022-09-19T13:12:49.214Z</time>
      </trkpt>
      <trkpt lat="46.81509" lon="15.38745">
        <ele>361.831375</ele>
        <time>2022-09-19T13:12:54.211Z</time>
      </trkpt>
      <trkpt lat="46.81516" lon="15.38732">
        <ele>362.311171</ele>
        <time>2022-09-19T13:12:59.222Z</time>
      </trkpt>
      <trkpt lat="46.81522" lon="15.38721">
        <ele>362.74076</ele>
        <time>2022-09-19T13:13:03.213Z</time>
      </trkpt>
      <trkpt lat="46.8153" lon="15.3871">
        <ele>363.214191</ele>
        <time>2022-09-19T13:13:08.214Z</time>
      </trkpt>
      <trkpt lat="46.81536" lon="15.38698">
        <ele>363.663194</ele>
        <time>2022-09-19T13:13:13.253Z</time>
      </trkpt>
      <trkpt lat="46.81542" lon="15.38686">
        <ele>364.103739</ele>
        <time>2022-09-19T13:13:18.195Z</time>
      </trkpt>
      <trkpt lat="46.81549" lon="15.38673">
        <ele>364.56909</ele>
        <time>2022-09-19T13:13:23.250Z</time>
      </trkpt>
      <trkpt lat="46.81555" lon="15.3866">
        <ele>365.049404</ele>
        <time>2022-09-19T13:13:28.222Z</time>
      </trkpt>
      <trkpt lat="46.81562" lon="15.38648">
        <ele>365.518212</ele>
        <time>2022-09-19T13:13:32.229Z</time>
      </trkpt>
      <trkpt lat="46.81569" lon="15.38635">
        <ele>365.998776</ele>
        <time>2022-09-19T13:13:37.193Z</time>
      </trkpt>
      <trkpt lat="46.81574" lon="15.38623">
        <ele>366.442366</ele>
        <time>2022-09-19T13:13:42.194Z</time>
      </trkpt>
      <trkpt lat="46.81579" lon="15.38609">
        <ele>366.908329</ele>
        <time>2022-09-19T13:13:48.192Z</time>
      </trkpt>
      <trkpt lat="46.81583" lon="15.38597">
        <ele>367.303918</ele>
        <time>2022-09-19T13:13:52.210Z</time>
      </trkpt>
      <trkpt lat="46.81587" lon="15.38581">
        <ele>367.799195</ele>
        <time>2022-09-19T13:13:57.201Z</time>
      </trkpt>
      <trkpt lat="46.8159" lon="15.38567">
        <ele>368.24928</ele>
        <time>2022-09-19T13:14:01.205Z</time>
      </trkpt>
      <trkpt lat="46.81594" lon="15.38553">
        <ele>368.711106</ele>
        <time>2022-09-19T13:14:05.219Z</time>
      </trkpt>
      <trkpt lat="46.81598" lon="15.38539">
        <ele>369.151934</ele>
        <time>2022-09-19T13:14:09.199Z</time>
      </trkpt>
      <trkpt lat="46.81602" lon="15.38525">
        <ele>369.587239</ele>
        <time>2022-09-19T13:14:13.224Z</time>
      </trkpt>
      <trkpt lat="46.81606" lon="15.38513">
        <ele>369.689412</ele>
        <time>2022-09-19T13:14:17.221Z</time>
      </trkpt>
      <trkpt lat="46.81611" lon="15.385">
        <ele>369.689412</ele>
        <time>2022-09-19T13:14:21.239Z</time>
      </trkpt>
      <trkpt lat="46.81617" lon="15.38487">
        <ele>369.689412</ele>
        <time>2022-09-19T13:14:26.201Z</time>
      </trkpt>
      <trkpt lat="46.81622" lon="15.38474">
        <ele>369.689412</ele>
        <time>2022-09-19T13:14:32.228Z</time>
      </trkpt>
      <trkpt lat="46.81627" lon="15.38463">
        <ele>369.689412</ele>
        <time>2022-09-19T13:14:39.204Z</time>
      </trkpt>
      <trkpt lat="46.81632" lon="15.38448">
        <ele>369.689412</ele>
        <time>2022-09-19T13:14:47.215Z</time>
      </trkpt>
      <trkpt lat="46.81637" lon="15.38436">
        <ele>369.689412</ele>
        <time>2022-09-19T13:14:53.209Z</time>
      </trkpt>
      <trkpt lat="46.8164" lon="15.38424">
        <ele>369.689412</ele>
        <time>2022-09-19T13:14:59.217Z</time>
      </trkpt>
      <trkpt lat="46.81645" lon="15.38411">
        <ele>369.689412</ele>
        <time>2022-09-19T13:15:06.237Z</time>
      </trkpt>
      <trkpt lat="46.81653" lon="15.38402">
        <ele>369.689412</ele>
        <time>2022-09-19T13:15:16.208Z</time>
      </trkpt>
      <trkpt lat="46.81655" lon="15.38397">
        <ele>369.689412</ele>
        <time>2022-09-19T13:17:41.242Z</time>
      </trkpt>
    </trkseg>
  </trk>
</gpx>